<?xml version="1.0" encoding="UTF-8" standalone="no" ?>
<gpx xmlns="http://www.topografix.com/GPX/1/1" xmlns:xsi="http://www.w3.org/2001/XMLSchema-instance" xsi:schemaLocation="http://www.topografix.com/GPX/1/1 http://www.topografix.com/GPX/1/1/gpx.xsd" version="1.1" creator="VisuGPX - https://www.visugpx.com">
  <metadata>
    <name>20140828 Dent d Oche Chapelle d\'Abondance</name>
    <desc><![CDATA[3ème étape du circuit du GR5 Thonon les bains Chamonix]]></desc>
  </metadata>
  <trk>
    <name><![CDATA[20140828 Dent d Oche Chapelle d\'Abondance_1]]></name>
    <trkseg>
      <trkpt lat="46.35292" lon="6.72875">
        <ele>2124.8</ele>
        <time>2014-08-28T08:04:42Z</time>
      </trkpt>
      <trkpt lat="46.35284" lon="6.7288">
        <ele>2124.8</ele>
        <time>2014-08-28T08:04:47Z</time>
      </trkpt>
      <trkpt lat="46.35281" lon="6.72886">
        <ele>2131.138</ele>
        <time>2014-08-28T08:04:52Z</time>
      </trkpt>
      <trkpt lat="46.35278" lon="6.72895">
        <ele>2131.138</ele>
        <time>2014-08-28T08:05:02Z</time>
      </trkpt>
      <trkpt lat="46.35274" lon="6.72901">
        <ele>2143.8298</ele>
        <time>2014-08-28T08:05:07Z</time>
      </trkpt>
      <trkpt lat="46.35275" lon="6.72904">
        <ele>2143.8298</ele>
        <time>2014-08-28T08:05:12Z</time>
      </trkpt>
      <trkpt lat="46.35274" lon="6.72906">
        <ele>2143.8298</ele>
        <time>2014-08-28T08:05:17Z</time>
      </trkpt>
      <trkpt lat="46.35273" lon="6.72908">
        <ele>2143.8298</ele>
        <time>2014-08-28T08:05:22Z</time>
      </trkpt>
      <trkpt lat="46.35272" lon="6.72914">
        <ele>2154.7446</ele>
        <time>2014-08-28T08:05:27Z</time>
      </trkpt>
      <trkpt lat="46.35271" lon="6.7292">
        <ele>2154.7446</ele>
        <time>2014-08-28T08:05:32Z</time>
      </trkpt>
      <trkpt lat="46.3527" lon="6.7292">
        <ele>2154.7446</ele>
        <time>2014-08-28T08:05:37Z</time>
      </trkpt>
      <trkpt lat="46.3527" lon="6.7292">
        <ele>2154.7446</ele>
        <time>2014-08-28T08:05:42Z</time>
      </trkpt>
      <trkpt lat="46.35269" lon="6.7292">
        <ele>2154.7446</ele>
        <time>2014-08-28T08:05:47Z</time>
      </trkpt>
      <trkpt lat="46.35266" lon="6.72922">
        <ele>2164.6938</ele>
        <time>2014-08-28T08:05:52Z</time>
      </trkpt>
      <trkpt lat="46.35265" lon="6.72923">
        <ele>2164.6938</ele>
        <time>2014-08-28T08:05:57Z</time>
      </trkpt>
      <trkpt lat="46.35265" lon="6.72923">
        <ele>2164.6938</ele>
        <time>2014-08-28T08:06:02Z</time>
      </trkpt>
      <trkpt lat="46.35264" lon="6.72922">
        <ele>2164.6938</ele>
        <time>2014-08-28T08:06:07Z</time>
      </trkpt>
      <trkpt lat="46.35264" lon="6.72922">
        <ele>2164.6938</ele>
        <time>2014-08-28T08:06:12Z</time>
      </trkpt>
      <trkpt lat="46.35264" lon="6.72921">
        <ele>2164.6938</ele>
        <time>2014-08-28T08:06:17Z</time>
      </trkpt>
      <trkpt lat="46.35264" lon="6.72921">
        <ele>2164.6938</ele>
        <time>2014-08-28T08:06:22Z</time>
      </trkpt>
      <trkpt lat="46.35264" lon="6.72921">
        <ele>2164.6938</ele>
        <time>2014-08-28T08:06:27Z</time>
      </trkpt>
      <trkpt lat="46.35263" lon="6.72922">
        <ele>2164.6938</ele>
        <time>2014-08-28T08:06:32Z</time>
      </trkpt>
      <trkpt lat="46.35262" lon="6.72923">
        <ele>2164.6938</ele>
        <time>2014-08-28T08:06:37Z</time>
      </trkpt>
      <trkpt lat="46.35262" lon="6.72923">
        <ele>2164.6938</ele>
        <time>2014-08-28T08:06:42Z</time>
      </trkpt>
      <trkpt lat="46.35262" lon="6.72924">
        <ele>2164.6938</ele>
        <time>2014-08-28T08:06:47Z</time>
      </trkpt>
      <trkpt lat="46.35261" lon="6.72925">
        <ele>2164.6938</ele>
        <time>2014-08-28T08:06:52Z</time>
      </trkpt>
      <trkpt lat="46.35261" lon="6.72925">
        <ele>2164.6938</ele>
        <time>2014-08-28T08:06:57Z</time>
      </trkpt>
      <trkpt lat="46.35262" lon="6.72925">
        <ele>2174.6143</ele>
        <time>2014-08-28T08:07:02Z</time>
      </trkpt>
      <trkpt lat="46.35263" lon="6.72924">
        <ele>2174.6143</ele>
        <time>2014-08-28T08:07:07Z</time>
      </trkpt>
      <trkpt lat="46.35265" lon="6.72924">
        <ele>2174.6143</ele>
        <time>2014-08-28T08:07:12Z</time>
      </trkpt>
      <trkpt lat="46.35264" lon="6.72925">
        <ele>2174.6143</ele>
        <time>2014-08-28T08:07:17Z</time>
      </trkpt>
      <trkpt lat="46.35264" lon="6.72926">
        <ele>2174.6143</ele>
        <time>2014-08-28T08:07:22Z</time>
      </trkpt>
      <trkpt lat="46.35264" lon="6.72926">
        <ele>2174.6143</ele>
        <time>2014-08-28T08:07:27Z</time>
      </trkpt>
      <trkpt lat="46.35266" lon="6.72926">
        <ele>2174.6143</ele>
        <time>2014-08-28T08:07:32Z</time>
      </trkpt>
      <trkpt lat="46.35266" lon="6.72927">
        <ele>2174.6143</ele>
        <time>2014-08-28T08:07:37Z</time>
      </trkpt>
      <trkpt lat="46.35267" lon="6.72927">
        <ele>2174.6143</ele>
        <time>2014-08-28T08:07:42Z</time>
      </trkpt>
      <trkpt lat="46.35268" lon="6.72926">
        <ele>2184.5493</ele>
        <time>2014-08-28T08:07:47Z</time>
      </trkpt>
      <trkpt lat="46.35269" lon="6.72926">
        <ele>2184.5493</ele>
        <time>2014-08-28T08:07:52Z</time>
      </trkpt>
      <trkpt lat="46.35269" lon="6.72926">
        <ele>2184.5493</ele>
        <time>2014-08-28T08:07:57Z</time>
      </trkpt>
      <trkpt lat="46.35268" lon="6.72927">
        <ele>2184.5493</ele>
        <time>2014-08-28T08:08:02Z</time>
      </trkpt>
      <trkpt lat="46.35268" lon="6.72928">
        <ele>2184.5493</ele>
        <time>2014-08-28T08:08:07Z</time>
      </trkpt>
      <trkpt lat="46.35267" lon="6.72929">
        <ele>2184.5493</ele>
        <time>2014-08-28T08:08:12Z</time>
      </trkpt>
      <trkpt lat="46.35267" lon="6.7293">
        <ele>2184.5493</ele>
        <time>2014-08-28T08:08:17Z</time>
      </trkpt>
      <trkpt lat="46.35267" lon="6.72931">
        <ele>2184.5493</ele>
        <time>2014-08-28T08:08:22Z</time>
      </trkpt>
      <trkpt lat="46.35268" lon="6.72933">
        <ele>2184.5493</ele>
        <time>2014-08-28T08:08:27Z</time>
      </trkpt>
      <trkpt lat="46.35268" lon="6.72934">
        <ele>2184.5493</ele>
        <time>2014-08-28T08:08:32Z</time>
      </trkpt>
      <trkpt lat="46.35268" lon="6.72936">
        <ele>2184.5493</ele>
        <time>2014-08-28T08:08:37Z</time>
      </trkpt>
      <trkpt lat="46.35269" lon="6.72936">
        <ele>2193.6443</ele>
        <time>2014-08-28T08:08:42Z</time>
      </trkpt>
      <trkpt lat="46.3527" lon="6.72936">
        <ele>2193.6443</ele>
        <time>2014-08-28T08:08:47Z</time>
      </trkpt>
      <trkpt lat="46.35271" lon="6.72937">
        <ele>2193.6443</ele>
        <time>2014-08-28T08:08:52Z</time>
      </trkpt>
      <trkpt lat="46.35272" lon="6.72938">
        <ele>2193.6443</ele>
        <time>2014-08-28T08:08:57Z</time>
      </trkpt>
      <trkpt lat="46.3527" lon="6.7294">
        <ele>2193.6443</ele>
        <time>2014-08-28T08:09:02Z</time>
      </trkpt>
      <trkpt lat="46.3527" lon="6.72941">
        <ele>2193.6443</ele>
        <time>2014-08-28T08:09:07Z</time>
      </trkpt>
      <trkpt lat="46.35271" lon="6.72942">
        <ele>2193.6443</ele>
        <time>2014-08-28T08:09:12Z</time>
      </trkpt>
      <trkpt lat="46.35271" lon="6.72944">
        <ele>2201.6624</ele>
        <time>2014-08-28T08:09:17Z</time>
      </trkpt>
      <trkpt lat="46.35272" lon="6.72945">
        <ele>2201.6624</ele>
        <time>2014-08-28T08:09:22Z</time>
      </trkpt>
      <trkpt lat="46.35272" lon="6.72946">
        <ele>2201.6624</ele>
        <time>2014-08-28T08:09:27Z</time>
      </trkpt>
      <trkpt lat="46.35273" lon="6.72946">
        <ele>2201.6624</ele>
        <time>2014-08-28T08:09:32Z</time>
      </trkpt>
      <trkpt lat="46.35273" lon="6.72947">
        <ele>2201.6624</ele>
        <time>2014-08-28T08:09:37Z</time>
      </trkpt>
      <trkpt lat="46.35275" lon="6.72947">
        <ele>2201.6624</ele>
        <time>2014-08-28T08:09:42Z</time>
      </trkpt>
      <trkpt lat="46.35278" lon="6.72947">
        <ele>2201.6624</ele>
        <time>2014-08-28T08:09:47Z</time>
      </trkpt>
      <trkpt lat="46.35279" lon="6.72948">
        <ele>2208.3748</ele>
        <time>2014-08-28T08:09:52Z</time>
      </trkpt>
      <trkpt lat="46.35278" lon="6.72949">
        <ele>2208.3748</ele>
        <time>2014-08-28T08:09:57Z</time>
      </trkpt>
      <trkpt lat="46.35278" lon="6.72951">
        <ele>2208.3748</ele>
        <time>2014-08-28T08:10:02Z</time>
      </trkpt>
      <trkpt lat="46.35277" lon="6.72952">
        <ele>2208.3748</ele>
        <time>2014-08-28T08:10:07Z</time>
      </trkpt>
      <trkpt lat="46.35278" lon="6.72954">
        <ele>2208.3748</ele>
        <time>2014-08-28T08:10:12Z</time>
      </trkpt>
      <trkpt lat="46.35277" lon="6.72957">
        <ele>2208.3748</ele>
        <time>2014-08-28T08:10:17Z</time>
      </trkpt>
      <trkpt lat="46.35277" lon="6.72959">
        <ele>2208.3748</ele>
        <time>2014-08-28T08:10:22Z</time>
      </trkpt>
      <trkpt lat="46.35277" lon="6.72959">
        <ele>2213.7627</ele>
        <time>2014-08-28T08:10:27Z</time>
      </trkpt>
      <trkpt lat="46.35278" lon="6.7296">
        <ele>2213.7627</ele>
        <time>2014-08-28T08:10:32Z</time>
      </trkpt>
      <trkpt lat="46.35277" lon="6.72961">
        <ele>2213.7627</ele>
        <time>2014-08-28T08:10:37Z</time>
      </trkpt>
      <trkpt lat="46.35275" lon="6.72963">
        <ele>2213.7627</ele>
        <time>2014-08-28T08:10:42Z</time>
      </trkpt>
      <trkpt lat="46.35275" lon="6.72964">
        <ele>2213.7627</ele>
        <time>2014-08-28T08:10:47Z</time>
      </trkpt>
      <trkpt lat="46.35273" lon="6.72966">
        <ele>2213.7627</ele>
        <time>2014-08-28T08:10:52Z</time>
      </trkpt>
      <trkpt lat="46.35274" lon="6.72966">
        <ele>2213.7627</ele>
        <time>2014-08-28T08:10:57Z</time>
      </trkpt>
      <trkpt lat="46.35275" lon="6.72967">
        <ele>2213.7627</ele>
        <time>2014-08-28T08:11:02Z</time>
      </trkpt>
      <trkpt lat="46.35276" lon="6.72967">
        <ele>2218.0947</ele>
        <time>2014-08-28T08:11:07Z</time>
      </trkpt>
      <trkpt lat="46.35277" lon="6.72967">
        <ele>2218.0947</ele>
        <time>2014-08-28T08:11:12Z</time>
      </trkpt>
      <trkpt lat="46.35279" lon="6.72967">
        <ele>2218.0947</ele>
        <time>2014-08-28T08:11:17Z</time>
      </trkpt>
      <trkpt lat="46.35277" lon="6.72969">
        <ele>2218.0947</ele>
        <time>2014-08-28T08:11:22Z</time>
      </trkpt>
      <trkpt lat="46.35277" lon="6.7297">
        <ele>2218.0947</ele>
        <time>2014-08-28T08:11:27Z</time>
      </trkpt>
      <trkpt lat="46.35277" lon="6.7297">
        <ele>2218.0947</ele>
        <time>2014-08-28T08:11:32Z</time>
      </trkpt>
      <trkpt lat="46.35279" lon="6.7297">
        <ele>2218.0947</ele>
        <time>2014-08-28T08:11:37Z</time>
      </trkpt>
      <trkpt lat="46.35279" lon="6.72971">
        <ele>2218.0947</ele>
        <time>2014-08-28T08:11:42Z</time>
      </trkpt>
      <trkpt lat="46.35278" lon="6.72972">
        <ele>2221.37</ele>
        <time>2014-08-28T08:11:47Z</time>
      </trkpt>
      <trkpt lat="46.35279" lon="6.72973">
        <ele>2221.37</ele>
        <time>2014-08-28T08:11:52Z</time>
      </trkpt>
      <trkpt lat="46.3528" lon="6.72974">
        <ele>2221.37</ele>
        <time>2014-08-28T08:11:57Z</time>
      </trkpt>
      <trkpt lat="46.3528" lon="6.72975">
        <ele>2221.37</ele>
        <time>2014-08-28T08:12:02Z</time>
      </trkpt>
      <trkpt lat="46.3528" lon="6.72977">
        <ele>2221.37</ele>
        <time>2014-08-28T08:12:07Z</time>
      </trkpt>
      <trkpt lat="46.35278" lon="6.72978">
        <ele>2221.37</ele>
        <time>2014-08-28T08:12:12Z</time>
      </trkpt>
      <trkpt lat="46.35278" lon="6.72978">
        <ele>2221.37</ele>
        <time>2014-08-28T08:12:17Z</time>
      </trkpt>
      <trkpt lat="46.35277" lon="6.7298">
        <ele>2221.37</ele>
        <time>2014-08-28T08:12:22Z</time>
      </trkpt>
      <trkpt lat="46.35277" lon="6.7298">
        <ele>2223.6152</ele>
        <time>2014-08-28T08:12:27Z</time>
      </trkpt>
      <trkpt lat="46.35276" lon="6.72981">
        <ele>2223.6152</ele>
        <time>2014-08-28T08:12:32Z</time>
      </trkpt>
      <trkpt lat="46.35276" lon="6.72982">
        <ele>2223.6152</ele>
        <time>2014-08-28T08:12:37Z</time>
      </trkpt>
      <trkpt lat="46.35276" lon="6.72982">
        <ele>2223.6152</ele>
        <time>2014-08-28T08:12:42Z</time>
      </trkpt>
      <trkpt lat="46.35274" lon="6.72983">
        <ele>2223.6152</ele>
        <time>2014-08-28T08:12:47Z</time>
      </trkpt>
      <trkpt lat="46.35275" lon="6.72983">
        <ele>2223.6152</ele>
        <time>2014-08-28T08:12:52Z</time>
      </trkpt>
      <trkpt lat="46.35275" lon="6.72983">
        <ele>2223.6152</ele>
        <time>2014-08-28T08:12:57Z</time>
      </trkpt>
      <trkpt lat="46.35275" lon="6.72984">
        <ele>2223.6152</ele>
        <time>2014-08-28T08:13:02Z</time>
      </trkpt>
      <trkpt lat="46.35274" lon="6.72984">
        <ele>2223.6152</ele>
        <time>2014-08-28T08:13:07Z</time>
      </trkpt>
      <trkpt lat="46.35272" lon="6.72992">
        <ele>2225.3218</ele>
        <time>2014-08-28T08:13:12Z</time>
      </trkpt>
      <trkpt lat="46.35272" lon="6.72993">
        <ele>2225.3218</ele>
        <time>2014-08-28T08:13:17Z</time>
      </trkpt>
      <trkpt lat="46.35271" lon="6.72996">
        <ele>2225.3218</ele>
        <time>2014-08-28T08:13:22Z</time>
      </trkpt>
      <trkpt lat="46.35271" lon="6.72997">
        <ele>2225.3218</ele>
        <time>2014-08-28T08:13:27Z</time>
      </trkpt>
      <trkpt lat="46.35271" lon="6.72999">
        <ele>2225.3218</ele>
        <time>2014-08-28T08:13:32Z</time>
      </trkpt>
      <trkpt lat="46.35271" lon="6.72998">
        <ele>2225.3218</ele>
        <time>2014-08-28T08:13:37Z</time>
      </trkpt>
      <trkpt lat="46.35271" lon="6.72999">
        <ele>2225.3218</ele>
        <time>2014-08-28T08:13:42Z</time>
      </trkpt>
      <trkpt lat="46.35271" lon="6.73001">
        <ele>2225.3218</ele>
        <time>2014-08-28T08:13:47Z</time>
      </trkpt>
      <trkpt lat="46.35271" lon="6.73001">
        <ele>2225.3218</ele>
        <time>2014-08-28T08:13:52Z</time>
      </trkpt>
      <trkpt lat="46.35271" lon="6.73">
        <ele>2225.3218</ele>
        <time>2014-08-28T08:13:57Z</time>
      </trkpt>
      <trkpt lat="46.35271" lon="6.73001">
        <ele>2225.3218</ele>
        <time>2014-08-28T08:14:02Z</time>
      </trkpt>
      <trkpt lat="46.35271" lon="6.73003">
        <ele>2226.6648</ele>
        <time>2014-08-28T08:14:07Z</time>
      </trkpt>
      <trkpt lat="46.3527" lon="6.73004">
        <ele>2226.6648</ele>
        <time>2014-08-28T08:14:12Z</time>
      </trkpt>
      <trkpt lat="46.3527" lon="6.73004">
        <ele>2226.6648</ele>
        <time>2014-08-28T08:14:17Z</time>
      </trkpt>
      <trkpt lat="46.35269" lon="6.73006">
        <ele>2226.6648</ele>
        <time>2014-08-28T08:14:22Z</time>
      </trkpt>
      <trkpt lat="46.35269" lon="6.73005">
        <ele>2226.6648</ele>
        <time>2014-08-28T08:14:27Z</time>
      </trkpt>
      <trkpt lat="46.35269" lon="6.73004">
        <ele>2226.6648</ele>
        <time>2014-08-28T08:14:32Z</time>
      </trkpt>
      <trkpt lat="46.35269" lon="6.73001">
        <ele>2226.6648</ele>
        <time>2014-08-28T08:14:37Z</time>
      </trkpt>
      <trkpt lat="46.35269" lon="6.73001">
        <ele>2226.6648</ele>
        <time>2014-08-28T08:14:42Z</time>
      </trkpt>
      <trkpt lat="46.35269" lon="6.73">
        <ele>2226.6648</ele>
        <time>2014-08-28T08:14:47Z</time>
      </trkpt>
      <trkpt lat="46.35268" lon="6.73001">
        <ele>2226.6648</ele>
        <time>2014-08-28T08:14:52Z</time>
      </trkpt>
      <trkpt lat="46.35267" lon="6.73002">
        <ele>2227.5317</ele>
        <time>2014-08-28T08:14:57Z</time>
      </trkpt>
      <trkpt lat="46.35266" lon="6.73003">
        <ele>2227.5317</ele>
        <time>2014-08-28T08:15:02Z</time>
      </trkpt>
      <trkpt lat="46.35266" lon="6.73001">
        <ele>2227.5317</ele>
        <time>2014-08-28T08:15:07Z</time>
      </trkpt>
      <trkpt lat="46.35265" lon="6.73002">
        <ele>2227.5317</ele>
        <time>2014-08-28T08:15:12Z</time>
      </trkpt>
      <trkpt lat="46.35265" lon="6.73">
        <ele>2227.5317</ele>
        <time>2014-08-28T08:15:17Z</time>
      </trkpt>
      <trkpt lat="46.35265" lon="6.72999">
        <ele>2227.5317</ele>
        <time>2014-08-28T08:15:22Z</time>
      </trkpt>
      <trkpt lat="46.35265" lon="6.72999">
        <ele>2227.5317</ele>
        <time>2014-08-28T08:15:27Z</time>
      </trkpt>
      <trkpt lat="46.35265" lon="6.72996">
        <ele>2228.3845</ele>
        <time>2014-08-28T08:15:32Z</time>
      </trkpt>
      <trkpt lat="46.35265" lon="6.72995">
        <ele>2228.3845</ele>
        <time>2014-08-28T08:15:37Z</time>
      </trkpt>
      <trkpt lat="46.35264" lon="6.72996">
        <ele>2228.3845</ele>
        <time>2014-08-28T08:15:42Z</time>
      </trkpt>
      <trkpt lat="46.35263" lon="6.72996">
        <ele>2228.3845</ele>
        <time>2014-08-28T08:15:47Z</time>
      </trkpt>
      <trkpt lat="46.35262" lon="6.72998">
        <ele>2228.3845</ele>
        <time>2014-08-28T08:15:52Z</time>
      </trkpt>
      <trkpt lat="46.35262" lon="6.72997">
        <ele>2228.3845</ele>
        <time>2014-08-28T08:15:57Z</time>
      </trkpt>
      <trkpt lat="46.35261" lon="6.72997">
        <ele>2228.3845</ele>
        <time>2014-08-28T08:16:02Z</time>
      </trkpt>
      <trkpt lat="46.35261" lon="6.72996">
        <ele>2228.3845</ele>
        <time>2014-08-28T08:16:07Z</time>
      </trkpt>
      <trkpt lat="46.35262" lon="6.72993">
        <ele>2228.3845</ele>
        <time>2014-08-28T08:16:12Z</time>
      </trkpt>
      <trkpt lat="46.35261" lon="6.72993">
        <ele>2228.3845</ele>
        <time>2014-08-28T08:16:17Z</time>
      </trkpt>
      <trkpt lat="46.35262" lon="6.72991">
        <ele>2229.308</ele>
        <time>2014-08-28T08:16:22Z</time>
      </trkpt>
      <trkpt lat="46.35262" lon="6.72989">
        <ele>2229.308</ele>
        <time>2014-08-28T08:16:27Z</time>
      </trkpt>
      <trkpt lat="46.35261" lon="6.72989">
        <ele>2229.308</ele>
        <time>2014-08-28T08:16:32Z</time>
      </trkpt>
      <trkpt lat="46.35259" lon="6.7299">
        <ele>2229.308</ele>
        <time>2014-08-28T08:16:37Z</time>
      </trkpt>
      <trkpt lat="46.35258" lon="6.72991">
        <ele>2229.308</ele>
        <time>2014-08-28T08:16:42Z</time>
      </trkpt>
      <trkpt lat="46.35256" lon="6.72993">
        <ele>2229.308</ele>
        <time>2014-08-28T08:16:47Z</time>
      </trkpt>
      <trkpt lat="46.35254" lon="6.72993">
        <ele>2229.9146</ele>
        <time>2014-08-28T08:16:52Z</time>
      </trkpt>
      <trkpt lat="46.35254" lon="6.72992">
        <ele>2229.9146</ele>
        <time>2014-08-28T08:16:57Z</time>
      </trkpt>
      <trkpt lat="46.35253" lon="6.72992">
        <ele>2229.9146</ele>
        <time>2014-08-28T08:17:02Z</time>
      </trkpt>
      <trkpt lat="46.35251" lon="6.72994">
        <ele>2229.9146</ele>
        <time>2014-08-28T08:17:07Z</time>
      </trkpt>
      <trkpt lat="46.35251" lon="6.72993">
        <ele>2229.9146</ele>
        <time>2014-08-28T08:17:12Z</time>
      </trkpt>
      <trkpt lat="46.3525" lon="6.72992">
        <ele>2229.9146</ele>
        <time>2014-08-28T08:17:17Z</time>
      </trkpt>
      <trkpt lat="46.3525" lon="6.72992">
        <ele>2229.9146</ele>
        <time>2014-08-28T08:17:22Z</time>
      </trkpt>
      <trkpt lat="46.3525" lon="6.72991">
        <ele>2229.9146</ele>
        <time>2014-08-28T08:17:27Z</time>
      </trkpt>
      <trkpt lat="46.35251" lon="6.72988">
        <ele>2229.9146</ele>
        <time>2014-08-28T08:17:32Z</time>
      </trkpt>
      <trkpt lat="46.35252" lon="6.72986">
        <ele>2230.4639</ele>
        <time>2014-08-28T08:17:37Z</time>
      </trkpt>
      <trkpt lat="46.35252" lon="6.72986">
        <ele>2230.4639</ele>
        <time>2014-08-28T08:17:42Z</time>
      </trkpt>
      <trkpt lat="46.35253" lon="6.72987">
        <ele>2230.4639</ele>
        <time>2014-08-28T08:17:47Z</time>
      </trkpt>
      <trkpt lat="46.35253" lon="6.7299">
        <ele>2230.4639</ele>
        <time>2014-08-28T08:17:52Z</time>
      </trkpt>
      <trkpt lat="46.35253" lon="6.7299">
        <ele>2230.4639</ele>
        <time>2014-08-28T08:17:57Z</time>
      </trkpt>
      <trkpt lat="46.35253" lon="6.72992">
        <ele>2230.4639</ele>
        <time>2014-08-28T08:18:02Z</time>
      </trkpt>
      <trkpt lat="46.35254" lon="6.7299">
        <ele>2230.4639</ele>
        <time>2014-08-28T08:18:07Z</time>
      </trkpt>
      <trkpt lat="46.35254" lon="6.72991">
        <ele>2230.4639</ele>
        <time>2014-08-28T08:18:12Z</time>
      </trkpt>
      <trkpt lat="46.35253" lon="6.72992">
        <ele>2230.4639</ele>
        <time>2014-08-28T08:18:17Z</time>
      </trkpt>
      <trkpt lat="46.35253" lon="6.72992">
        <ele>2230.4639</ele>
        <time>2014-08-28T08:18:22Z</time>
      </trkpt>
      <trkpt lat="46.35253" lon="6.72995">
        <ele>2231.5276</ele>
        <time>2014-08-28T08:18:27Z</time>
      </trkpt>
      <trkpt lat="46.35253" lon="6.72996">
        <ele>2231.5276</ele>
        <time>2014-08-28T08:18:32Z</time>
      </trkpt>
      <trkpt lat="46.35253" lon="6.72997">
        <ele>2231.5276</ele>
        <time>2014-08-28T08:18:37Z</time>
      </trkpt>
      <trkpt lat="46.35253" lon="6.72997">
        <ele>2231.5276</ele>
        <time>2014-08-28T08:18:42Z</time>
      </trkpt>
      <trkpt lat="46.35253" lon="6.72997">
        <ele>2231.5276</ele>
        <time>2014-08-28T08:18:47Z</time>
      </trkpt>
      <trkpt lat="46.35254" lon="6.72996">
        <ele>2231.5276</ele>
        <time>2014-08-28T08:18:52Z</time>
      </trkpt>
      <trkpt lat="46.35253" lon="6.72998">
        <ele>2231.5276</ele>
        <time>2014-08-28T08:18:57Z</time>
      </trkpt>
      <trkpt lat="46.35254" lon="6.72997">
        <ele>2231.5276</ele>
        <time>2014-08-28T08:19:02Z</time>
      </trkpt>
      <trkpt lat="46.35253" lon="6.72998">
        <ele>2231.5276</ele>
        <time>2014-08-28T08:19:07Z</time>
      </trkpt>
      <trkpt lat="46.35254" lon="6.72998">
        <ele>2231.5276</ele>
        <time>2014-08-28T08:19:12Z</time>
      </trkpt>
      <trkpt lat="46.35254" lon="6.72998">
        <ele>2231.5276</ele>
        <time>2014-08-28T08:19:17Z</time>
      </trkpt>
      <trkpt lat="46.35254" lon="6.72999">
        <ele>2231.5276</ele>
        <time>2014-08-28T08:19:22Z</time>
      </trkpt>
      <trkpt lat="46.35255" lon="6.73">
        <ele>2231.5276</ele>
        <time>2014-08-28T08:19:27Z</time>
      </trkpt>
      <trkpt lat="46.35256" lon="6.72999">
        <ele>2231.5276</ele>
        <time>2014-08-28T08:19:32Z</time>
      </trkpt>
      <trkpt lat="46.35256" lon="6.73001">
        <ele>2232.3577</ele>
        <time>2014-08-28T08:19:37Z</time>
      </trkpt>
      <trkpt lat="46.35257" lon="6.73001">
        <ele>2232.3577</ele>
        <time>2014-08-28T08:19:42Z</time>
      </trkpt>
      <trkpt lat="46.35258" lon="6.72999">
        <ele>2232.3577</ele>
        <time>2014-08-28T08:19:47Z</time>
      </trkpt>
      <trkpt lat="46.35259" lon="6.73">
        <ele>2232.3577</ele>
        <time>2014-08-28T08:19:52Z</time>
      </trkpt>
      <trkpt lat="46.35259" lon="6.73">
        <ele>2232.3577</ele>
        <time>2014-08-28T08:19:57Z</time>
      </trkpt>
      <trkpt lat="46.35259" lon="6.73002">
        <ele>2232.3577</ele>
        <time>2014-08-28T08:20:02Z</time>
      </trkpt>
      <trkpt lat="46.3526" lon="6.73002">
        <ele>2232.3577</ele>
        <time>2014-08-28T08:20:07Z</time>
      </trkpt>
      <trkpt lat="46.3526" lon="6.73002">
        <ele>2232.3577</ele>
        <time>2014-08-28T08:20:12Z</time>
      </trkpt>
      <trkpt lat="46.35261" lon="6.73004">
        <ele>2232.3577</ele>
        <time>2014-08-28T08:20:17Z</time>
      </trkpt>
      <trkpt lat="46.35261" lon="6.73004">
        <ele>2232.3577</ele>
        <time>2014-08-28T08:20:22Z</time>
      </trkpt>
      <trkpt lat="46.35263" lon="6.73001">
        <ele>2233.254</ele>
        <time>2014-08-28T08:20:27Z</time>
      </trkpt>
      <trkpt lat="46.35264" lon="6.72999">
        <ele>2233.254</ele>
        <time>2014-08-28T08:20:32Z</time>
      </trkpt>
      <trkpt lat="46.35265" lon="6.72998">
        <ele>2233.254</ele>
        <time>2014-08-28T08:20:37Z</time>
      </trkpt>
      <trkpt lat="46.35265" lon="6.72999">
        <ele>2233.254</ele>
        <time>2014-08-28T08:20:42Z</time>
      </trkpt>
      <trkpt lat="46.35266" lon="6.73">
        <ele>2233.254</ele>
        <time>2014-08-28T08:20:47Z</time>
      </trkpt>
      <trkpt lat="46.35266" lon="6.73001">
        <ele>2233.254</ele>
        <time>2014-08-28T08:20:52Z</time>
      </trkpt>
      <trkpt lat="46.35266" lon="6.73002">
        <ele>2233.254</ele>
        <time>2014-08-28T08:20:57Z</time>
      </trkpt>
      <trkpt lat="46.35266" lon="6.73004">
        <ele>2233.254</ele>
        <time>2014-08-28T08:21:02Z</time>
      </trkpt>
      <trkpt lat="46.35266" lon="6.73006">
        <ele>2234.0874</ele>
        <time>2014-08-28T08:21:07Z</time>
      </trkpt>
      <trkpt lat="46.35267" lon="6.73009">
        <ele>2234.0874</ele>
        <time>2014-08-28T08:21:12Z</time>
      </trkpt>
      <trkpt lat="46.35267" lon="6.7301">
        <ele>2234.0874</ele>
        <time>2014-08-28T08:21:17Z</time>
      </trkpt>
      <trkpt lat="46.35267" lon="6.73011">
        <ele>2234.0874</ele>
        <time>2014-08-28T08:21:22Z</time>
      </trkpt>
      <trkpt lat="46.35268" lon="6.73012">
        <ele>2234.0874</ele>
        <time>2014-08-28T08:21:27Z</time>
      </trkpt>
      <trkpt lat="46.35268" lon="6.73012">
        <ele>2234.0874</ele>
        <time>2014-08-28T08:21:32Z</time>
      </trkpt>
      <trkpt lat="46.35269" lon="6.73013">
        <ele>2234.0874</ele>
        <time>2014-08-28T08:21:37Z</time>
      </trkpt>
      <trkpt lat="46.3527" lon="6.73013">
        <ele>2234.0874</ele>
        <time>2014-08-28T08:21:42Z</time>
      </trkpt>
      <trkpt lat="46.35271" lon="6.73014">
        <ele>2234.9731</ele>
        <time>2014-08-28T08:21:47Z</time>
      </trkpt>
      <trkpt lat="46.35271" lon="6.73016">
        <ele>2234.9731</ele>
        <time>2014-08-28T08:21:52Z</time>
      </trkpt>
      <trkpt lat="46.35272" lon="6.73017">
        <ele>2234.9731</ele>
        <time>2014-08-28T08:21:57Z</time>
      </trkpt>
      <trkpt lat="46.35271" lon="6.7302">
        <ele>2234.9731</ele>
        <time>2014-08-28T08:22:02Z</time>
      </trkpt>
      <trkpt lat="46.35273" lon="6.7302">
        <ele>2234.9731</ele>
        <time>2014-08-28T08:22:07Z</time>
      </trkpt>
      <trkpt lat="46.35274" lon="6.73019">
        <ele>2234.9731</ele>
        <time>2014-08-28T08:22:12Z</time>
      </trkpt>
      <trkpt lat="46.35275" lon="6.73019">
        <ele>2234.9731</ele>
        <time>2014-08-28T08:22:17Z</time>
      </trkpt>
      <trkpt lat="46.35275" lon="6.73019">
        <ele>2234.9731</ele>
        <time>2014-08-28T08:22:22Z</time>
      </trkpt>
      <trkpt lat="46.35276" lon="6.7302">
        <ele>2235.677</ele>
        <time>2014-08-28T08:22:27Z</time>
      </trkpt>
      <trkpt lat="46.35276" lon="6.73021">
        <ele>2235.677</ele>
        <time>2014-08-28T08:22:32Z</time>
      </trkpt>
      <trkpt lat="46.35276" lon="6.73022">
        <ele>2235.677</ele>
        <time>2014-08-28T08:22:37Z</time>
      </trkpt>
      <trkpt lat="46.35278" lon="6.73022">
        <ele>2235.677</ele>
        <time>2014-08-28T08:22:42Z</time>
      </trkpt>
      <trkpt lat="46.3528" lon="6.73022">
        <ele>2235.677</ele>
        <time>2014-08-28T08:22:47Z</time>
      </trkpt>
      <trkpt lat="46.35282" lon="6.73022">
        <ele>2235.677</ele>
        <time>2014-08-28T08:22:52Z</time>
      </trkpt>
      <trkpt lat="46.35283" lon="6.73024">
        <ele>2236.1592</ele>
        <time>2014-08-28T08:22:57Z</time>
      </trkpt>
      <trkpt lat="46.35283" lon="6.73024">
        <ele>2236.1592</ele>
        <time>2014-08-28T08:23:02Z</time>
      </trkpt>
      <trkpt lat="46.35283" lon="6.73024">
        <ele>2236.1592</ele>
        <time>2014-08-28T08:23:22Z</time>
      </trkpt>
      <trkpt lat="46.35282" lon="6.73025">
        <ele>2236.1592</ele>
        <time>2014-08-28T08:23:27Z</time>
      </trkpt>
      <trkpt lat="46.35281" lon="6.73026">
        <ele>2236.1592</ele>
        <time>2014-08-28T08:23:32Z</time>
      </trkpt>
      <trkpt lat="46.35281" lon="6.73026">
        <ele>2236.1592</ele>
        <time>2014-08-28T08:23:37Z</time>
      </trkpt>
      <trkpt lat="46.3528" lon="6.73025">
        <ele>2236.1592</ele>
        <time>2014-08-28T08:23:42Z</time>
      </trkpt>
      <trkpt lat="46.3528" lon="6.73024">
        <ele>2236.1592</ele>
        <time>2014-08-28T08:23:47Z</time>
      </trkpt>
      <trkpt lat="46.3528" lon="6.73024">
        <ele>2236.1592</ele>
        <time>2014-08-28T08:23:52Z</time>
      </trkpt>
      <trkpt lat="46.3528" lon="6.73024">
        <ele>2236.1592</ele>
        <time>2014-08-28T08:23:57Z</time>
      </trkpt>
      <trkpt lat="46.3528" lon="6.73024">
        <ele>2236.1592</ele>
        <time>2014-08-28T08:24:02Z</time>
      </trkpt>
      <trkpt lat="46.35281" lon="6.73023">
        <ele>2236.1592</ele>
        <time>2014-08-28T08:24:07Z</time>
      </trkpt>
      <trkpt lat="46.35281" lon="6.73023">
        <ele>2236.1592</ele>
        <time>2014-08-28T08:24:12Z</time>
      </trkpt>
      <trkpt lat="46.3528" lon="6.73024">
        <ele>2236.1592</ele>
        <time>2014-08-28T08:24:17Z</time>
      </trkpt>
      <trkpt lat="46.35279" lon="6.73025">
        <ele>2236.1592</ele>
        <time>2014-08-28T08:24:22Z</time>
      </trkpt>
      <trkpt lat="46.35279" lon="6.73025">
        <ele>2236.1592</ele>
        <time>2014-08-28T08:24:27Z</time>
      </trkpt>
      <trkpt lat="46.35279" lon="6.73026">
        <ele>2236.565</ele>
        <time>2014-08-28T08:24:32Z</time>
      </trkpt>
      <trkpt lat="46.35279" lon="6.73023">
        <ele>2236.565</ele>
        <time>2014-08-28T08:24:37Z</time>
      </trkpt>
      <trkpt lat="46.35279" lon="6.73023">
        <ele>2236.565</ele>
        <time>2014-08-28T08:24:42Z</time>
      </trkpt>
      <trkpt lat="46.35279" lon="6.73023">
        <ele>2236.565</ele>
        <time>2014-08-28T08:24:47Z</time>
      </trkpt>
      <trkpt lat="46.35279" lon="6.73022">
        <ele>2236.565</ele>
        <time>2014-08-28T08:24:52Z</time>
      </trkpt>
      <trkpt lat="46.35278" lon="6.73024">
        <ele>2236.565</ele>
        <time>2014-08-28T08:24:57Z</time>
      </trkpt>
      <trkpt lat="46.35278" lon="6.73024">
        <ele>2236.565</ele>
        <time>2014-08-28T08:25:02Z</time>
      </trkpt>
      <trkpt lat="46.35278" lon="6.73024">
        <ele>2236.565</ele>
        <time>2014-08-28T08:25:07Z</time>
      </trkpt>
      <trkpt lat="46.35278" lon="6.73024">
        <ele>2236.565</ele>
        <time>2014-08-28T08:25:12Z</time>
      </trkpt>
      <trkpt lat="46.35278" lon="6.73024">
        <ele>2236.565</ele>
        <time>2014-08-28T08:25:17Z</time>
      </trkpt>
      <trkpt lat="46.35278" lon="6.73023">
        <ele>2236.565</ele>
        <time>2014-08-28T08:25:22Z</time>
      </trkpt>
      <trkpt lat="46.35278" lon="6.73022">
        <ele>2236.565</ele>
        <time>2014-08-28T08:25:27Z</time>
      </trkpt>
      <trkpt lat="46.35277" lon="6.73022">
        <ele>2236.565</ele>
        <time>2014-08-28T08:25:32Z</time>
      </trkpt>
      <trkpt lat="46.35277" lon="6.73023">
        <ele>2236.565</ele>
        <time>2014-08-28T08:25:37Z</time>
      </trkpt>
      <trkpt lat="46.35277" lon="6.73024">
        <ele>2236.565</ele>
        <time>2014-08-28T08:25:42Z</time>
      </trkpt>
      <trkpt lat="46.35277" lon="6.73022">
        <ele>2236.565</ele>
        <time>2014-08-28T08:25:47Z</time>
      </trkpt>
      <trkpt lat="46.35277" lon="6.73021">
        <ele>2236.813</ele>
        <time>2014-08-28T08:25:52Z</time>
      </trkpt>
      <trkpt lat="46.35277" lon="6.73022">
        <ele>2236.813</ele>
        <time>2014-08-28T08:25:57Z</time>
      </trkpt>
      <trkpt lat="46.35278" lon="6.73022">
        <ele>2236.813</ele>
        <time>2014-08-28T08:26:02Z</time>
      </trkpt>
      <trkpt lat="46.35278" lon="6.73023">
        <ele>2236.813</ele>
        <time>2014-08-28T08:26:07Z</time>
      </trkpt>
      <trkpt lat="46.35278" lon="6.73025">
        <ele>2236.813</ele>
        <time>2014-08-28T08:26:12Z</time>
      </trkpt>
      <trkpt lat="46.35278" lon="6.73025">
        <ele>2236.813</ele>
        <time>2014-08-28T08:26:17Z</time>
      </trkpt>
      <trkpt lat="46.35278" lon="6.73023">
        <ele>2236.813</ele>
        <time>2014-08-28T08:26:22Z</time>
      </trkpt>
      <trkpt lat="46.35278" lon="6.73023">
        <ele>2236.813</ele>
        <time>2014-08-28T08:26:27Z</time>
      </trkpt>
      <trkpt lat="46.35278" lon="6.73026">
        <ele>2236.813</ele>
        <time>2014-08-28T08:26:32Z</time>
      </trkpt>
      <trkpt lat="46.35278" lon="6.73027">
        <ele>2236.813</ele>
        <time>2014-08-28T08:26:37Z</time>
      </trkpt>
      <trkpt lat="46.35278" lon="6.73026">
        <ele>2236.813</ele>
        <time>2014-08-28T08:26:42Z</time>
      </trkpt>
      <trkpt lat="46.35278" lon="6.73026">
        <ele>2236.813</ele>
        <time>2014-08-28T08:26:47Z</time>
      </trkpt>
      <trkpt lat="46.35278" lon="6.73026">
        <ele>2236.813</ele>
        <time>2014-08-28T08:26:52Z</time>
      </trkpt>
      <trkpt lat="46.35278" lon="6.73026">
        <ele>2236.813</ele>
        <time>2014-08-28T08:26:57Z</time>
      </trkpt>
      <trkpt lat="46.35278" lon="6.73029">
        <ele>2237.5254</ele>
        <time>2014-08-28T08:27:02Z</time>
      </trkpt>
      <trkpt lat="46.35278" lon="6.73028">
        <ele>2237.5254</ele>
        <time>2014-08-28T08:27:07Z</time>
      </trkpt>
      <trkpt lat="46.35278" lon="6.73028">
        <ele>2237.5254</ele>
        <time>2014-08-28T08:27:12Z</time>
      </trkpt>
      <trkpt lat="46.35278" lon="6.73027">
        <ele>2237.5254</ele>
        <time>2014-08-28T08:27:17Z</time>
      </trkpt>
      <trkpt lat="46.35278" lon="6.73028">
        <ele>2237.5254</ele>
        <time>2014-08-28T08:27:22Z</time>
      </trkpt>
      <trkpt lat="46.35279" lon="6.73029">
        <ele>2237.5254</ele>
        <time>2014-08-28T08:27:27Z</time>
      </trkpt>
      <trkpt lat="46.35279" lon="6.73029">
        <ele>2237.5254</ele>
        <time>2014-08-28T08:27:32Z</time>
      </trkpt>
      <trkpt lat="46.35279" lon="6.73028">
        <ele>2237.5254</ele>
        <time>2014-08-28T08:27:37Z</time>
      </trkpt>
      <trkpt lat="46.35279" lon="6.73027">
        <ele>2237.5254</ele>
        <time>2014-08-28T08:27:42Z</time>
      </trkpt>
      <trkpt lat="46.35279" lon="6.73028">
        <ele>2237.5254</ele>
        <time>2014-08-28T08:27:47Z</time>
      </trkpt>
      <trkpt lat="46.35279" lon="6.73027">
        <ele>2237.5254</ele>
        <time>2014-08-28T08:27:52Z</time>
      </trkpt>
      <trkpt lat="46.3528" lon="6.73028">
        <ele>2237.5254</ele>
        <time>2014-08-28T08:27:57Z</time>
      </trkpt>
      <trkpt lat="46.3528" lon="6.73027">
        <ele>2237.5254</ele>
        <time>2014-08-28T08:28:02Z</time>
      </trkpt>
      <trkpt lat="46.35279" lon="6.73028">
        <ele>2237.5254</ele>
        <time>2014-08-28T08:28:07Z</time>
      </trkpt>
      <trkpt lat="46.35279" lon="6.73027">
        <ele>2237.5254</ele>
        <time>2014-08-28T08:28:12Z</time>
      </trkpt>
      <trkpt lat="46.35279" lon="6.73028">
        <ele>2237.5254</ele>
        <time>2014-08-28T08:28:17Z</time>
      </trkpt>
      <trkpt lat="46.35279" lon="6.73026">
        <ele>2237.5254</ele>
        <time>2014-08-28T08:28:22Z</time>
      </trkpt>
      <trkpt lat="46.35279" lon="6.73026">
        <ele>2237.5254</ele>
        <time>2014-08-28T08:28:27Z</time>
      </trkpt>
      <trkpt lat="46.35279" lon="6.73025">
        <ele>2237.5254</ele>
        <time>2014-08-28T08:28:32Z</time>
      </trkpt>
      <trkpt lat="46.35279" lon="6.73023">
        <ele>2237.6318</ele>
        <time>2014-08-28T08:28:37Z</time>
      </trkpt>
      <trkpt lat="46.35279" lon="6.73025">
        <ele>2237.6318</ele>
        <time>2014-08-28T08:28:42Z</time>
      </trkpt>
      <trkpt lat="46.35279" lon="6.73024">
        <ele>2237.6318</ele>
        <time>2014-08-28T08:28:47Z</time>
      </trkpt>
      <trkpt lat="46.35279" lon="6.73025">
        <ele>2237.6318</ele>
        <time>2014-08-28T08:28:52Z</time>
      </trkpt>
      <trkpt lat="46.35278" lon="6.73024">
        <ele>2237.6318</ele>
        <time>2014-08-28T08:28:57Z</time>
      </trkpt>
      <trkpt lat="46.35278" lon="6.73025">
        <ele>2237.6318</ele>
        <time>2014-08-28T08:29:02Z</time>
      </trkpt>
      <trkpt lat="46.35277" lon="6.73025">
        <ele>2237.6318</ele>
        <time>2014-08-28T08:29:07Z</time>
      </trkpt>
      <trkpt lat="46.35277" lon="6.73024">
        <ele>2237.6318</ele>
        <time>2014-08-28T08:29:12Z</time>
      </trkpt>
      <trkpt lat="46.35277" lon="6.73025">
        <ele>2237.6318</ele>
        <time>2014-08-28T08:29:17Z</time>
      </trkpt>
      <trkpt lat="46.35277" lon="6.73026">
        <ele>2237.6318</ele>
        <time>2014-08-28T08:29:22Z</time>
      </trkpt>
      <trkpt lat="46.35276" lon="6.73026">
        <ele>2237.6318</ele>
        <time>2014-08-28T08:29:27Z</time>
      </trkpt>
      <trkpt lat="46.35276" lon="6.73026">
        <ele>2237.6318</ele>
        <time>2014-08-28T08:29:32Z</time>
      </trkpt>
      <trkpt lat="46.35276" lon="6.73026">
        <ele>2237.6318</ele>
        <time>2014-08-28T08:29:37Z</time>
      </trkpt>
      <trkpt lat="46.35275" lon="6.73025">
        <ele>2237.6318</ele>
        <time>2014-08-28T08:29:42Z</time>
      </trkpt>
      <trkpt lat="46.35276" lon="6.73021">
        <ele>2237.4678</ele>
        <time>2014-08-28T08:29:47Z</time>
      </trkpt>
      <trkpt lat="46.35276" lon="6.7302">
        <ele>2237.4678</ele>
        <time>2014-08-28T08:29:52Z</time>
      </trkpt>
      <trkpt lat="46.35276" lon="6.73021">
        <ele>2237.4678</ele>
        <time>2014-08-28T08:29:57Z</time>
      </trkpt>
      <trkpt lat="46.35276" lon="6.73021">
        <ele>2237.4678</ele>
        <time>2014-08-28T08:30:02Z</time>
      </trkpt>
      <trkpt lat="46.35276" lon="6.73021">
        <ele>2237.4678</ele>
        <time>2014-08-28T08:30:07Z</time>
      </trkpt>
      <trkpt lat="46.35275" lon="6.73019">
        <ele>2237.4678</ele>
        <time>2014-08-28T08:30:12Z</time>
      </trkpt>
      <trkpt lat="46.35275" lon="6.73019">
        <ele>2237.4678</ele>
        <time>2014-08-28T08:30:17Z</time>
      </trkpt>
      <trkpt lat="46.35274" lon="6.7302">
        <ele>2237.4678</ele>
        <time>2014-08-28T08:30:22Z</time>
      </trkpt>
      <trkpt lat="46.35274" lon="6.73021">
        <ele>2237.4678</ele>
        <time>2014-08-28T08:30:27Z</time>
      </trkpt>
      <trkpt lat="46.35274" lon="6.73021">
        <ele>2237.4678</ele>
        <time>2014-08-28T08:30:32Z</time>
      </trkpt>
      <trkpt lat="46.35273" lon="6.73023">
        <ele>2237.4678</ele>
        <time>2014-08-28T08:30:37Z</time>
      </trkpt>
      <trkpt lat="46.35273" lon="6.73024">
        <ele>2237.4678</ele>
        <time>2014-08-28T08:30:42Z</time>
      </trkpt>
      <trkpt lat="46.35273" lon="6.73025">
        <ele>2237.4678</ele>
        <time>2014-08-28T08:30:47Z</time>
      </trkpt>
      <trkpt lat="46.35272" lon="6.73025">
        <ele>2237.4678</ele>
        <time>2014-08-28T08:30:52Z</time>
      </trkpt>
      <trkpt lat="46.35272" lon="6.73026">
        <ele>2237.4678</ele>
        <time>2014-08-28T08:30:57Z</time>
      </trkpt>
      <trkpt lat="46.35272" lon="6.73025">
        <ele>2236.7463</ele>
        <time>2014-08-28T08:31:02Z</time>
      </trkpt>
      <trkpt lat="46.35272" lon="6.73022">
        <ele>2236.7463</ele>
        <time>2014-08-28T08:31:07Z</time>
      </trkpt>
      <trkpt lat="46.35272" lon="6.73019">
        <ele>2236.7463</ele>
        <time>2014-08-28T08:31:12Z</time>
      </trkpt>
      <trkpt lat="46.35273" lon="6.73018">
        <ele>2236.7463</ele>
        <time>2014-08-28T08:31:17Z</time>
      </trkpt>
      <trkpt lat="46.35273" lon="6.73018">
        <ele>2236.7463</ele>
        <time>2014-08-28T08:31:22Z</time>
      </trkpt>
      <trkpt lat="46.35273" lon="6.73019">
        <ele>2236.7463</ele>
        <time>2014-08-28T08:31:27Z</time>
      </trkpt>
      <trkpt lat="46.35273" lon="6.73018">
        <ele>2236.7463</ele>
        <time>2014-08-28T08:31:32Z</time>
      </trkpt>
      <trkpt lat="46.35273" lon="6.73017">
        <ele>2236.7463</ele>
        <time>2014-08-28T08:31:37Z</time>
      </trkpt>
      <trkpt lat="46.35274" lon="6.73018">
        <ele>2236.7463</ele>
        <time>2014-08-28T08:31:42Z</time>
      </trkpt>
      <trkpt lat="46.35274" lon="6.73017">
        <ele>2236.7463</ele>
        <time>2014-08-28T08:31:47Z</time>
      </trkpt>
      <trkpt lat="46.35274" lon="6.73018">
        <ele>2235.4937</ele>
        <time>2014-08-28T08:31:52Z</time>
      </trkpt>
      <trkpt lat="46.35274" lon="6.73016">
        <ele>2235.4937</ele>
        <time>2014-08-28T08:31:57Z</time>
      </trkpt>
      <trkpt lat="46.35275" lon="6.73016">
        <ele>2235.4937</ele>
        <time>2014-08-28T08:32:02Z</time>
      </trkpt>
      <trkpt lat="46.35275" lon="6.73017">
        <ele>2235.4937</ele>
        <time>2014-08-28T08:32:07Z</time>
      </trkpt>
      <trkpt lat="46.35274" lon="6.73016">
        <ele>2235.4937</ele>
        <time>2014-08-28T08:32:12Z</time>
      </trkpt>
      <trkpt lat="46.35274" lon="6.73015">
        <ele>2235.4937</ele>
        <time>2014-08-28T08:32:17Z</time>
      </trkpt>
      <trkpt lat="46.35274" lon="6.73014">
        <ele>2235.4937</ele>
        <time>2014-08-28T08:32:22Z</time>
      </trkpt>
      <trkpt lat="46.35273" lon="6.73013">
        <ele>2235.4937</ele>
        <time>2014-08-28T08:32:27Z</time>
      </trkpt>
      <trkpt lat="46.35273" lon="6.73013">
        <ele>2235.4937</ele>
        <time>2014-08-28T08:32:32Z</time>
      </trkpt>
      <trkpt lat="46.35272" lon="6.73012">
        <ele>2235.4937</ele>
        <time>2014-08-28T08:32:37Z</time>
      </trkpt>
      <trkpt lat="46.35272" lon="6.73012">
        <ele>2235.4937</ele>
        <time>2014-08-28T08:32:42Z</time>
      </trkpt>
      <trkpt lat="46.35271" lon="6.73011">
        <ele>2235.4937</ele>
        <time>2014-08-28T08:32:47Z</time>
      </trkpt>
      <trkpt lat="46.3527" lon="6.73011">
        <ele>2233.2332</ele>
        <time>2014-08-28T08:32:52Z</time>
      </trkpt>
      <trkpt lat="46.35269" lon="6.7301">
        <ele>2233.2332</ele>
        <time>2014-08-28T08:32:57Z</time>
      </trkpt>
      <trkpt lat="46.35269" lon="6.73011">
        <ele>2233.2332</ele>
        <time>2014-08-28T08:33:02Z</time>
      </trkpt>
      <trkpt lat="46.35268" lon="6.73011">
        <ele>2233.2332</ele>
        <time>2014-08-28T08:33:07Z</time>
      </trkpt>
      <trkpt lat="46.35268" lon="6.7301">
        <ele>2233.2332</ele>
        <time>2014-08-28T08:33:12Z</time>
      </trkpt>
      <trkpt lat="46.35267" lon="6.73011">
        <ele>2233.2332</ele>
        <time>2014-08-28T08:33:17Z</time>
      </trkpt>
      <trkpt lat="46.35267" lon="6.7301">
        <ele>2233.2332</ele>
        <time>2014-08-28T08:33:22Z</time>
      </trkpt>
      <trkpt lat="46.35267" lon="6.7301">
        <ele>2233.2332</ele>
        <time>2014-08-28T08:33:27Z</time>
      </trkpt>
      <trkpt lat="46.35267" lon="6.7301">
        <ele>2233.2332</ele>
        <time>2014-08-28T08:33:32Z</time>
      </trkpt>
      <trkpt lat="46.35267" lon="6.73009">
        <ele>2233.2332</ele>
        <time>2014-08-28T08:33:37Z</time>
      </trkpt>
      <trkpt lat="46.35267" lon="6.73009">
        <ele>2233.2332</ele>
        <time>2014-08-28T08:33:42Z</time>
      </trkpt>
      <trkpt lat="46.35267" lon="6.73008">
        <ele>2233.2332</ele>
        <time>2014-08-28T08:33:47Z</time>
      </trkpt>
      <trkpt lat="46.35268" lon="6.73008">
        <ele>2233.2332</ele>
        <time>2014-08-28T08:33:52Z</time>
      </trkpt>
      <trkpt lat="46.35268" lon="6.73008">
        <ele>2233.2332</ele>
        <time>2014-08-28T08:33:57Z</time>
      </trkpt>
      <trkpt lat="46.35266" lon="6.73008">
        <ele>2233.2332</ele>
        <time>2014-08-28T08:34:02Z</time>
      </trkpt>
      <trkpt lat="46.35265" lon="6.73009">
        <ele>2230.5974</ele>
        <time>2014-08-28T08:34:07Z</time>
      </trkpt>
      <trkpt lat="46.35264" lon="6.7301">
        <ele>2230.5974</ele>
        <time>2014-08-28T08:34:12Z</time>
      </trkpt>
      <trkpt lat="46.35265" lon="6.73009">
        <ele>2230.5974</ele>
        <time>2014-08-28T08:34:17Z</time>
      </trkpt>
      <trkpt lat="46.35265" lon="6.73009">
        <ele>2230.5974</ele>
        <time>2014-08-28T08:34:22Z</time>
      </trkpt>
      <trkpt lat="46.35265" lon="6.73008">
        <ele>2230.5974</ele>
        <time>2014-08-28T08:34:27Z</time>
      </trkpt>
      <trkpt lat="46.35265" lon="6.73008">
        <ele>2230.5974</ele>
        <time>2014-08-28T08:34:32Z</time>
      </trkpt>
      <trkpt lat="46.35263" lon="6.73008">
        <ele>2230.5974</ele>
        <time>2014-08-28T08:34:37Z</time>
      </trkpt>
      <trkpt lat="46.35261" lon="6.73008">
        <ele>2230.5974</ele>
        <time>2014-08-28T08:34:42Z</time>
      </trkpt>
      <trkpt lat="46.35261" lon="6.73007">
        <ele>2230.5974</ele>
        <time>2014-08-28T08:34:47Z</time>
      </trkpt>
      <trkpt lat="46.35261" lon="6.73006">
        <ele>2230.5974</ele>
        <time>2014-08-28T08:34:52Z</time>
      </trkpt>
      <trkpt lat="46.35261" lon="6.73005">
        <ele>2227.5664</ele>
        <time>2014-08-28T08:34:57Z</time>
      </trkpt>
      <trkpt lat="46.35262" lon="6.73004">
        <ele>2227.5664</ele>
        <time>2014-08-28T08:35:02Z</time>
      </trkpt>
      <trkpt lat="46.35262" lon="6.73003">
        <ele>2227.5664</ele>
        <time>2014-08-28T08:35:07Z</time>
      </trkpt>
      <trkpt lat="46.35261" lon="6.73004">
        <ele>2227.5664</ele>
        <time>2014-08-28T08:35:12Z</time>
      </trkpt>
      <trkpt lat="46.35259" lon="6.73004">
        <ele>2227.5664</ele>
        <time>2014-08-28T08:35:17Z</time>
      </trkpt>
      <trkpt lat="46.35258" lon="6.73004">
        <ele>2227.5664</ele>
        <time>2014-08-28T08:35:22Z</time>
      </trkpt>
      <trkpt lat="46.35258" lon="6.73003">
        <ele>2227.5664</ele>
        <time>2014-08-28T08:35:27Z</time>
      </trkpt>
      <trkpt lat="46.35257" lon="6.73003">
        <ele>2227.5664</ele>
        <time>2014-08-28T08:35:32Z</time>
      </trkpt>
      <trkpt lat="46.35256" lon="6.73003">
        <ele>2227.5664</ele>
        <time>2014-08-28T08:35:37Z</time>
      </trkpt>
      <trkpt lat="46.35255" lon="6.73003">
        <ele>2227.5664</ele>
        <time>2014-08-28T08:35:42Z</time>
      </trkpt>
      <trkpt lat="46.35255" lon="6.73003">
        <ele>2224.5354</ele>
        <time>2014-08-28T08:35:47Z</time>
      </trkpt>
      <trkpt lat="46.35254" lon="6.73003">
        <ele>2224.5354</ele>
        <time>2014-08-28T08:35:52Z</time>
      </trkpt>
      <trkpt lat="46.35252" lon="6.73002">
        <ele>2224.5354</ele>
        <time>2014-08-28T08:35:57Z</time>
      </trkpt>
      <trkpt lat="46.35251" lon="6.73001">
        <ele>2224.5354</ele>
        <time>2014-08-28T08:36:02Z</time>
      </trkpt>
      <trkpt lat="46.35251" lon="6.73001">
        <ele>2224.5354</ele>
        <time>2014-08-28T08:36:07Z</time>
      </trkpt>
      <trkpt lat="46.35251" lon="6.73">
        <ele>2224.5354</ele>
        <time>2014-08-28T08:36:12Z</time>
      </trkpt>
      <trkpt lat="46.35251" lon="6.72999">
        <ele>2224.5354</ele>
        <time>2014-08-28T08:36:17Z</time>
      </trkpt>
      <trkpt lat="46.35251" lon="6.72999">
        <ele>2224.5354</ele>
        <time>2014-08-28T08:36:22Z</time>
      </trkpt>
      <trkpt lat="46.35251" lon="6.72998">
        <ele>2224.5354</ele>
        <time>2014-08-28T08:36:27Z</time>
      </trkpt>
      <trkpt lat="46.35251" lon="6.72997">
        <ele>2224.5354</ele>
        <time>2014-08-28T08:36:32Z</time>
      </trkpt>
      <trkpt lat="46.35251" lon="6.72996">
        <ele>2224.5354</ele>
        <time>2014-08-28T08:36:37Z</time>
      </trkpt>
      <trkpt lat="46.35251" lon="6.72996">
        <ele>2224.5354</ele>
        <time>2014-08-28T08:36:42Z</time>
      </trkpt>
      <trkpt lat="46.3525" lon="6.72994">
        <ele>2221.3547</ele>
        <time>2014-08-28T08:36:47Z</time>
      </trkpt>
      <trkpt lat="46.3525" lon="6.72993">
        <ele>2221.3547</ele>
        <time>2014-08-28T08:36:52Z</time>
      </trkpt>
      <trkpt lat="46.35249" lon="6.72993">
        <ele>2221.3547</ele>
        <time>2014-08-28T08:36:57Z</time>
      </trkpt>
      <trkpt lat="46.35249" lon="6.72992">
        <ele>2221.3547</ele>
        <time>2014-08-28T08:37:02Z</time>
      </trkpt>
      <trkpt lat="46.3525" lon="6.72992">
        <ele>2221.3547</ele>
        <time>2014-08-28T08:37:07Z</time>
      </trkpt>
      <trkpt lat="46.3525" lon="6.72992">
        <ele>2221.3547</ele>
        <time>2014-08-28T08:37:12Z</time>
      </trkpt>
      <trkpt lat="46.3525" lon="6.72992">
        <ele>2221.3547</ele>
        <time>2014-08-28T08:37:17Z</time>
      </trkpt>
      <trkpt lat="46.3525" lon="6.72991">
        <ele>2221.3547</ele>
        <time>2014-08-28T08:37:22Z</time>
      </trkpt>
      <trkpt lat="46.35249" lon="6.72989">
        <ele>2221.3547</ele>
        <time>2014-08-28T08:37:27Z</time>
      </trkpt>
      <trkpt lat="46.35248" lon="6.72988">
        <ele>2221.3547</ele>
        <time>2014-08-28T08:37:32Z</time>
      </trkpt>
      <trkpt lat="46.35248" lon="6.72988">
        <ele>2221.3547</ele>
        <time>2014-08-28T08:37:37Z</time>
      </trkpt>
      <trkpt lat="46.35249" lon="6.72989">
        <ele>2221.3547</ele>
        <time>2014-08-28T08:37:42Z</time>
      </trkpt>
      <trkpt lat="46.3525" lon="6.7299">
        <ele>2217.8982</ele>
        <time>2014-08-28T08:37:47Z</time>
      </trkpt>
      <trkpt lat="46.35251" lon="6.7299">
        <ele>2217.8982</ele>
        <time>2014-08-28T08:37:52Z</time>
      </trkpt>
      <trkpt lat="46.35252" lon="6.72991">
        <ele>2217.8982</ele>
        <time>2014-08-28T08:37:57Z</time>
      </trkpt>
      <trkpt lat="46.35253" lon="6.72991">
        <ele>2217.8982</ele>
        <time>2014-08-28T08:38:02Z</time>
      </trkpt>
      <trkpt lat="46.35253" lon="6.72991">
        <ele>2217.8982</ele>
        <time>2014-08-28T08:38:07Z</time>
      </trkpt>
      <trkpt lat="46.35253" lon="6.72991">
        <ele>2217.8982</ele>
        <time>2014-08-28T08:38:12Z</time>
      </trkpt>
      <trkpt lat="46.35253" lon="6.7299">
        <ele>2217.8982</ele>
        <time>2014-08-28T08:38:17Z</time>
      </trkpt>
      <trkpt lat="46.35254" lon="6.72991">
        <ele>2217.8982</ele>
        <time>2014-08-28T08:38:22Z</time>
      </trkpt>
      <trkpt lat="46.35255" lon="6.72991">
        <ele>2217.8982</ele>
        <time>2014-08-28T08:38:27Z</time>
      </trkpt>
      <trkpt lat="46.35256" lon="6.72992">
        <ele>2217.8982</ele>
        <time>2014-08-28T08:38:32Z</time>
      </trkpt>
      <trkpt lat="46.35256" lon="6.72991">
        <ele>2217.8982</ele>
        <time>2014-08-28T08:38:37Z</time>
      </trkpt>
      <trkpt lat="46.35257" lon="6.72993">
        <ele>2217.8982</ele>
        <time>2014-08-28T08:38:42Z</time>
      </trkpt>
      <trkpt lat="46.35259" lon="6.72994">
        <ele>2214.2085</ele>
        <time>2014-08-28T08:38:47Z</time>
      </trkpt>
      <trkpt lat="46.35258" lon="6.72994">
        <ele>2214.2085</ele>
        <time>2014-08-28T08:38:52Z</time>
      </trkpt>
      <trkpt lat="46.35259" lon="6.72995">
        <ele>2214.2085</ele>
        <time>2014-08-28T08:38:57Z</time>
      </trkpt>
      <trkpt lat="46.3526" lon="6.72996">
        <ele>2214.2085</ele>
        <time>2014-08-28T08:39:02Z</time>
      </trkpt>
      <trkpt lat="46.35262" lon="6.72997">
        <ele>2214.2085</ele>
        <time>2014-08-28T08:39:07Z</time>
      </trkpt>
      <trkpt lat="46.35263" lon="6.72999">
        <ele>2214.2085</ele>
        <time>2014-08-28T08:39:12Z</time>
      </trkpt>
      <trkpt lat="46.35263" lon="6.72998">
        <ele>2214.2085</ele>
        <time>2014-08-28T08:39:17Z</time>
      </trkpt>
      <trkpt lat="46.35263" lon="6.72999">
        <ele>2214.2085</ele>
        <time>2014-08-28T08:39:22Z</time>
      </trkpt>
      <trkpt lat="46.35263" lon="6.72999">
        <ele>2214.2085</ele>
        <time>2014-08-28T08:39:27Z</time>
      </trkpt>
      <trkpt lat="46.35265" lon="6.73">
        <ele>2210.0063</ele>
        <time>2014-08-28T08:39:32Z</time>
      </trkpt>
      <trkpt lat="46.35265" lon="6.73001">
        <ele>2210.0063</ele>
        <time>2014-08-28T08:39:37Z</time>
      </trkpt>
      <trkpt lat="46.35266" lon="6.73001">
        <ele>2210.0063</ele>
        <time>2014-08-28T08:39:42Z</time>
      </trkpt>
      <trkpt lat="46.35265" lon="6.73001">
        <ele>2210.0063</ele>
        <time>2014-08-28T08:39:47Z</time>
      </trkpt>
      <trkpt lat="46.35265" lon="6.73001">
        <ele>2210.0063</ele>
        <time>2014-08-28T08:39:52Z</time>
      </trkpt>
      <trkpt lat="46.35265" lon="6.73001">
        <ele>2210.0063</ele>
        <time>2014-08-28T08:39:57Z</time>
      </trkpt>
      <trkpt lat="46.35265" lon="6.73001">
        <ele>2210.0063</ele>
        <time>2014-08-28T08:40:02Z</time>
      </trkpt>
      <trkpt lat="46.35265" lon="6.73001">
        <ele>2210.0063</ele>
        <time>2014-08-28T08:40:07Z</time>
      </trkpt>
      <trkpt lat="46.35266" lon="6.73001">
        <ele>2210.0063</ele>
        <time>2014-08-28T08:40:12Z</time>
      </trkpt>
      <trkpt lat="46.35266" lon="6.73">
        <ele>2210.0063</ele>
        <time>2014-08-28T08:40:17Z</time>
      </trkpt>
      <trkpt lat="46.35266" lon="6.73001">
        <ele>2210.0063</ele>
        <time>2014-08-28T08:40:22Z</time>
      </trkpt>
      <trkpt lat="46.35267" lon="6.73001">
        <ele>2210.0063</ele>
        <time>2014-08-28T08:40:27Z</time>
      </trkpt>
      <trkpt lat="46.35266" lon="6.73">
        <ele>2210.0063</ele>
        <time>2014-08-28T08:40:32Z</time>
      </trkpt>
      <trkpt lat="46.35266" lon="6.73">
        <ele>2210.0063</ele>
        <time>2014-08-28T08:40:37Z</time>
      </trkpt>
      <trkpt lat="46.35266" lon="6.73">
        <ele>2210.0063</ele>
        <time>2014-08-28T08:40:42Z</time>
      </trkpt>
      <trkpt lat="46.35266" lon="6.73">
        <ele>2210.0063</ele>
        <time>2014-08-28T08:40:47Z</time>
      </trkpt>
      <trkpt lat="46.35268" lon="6.73001">
        <ele>2210.0063</ele>
        <time>2014-08-28T08:40:52Z</time>
      </trkpt>
      <trkpt lat="46.35269" lon="6.73002">
        <ele>2205.192</ele>
        <time>2014-08-28T08:40:57Z</time>
      </trkpt>
      <trkpt lat="46.35269" lon="6.73002">
        <ele>2205.192</ele>
        <time>2014-08-28T08:41:02Z</time>
      </trkpt>
      <trkpt lat="46.35268" lon="6.73001">
        <ele>2205.192</ele>
        <time>2014-08-28T08:41:07Z</time>
      </trkpt>
      <trkpt lat="46.35267" lon="6.73">
        <ele>2205.192</ele>
        <time>2014-08-28T08:41:12Z</time>
      </trkpt>
      <trkpt lat="46.35269" lon="6.73002">
        <ele>2205.192</ele>
        <time>2014-08-28T08:41:17Z</time>
      </trkpt>
      <trkpt lat="46.35269" lon="6.73001">
        <ele>2205.192</ele>
        <time>2014-08-28T08:41:22Z</time>
      </trkpt>
      <trkpt lat="46.3527" lon="6.73002">
        <ele>2205.192</ele>
        <time>2014-08-28T08:41:27Z</time>
      </trkpt>
      <trkpt lat="46.3527" lon="6.73003">
        <ele>2205.192</ele>
        <time>2014-08-28T08:41:32Z</time>
      </trkpt>
      <trkpt lat="46.3527" lon="6.73003">
        <ele>2205.192</ele>
        <time>2014-08-28T08:41:37Z</time>
      </trkpt>
      <trkpt lat="46.35271" lon="6.73003">
        <ele>2205.192</ele>
        <time>2014-08-28T08:41:42Z</time>
      </trkpt>
      <trkpt lat="46.35271" lon="6.73003">
        <ele>2205.192</ele>
        <time>2014-08-28T08:41:47Z</time>
      </trkpt>
      <trkpt lat="46.35271" lon="6.73003">
        <ele>2199.894</ele>
        <time>2014-08-28T08:41:52Z</time>
      </trkpt>
      <trkpt lat="46.3527" lon="6.73003">
        <ele>2199.894</ele>
        <time>2014-08-28T08:41:57Z</time>
      </trkpt>
      <trkpt lat="46.3527" lon="6.73003">
        <ele>2199.894</ele>
        <time>2014-08-28T08:42:02Z</time>
      </trkpt>
      <trkpt lat="46.35271" lon="6.73004">
        <ele>2199.894</ele>
        <time>2014-08-28T08:42:07Z</time>
      </trkpt>
      <trkpt lat="46.35271" lon="6.73004">
        <ele>2199.894</ele>
        <time>2014-08-28T08:42:12Z</time>
      </trkpt>
      <trkpt lat="46.35271" lon="6.73004">
        <ele>2199.894</ele>
        <time>2014-08-28T08:42:17Z</time>
      </trkpt>
      <trkpt lat="46.35272" lon="6.73005">
        <ele>2199.894</ele>
        <time>2014-08-28T08:42:22Z</time>
      </trkpt>
      <trkpt lat="46.35271" lon="6.73004">
        <ele>2199.894</ele>
        <time>2014-08-28T08:42:27Z</time>
      </trkpt>
      <trkpt lat="46.35271" lon="6.73004">
        <ele>2199.894</ele>
        <time>2014-08-28T08:42:32Z</time>
      </trkpt>
      <trkpt lat="46.35271" lon="6.73004">
        <ele>2199.894</ele>
        <time>2014-08-28T08:42:37Z</time>
      </trkpt>
      <trkpt lat="46.35271" lon="6.73003">
        <ele>2199.894</ele>
        <time>2014-08-28T08:42:42Z</time>
      </trkpt>
      <trkpt lat="46.35271" lon="6.73003">
        <ele>2199.894</ele>
        <time>2014-08-28T08:42:47Z</time>
      </trkpt>
      <trkpt lat="46.3527" lon="6.73001">
        <ele>2199.894</ele>
        <time>2014-08-28T08:42:52Z</time>
      </trkpt>
      <trkpt lat="46.35269" lon="6.73">
        <ele>2199.894</ele>
        <time>2014-08-28T08:42:57Z</time>
      </trkpt>
      <trkpt lat="46.3527" lon="6.73001">
        <ele>2199.894</ele>
        <time>2014-08-28T08:43:02Z</time>
      </trkpt>
      <trkpt lat="46.35272" lon="6.73001">
        <ele>2199.894</ele>
        <time>2014-08-28T08:43:07Z</time>
      </trkpt>
      <trkpt lat="46.35273" lon="6.73002">
        <ele>2194.0593</ele>
        <time>2014-08-28T08:43:12Z</time>
      </trkpt>
      <trkpt lat="46.35274" lon="6.73002">
        <ele>2194.0593</ele>
        <time>2014-08-28T08:43:17Z</time>
      </trkpt>
      <trkpt lat="46.35275" lon="6.73002">
        <ele>2194.0593</ele>
        <time>2014-08-28T08:43:22Z</time>
      </trkpt>
      <trkpt lat="46.35276" lon="6.73002">
        <ele>2194.0593</ele>
        <time>2014-08-28T08:43:27Z</time>
      </trkpt>
      <trkpt lat="46.35276" lon="6.73002">
        <ele>2194.0593</ele>
        <time>2014-08-28T08:43:32Z</time>
      </trkpt>
      <trkpt lat="46.35277" lon="6.73002">
        <ele>2194.0593</ele>
        <time>2014-08-28T08:43:37Z</time>
      </trkpt>
      <trkpt lat="46.35277" lon="6.73001">
        <ele>2194.0593</ele>
        <time>2014-08-28T08:43:42Z</time>
      </trkpt>
      <trkpt lat="46.35276" lon="6.73001">
        <ele>2194.0593</ele>
        <time>2014-08-28T08:43:47Z</time>
      </trkpt>
      <trkpt lat="46.35277" lon="6.73001">
        <ele>2194.0593</ele>
        <time>2014-08-28T08:43:52Z</time>
      </trkpt>
      <trkpt lat="46.35277" lon="6.73001">
        <ele>2194.0593</ele>
        <time>2014-08-28T08:43:57Z</time>
      </trkpt>
      <trkpt lat="46.35278" lon="6.73001">
        <ele>2194.0593</ele>
        <time>2014-08-28T08:44:02Z</time>
      </trkpt>
      <trkpt lat="46.35278" lon="6.73001">
        <ele>2194.0593</ele>
        <time>2014-08-28T08:44:07Z</time>
      </trkpt>
      <trkpt lat="46.35279" lon="6.73001">
        <ele>2194.0593</ele>
        <time>2014-08-28T08:44:12Z</time>
      </trkpt>
      <trkpt lat="46.35278" lon="6.73">
        <ele>2188.2197</ele>
        <time>2014-08-28T08:44:17Z</time>
      </trkpt>
      <trkpt lat="46.35278" lon="6.72998">
        <ele>2188.2197</ele>
        <time>2014-08-28T08:44:22Z</time>
      </trkpt>
      <trkpt lat="46.35278" lon="6.72998">
        <ele>2188.2197</ele>
        <time>2014-08-28T08:44:27Z</time>
      </trkpt>
      <trkpt lat="46.35277" lon="6.72997">
        <ele>2188.2197</ele>
        <time>2014-08-28T08:44:32Z</time>
      </trkpt>
      <trkpt lat="46.35277" lon="6.72996">
        <ele>2188.2197</ele>
        <time>2014-08-28T08:44:37Z</time>
      </trkpt>
      <trkpt lat="46.35277" lon="6.72996">
        <ele>2188.2197</ele>
        <time>2014-08-28T08:44:42Z</time>
      </trkpt>
      <trkpt lat="46.35277" lon="6.72996">
        <ele>2188.2197</ele>
        <time>2014-08-28T08:44:47Z</time>
      </trkpt>
      <trkpt lat="46.35276" lon="6.72995">
        <ele>2188.2197</ele>
        <time>2014-08-28T08:44:52Z</time>
      </trkpt>
      <trkpt lat="46.35276" lon="6.72994">
        <ele>2188.2197</ele>
        <time>2014-08-28T08:44:57Z</time>
      </trkpt>
      <trkpt lat="46.35276" lon="6.72994">
        <ele>2188.2197</ele>
        <time>2014-08-28T08:45:02Z</time>
      </trkpt>
      <trkpt lat="46.35275" lon="6.72994">
        <ele>2188.2197</ele>
        <time>2014-08-28T08:45:12Z</time>
      </trkpt>
      <trkpt lat="46.35275" lon="6.72994">
        <ele>2188.2197</ele>
        <time>2014-08-28T08:45:17Z</time>
      </trkpt>
      <trkpt lat="46.35274" lon="6.72993">
        <ele>2188.2197</ele>
        <time>2014-08-28T08:45:32Z</time>
      </trkpt>
      <trkpt lat="46.35274" lon="6.72993">
        <ele>2188.2197</ele>
        <time>2014-08-28T08:45:57Z</time>
      </trkpt>
      <trkpt lat="46.35273" lon="6.72992">
        <ele>2188.2197</ele>
        <time>2014-08-28T08:46:22Z</time>
      </trkpt>
      <trkpt lat="46.35272" lon="6.72991">
        <ele>2181.8428</ele>
        <time>2014-08-28T08:46:27Z</time>
      </trkpt>
      <trkpt lat="46.35271" lon="6.7299">
        <ele>2181.8428</ele>
        <time>2014-08-28T08:46:32Z</time>
      </trkpt>
      <trkpt lat="46.35271" lon="6.72989">
        <ele>2181.8428</ele>
        <time>2014-08-28T08:46:37Z</time>
      </trkpt>
      <trkpt lat="46.35271" lon="6.72989">
        <ele>2181.8428</ele>
        <time>2014-08-28T08:46:42Z</time>
      </trkpt>
      <trkpt lat="46.3527" lon="6.72989">
        <ele>2181.8428</ele>
        <time>2014-08-28T08:46:47Z</time>
      </trkpt>
      <trkpt lat="46.3527" lon="6.72988">
        <ele>2181.8428</ele>
        <time>2014-08-28T08:46:52Z</time>
      </trkpt>
      <trkpt lat="46.35272" lon="6.72981">
        <ele>2181.8428</ele>
        <time>2014-08-28T08:46:57Z</time>
      </trkpt>
      <trkpt lat="46.35272" lon="6.7298">
        <ele>2181.8428</ele>
        <time>2014-08-28T08:47:02Z</time>
      </trkpt>
      <trkpt lat="46.35272" lon="6.72979">
        <ele>2175.4956</ele>
        <time>2014-08-28T08:47:07Z</time>
      </trkpt>
      <trkpt lat="46.35272" lon="6.72979">
        <ele>2175.4956</ele>
        <time>2014-08-28T08:47:12Z</time>
      </trkpt>
      <trkpt lat="46.35271" lon="6.72969">
        <ele>2175.4956</ele>
        <time>2014-08-28T08:47:17Z</time>
      </trkpt>
      <trkpt lat="46.35271" lon="6.72968">
        <ele>2175.4956</ele>
        <time>2014-08-28T08:47:22Z</time>
      </trkpt>
      <trkpt lat="46.35271" lon="6.72968">
        <ele>2175.4956</ele>
        <time>2014-08-28T08:47:27Z</time>
      </trkpt>
      <trkpt lat="46.35271" lon="6.72965">
        <ele>2169.0442</ele>
        <time>2014-08-28T08:48:27Z</time>
      </trkpt>
      <trkpt lat="46.35271" lon="6.72964">
        <ele>2169.0442</ele>
        <time>2014-08-28T08:48:32Z</time>
      </trkpt>
      <trkpt lat="46.35271" lon="6.72964">
        <ele>2169.0442</ele>
        <time>2014-08-28T08:48:37Z</time>
      </trkpt>
      <trkpt lat="46.3527" lon="6.72962">
        <ele>2169.0442</ele>
        <time>2014-08-28T08:48:42Z</time>
      </trkpt>
      <trkpt lat="46.3527" lon="6.72962">
        <ele>2169.0442</ele>
        <time>2014-08-28T08:48:47Z</time>
      </trkpt>
      <trkpt lat="46.3527" lon="6.7296">
        <ele>2169.0442</ele>
        <time>2014-08-28T08:49:42Z</time>
      </trkpt>
      <trkpt lat="46.3527" lon="6.72958">
        <ele>2169.0442</ele>
        <time>2014-08-28T08:49:47Z</time>
      </trkpt>
      <trkpt lat="46.3527" lon="6.72958">
        <ele>2169.0442</ele>
        <time>2014-08-28T08:49:52Z</time>
      </trkpt>
      <trkpt lat="46.35269" lon="6.72953">
        <ele>2169.0442</ele>
        <time>2014-08-28T08:50:27Z</time>
      </trkpt>
      <trkpt lat="46.35268" lon="6.7295">
        <ele>2162.1362</ele>
        <time>2014-08-28T08:50:32Z</time>
      </trkpt>
      <trkpt lat="46.35268" lon="6.7295">
        <ele>2162.1362</ele>
        <time>2014-08-28T08:50:37Z</time>
      </trkpt>
      <trkpt lat="46.35268" lon="6.72949">
        <ele>2162.1362</ele>
        <time>2014-08-28T08:50:42Z</time>
      </trkpt>
      <trkpt lat="46.35268" lon="6.72949">
        <ele>2162.1362</ele>
        <time>2014-08-28T08:50:47Z</time>
      </trkpt>
      <trkpt lat="46.35266" lon="6.72941">
        <ele>2162.1362</ele>
        <time>2014-08-28T08:50:57Z</time>
      </trkpt>
      <trkpt lat="46.35266" lon="6.72941">
        <ele>2162.1362</ele>
        <time>2014-08-28T08:51:02Z</time>
      </trkpt>
      <trkpt lat="46.35264" lon="6.72931">
        <ele>2154.8826</ele>
        <time>2014-08-28T08:52:42Z</time>
      </trkpt>
      <trkpt lat="46.35263" lon="6.72923">
        <ele>2154.8826</ele>
        <time>2014-08-28T08:52:47Z</time>
      </trkpt>
      <trkpt lat="46.35262" lon="6.72919">
        <ele>2148.276</ele>
        <time>2014-08-28T08:52:52Z</time>
      </trkpt>
      <trkpt lat="46.35261" lon="6.72915">
        <ele>2148.276</ele>
        <time>2014-08-28T08:52:57Z</time>
      </trkpt>
      <trkpt lat="46.35261" lon="6.72915">
        <ele>2148.276</ele>
        <time>2014-08-28T08:53:02Z</time>
      </trkpt>
      <trkpt lat="46.35262" lon="6.72917">
        <ele>2148.276</ele>
        <time>2014-08-28T08:53:07Z</time>
      </trkpt>
      <trkpt lat="46.35263" lon="6.72919">
        <ele>2148.276</ele>
        <time>2014-08-28T08:53:12Z</time>
      </trkpt>
      <trkpt lat="46.35264" lon="6.7292">
        <ele>2148.276</ele>
        <time>2014-08-28T08:53:17Z</time>
      </trkpt>
      <trkpt lat="46.35264" lon="6.7292">
        <ele>2148.276</ele>
        <time>2014-08-28T08:53:22Z</time>
      </trkpt>
      <trkpt lat="46.35264" lon="6.7292">
        <ele>2148.276</ele>
        <time>2014-08-28T08:53:27Z</time>
      </trkpt>
      <trkpt lat="46.35274" lon="6.72918">
        <ele>2141.3274</ele>
        <time>2014-08-28T08:53:32Z</time>
      </trkpt>
      <trkpt lat="46.35278" lon="6.72913">
        <ele>2141.3274</ele>
        <time>2014-08-28T08:53:37Z</time>
      </trkpt>
      <trkpt lat="46.3528" lon="6.72909">
        <ele>2141.3274</ele>
        <time>2014-08-28T08:53:42Z</time>
      </trkpt>
      <trkpt lat="46.35282" lon="6.72906">
        <ele>2134.4067</ele>
        <time>2014-08-28T08:53:47Z</time>
      </trkpt>
      <trkpt lat="46.35282" lon="6.72905">
        <ele>2134.4067</ele>
        <time>2014-08-28T08:53:52Z</time>
      </trkpt>
      <trkpt lat="46.35282" lon="6.72903">
        <ele>2134.4067</ele>
        <time>2014-08-28T08:53:57Z</time>
      </trkpt>
      <trkpt lat="46.35282" lon="6.72902">
        <ele>2134.4067</ele>
        <time>2014-08-28T08:54:02Z</time>
      </trkpt>
      <trkpt lat="46.35282" lon="6.72901">
        <ele>2134.4067</ele>
        <time>2014-08-28T08:54:07Z</time>
      </trkpt>
      <trkpt lat="46.35282" lon="6.72901">
        <ele>2134.4067</ele>
        <time>2014-08-28T08:54:12Z</time>
      </trkpt>
      <trkpt lat="46.35284" lon="6.72895">
        <ele>2134.4067</ele>
        <time>2014-08-28T08:54:17Z</time>
      </trkpt>
      <trkpt lat="46.35284" lon="6.72893">
        <ele>2127.6711</ele>
        <time>2014-08-28T08:54:22Z</time>
      </trkpt>
      <trkpt lat="46.35284" lon="6.72893">
        <ele>2127.6711</ele>
        <time>2014-08-28T08:54:27Z</time>
      </trkpt>
      <trkpt lat="46.35284" lon="6.72891">
        <ele>2127.6711</ele>
        <time>2014-08-28T08:54:37Z</time>
      </trkpt>
      <trkpt lat="46.35284" lon="6.7289">
        <ele>2127.6711</ele>
        <time>2014-08-28T08:54:42Z</time>
      </trkpt>
      <trkpt lat="46.35284" lon="6.72889">
        <ele>2127.6711</ele>
        <time>2014-08-28T08:54:47Z</time>
      </trkpt>
      <trkpt lat="46.35284" lon="6.72888">
        <ele>2127.6711</ele>
        <time>2014-08-28T08:54:52Z</time>
      </trkpt>
      <trkpt lat="46.35284" lon="6.72886">
        <ele>2127.6711</ele>
        <time>2014-08-28T08:54:57Z</time>
      </trkpt>
      <trkpt lat="46.35284" lon="6.72884">
        <ele>2127.6711</ele>
        <time>2014-08-28T08:55:02Z</time>
      </trkpt>
      <trkpt lat="46.35283" lon="6.72882">
        <ele>2127.6711</ele>
        <time>2014-08-28T08:55:07Z</time>
      </trkpt>
      <trkpt lat="46.35283" lon="6.72879">
        <ele>2121.3237</ele>
        <time>2014-08-28T08:55:12Z</time>
      </trkpt>
      <trkpt lat="46.35283" lon="6.72878">
        <ele>2121.3237</ele>
        <time>2014-08-28T08:55:17Z</time>
      </trkpt>
      <trkpt lat="46.35282" lon="6.72872">
        <ele>2121.3237</ele>
        <time>2014-08-28T08:55:32Z</time>
      </trkpt>
      <trkpt lat="46.35282" lon="6.72872">
        <ele>2121.3237</ele>
        <time>2014-08-28T08:55:37Z</time>
      </trkpt>
      <trkpt lat="46.35282" lon="6.7287">
        <ele>2121.3237</ele>
        <time>2014-08-28T08:56:12Z</time>
      </trkpt>
      <trkpt lat="46.35282" lon="6.72862">
        <ele>2115.533</ele>
        <time>2014-08-28T08:56:17Z</time>
      </trkpt>
      <trkpt lat="46.35282" lon="6.72855">
        <ele>2115.533</ele>
        <time>2014-08-28T08:56:22Z</time>
      </trkpt>
      <trkpt lat="46.35282" lon="6.72852">
        <ele>2115.533</ele>
        <time>2014-08-28T08:56:27Z</time>
      </trkpt>
      <trkpt lat="46.35278" lon="6.72847">
        <ele>2110.0298</ele>
        <time>2014-08-28T08:56:32Z</time>
      </trkpt>
      <trkpt lat="46.35276" lon="6.72847">
        <ele>2110.0298</ele>
        <time>2014-08-28T08:56:37Z</time>
      </trkpt>
      <trkpt lat="46.35274" lon="6.72846">
        <ele>2110.0298</ele>
        <time>2014-08-28T08:56:42Z</time>
      </trkpt>
      <trkpt lat="46.35274" lon="6.72847">
        <ele>2110.0298</ele>
        <time>2014-08-28T08:56:47Z</time>
      </trkpt>
      <trkpt lat="46.35274" lon="6.72847">
        <ele>2110.0298</ele>
        <time>2014-08-28T08:56:52Z</time>
      </trkpt>
      <trkpt lat="46.35274" lon="6.72847">
        <ele>2110.0298</ele>
        <time>2014-08-28T08:56:57Z</time>
      </trkpt>
      <trkpt lat="46.35273" lon="6.72847">
        <ele>2108.8247</ele>
        <time>2014-08-28T08:57:02Z</time>
      </trkpt>
      <trkpt lat="46.35274" lon="6.72845">
        <ele>2107.6196</ele>
        <time>2014-08-28T08:57:07Z</time>
      </trkpt>
      <trkpt lat="46.35273" lon="6.72845">
        <ele>2106.4146</ele>
        <time>2014-08-28T08:57:12Z</time>
      </trkpt>
      <trkpt lat="46.35282" lon="6.72814">
        <ele>2105.2095</ele>
        <time>2014-08-28T08:57:47Z</time>
      </trkpt>
      <trkpt lat="46.35281" lon="6.72813">
        <ele>2105.2095</ele>
        <time>2014-08-28T08:57:52Z</time>
      </trkpt>
      <trkpt lat="46.35281" lon="6.72813">
        <ele>2105.2095</ele>
        <time>2014-08-28T08:57:57Z</time>
      </trkpt>
      <trkpt lat="46.35276" lon="6.72812">
        <ele>2105.2095</ele>
        <time>2014-08-28T08:58:02Z</time>
      </trkpt>
      <trkpt lat="46.35272" lon="6.7281">
        <ele>2101.072</ele>
        <time>2014-08-28T08:58:07Z</time>
      </trkpt>
      <trkpt lat="46.35269" lon="6.7281">
        <ele>2101.072</ele>
        <time>2014-08-28T08:58:12Z</time>
      </trkpt>
      <trkpt lat="46.35267" lon="6.7281">
        <ele>2101.072</ele>
        <time>2014-08-28T08:58:17Z</time>
      </trkpt>
      <trkpt lat="46.35267" lon="6.7281">
        <ele>2101.072</ele>
        <time>2014-08-28T08:58:22Z</time>
      </trkpt>
      <trkpt lat="46.35268" lon="6.72812">
        <ele>2101.072</ele>
        <time>2014-08-28T08:58:27Z</time>
      </trkpt>
      <trkpt lat="46.35269" lon="6.72814">
        <ele>2101.072</ele>
        <time>2014-08-28T08:58:32Z</time>
      </trkpt>
      <trkpt lat="46.3527" lon="6.72815">
        <ele>2097.243</ele>
        <time>2014-08-28T08:58:37Z</time>
      </trkpt>
      <trkpt lat="46.3527" lon="6.72817">
        <ele>2097.243</ele>
        <time>2014-08-28T08:58:42Z</time>
      </trkpt>
      <trkpt lat="46.3527" lon="6.72819">
        <ele>2097.243</ele>
        <time>2014-08-28T08:58:47Z</time>
      </trkpt>
      <trkpt lat="46.35269" lon="6.7282">
        <ele>2097.243</ele>
        <time>2014-08-28T08:58:52Z</time>
      </trkpt>
      <trkpt lat="46.35268" lon="6.72822">
        <ele>2097.243</ele>
        <time>2014-08-28T08:58:57Z</time>
      </trkpt>
      <trkpt lat="46.35266" lon="6.72823">
        <ele>2097.243</ele>
        <time>2014-08-28T08:59:02Z</time>
      </trkpt>
      <trkpt lat="46.35265" lon="6.72823">
        <ele>2097.243</ele>
        <time>2014-08-28T08:59:07Z</time>
      </trkpt>
      <trkpt lat="46.35265" lon="6.72824">
        <ele>2093.868</ele>
        <time>2014-08-28T08:59:12Z</time>
      </trkpt>
      <trkpt lat="46.35264" lon="6.72825">
        <ele>2093.868</ele>
        <time>2014-08-28T08:59:17Z</time>
      </trkpt>
      <trkpt lat="46.35263" lon="6.72825">
        <ele>2093.868</ele>
        <time>2014-08-28T08:59:22Z</time>
      </trkpt>
      <trkpt lat="46.35262" lon="6.72829">
        <ele>2093.868</ele>
        <time>2014-08-28T08:59:27Z</time>
      </trkpt>
      <trkpt lat="46.35261" lon="6.72834">
        <ele>2093.868</ele>
        <time>2014-08-28T08:59:32Z</time>
      </trkpt>
      <trkpt lat="46.3526" lon="6.72838">
        <ele>2090.9744</ele>
        <time>2014-08-28T08:59:37Z</time>
      </trkpt>
      <trkpt lat="46.3526" lon="6.72839">
        <ele>2090.9744</ele>
        <time>2014-08-28T08:59:42Z</time>
      </trkpt>
      <trkpt lat="46.3526" lon="6.7284">
        <ele>2090.9744</ele>
        <time>2014-08-28T08:59:47Z</time>
      </trkpt>
      <trkpt lat="46.3526" lon="6.7284">
        <ele>2090.9744</ele>
        <time>2014-08-28T08:59:52Z</time>
      </trkpt>
      <trkpt lat="46.35261" lon="6.7284">
        <ele>2090.9744</ele>
        <time>2014-08-28T08:59:57Z</time>
      </trkpt>
      <trkpt lat="46.35261" lon="6.7284">
        <ele>2090.9744</ele>
        <time>2014-08-28T09:00:02Z</time>
      </trkpt>
      <trkpt lat="46.35261" lon="6.72838">
        <ele>2090.9744</ele>
        <time>2014-08-28T09:00:07Z</time>
      </trkpt>
      <trkpt lat="46.35262" lon="6.72834">
        <ele>2090.9744</ele>
        <time>2014-08-28T09:00:12Z</time>
      </trkpt>
      <trkpt lat="46.35263" lon="6.72831">
        <ele>2090.9744</ele>
        <time>2014-08-28T09:00:17Z</time>
      </trkpt>
      <trkpt lat="46.35263" lon="6.7283">
        <ele>2088.527</ele>
        <time>2014-08-28T09:00:22Z</time>
      </trkpt>
      <trkpt lat="46.35263" lon="6.7283">
        <ele>2088.527</ele>
        <time>2014-08-28T09:00:27Z</time>
      </trkpt>
      <trkpt lat="46.35262" lon="6.72831">
        <ele>2088.527</ele>
        <time>2014-08-28T09:00:32Z</time>
      </trkpt>
      <trkpt lat="46.35262" lon="6.72833">
        <ele>2088.527</ele>
        <time>2014-08-28T09:00:37Z</time>
      </trkpt>
      <trkpt lat="46.35262" lon="6.72834">
        <ele>2088.527</ele>
        <time>2014-08-28T09:00:42Z</time>
      </trkpt>
      <trkpt lat="46.35261" lon="6.72835">
        <ele>2088.527</ele>
        <time>2014-08-28T09:00:47Z</time>
      </trkpt>
      <trkpt lat="46.35261" lon="6.72837">
        <ele>2088.527</ele>
        <time>2014-08-28T09:00:52Z</time>
      </trkpt>
      <trkpt lat="46.3526" lon="6.7284">
        <ele>2088.527</ele>
        <time>2014-08-28T09:00:57Z</time>
      </trkpt>
      <trkpt lat="46.3526" lon="6.72843">
        <ele>2086.522</ele>
        <time>2014-08-28T09:01:02Z</time>
      </trkpt>
      <trkpt lat="46.3526" lon="6.72845">
        <ele>2086.522</ele>
        <time>2014-08-28T09:01:07Z</time>
      </trkpt>
      <trkpt lat="46.35259" lon="6.72847">
        <ele>2086.522</ele>
        <time>2014-08-28T09:01:12Z</time>
      </trkpt>
      <trkpt lat="46.35259" lon="6.72848">
        <ele>2086.522</ele>
        <time>2014-08-28T09:01:17Z</time>
      </trkpt>
      <trkpt lat="46.35259" lon="6.72848">
        <ele>2086.522</ele>
        <time>2014-08-28T09:01:22Z</time>
      </trkpt>
      <trkpt lat="46.35259" lon="6.72848">
        <ele>2086.522</ele>
        <time>2014-08-28T09:01:27Z</time>
      </trkpt>
      <trkpt lat="46.35259" lon="6.72848">
        <ele>2086.522</ele>
        <time>2014-08-28T09:02:07Z</time>
      </trkpt>
      <trkpt lat="46.35262" lon="6.72839">
        <ele>2084.674</ele>
        <time>2014-08-28T09:02:12Z</time>
      </trkpt>
      <trkpt lat="46.35263" lon="6.72833">
        <ele>2084.674</ele>
        <time>2014-08-28T09:02:17Z</time>
      </trkpt>
      <trkpt lat="46.35264" lon="6.72831">
        <ele>2084.674</ele>
        <time>2014-08-28T09:02:22Z</time>
      </trkpt>
      <trkpt lat="46.35265" lon="6.72831">
        <ele>2084.674</ele>
        <time>2014-08-28T09:02:27Z</time>
      </trkpt>
      <trkpt lat="46.35265" lon="6.72832">
        <ele>2084.674</ele>
        <time>2014-08-28T09:02:32Z</time>
      </trkpt>
      <trkpt lat="46.35265" lon="6.72834">
        <ele>2083.3232</ele>
        <time>2014-08-28T09:02:37Z</time>
      </trkpt>
      <trkpt lat="46.35265" lon="6.72834">
        <ele>2083.3232</ele>
        <time>2014-08-28T09:02:42Z</time>
      </trkpt>
      <trkpt lat="46.35265" lon="6.72837">
        <ele>2083.3232</ele>
        <time>2014-08-28T09:02:47Z</time>
      </trkpt>
      <trkpt lat="46.35265" lon="6.72839">
        <ele>2083.3232</ele>
        <time>2014-08-28T09:02:52Z</time>
      </trkpt>
      <trkpt lat="46.35264" lon="6.7284">
        <ele>2083.3232</ele>
        <time>2014-08-28T09:02:57Z</time>
      </trkpt>
      <trkpt lat="46.35261" lon="6.72836">
        <ele>2083.3232</ele>
        <time>2014-08-28T09:03:02Z</time>
      </trkpt>
      <trkpt lat="46.35259" lon="6.72837">
        <ele>2082.077</ele>
        <time>2014-08-28T09:03:07Z</time>
      </trkpt>
      <trkpt lat="46.35256" lon="6.72834">
        <ele>2082.077</ele>
        <time>2014-08-28T09:03:12Z</time>
      </trkpt>
      <trkpt lat="46.35256" lon="6.72833">
        <ele>2082.077</ele>
        <time>2014-08-28T09:03:17Z</time>
      </trkpt>
      <trkpt lat="46.35256" lon="6.72833">
        <ele>2082.077</ele>
        <time>2014-08-28T09:03:22Z</time>
      </trkpt>
      <trkpt lat="46.35257" lon="6.72833">
        <ele>2082.077</ele>
        <time>2014-08-28T09:03:27Z</time>
      </trkpt>
      <trkpt lat="46.35257" lon="6.72833">
        <ele>2082.077</ele>
        <time>2014-08-28T09:03:32Z</time>
      </trkpt>
      <trkpt lat="46.35257" lon="6.72833">
        <ele>2082.077</ele>
        <time>2014-08-28T09:03:37Z</time>
      </trkpt>
      <trkpt lat="46.35257" lon="6.72832">
        <ele>2082.077</ele>
        <time>2014-08-28T09:03:42Z</time>
      </trkpt>
      <trkpt lat="46.35258" lon="6.72829">
        <ele>2082.077</ele>
        <time>2014-08-28T09:03:47Z</time>
      </trkpt>
      <trkpt lat="46.35258" lon="6.72829">
        <ele>2082.077</ele>
        <time>2014-08-28T09:03:52Z</time>
      </trkpt>
      <trkpt lat="46.35258" lon="6.72829">
        <ele>2082.077</ele>
        <time>2014-08-28T09:03:57Z</time>
      </trkpt>
      <trkpt lat="46.35258" lon="6.7283">
        <ele>2082.077</ele>
        <time>2014-08-28T09:04:02Z</time>
      </trkpt>
      <trkpt lat="46.35257" lon="6.7283">
        <ele>2081.1592</ele>
        <time>2014-08-28T09:04:07Z</time>
      </trkpt>
      <trkpt lat="46.35256" lon="6.7283">
        <ele>2081.1592</ele>
        <time>2014-08-28T09:04:12Z</time>
      </trkpt>
      <trkpt lat="46.35256" lon="6.7283">
        <ele>2081.1592</ele>
        <time>2014-08-28T09:04:17Z</time>
      </trkpt>
      <trkpt lat="46.35255" lon="6.72831">
        <ele>2081.1592</ele>
        <time>2014-08-28T09:04:22Z</time>
      </trkpt>
      <trkpt lat="46.35255" lon="6.72831">
        <ele>2081.1592</ele>
        <time>2014-08-28T09:04:27Z</time>
      </trkpt>
      <trkpt lat="46.35255" lon="6.72831">
        <ele>2081.1592</ele>
        <time>2014-08-28T09:04:32Z</time>
      </trkpt>
      <trkpt lat="46.35255" lon="6.72831">
        <ele>2081.1592</ele>
        <time>2014-08-28T09:04:37Z</time>
      </trkpt>
      <trkpt lat="46.35256" lon="6.7283">
        <ele>2081.1592</ele>
        <time>2014-08-28T09:04:42Z</time>
      </trkpt>
      <trkpt lat="46.35256" lon="6.72831">
        <ele>2081.1592</ele>
        <time>2014-08-28T09:04:47Z</time>
      </trkpt>
      <trkpt lat="46.35257" lon="6.72832">
        <ele>2081.1592</ele>
        <time>2014-08-28T09:04:52Z</time>
      </trkpt>
      <trkpt lat="46.35256" lon="6.72832">
        <ele>2081.1592</ele>
        <time>2014-08-28T09:04:57Z</time>
      </trkpt>
      <trkpt lat="46.35258" lon="6.72833">
        <ele>2081.1592</ele>
        <time>2014-08-28T09:05:02Z</time>
      </trkpt>
      <trkpt lat="46.35259" lon="6.72836">
        <ele>2080.5266</ele>
        <time>2014-08-28T09:05:07Z</time>
      </trkpt>
      <trkpt lat="46.35263" lon="6.72836">
        <ele>2080.5266</ele>
        <time>2014-08-28T09:05:12Z</time>
      </trkpt>
      <trkpt lat="46.35265" lon="6.72836">
        <ele>2080.5266</ele>
        <time>2014-08-28T09:05:17Z</time>
      </trkpt>
      <trkpt lat="46.35265" lon="6.72837">
        <ele>2080.5266</ele>
        <time>2014-08-28T09:05:22Z</time>
      </trkpt>
      <trkpt lat="46.35265" lon="6.72833">
        <ele>2080.5266</ele>
        <time>2014-08-28T09:05:27Z</time>
      </trkpt>
      <trkpt lat="46.35265" lon="6.72828">
        <ele>2079.7302</ele>
        <time>2014-08-28T09:05:32Z</time>
      </trkpt>
      <trkpt lat="46.35264" lon="6.72827">
        <ele>2079.7302</ele>
        <time>2014-08-28T09:05:37Z</time>
      </trkpt>
      <trkpt lat="46.35264" lon="6.72827">
        <ele>2079.7302</ele>
        <time>2014-08-28T09:05:42Z</time>
      </trkpt>
      <trkpt lat="46.35264" lon="6.72829">
        <ele>2079.7302</ele>
        <time>2014-08-28T09:05:47Z</time>
      </trkpt>
      <trkpt lat="46.35265" lon="6.72829">
        <ele>2079.7302</ele>
        <time>2014-08-28T09:05:52Z</time>
      </trkpt>
      <trkpt lat="46.35265" lon="6.72829">
        <ele>2079.7302</ele>
        <time>2014-08-28T09:05:57Z</time>
      </trkpt>
      <trkpt lat="46.35264" lon="6.72829">
        <ele>2079.7302</ele>
        <time>2014-08-28T09:06:02Z</time>
      </trkpt>
      <trkpt lat="46.35263" lon="6.72827">
        <ele>2079.7302</ele>
        <time>2014-08-28T09:06:07Z</time>
      </trkpt>
      <trkpt lat="46.35262" lon="6.72826">
        <ele>2079.7302</ele>
        <time>2014-08-28T09:06:12Z</time>
      </trkpt>
      <trkpt lat="46.35263" lon="6.72825">
        <ele>2079.7302</ele>
        <time>2014-08-28T09:06:17Z</time>
      </trkpt>
      <trkpt lat="46.35262" lon="6.72824">
        <ele>2079.7302</ele>
        <time>2014-08-28T09:06:22Z</time>
      </trkpt>
      <trkpt lat="46.35262" lon="6.72824">
        <ele>2079.7302</ele>
        <time>2014-08-28T09:06:27Z</time>
      </trkpt>
      <trkpt lat="46.35263" lon="6.72823">
        <ele>2078.7646</ele>
        <time>2014-08-28T09:06:32Z</time>
      </trkpt>
      <trkpt lat="46.35263" lon="6.72824">
        <ele>2078.7646</ele>
        <time>2014-08-28T09:06:37Z</time>
      </trkpt>
      <trkpt lat="46.35263" lon="6.72823">
        <ele>2078.7646</ele>
        <time>2014-08-28T09:06:42Z</time>
      </trkpt>
      <trkpt lat="46.35263" lon="6.72823">
        <ele>2078.7646</ele>
        <time>2014-08-28T09:06:47Z</time>
      </trkpt>
      <trkpt lat="46.35262" lon="6.72823">
        <ele>2078.7646</ele>
        <time>2014-08-28T09:07:07Z</time>
      </trkpt>
      <trkpt lat="46.35262" lon="6.72822">
        <ele>2078.7646</ele>
        <time>2014-08-28T09:07:12Z</time>
      </trkpt>
      <trkpt lat="46.3526" lon="6.7282">
        <ele>2078.7646</ele>
        <time>2014-08-28T09:07:17Z</time>
      </trkpt>
      <trkpt lat="46.3526" lon="6.7282">
        <ele>2078.7646</ele>
        <time>2014-08-28T09:07:22Z</time>
      </trkpt>
      <trkpt lat="46.35259" lon="6.72818">
        <ele>2078.7646</ele>
        <time>2014-08-28T09:07:27Z</time>
      </trkpt>
      <trkpt lat="46.35258" lon="6.72817">
        <ele>2078.7646</ele>
        <time>2014-08-28T09:07:32Z</time>
      </trkpt>
      <trkpt lat="46.35258" lon="6.72817">
        <ele>2078.7646</ele>
        <time>2014-08-28T09:07:37Z</time>
      </trkpt>
      <trkpt lat="46.35257" lon="6.72816">
        <ele>2078.7646</ele>
        <time>2014-08-28T09:07:42Z</time>
      </trkpt>
      <trkpt lat="46.35257" lon="6.72816">
        <ele>2078.7646</ele>
        <time>2014-08-28T09:07:47Z</time>
      </trkpt>
      <trkpt lat="46.35256" lon="6.72815">
        <ele>2077.9158</ele>
        <time>2014-08-28T09:07:52Z</time>
      </trkpt>
      <trkpt lat="46.35256" lon="6.72815">
        <ele>2077.9158</ele>
        <time>2014-08-28T09:07:57Z</time>
      </trkpt>
      <trkpt lat="46.35256" lon="6.72814">
        <ele>2077.9158</ele>
        <time>2014-08-28T09:08:07Z</time>
      </trkpt>
      <trkpt lat="46.35256" lon="6.72813">
        <ele>2077.9158</ele>
        <time>2014-08-28T09:08:17Z</time>
      </trkpt>
      <trkpt lat="46.35257" lon="6.72813">
        <ele>2077.9158</ele>
        <time>2014-08-28T09:08:22Z</time>
      </trkpt>
      <trkpt lat="46.35258" lon="6.72812">
        <ele>2077.9158</ele>
        <time>2014-08-28T09:08:27Z</time>
      </trkpt>
      <trkpt lat="46.35257" lon="6.72809">
        <ele>2077.9158</ele>
        <time>2014-08-28T09:08:32Z</time>
      </trkpt>
      <trkpt lat="46.35254" lon="6.72806">
        <ele>2076.4736</ele>
        <time>2014-08-28T09:08:37Z</time>
      </trkpt>
      <trkpt lat="46.35251" lon="6.72803">
        <ele>2076.4736</ele>
        <time>2014-08-28T09:08:42Z</time>
      </trkpt>
      <trkpt lat="46.35251" lon="6.72802">
        <ele>2076.4736</ele>
        <time>2014-08-28T09:08:47Z</time>
      </trkpt>
      <trkpt lat="46.35251" lon="6.72802">
        <ele>2076.4736</ele>
        <time>2014-08-28T09:08:52Z</time>
      </trkpt>
      <trkpt lat="46.35251" lon="6.72799">
        <ele>2076.4736</ele>
        <time>2014-08-28T09:08:57Z</time>
      </trkpt>
      <trkpt lat="46.35251" lon="6.72794">
        <ele>2075.1045</ele>
        <time>2014-08-28T09:09:02Z</time>
      </trkpt>
      <trkpt lat="46.35251" lon="6.72789">
        <ele>2075.1045</ele>
        <time>2014-08-28T09:09:07Z</time>
      </trkpt>
      <trkpt lat="46.35251" lon="6.72785">
        <ele>2075.1045</ele>
        <time>2014-08-28T09:09:12Z</time>
      </trkpt>
      <trkpt lat="46.35249" lon="6.72785">
        <ele>2075.1045</ele>
        <time>2014-08-28T09:09:17Z</time>
      </trkpt>
      <trkpt lat="46.35248" lon="6.72785">
        <ele>2075.1045</ele>
        <time>2014-08-28T09:09:22Z</time>
      </trkpt>
      <trkpt lat="46.35248" lon="6.72784">
        <ele>2073.2922</ele>
        <time>2014-08-28T09:09:52Z</time>
      </trkpt>
      <trkpt lat="46.35248" lon="6.72782">
        <ele>2073.2922</ele>
        <time>2014-08-28T09:09:57Z</time>
      </trkpt>
      <trkpt lat="46.35247" lon="6.72782">
        <ele>2073.2922</ele>
        <time>2014-08-28T09:10:02Z</time>
      </trkpt>
      <trkpt lat="46.35247" lon="6.72781">
        <ele>2073.2922</ele>
        <time>2014-08-28T09:10:07Z</time>
      </trkpt>
      <trkpt lat="46.35247" lon="6.72778">
        <ele>2073.2922</ele>
        <time>2014-08-28T09:10:42Z</time>
      </trkpt>
      <trkpt lat="46.35247" lon="6.72777">
        <ele>2073.2922</ele>
        <time>2014-08-28T09:10:47Z</time>
      </trkpt>
      <trkpt lat="46.35247" lon="6.72775">
        <ele>2073.2922</ele>
        <time>2014-08-28T09:10:52Z</time>
      </trkpt>
      <trkpt lat="46.35247" lon="6.72774">
        <ele>2073.2922</ele>
        <time>2014-08-28T09:10:57Z</time>
      </trkpt>
      <trkpt lat="46.35247" lon="6.72773">
        <ele>2073.2922</ele>
        <time>2014-08-28T09:11:02Z</time>
      </trkpt>
      <trkpt lat="46.35247" lon="6.72773">
        <ele>2073.2922</ele>
        <time>2014-08-28T09:11:07Z</time>
      </trkpt>
      <trkpt lat="46.35246" lon="6.72773">
        <ele>2073.2922</ele>
        <time>2014-08-28T09:11:17Z</time>
      </trkpt>
      <trkpt lat="46.35246" lon="6.72773">
        <ele>2073.2922</ele>
        <time>2014-08-28T09:11:22Z</time>
      </trkpt>
      <trkpt lat="46.35246" lon="6.72772">
        <ele>2070.9094</ele>
        <time>2014-08-28T09:11:27Z</time>
      </trkpt>
      <trkpt lat="46.35247" lon="6.72772">
        <ele>2070.9094</ele>
        <time>2014-08-28T09:11:32Z</time>
      </trkpt>
      <trkpt lat="46.35247" lon="6.72772">
        <ele>2070.9094</ele>
        <time>2014-08-28T09:11:37Z</time>
      </trkpt>
      <trkpt lat="46.35247" lon="6.72772">
        <ele>2070.9094</ele>
        <time>2014-08-28T09:11:42Z</time>
      </trkpt>
      <trkpt lat="46.35245" lon="6.72771">
        <ele>2070.9094</ele>
        <time>2014-08-28T09:11:47Z</time>
      </trkpt>
      <trkpt lat="46.35245" lon="6.72771">
        <ele>2070.9094</ele>
        <time>2014-08-28T09:11:52Z</time>
      </trkpt>
      <trkpt lat="46.35245" lon="6.72771">
        <ele>2070.9094</ele>
        <time>2014-08-28T09:11:57Z</time>
      </trkpt>
      <trkpt lat="46.35244" lon="6.7277">
        <ele>2070.9094</ele>
        <time>2014-08-28T09:12:02Z</time>
      </trkpt>
      <trkpt lat="46.35244" lon="6.7277">
        <ele>2070.9094</ele>
        <time>2014-08-28T09:12:07Z</time>
      </trkpt>
      <trkpt lat="46.35244" lon="6.72769">
        <ele>2070.9094</ele>
        <time>2014-08-28T09:12:12Z</time>
      </trkpt>
      <trkpt lat="46.35245" lon="6.72769">
        <ele>2070.9094</ele>
        <time>2014-08-28T09:12:17Z</time>
      </trkpt>
      <trkpt lat="46.35246" lon="6.72767">
        <ele>2070.9094</ele>
        <time>2014-08-28T09:12:22Z</time>
      </trkpt>
      <trkpt lat="46.35246" lon="6.72767">
        <ele>2070.9094</ele>
        <time>2014-08-28T09:12:27Z</time>
      </trkpt>
      <trkpt lat="46.35245" lon="6.72767">
        <ele>2070.9094</ele>
        <time>2014-08-28T09:13:57Z</time>
      </trkpt>
      <trkpt lat="46.35245" lon="6.72767">
        <ele>2070.9094</ele>
        <time>2014-08-28T09:14:02Z</time>
      </trkpt>
      <trkpt lat="46.35244" lon="6.72764">
        <ele>2067.333</ele>
        <time>2014-08-28T09:14:12Z</time>
      </trkpt>
      <trkpt lat="46.35244" lon="6.72764">
        <ele>2067.333</ele>
        <time>2014-08-28T09:14:17Z</time>
      </trkpt>
      <trkpt lat="46.35244" lon="6.72764">
        <ele>2067.333</ele>
        <time>2014-08-28T09:14:42Z</time>
      </trkpt>
      <trkpt lat="46.35244" lon="6.72764">
        <ele>2067.333</ele>
        <time>2014-08-28T09:14:47Z</time>
      </trkpt>
      <trkpt lat="46.35243" lon="6.72763">
        <ele>2067.333</ele>
        <time>2014-08-28T09:14:52Z</time>
      </trkpt>
      <trkpt lat="46.35242" lon="6.72766">
        <ele>2067.333</ele>
        <time>2014-08-28T09:14:57Z</time>
      </trkpt>
      <trkpt lat="46.35242" lon="6.72766">
        <ele>2067.333</ele>
        <time>2014-08-28T09:15:02Z</time>
      </trkpt>
      <trkpt lat="46.35241" lon="6.72764">
        <ele>2067.333</ele>
        <time>2014-08-28T09:15:07Z</time>
      </trkpt>
      <trkpt lat="46.35242" lon="6.72764">
        <ele>2067.333</ele>
        <time>2014-08-28T09:15:12Z</time>
      </trkpt>
      <trkpt lat="46.35241" lon="6.72761">
        <ele>2067.333</ele>
        <time>2014-08-28T09:15:17Z</time>
      </trkpt>
      <trkpt lat="46.35242" lon="6.72761">
        <ele>2067.333</ele>
        <time>2014-08-28T09:15:22Z</time>
      </trkpt>
      <trkpt lat="46.35242" lon="6.72761">
        <ele>2067.333</ele>
        <time>2014-08-28T09:15:27Z</time>
      </trkpt>
      <trkpt lat="46.35241" lon="6.72761">
        <ele>2062.669</ele>
        <time>2014-08-28T09:15:47Z</time>
      </trkpt>
      <trkpt lat="46.35241" lon="6.72761">
        <ele>2062.669</ele>
        <time>2014-08-28T09:15:52Z</time>
      </trkpt>
      <trkpt lat="46.35241" lon="6.7276">
        <ele>2062.669</ele>
        <time>2014-08-28T09:15:57Z</time>
      </trkpt>
      <trkpt lat="46.3524" lon="6.7276">
        <ele>2062.669</ele>
        <time>2014-08-28T09:16:02Z</time>
      </trkpt>
      <trkpt lat="46.3524" lon="6.72759">
        <ele>2062.669</ele>
        <time>2014-08-28T09:16:07Z</time>
      </trkpt>
      <trkpt lat="46.35241" lon="6.7276">
        <ele>2062.669</ele>
        <time>2014-08-28T09:16:12Z</time>
      </trkpt>
      <trkpt lat="46.35241" lon="6.7276">
        <ele>2062.669</ele>
        <time>2014-08-28T09:16:17Z</time>
      </trkpt>
      <trkpt lat="46.3524" lon="6.72758">
        <ele>2062.669</ele>
        <time>2014-08-28T09:16:22Z</time>
      </trkpt>
      <trkpt lat="46.35235" lon="6.72759">
        <ele>2058.014</ele>
        <time>2014-08-28T09:16:27Z</time>
      </trkpt>
      <trkpt lat="46.35235" lon="6.72758">
        <ele>2058.014</ele>
        <time>2014-08-28T09:16:32Z</time>
      </trkpt>
      <trkpt lat="46.35235" lon="6.72755">
        <ele>2058.014</ele>
        <time>2014-08-28T09:16:37Z</time>
      </trkpt>
      <trkpt lat="46.35235" lon="6.72754">
        <ele>2058.014</ele>
        <time>2014-08-28T09:16:42Z</time>
      </trkpt>
      <trkpt lat="46.35234" lon="6.72755">
        <ele>2058.014</ele>
        <time>2014-08-28T09:16:47Z</time>
      </trkpt>
      <trkpt lat="46.35234" lon="6.72755">
        <ele>2058.014</ele>
        <time>2014-08-28T09:16:52Z</time>
      </trkpt>
      <trkpt lat="46.35233" lon="6.72754">
        <ele>2058.014</ele>
        <time>2014-08-28T09:17:07Z</time>
      </trkpt>
      <trkpt lat="46.35233" lon="6.72752">
        <ele>2058.014</ele>
        <time>2014-08-28T09:17:12Z</time>
      </trkpt>
      <trkpt lat="46.35231" lon="6.72753">
        <ele>2052.6208</ele>
        <time>2014-08-28T09:17:17Z</time>
      </trkpt>
      <trkpt lat="46.35232" lon="6.72752">
        <ele>2052.6208</ele>
        <time>2014-08-28T09:17:22Z</time>
      </trkpt>
      <trkpt lat="46.35231" lon="6.7275">
        <ele>2052.6208</ele>
        <time>2014-08-28T09:17:27Z</time>
      </trkpt>
      <trkpt lat="46.35231" lon="6.7275">
        <ele>2052.6208</ele>
        <time>2014-08-28T09:17:32Z</time>
      </trkpt>
      <trkpt lat="46.35231" lon="6.7275">
        <ele>2052.6208</ele>
        <time>2014-08-28T09:17:37Z</time>
      </trkpt>
      <trkpt lat="46.35231" lon="6.72751">
        <ele>2052.6208</ele>
        <time>2014-08-28T09:17:42Z</time>
      </trkpt>
      <trkpt lat="46.35231" lon="6.72751">
        <ele>2052.6208</ele>
        <time>2014-08-28T09:17:57Z</time>
      </trkpt>
      <trkpt lat="46.35231" lon="6.72751">
        <ele>2052.6208</ele>
        <time>2014-08-28T09:18:02Z</time>
      </trkpt>
      <trkpt lat="46.35228" lon="6.72747">
        <ele>2052.6208</ele>
        <time>2014-08-28T09:18:07Z</time>
      </trkpt>
      <trkpt lat="46.35227" lon="6.72746">
        <ele>2048.2678</ele>
        <time>2014-08-28T09:18:12Z</time>
      </trkpt>
      <trkpt lat="46.35227" lon="6.72746">
        <ele>2048.2678</ele>
        <time>2014-08-28T09:18:17Z</time>
      </trkpt>
      <trkpt lat="46.35226" lon="6.72744">
        <ele>2048.2678</ele>
        <time>2014-08-28T09:18:32Z</time>
      </trkpt>
      <trkpt lat="46.35226" lon="6.72744">
        <ele>2048.2678</ele>
        <time>2014-08-28T09:18:37Z</time>
      </trkpt>
      <trkpt lat="46.35227" lon="6.72744">
        <ele>2048.2678</ele>
        <time>2014-08-28T09:18:42Z</time>
      </trkpt>
      <trkpt lat="46.35226" lon="6.72742">
        <ele>2048.2678</ele>
        <time>2014-08-28T09:18:47Z</time>
      </trkpt>
      <trkpt lat="46.35224" lon="6.7274">
        <ele>2048.2678</ele>
        <time>2014-08-28T09:18:52Z</time>
      </trkpt>
      <trkpt lat="46.35224" lon="6.7274">
        <ele>2048.2678</ele>
        <time>2014-08-28T09:18:57Z</time>
      </trkpt>
      <trkpt lat="46.35223" lon="6.72739">
        <ele>2048.2678</ele>
        <time>2014-08-28T09:19:02Z</time>
      </trkpt>
      <trkpt lat="46.35221" lon="6.72738">
        <ele>2044.2168</ele>
        <time>2014-08-28T09:19:07Z</time>
      </trkpt>
      <trkpt lat="46.35217" lon="6.72735">
        <ele>2044.2168</ele>
        <time>2014-08-28T09:19:12Z</time>
      </trkpt>
      <trkpt lat="46.35217" lon="6.72735">
        <ele>2044.2168</ele>
        <time>2014-08-28T09:19:17Z</time>
      </trkpt>
      <trkpt lat="46.35216" lon="6.72734">
        <ele>2044.2168</ele>
        <time>2014-08-28T09:19:22Z</time>
      </trkpt>
      <trkpt lat="46.35214" lon="6.7273">
        <ele>2040.7511</ele>
        <time>2014-08-28T09:19:27Z</time>
      </trkpt>
      <trkpt lat="46.35212" lon="6.72728">
        <ele>2040.7511</ele>
        <time>2014-08-28T09:19:32Z</time>
      </trkpt>
      <trkpt lat="46.35212" lon="6.72727">
        <ele>2040.7511</ele>
        <time>2014-08-28T09:19:37Z</time>
      </trkpt>
      <trkpt lat="46.35211" lon="6.72722">
        <ele>2040.7511</ele>
        <time>2014-08-28T09:19:42Z</time>
      </trkpt>
      <trkpt lat="46.35209" lon="6.7272">
        <ele>2040.7511</ele>
        <time>2014-08-28T09:19:47Z</time>
      </trkpt>
      <trkpt lat="46.35209" lon="6.7272">
        <ele>2040.7511</ele>
        <time>2014-08-28T09:19:52Z</time>
      </trkpt>
      <trkpt lat="46.35208" lon="6.72719">
        <ele>2037.5251</ele>
        <time>2014-08-28T09:19:57Z</time>
      </trkpt>
      <trkpt lat="46.35207" lon="6.72716">
        <ele>2037.5251</ele>
        <time>2014-08-28T09:20:02Z</time>
      </trkpt>
      <trkpt lat="46.35207" lon="6.72716">
        <ele>2037.5251</ele>
        <time>2014-08-28T09:20:07Z</time>
      </trkpt>
      <trkpt lat="46.35206" lon="6.72715">
        <ele>2037.5251</ele>
        <time>2014-08-28T09:20:12Z</time>
      </trkpt>
      <trkpt lat="46.35205" lon="6.72712">
        <ele>2037.5251</ele>
        <time>2014-08-28T09:20:17Z</time>
      </trkpt>
      <trkpt lat="46.35204" lon="6.72711">
        <ele>2037.5251</ele>
        <time>2014-08-28T09:20:22Z</time>
      </trkpt>
      <trkpt lat="46.35204" lon="6.7271">
        <ele>2037.5251</ele>
        <time>2014-08-28T09:20:27Z</time>
      </trkpt>
      <trkpt lat="46.35203" lon="6.72709">
        <ele>2037.5251</ele>
        <time>2014-08-28T09:20:32Z</time>
      </trkpt>
      <trkpt lat="46.35203" lon="6.72708">
        <ele>2034.1604</ele>
        <time>2014-08-28T09:20:37Z</time>
      </trkpt>
      <trkpt lat="46.35203" lon="6.72708">
        <ele>2034.1604</ele>
        <time>2014-08-28T09:20:42Z</time>
      </trkpt>
      <trkpt lat="46.35206" lon="6.72705">
        <ele>2034.1604</ele>
        <time>2014-08-28T09:20:57Z</time>
      </trkpt>
      <trkpt lat="46.35206" lon="6.72705">
        <ele>2034.1604</ele>
        <time>2014-08-28T09:21:02Z</time>
      </trkpt>
      <trkpt lat="46.35205" lon="6.72702">
        <ele>2034.1604</ele>
        <time>2014-08-28T09:21:07Z</time>
      </trkpt>
      <trkpt lat="46.35204" lon="6.72702">
        <ele>2034.1604</ele>
        <time>2014-08-28T09:21:12Z</time>
      </trkpt>
      <trkpt lat="46.35204" lon="6.72702">
        <ele>2034.1604</ele>
        <time>2014-08-28T09:21:17Z</time>
      </trkpt>
      <trkpt lat="46.35204" lon="6.72701">
        <ele>2034.1604</ele>
        <time>2014-08-28T09:21:22Z</time>
      </trkpt>
      <trkpt lat="46.35204" lon="6.72701">
        <ele>2034.1604</ele>
        <time>2014-08-28T09:21:27Z</time>
      </trkpt>
      <trkpt lat="46.35204" lon="6.72702">
        <ele>2034.1604</ele>
        <time>2014-08-28T09:22:17Z</time>
      </trkpt>
      <trkpt lat="46.35204" lon="6.72702">
        <ele>2034.1604</ele>
        <time>2014-08-28T09:22:22Z</time>
      </trkpt>
      <trkpt lat="46.35203" lon="6.72698">
        <ele>2027.9425</ele>
        <time>2014-08-28T09:22:57Z</time>
      </trkpt>
      <trkpt lat="46.35203" lon="6.72698">
        <ele>2027.9425</ele>
        <time>2014-08-28T09:23:02Z</time>
      </trkpt>
      <trkpt lat="46.35203" lon="6.72697">
        <ele>2027.9425</ele>
        <time>2014-08-28T09:23:07Z</time>
      </trkpt>
      <trkpt lat="46.35203" lon="6.72697">
        <ele>2027.9425</ele>
        <time>2014-08-28T09:23:12Z</time>
      </trkpt>
      <trkpt lat="46.35203" lon="6.72697">
        <ele>2027.9425</ele>
        <time>2014-08-28T09:23:22Z</time>
      </trkpt>
      <trkpt lat="46.35203" lon="6.72697">
        <ele>2027.9425</ele>
        <time>2014-08-28T09:23:27Z</time>
      </trkpt>
      <trkpt lat="46.352" lon="6.72691">
        <ele>2027.9425</ele>
        <time>2014-08-28T09:23:47Z</time>
      </trkpt>
      <trkpt lat="46.352" lon="6.72689">
        <ele>2027.9425</ele>
        <time>2014-08-28T09:23:52Z</time>
      </trkpt>
      <trkpt lat="46.352" lon="6.72689">
        <ele>2027.9425</ele>
        <time>2014-08-28T09:23:57Z</time>
      </trkpt>
      <trkpt lat="46.35198" lon="6.72685">
        <ele>2021.8427</ele>
        <time>2014-08-28T09:24:02Z</time>
      </trkpt>
      <trkpt lat="46.35198" lon="6.72685">
        <ele>2021.8427</ele>
        <time>2014-08-28T09:24:07Z</time>
      </trkpt>
      <trkpt lat="46.35197" lon="6.72677">
        <ele>2021.8427</ele>
        <time>2014-08-28T09:24:17Z</time>
      </trkpt>
      <trkpt lat="46.35194" lon="6.72673">
        <ele>2016.0326</ele>
        <time>2014-08-28T09:24:22Z</time>
      </trkpt>
      <trkpt lat="46.35193" lon="6.72672">
        <ele>2016.0326</ele>
        <time>2014-08-28T09:24:27Z</time>
      </trkpt>
      <trkpt lat="46.35191" lon="6.72669">
        <ele>2016.0326</ele>
        <time>2014-08-28T09:24:32Z</time>
      </trkpt>
      <trkpt lat="46.35188" lon="6.72663">
        <ele>2010.7137</ele>
        <time>2014-08-28T09:24:37Z</time>
      </trkpt>
      <trkpt lat="46.35185" lon="6.7266">
        <ele>2010.7137</ele>
        <time>2014-08-28T09:24:42Z</time>
      </trkpt>
      <trkpt lat="46.35183" lon="6.72657">
        <ele>2010.7137</ele>
        <time>2014-08-28T09:24:47Z</time>
      </trkpt>
      <trkpt lat="46.3518" lon="6.72652">
        <ele>2005.8694</ele>
        <time>2014-08-28T09:24:52Z</time>
      </trkpt>
      <trkpt lat="46.35177" lon="6.72647">
        <ele>2005.8694</ele>
        <time>2014-08-28T09:24:57Z</time>
      </trkpt>
      <trkpt lat="46.35175" lon="6.72643">
        <ele>2005.8694</ele>
        <time>2014-08-28T09:25:02Z</time>
      </trkpt>
      <trkpt lat="46.35176" lon="6.72638">
        <ele>2001.1943</ele>
        <time>2014-08-28T09:25:07Z</time>
      </trkpt>
      <trkpt lat="46.35175" lon="6.72634">
        <ele>2001.1943</ele>
        <time>2014-08-28T09:25:12Z</time>
      </trkpt>
      <trkpt lat="46.35175" lon="6.72632">
        <ele>2001.1943</ele>
        <time>2014-08-28T09:25:17Z</time>
      </trkpt>
      <trkpt lat="46.35174" lon="6.72629">
        <ele>2001.1943</ele>
        <time>2014-08-28T09:25:22Z</time>
      </trkpt>
      <trkpt lat="46.35174" lon="6.72629">
        <ele>2001.1943</ele>
        <time>2014-08-28T09:25:27Z</time>
      </trkpt>
      <trkpt lat="46.35174" lon="6.72626">
        <ele>2001.1943</ele>
        <time>2014-08-28T09:26:32Z</time>
      </trkpt>
      <trkpt lat="46.35174" lon="6.72625">
        <ele>1996.2607</ele>
        <time>2014-08-28T09:26:37Z</time>
      </trkpt>
      <trkpt lat="46.35174" lon="6.72624">
        <ele>1996.2607</ele>
        <time>2014-08-28T09:26:42Z</time>
      </trkpt>
      <trkpt lat="46.35174" lon="6.72623">
        <ele>1996.2607</ele>
        <time>2014-08-28T09:26:47Z</time>
      </trkpt>
      <trkpt lat="46.35173" lon="6.7262">
        <ele>1996.2607</ele>
        <time>2014-08-28T09:26:52Z</time>
      </trkpt>
      <trkpt lat="46.35172" lon="6.7262">
        <ele>1996.2607</ele>
        <time>2014-08-28T09:26:57Z</time>
      </trkpt>
      <trkpt lat="46.3517" lon="6.72621">
        <ele>1996.2607</ele>
        <time>2014-08-28T09:27:02Z</time>
      </trkpt>
      <trkpt lat="46.35168" lon="6.72621">
        <ele>1991.1631</ele>
        <time>2014-08-28T09:27:07Z</time>
      </trkpt>
      <trkpt lat="46.35166" lon="6.7262">
        <ele>1991.1631</ele>
        <time>2014-08-28T09:27:12Z</time>
      </trkpt>
      <trkpt lat="46.35166" lon="6.7262">
        <ele>1991.1631</ele>
        <time>2014-08-28T09:27:17Z</time>
      </trkpt>
      <trkpt lat="46.35163" lon="6.72619">
        <ele>1991.1631</ele>
        <time>2014-08-28T09:27:27Z</time>
      </trkpt>
      <trkpt lat="46.3516" lon="6.72623">
        <ele>1991.1631</ele>
        <time>2014-08-28T09:27:32Z</time>
      </trkpt>
      <trkpt lat="46.3516" lon="6.72622">
        <ele>1986.3066</ele>
        <time>2014-08-28T09:27:37Z</time>
      </trkpt>
      <trkpt lat="46.35158" lon="6.72614">
        <ele>1986.3066</ele>
        <time>2014-08-28T09:27:42Z</time>
      </trkpt>
      <trkpt lat="46.35157" lon="6.72609">
        <ele>1986.3066</ele>
        <time>2014-08-28T09:27:47Z</time>
      </trkpt>
      <trkpt lat="46.35158" lon="6.72603">
        <ele>1981.7488</ele>
        <time>2014-08-28T09:27:52Z</time>
      </trkpt>
      <trkpt lat="46.35158" lon="6.72599">
        <ele>1981.7488</ele>
        <time>2014-08-28T09:27:57Z</time>
      </trkpt>
      <trkpt lat="46.35159" lon="6.72591">
        <ele>1981.7488</ele>
        <time>2014-08-28T09:28:02Z</time>
      </trkpt>
      <trkpt lat="46.35161" lon="6.72584">
        <ele>1977.7147</ele>
        <time>2014-08-28T09:28:07Z</time>
      </trkpt>
      <trkpt lat="46.35161" lon="6.72579">
        <ele>1977.7147</ele>
        <time>2014-08-28T09:28:12Z</time>
      </trkpt>
      <trkpt lat="46.3516" lon="6.72577">
        <ele>1977.7147</ele>
        <time>2014-08-28T09:28:17Z</time>
      </trkpt>
      <trkpt lat="46.35159" lon="6.72575">
        <ele>1977.7147</ele>
        <time>2014-08-28T09:28:22Z</time>
      </trkpt>
      <trkpt lat="46.35157" lon="6.72569">
        <ele>1973.9354</ele>
        <time>2014-08-28T09:28:27Z</time>
      </trkpt>
      <trkpt lat="46.35155" lon="6.72565">
        <ele>1973.9354</ele>
        <time>2014-08-28T09:28:32Z</time>
      </trkpt>
      <trkpt lat="46.35155" lon="6.72563">
        <ele>1973.9354</ele>
        <time>2014-08-28T09:28:37Z</time>
      </trkpt>
      <trkpt lat="46.35155" lon="6.72563">
        <ele>1973.9354</ele>
        <time>2014-08-28T09:28:42Z</time>
      </trkpt>
      <trkpt lat="46.35154" lon="6.72561">
        <ele>1973.9354</ele>
        <time>2014-08-28T09:28:47Z</time>
      </trkpt>
      <trkpt lat="46.35154" lon="6.72561">
        <ele>1973.9354</ele>
        <time>2014-08-28T09:28:52Z</time>
      </trkpt>
      <trkpt lat="46.35152" lon="6.72557">
        <ele>1970.2188</ele>
        <time>2014-08-28T09:28:57Z</time>
      </trkpt>
      <trkpt lat="46.35151" lon="6.72556">
        <ele>1970.2188</ele>
        <time>2014-08-28T09:29:02Z</time>
      </trkpt>
      <trkpt lat="46.35152" lon="6.72555">
        <ele>1970.2188</ele>
        <time>2014-08-28T09:29:07Z</time>
      </trkpt>
      <trkpt lat="46.3515" lon="6.72553">
        <ele>1970.2188</ele>
        <time>2014-08-28T09:29:12Z</time>
      </trkpt>
      <trkpt lat="46.3515" lon="6.72548">
        <ele>1970.2188</ele>
        <time>2014-08-28T09:29:17Z</time>
      </trkpt>
      <trkpt lat="46.35149" lon="6.72545">
        <ele>1966.0254</ele>
        <time>2014-08-28T09:29:22Z</time>
      </trkpt>
      <trkpt lat="46.35148" lon="6.72543">
        <ele>1966.0254</ele>
        <time>2014-08-28T09:29:27Z</time>
      </trkpt>
      <trkpt lat="46.3515" lon="6.72541">
        <ele>1966.0254</ele>
        <time>2014-08-28T09:29:32Z</time>
      </trkpt>
      <trkpt lat="46.3515" lon="6.7254">
        <ele>1966.0254</ele>
        <time>2014-08-28T09:29:37Z</time>
      </trkpt>
      <trkpt lat="46.35151" lon="6.72539">
        <ele>1966.0254</ele>
        <time>2014-08-28T09:29:42Z</time>
      </trkpt>
      <trkpt lat="46.35152" lon="6.72538">
        <ele>1966.0254</ele>
        <time>2014-08-28T09:29:47Z</time>
      </trkpt>
      <trkpt lat="46.35153" lon="6.72539">
        <ele>1966.0254</ele>
        <time>2014-08-28T09:29:52Z</time>
      </trkpt>
      <trkpt lat="46.35152" lon="6.72538">
        <ele>1966.0254</ele>
        <time>2014-08-28T09:29:57Z</time>
      </trkpt>
      <trkpt lat="46.35151" lon="6.72536">
        <ele>1961.2323</ele>
        <time>2014-08-28T09:30:02Z</time>
      </trkpt>
      <trkpt lat="46.3515" lon="6.72533">
        <ele>1961.2323</ele>
        <time>2014-08-28T09:30:07Z</time>
      </trkpt>
      <trkpt lat="46.35149" lon="6.72532">
        <ele>1961.2323</ele>
        <time>2014-08-28T09:30:12Z</time>
      </trkpt>
      <trkpt lat="46.35146" lon="6.72533">
        <ele>1961.2323</ele>
        <time>2014-08-28T09:30:17Z</time>
      </trkpt>
      <trkpt lat="46.35143" lon="6.72532">
        <ele>1956.3615</ele>
        <time>2014-08-28T09:30:22Z</time>
      </trkpt>
      <trkpt lat="46.35138" lon="6.72535">
        <ele>1956.3615</ele>
        <time>2014-08-28T09:30:27Z</time>
      </trkpt>
      <trkpt lat="46.35134" lon="6.72533">
        <ele>1956.3615</ele>
        <time>2014-08-28T09:30:32Z</time>
      </trkpt>
      <trkpt lat="46.35131" lon="6.72531">
        <ele>1951.8248</ele>
        <time>2014-08-28T09:30:37Z</time>
      </trkpt>
      <trkpt lat="46.35133" lon="6.72529">
        <ele>1951.8248</ele>
        <time>2014-08-28T09:30:42Z</time>
      </trkpt>
      <trkpt lat="46.35133" lon="6.72525">
        <ele>1951.8248</ele>
        <time>2014-08-28T09:30:47Z</time>
      </trkpt>
      <trkpt lat="46.35133" lon="6.72524">
        <ele>1951.8248</ele>
        <time>2014-08-28T09:30:52Z</time>
      </trkpt>
      <trkpt lat="46.35134" lon="6.72524">
        <ele>1951.8248</ele>
        <time>2014-08-28T09:30:57Z</time>
      </trkpt>
      <trkpt lat="46.35134" lon="6.72524">
        <ele>1951.8248</ele>
        <time>2014-08-28T09:31:02Z</time>
      </trkpt>
      <trkpt lat="46.35135" lon="6.72519">
        <ele>1947.1371</ele>
        <time>2014-08-28T09:31:07Z</time>
      </trkpt>
      <trkpt lat="46.35137" lon="6.72515">
        <ele>1947.1371</ele>
        <time>2014-08-28T09:31:12Z</time>
      </trkpt>
      <trkpt lat="46.35137" lon="6.72512">
        <ele>1947.1371</ele>
        <time>2014-08-28T09:31:17Z</time>
      </trkpt>
      <trkpt lat="46.35136" lon="6.72508">
        <ele>1947.1371</ele>
        <time>2014-08-28T09:31:22Z</time>
      </trkpt>
      <trkpt lat="46.35136" lon="6.72503">
        <ele>1942.2821</ele>
        <time>2014-08-28T09:31:27Z</time>
      </trkpt>
      <trkpt lat="46.35136" lon="6.72499">
        <ele>1942.2821</ele>
        <time>2014-08-28T09:31:32Z</time>
      </trkpt>
      <trkpt lat="46.35138" lon="6.72499">
        <ele>1942.2821</ele>
        <time>2014-08-28T09:31:37Z</time>
      </trkpt>
      <trkpt lat="46.35139" lon="6.72499">
        <ele>1942.2821</ele>
        <time>2014-08-28T09:31:42Z</time>
      </trkpt>
      <trkpt lat="46.35138" lon="6.72494">
        <ele>1937.4904</ele>
        <time>2014-08-28T09:31:47Z</time>
      </trkpt>
      <trkpt lat="46.35136" lon="6.72485">
        <ele>1937.4904</ele>
        <time>2014-08-28T09:31:52Z</time>
      </trkpt>
      <trkpt lat="46.35135" lon="6.72479">
        <ele>1933.0616</ele>
        <time>2014-08-28T09:31:57Z</time>
      </trkpt>
      <trkpt lat="46.35134" lon="6.72473">
        <ele>1933.0616</ele>
        <time>2014-08-28T09:32:02Z</time>
      </trkpt>
      <trkpt lat="46.35134" lon="6.72469">
        <ele>1933.0616</ele>
        <time>2014-08-28T09:32:07Z</time>
      </trkpt>
      <trkpt lat="46.35133" lon="6.72464">
        <ele>1928.883</ele>
        <time>2014-08-28T09:32:12Z</time>
      </trkpt>
      <trkpt lat="46.35132" lon="6.72461">
        <ele>1928.883</ele>
        <time>2014-08-28T09:32:17Z</time>
      </trkpt>
      <trkpt lat="46.35128" lon="6.72466">
        <ele>1928.883</ele>
        <time>2014-08-28T09:32:22Z</time>
      </trkpt>
      <trkpt lat="46.35126" lon="6.72471">
        <ele>1925.0369</ele>
        <time>2014-08-28T09:32:27Z</time>
      </trkpt>
      <trkpt lat="46.35126" lon="6.72472">
        <ele>1925.0369</ele>
        <time>2014-08-28T09:32:32Z</time>
      </trkpt>
      <trkpt lat="46.35127" lon="6.72474">
        <ele>1925.0369</ele>
        <time>2014-08-28T09:32:37Z</time>
      </trkpt>
      <trkpt lat="46.35127" lon="6.72475">
        <ele>1925.0369</ele>
        <time>2014-08-28T09:32:42Z</time>
      </trkpt>
      <trkpt lat="46.35127" lon="6.72475">
        <ele>1925.0369</ele>
        <time>2014-08-28T09:32:47Z</time>
      </trkpt>
      <trkpt lat="46.35126" lon="6.72477">
        <ele>1925.0369</ele>
        <time>2014-08-28T09:32:52Z</time>
      </trkpt>
      <trkpt lat="46.35122" lon="6.72481">
        <ele>1921.7855</ele>
        <time>2014-08-28T09:32:57Z</time>
      </trkpt>
      <trkpt lat="46.35121" lon="6.72484">
        <ele>1921.7855</ele>
        <time>2014-08-28T09:33:02Z</time>
      </trkpt>
      <trkpt lat="46.3512" lon="6.72486">
        <ele>1921.7855</ele>
        <time>2014-08-28T09:33:07Z</time>
      </trkpt>
      <trkpt lat="46.35118" lon="6.72486">
        <ele>1921.7855</ele>
        <time>2014-08-28T09:33:12Z</time>
      </trkpt>
      <trkpt lat="46.35113" lon="6.72492">
        <ele>1918.9381</ele>
        <time>2014-08-28T09:33:17Z</time>
      </trkpt>
      <trkpt lat="46.35108" lon="6.72499">
        <ele>1918.9381</ele>
        <time>2014-08-28T09:33:22Z</time>
      </trkpt>
      <trkpt lat="46.35105" lon="6.72505">
        <ele>1916.4174</ele>
        <time>2014-08-28T09:33:27Z</time>
      </trkpt>
      <trkpt lat="46.35103" lon="6.72512">
        <ele>1916.4174</ele>
        <time>2014-08-28T09:33:32Z</time>
      </trkpt>
      <trkpt lat="46.35102" lon="6.72518">
        <ele>1914.1797</ele>
        <time>2014-08-28T09:33:37Z</time>
      </trkpt>
      <trkpt lat="46.351" lon="6.72527">
        <ele>1914.1797</ele>
        <time>2014-08-28T09:33:42Z</time>
      </trkpt>
      <trkpt lat="46.35098" lon="6.72532">
        <ele>1912.1982</ele>
        <time>2014-08-28T09:33:47Z</time>
      </trkpt>
      <trkpt lat="46.35095" lon="6.72531">
        <ele>1912.1982</ele>
        <time>2014-08-28T09:33:52Z</time>
      </trkpt>
      <trkpt lat="46.35094" lon="6.72528">
        <ele>1912.1982</ele>
        <time>2014-08-28T09:33:57Z</time>
      </trkpt>
      <trkpt lat="46.35093" lon="6.7252">
        <ele>1910.3032</ele>
        <time>2014-08-28T09:34:02Z</time>
      </trkpt>
      <trkpt lat="46.35093" lon="6.7252">
        <ele>1910.3032</ele>
        <time>2014-08-28T09:34:07Z</time>
      </trkpt>
      <trkpt lat="46.35094" lon="6.72519">
        <ele>1910.3032</ele>
        <time>2014-08-28T09:34:22Z</time>
      </trkpt>
      <trkpt lat="46.35094" lon="6.72517">
        <ele>1910.3032</ele>
        <time>2014-08-28T09:34:27Z</time>
      </trkpt>
      <trkpt lat="46.35094" lon="6.72509">
        <ele>1910.3032</ele>
        <time>2014-08-28T09:34:32Z</time>
      </trkpt>
      <trkpt lat="46.35094" lon="6.72501">
        <ele>1907.9193</ele>
        <time>2014-08-28T09:34:37Z</time>
      </trkpt>
      <trkpt lat="46.35092" lon="6.72494">
        <ele>1907.9193</ele>
        <time>2014-08-28T09:34:42Z</time>
      </trkpt>
      <trkpt lat="46.35092" lon="6.72492">
        <ele>1907.9193</ele>
        <time>2014-08-28T09:34:47Z</time>
      </trkpt>
      <trkpt lat="46.35091" lon="6.72488">
        <ele>1905.5525</ele>
        <time>2014-08-28T09:34:52Z</time>
      </trkpt>
      <trkpt lat="46.35091" lon="6.72486">
        <ele>1905.5525</ele>
        <time>2014-08-28T09:34:57Z</time>
      </trkpt>
      <trkpt lat="46.35091" lon="6.72487">
        <ele>1905.5525</ele>
        <time>2014-08-28T09:35:02Z</time>
      </trkpt>
      <trkpt lat="46.35091" lon="6.72487">
        <ele>1905.5525</ele>
        <time>2014-08-28T09:35:07Z</time>
      </trkpt>
      <trkpt lat="46.35091" lon="6.72487">
        <ele>1905.5525</ele>
        <time>2014-08-28T09:35:12Z</time>
      </trkpt>
      <trkpt lat="46.35089" lon="6.7249">
        <ele>1905.5525</ele>
        <time>2014-08-28T09:35:17Z</time>
      </trkpt>
      <trkpt lat="46.35088" lon="6.72495">
        <ele>1905.5525</ele>
        <time>2014-08-28T09:35:22Z</time>
      </trkpt>
      <trkpt lat="46.35085" lon="6.72498">
        <ele>1903.0232</ele>
        <time>2014-08-28T09:35:27Z</time>
      </trkpt>
      <trkpt lat="46.3508" lon="6.72504">
        <ele>1903.0232</ele>
        <time>2014-08-28T09:35:32Z</time>
      </trkpt>
      <trkpt lat="46.35079" lon="6.72511">
        <ele>1900.7131</ele>
        <time>2014-08-28T09:35:37Z</time>
      </trkpt>
      <trkpt lat="46.35078" lon="6.72513">
        <ele>1900.7131</ele>
        <time>2014-08-28T09:35:42Z</time>
      </trkpt>
      <trkpt lat="46.35078" lon="6.72513">
        <ele>1900.7131</ele>
        <time>2014-08-28T09:35:47Z</time>
      </trkpt>
      <trkpt lat="46.35076" lon="6.72519">
        <ele>1900.7131</ele>
        <time>2014-08-28T09:35:52Z</time>
      </trkpt>
      <trkpt lat="46.35074" lon="6.72519">
        <ele>1900.7131</ele>
        <time>2014-08-28T09:35:57Z</time>
      </trkpt>
      <trkpt lat="46.3507" lon="6.72514">
        <ele>1898.2546</ele>
        <time>2014-08-28T09:36:02Z</time>
      </trkpt>
      <trkpt lat="46.35069" lon="6.72509">
        <ele>1898.2546</ele>
        <time>2014-08-28T09:36:07Z</time>
      </trkpt>
      <trkpt lat="46.35068" lon="6.72508">
        <ele>1898.2546</ele>
        <time>2014-08-28T09:36:12Z</time>
      </trkpt>
      <trkpt lat="46.35067" lon="6.72504">
        <ele>1898.2546</ele>
        <time>2014-08-28T09:36:17Z</time>
      </trkpt>
      <trkpt lat="46.35065" lon="6.725">
        <ele>1895.5673</ele>
        <time>2014-08-28T09:36:22Z</time>
      </trkpt>
      <trkpt lat="46.35064" lon="6.72493">
        <ele>1895.5673</ele>
        <time>2014-08-28T09:36:27Z</time>
      </trkpt>
      <trkpt lat="46.35063" lon="6.7249">
        <ele>1895.5673</ele>
        <time>2014-08-28T09:36:32Z</time>
      </trkpt>
      <trkpt lat="46.35064" lon="6.72482">
        <ele>1893.096</ele>
        <time>2014-08-28T09:36:37Z</time>
      </trkpt>
      <trkpt lat="46.35064" lon="6.72479">
        <ele>1893.096</ele>
        <time>2014-08-28T09:36:42Z</time>
      </trkpt>
      <trkpt lat="46.35062" lon="6.72478">
        <ele>1893.096</ele>
        <time>2014-08-28T09:36:47Z</time>
      </trkpt>
      <trkpt lat="46.3506" lon="6.72479">
        <ele>1893.096</ele>
        <time>2014-08-28T09:36:52Z</time>
      </trkpt>
      <trkpt lat="46.35057" lon="6.72487">
        <ele>1890.3154</ele>
        <time>2014-08-28T09:36:57Z</time>
      </trkpt>
      <trkpt lat="46.35056" lon="6.72488">
        <ele>1890.3154</ele>
        <time>2014-08-28T09:37:02Z</time>
      </trkpt>
      <trkpt lat="46.35054" lon="6.72492">
        <ele>1890.3154</ele>
        <time>2014-08-28T09:37:07Z</time>
      </trkpt>
      <trkpt lat="46.35052" lon="6.72499">
        <ele>1887.5476</ele>
        <time>2014-08-28T09:37:12Z</time>
      </trkpt>
      <trkpt lat="46.35052" lon="6.72503">
        <ele>1887.5476</ele>
        <time>2014-08-28T09:37:17Z</time>
      </trkpt>
      <trkpt lat="46.3505" lon="6.72508">
        <ele>1887.5476</ele>
        <time>2014-08-28T09:37:22Z</time>
      </trkpt>
      <trkpt lat="46.35049" lon="6.7251">
        <ele>1887.5476</ele>
        <time>2014-08-28T09:37:27Z</time>
      </trkpt>
      <trkpt lat="46.35049" lon="6.7251">
        <ele>1887.5476</ele>
        <time>2014-08-28T09:37:32Z</time>
      </trkpt>
      <trkpt lat="46.35047" lon="6.72514">
        <ele>1884.6722</ele>
        <time>2014-08-28T09:37:37Z</time>
      </trkpt>
      <trkpt lat="46.35044" lon="6.72518">
        <ele>1884.6722</ele>
        <time>2014-08-28T09:37:42Z</time>
      </trkpt>
      <trkpt lat="46.35042" lon="6.72528">
        <ele>1881.9967</ele>
        <time>2014-08-28T09:37:47Z</time>
      </trkpt>
      <trkpt lat="46.35042" lon="6.72537">
        <ele>1881.9967</ele>
        <time>2014-08-28T09:37:52Z</time>
      </trkpt>
      <trkpt lat="46.35042" lon="6.72545">
        <ele>1879.6034</ele>
        <time>2014-08-28T09:37:57Z</time>
      </trkpt>
      <trkpt lat="46.35041" lon="6.72546">
        <ele>1879.6034</ele>
        <time>2014-08-28T09:38:02Z</time>
      </trkpt>
      <trkpt lat="46.35041" lon="6.72547">
        <ele>1879.6034</ele>
        <time>2014-08-28T09:38:07Z</time>
      </trkpt>
      <trkpt lat="46.3504" lon="6.72547">
        <ele>1879.6034</ele>
        <time>2014-08-28T09:38:12Z</time>
      </trkpt>
      <trkpt lat="46.3504" lon="6.72548">
        <ele>1879.6034</ele>
        <time>2014-08-28T09:38:17Z</time>
      </trkpt>
      <trkpt lat="46.35041" lon="6.7255">
        <ele>1879.6034</ele>
        <time>2014-08-28T09:38:22Z</time>
      </trkpt>
      <trkpt lat="46.35041" lon="6.72557">
        <ele>1877.2222</ele>
        <time>2014-08-28T09:38:27Z</time>
      </trkpt>
      <trkpt lat="46.3504" lon="6.72564">
        <ele>1877.2222</ele>
        <time>2014-08-28T09:38:32Z</time>
      </trkpt>
      <trkpt lat="46.35039" lon="6.72571">
        <ele>1875.0497</ele>
        <time>2014-08-28T09:38:37Z</time>
      </trkpt>
      <trkpt lat="46.35037" lon="6.72574">
        <ele>1875.0497</ele>
        <time>2014-08-28T09:38:42Z</time>
      </trkpt>
      <trkpt lat="46.35036" lon="6.72577">
        <ele>1875.0497</ele>
        <time>2014-08-28T09:38:47Z</time>
      </trkpt>
      <trkpt lat="46.35034" lon="6.7258">
        <ele>1875.0497</ele>
        <time>2014-08-28T09:38:52Z</time>
      </trkpt>
      <trkpt lat="46.35033" lon="6.72583">
        <ele>1872.5613</ele>
        <time>2014-08-28T09:38:57Z</time>
      </trkpt>
      <trkpt lat="46.35033" lon="6.72589">
        <ele>1872.5613</ele>
        <time>2014-08-28T09:39:02Z</time>
      </trkpt>
      <trkpt lat="46.35031" lon="6.7259">
        <ele>1872.5613</ele>
        <time>2014-08-28T09:39:07Z</time>
      </trkpt>
      <trkpt lat="46.3503" lon="6.72593">
        <ele>1872.5613</ele>
        <time>2014-08-28T09:39:12Z</time>
      </trkpt>
      <trkpt lat="46.35029" lon="6.72601">
        <ele>1870.079</ele>
        <time>2014-08-28T09:39:17Z</time>
      </trkpt>
      <trkpt lat="46.35028" lon="6.72604">
        <ele>1870.079</ele>
        <time>2014-08-28T09:39:22Z</time>
      </trkpt>
      <trkpt lat="46.35028" lon="6.72607">
        <ele>1870.079</ele>
        <time>2014-08-28T09:39:27Z</time>
      </trkpt>
      <trkpt lat="46.35028" lon="6.72608">
        <ele>1870.079</ele>
        <time>2014-08-28T09:39:32Z</time>
      </trkpt>
      <trkpt lat="46.35027" lon="6.72608">
        <ele>1870.079</ele>
        <time>2014-08-28T09:39:37Z</time>
      </trkpt>
      <trkpt lat="46.35025" lon="6.72611">
        <ele>1870.079</ele>
        <time>2014-08-28T09:39:42Z</time>
      </trkpt>
      <trkpt lat="46.35022" lon="6.72616">
        <ele>1867.0801</ele>
        <time>2014-08-28T09:39:47Z</time>
      </trkpt>
      <trkpt lat="46.3502" lon="6.7262">
        <ele>1867.0801</ele>
        <time>2014-08-28T09:39:52Z</time>
      </trkpt>
      <trkpt lat="46.35017" lon="6.72622">
        <ele>1867.0801</ele>
        <time>2014-08-28T09:39:57Z</time>
      </trkpt>
      <trkpt lat="46.35016" lon="6.72625">
        <ele>1867.0801</ele>
        <time>2014-08-28T09:40:02Z</time>
      </trkpt>
      <trkpt lat="46.35014" lon="6.72629">
        <ele>1863.7732</ele>
        <time>2014-08-28T09:40:07Z</time>
      </trkpt>
      <trkpt lat="46.35013" lon="6.7263">
        <ele>1863.7732</ele>
        <time>2014-08-28T09:40:12Z</time>
      </trkpt>
      <trkpt lat="46.35013" lon="6.7263">
        <ele>1863.7732</ele>
        <time>2014-08-28T09:40:17Z</time>
      </trkpt>
      <trkpt lat="46.35013" lon="6.7263">
        <ele>1863.7732</ele>
        <time>2014-08-28T09:40:22Z</time>
      </trkpt>
      <trkpt lat="46.35012" lon="6.72629">
        <ele>1863.7732</ele>
        <time>2014-08-28T09:40:27Z</time>
      </trkpt>
      <trkpt lat="46.35012" lon="6.72624">
        <ele>1863.7732</ele>
        <time>2014-08-28T09:40:32Z</time>
      </trkpt>
      <trkpt lat="46.35011" lon="6.72622">
        <ele>1863.7732</ele>
        <time>2014-08-28T09:40:37Z</time>
      </trkpt>
      <trkpt lat="46.35012" lon="6.72622">
        <ele>1859.8773</ele>
        <time>2014-08-28T09:40:42Z</time>
      </trkpt>
      <trkpt lat="46.35014" lon="6.72626">
        <ele>1859.8773</ele>
        <time>2014-08-28T09:40:47Z</time>
      </trkpt>
      <trkpt lat="46.35014" lon="6.72625">
        <ele>1859.8773</ele>
        <time>2014-08-28T09:40:52Z</time>
      </trkpt>
      <trkpt lat="46.35013" lon="6.72624">
        <ele>1859.8773</ele>
        <time>2014-08-28T09:40:57Z</time>
      </trkpt>
      <trkpt lat="46.35012" lon="6.72623">
        <ele>1859.8773</ele>
        <time>2014-08-28T09:41:02Z</time>
      </trkpt>
      <trkpt lat="46.35011" lon="6.72622">
        <ele>1859.8773</ele>
        <time>2014-08-28T09:41:07Z</time>
      </trkpt>
      <trkpt lat="46.3501" lon="6.72622">
        <ele>1859.8773</ele>
        <time>2014-08-28T09:41:12Z</time>
      </trkpt>
      <trkpt lat="46.3501" lon="6.72621">
        <ele>1859.8773</ele>
        <time>2014-08-28T09:41:17Z</time>
      </trkpt>
      <trkpt lat="46.3501" lon="6.7262">
        <ele>1856.128</ele>
        <time>2014-08-28T09:41:22Z</time>
      </trkpt>
      <trkpt lat="46.3501" lon="6.7262">
        <ele>1856.128</ele>
        <time>2014-08-28T09:41:27Z</time>
      </trkpt>
      <trkpt lat="46.35008" lon="6.72618">
        <ele>1856.128</ele>
        <time>2014-08-28T09:41:37Z</time>
      </trkpt>
      <trkpt lat="46.35004" lon="6.72626">
        <ele>1856.128</ele>
        <time>2014-08-28T09:41:42Z</time>
      </trkpt>
      <trkpt lat="46.35002" lon="6.72629">
        <ele>1852.4143</ele>
        <time>2014-08-28T09:41:47Z</time>
      </trkpt>
      <trkpt lat="46.34999" lon="6.72633">
        <ele>1852.4143</ele>
        <time>2014-08-28T09:41:52Z</time>
      </trkpt>
      <trkpt lat="46.34996" lon="6.72639">
        <ele>1848.9642</ele>
        <time>2014-08-28T09:41:57Z</time>
      </trkpt>
      <trkpt lat="46.34995" lon="6.72646">
        <ele>1848.9642</ele>
        <time>2014-08-28T09:42:02Z</time>
      </trkpt>
      <trkpt lat="46.34994" lon="6.72648">
        <ele>1848.9642</ele>
        <time>2014-08-28T09:42:07Z</time>
      </trkpt>
      <trkpt lat="46.34992" lon="6.72652">
        <ele>1845.571</ele>
        <time>2014-08-28T09:42:12Z</time>
      </trkpt>
      <trkpt lat="46.34991" lon="6.72656">
        <ele>1845.571</ele>
        <time>2014-08-28T09:42:17Z</time>
      </trkpt>
      <trkpt lat="46.34989" lon="6.72663">
        <ele>1845.571</ele>
        <time>2014-08-28T09:42:22Z</time>
      </trkpt>
      <trkpt lat="46.34988" lon="6.72668">
        <ele>1842.014</ele>
        <time>2014-08-28T09:42:27Z</time>
      </trkpt>
      <trkpt lat="46.34986" lon="6.72672">
        <ele>1842.014</ele>
        <time>2014-08-28T09:42:32Z</time>
      </trkpt>
      <trkpt lat="46.34985" lon="6.72676">
        <ele>1842.014</ele>
        <time>2014-08-28T09:42:37Z</time>
      </trkpt>
      <trkpt lat="46.34984" lon="6.72681">
        <ele>1838.4061</ele>
        <time>2014-08-28T09:42:42Z</time>
      </trkpt>
      <trkpt lat="46.34982" lon="6.72686">
        <ele>1838.4061</ele>
        <time>2014-08-28T09:42:47Z</time>
      </trkpt>
      <trkpt lat="46.34983" lon="6.7269">
        <ele>1838.4061</ele>
        <time>2014-08-28T09:42:52Z</time>
      </trkpt>
      <trkpt lat="46.34981" lon="6.72695">
        <ele>1834.7662</ele>
        <time>2014-08-28T09:42:57Z</time>
      </trkpt>
      <trkpt lat="46.34979" lon="6.72698">
        <ele>1834.7662</ele>
        <time>2014-08-28T09:43:02Z</time>
      </trkpt>
      <trkpt lat="46.34977" lon="6.727">
        <ele>1834.7662</ele>
        <time>2014-08-28T09:43:07Z</time>
      </trkpt>
      <trkpt lat="46.34976" lon="6.72705">
        <ele>1834.7662</ele>
        <time>2014-08-28T09:43:12Z</time>
      </trkpt>
      <trkpt lat="46.34974" lon="6.72709">
        <ele>1830.9385</ele>
        <time>2014-08-28T09:43:17Z</time>
      </trkpt>
      <trkpt lat="46.34972" lon="6.7271">
        <ele>1830.9385</ele>
        <time>2014-08-28T09:43:22Z</time>
      </trkpt>
      <trkpt lat="46.34972" lon="6.72717">
        <ele>1830.9385</ele>
        <time>2014-08-28T09:43:27Z</time>
      </trkpt>
      <trkpt lat="46.34971" lon="6.72724">
        <ele>1827.0388</ele>
        <time>2014-08-28T09:43:32Z</time>
      </trkpt>
      <trkpt lat="46.3497" lon="6.72725">
        <ele>1827.0388</ele>
        <time>2014-08-28T09:43:37Z</time>
      </trkpt>
      <trkpt lat="46.34971" lon="6.7273">
        <ele>1827.0388</ele>
        <time>2014-08-28T09:43:42Z</time>
      </trkpt>
      <trkpt lat="46.34971" lon="6.72737">
        <ele>1822.8003</ele>
        <time>2014-08-28T09:43:47Z</time>
      </trkpt>
      <trkpt lat="46.34969" lon="6.72741">
        <ele>1822.8003</ele>
        <time>2014-08-28T09:43:52Z</time>
      </trkpt>
      <trkpt lat="46.34968" lon="6.72745">
        <ele>1822.8003</ele>
        <time>2014-08-28T09:43:57Z</time>
      </trkpt>
      <trkpt lat="46.34964" lon="6.72748">
        <ele>1818.6102</ele>
        <time>2014-08-28T09:44:02Z</time>
      </trkpt>
      <trkpt lat="46.34962" lon="6.7275">
        <ele>1818.6102</ele>
        <time>2014-08-28T09:44:07Z</time>
      </trkpt>
      <trkpt lat="46.34962" lon="6.72756">
        <ele>1818.6102</ele>
        <time>2014-08-28T09:44:12Z</time>
      </trkpt>
      <trkpt lat="46.34962" lon="6.72765">
        <ele>1814.5829</ele>
        <time>2014-08-28T09:44:17Z</time>
      </trkpt>
      <trkpt lat="46.3496" lon="6.72768">
        <ele>1814.5829</ele>
        <time>2014-08-28T09:44:22Z</time>
      </trkpt>
      <trkpt lat="46.34961" lon="6.72774">
        <ele>1814.5829</ele>
        <time>2014-08-28T09:44:27Z</time>
      </trkpt>
      <trkpt lat="46.3496" lon="6.72778">
        <ele>1810.5497</ele>
        <time>2014-08-28T09:44:32Z</time>
      </trkpt>
      <trkpt lat="46.34959" lon="6.72781">
        <ele>1810.5497</ele>
        <time>2014-08-28T09:44:37Z</time>
      </trkpt>
      <trkpt lat="46.34958" lon="6.72784">
        <ele>1810.5497</ele>
        <time>2014-08-28T09:44:42Z</time>
      </trkpt>
      <trkpt lat="46.34955" lon="6.72778">
        <ele>1806.484</ele>
        <time>2014-08-28T09:44:47Z</time>
      </trkpt>
      <trkpt lat="46.34955" lon="6.72775">
        <ele>1806.484</ele>
        <time>2014-08-28T09:44:52Z</time>
      </trkpt>
      <trkpt lat="46.34955" lon="6.72775">
        <ele>1806.484</ele>
        <time>2014-08-28T09:44:57Z</time>
      </trkpt>
      <trkpt lat="46.34954" lon="6.72772">
        <ele>1806.484</ele>
        <time>2014-08-28T09:45:07Z</time>
      </trkpt>
      <trkpt lat="46.34951" lon="6.72771">
        <ele>1806.484</ele>
        <time>2014-08-28T09:45:12Z</time>
      </trkpt>
      <trkpt lat="46.34951" lon="6.72778">
        <ele>1802.3472</ele>
        <time>2014-08-28T09:45:17Z</time>
      </trkpt>
      <trkpt lat="46.34951" lon="6.72778">
        <ele>1802.3472</ele>
        <time>2014-08-28T09:45:22Z</time>
      </trkpt>
      <trkpt lat="46.34949" lon="6.72786">
        <ele>1802.3472</ele>
        <time>2014-08-28T09:45:27Z</time>
      </trkpt>
      <trkpt lat="46.3495" lon="6.72788">
        <ele>1802.3472</ele>
        <time>2014-08-28T09:45:32Z</time>
      </trkpt>
      <trkpt lat="46.34948" lon="6.72788">
        <ele>1798.3915</ele>
        <time>2014-08-28T09:45:37Z</time>
      </trkpt>
      <trkpt lat="46.34945" lon="6.72793">
        <ele>1798.3915</ele>
        <time>2014-08-28T09:45:42Z</time>
      </trkpt>
      <trkpt lat="46.34944" lon="6.72798">
        <ele>1798.3915</ele>
        <time>2014-08-28T09:45:47Z</time>
      </trkpt>
      <trkpt lat="46.34942" lon="6.72804">
        <ele>1794.2739</ele>
        <time>2014-08-28T09:45:52Z</time>
      </trkpt>
      <trkpt lat="46.3494" lon="6.72808">
        <ele>1794.2739</ele>
        <time>2014-08-28T09:45:57Z</time>
      </trkpt>
      <trkpt lat="46.34938" lon="6.72815">
        <ele>1794.2739</ele>
        <time>2014-08-28T09:46:02Z</time>
      </trkpt>
      <trkpt lat="46.34937" lon="6.72819">
        <ele>1789.9655</ele>
        <time>2014-08-28T09:46:07Z</time>
      </trkpt>
      <trkpt lat="46.34935" lon="6.72816">
        <ele>1789.9655</ele>
        <time>2014-08-28T09:46:12Z</time>
      </trkpt>
      <trkpt lat="46.34934" lon="6.72809">
        <ele>1789.9655</ele>
        <time>2014-08-28T09:46:17Z</time>
      </trkpt>
      <trkpt lat="46.34934" lon="6.728">
        <ele>1785.8573</ele>
        <time>2014-08-28T09:46:22Z</time>
      </trkpt>
      <trkpt lat="46.34934" lon="6.7279">
        <ele>1785.8573</ele>
        <time>2014-08-28T09:46:27Z</time>
      </trkpt>
      <trkpt lat="46.34934" lon="6.72788">
        <ele>1785.8573</ele>
        <time>2014-08-28T09:46:32Z</time>
      </trkpt>
      <trkpt lat="46.34931" lon="6.72784">
        <ele>1782.1819</ele>
        <time>2014-08-28T09:46:37Z</time>
      </trkpt>
      <trkpt lat="46.34929" lon="6.72782">
        <ele>1782.1819</ele>
        <time>2014-08-28T09:46:42Z</time>
      </trkpt>
      <trkpt lat="46.34929" lon="6.72779">
        <ele>1782.1819</ele>
        <time>2014-08-28T09:46:47Z</time>
      </trkpt>
      <trkpt lat="46.34928" lon="6.72776">
        <ele>1782.1819</ele>
        <time>2014-08-28T09:46:52Z</time>
      </trkpt>
      <trkpt lat="46.34926" lon="6.72773">
        <ele>1782.1819</ele>
        <time>2014-08-28T09:46:57Z</time>
      </trkpt>
      <trkpt lat="46.34924" lon="6.72771">
        <ele>1778.4761</ele>
        <time>2014-08-28T09:47:02Z</time>
      </trkpt>
      <trkpt lat="46.34925" lon="6.72769">
        <ele>1778.4761</ele>
        <time>2014-08-28T09:47:07Z</time>
      </trkpt>
      <trkpt lat="46.34924" lon="6.72768">
        <ele>1778.4761</ele>
        <time>2014-08-28T09:47:12Z</time>
      </trkpt>
      <trkpt lat="46.34923" lon="6.72765">
        <ele>1778.4761</ele>
        <time>2014-08-28T09:47:17Z</time>
      </trkpt>
      <trkpt lat="46.34923" lon="6.72762">
        <ele>1778.4761</ele>
        <time>2014-08-28T09:47:22Z</time>
      </trkpt>
      <trkpt lat="46.34922" lon="6.72761">
        <ele>1778.4761</ele>
        <time>2014-08-28T09:47:27Z</time>
      </trkpt>
      <trkpt lat="46.34919" lon="6.72759">
        <ele>1773.7772</ele>
        <time>2014-08-28T09:47:32Z</time>
      </trkpt>
      <trkpt lat="46.34916" lon="6.72758">
        <ele>1773.7772</ele>
        <time>2014-08-28T09:47:37Z</time>
      </trkpt>
      <trkpt lat="46.34913" lon="6.72756">
        <ele>1773.7772</ele>
        <time>2014-08-28T09:47:42Z</time>
      </trkpt>
      <trkpt lat="46.34914" lon="6.72754">
        <ele>1773.7772</ele>
        <time>2014-08-28T09:47:47Z</time>
      </trkpt>
      <trkpt lat="46.34913" lon="6.7275">
        <ele>1768.9835</ele>
        <time>2014-08-28T09:47:52Z</time>
      </trkpt>
      <trkpt lat="46.34911" lon="6.7275">
        <ele>1768.9835</ele>
        <time>2014-08-28T09:47:57Z</time>
      </trkpt>
      <trkpt lat="46.34907" lon="6.72745">
        <ele>1768.9835</ele>
        <time>2014-08-28T09:48:02Z</time>
      </trkpt>
      <trkpt lat="46.34905" lon="6.72741">
        <ele>1764.3075</ele>
        <time>2014-08-28T09:48:07Z</time>
      </trkpt>
      <trkpt lat="46.34902" lon="6.72735">
        <ele>1764.3075</ele>
        <time>2014-08-28T09:48:12Z</time>
      </trkpt>
      <trkpt lat="46.349" lon="6.72731">
        <ele>1764.3075</ele>
        <time>2014-08-28T09:48:17Z</time>
      </trkpt>
      <trkpt lat="46.34898" lon="6.72729">
        <ele>1759.6577</ele>
        <time>2014-08-28T09:48:22Z</time>
      </trkpt>
      <trkpt lat="46.34896" lon="6.72724">
        <ele>1759.6577</ele>
        <time>2014-08-28T09:48:27Z</time>
      </trkpt>
      <trkpt lat="46.34893" lon="6.72719">
        <ele>1759.6577</ele>
        <time>2014-08-28T09:48:32Z</time>
      </trkpt>
      <trkpt lat="46.34891" lon="6.72714">
        <ele>1755.0787</ele>
        <time>2014-08-28T09:48:37Z</time>
      </trkpt>
      <trkpt lat="46.3489" lon="6.72713">
        <ele>1755.0787</ele>
        <time>2014-08-28T09:48:42Z</time>
      </trkpt>
      <trkpt lat="46.34888" lon="6.72708">
        <ele>1755.0787</ele>
        <time>2014-08-28T09:48:47Z</time>
      </trkpt>
      <trkpt lat="46.34888" lon="6.72699">
        <ele>1750.5686</ele>
        <time>2014-08-28T09:48:52Z</time>
      </trkpt>
      <trkpt lat="46.34889" lon="6.72693">
        <ele>1750.5686</ele>
        <time>2014-08-28T09:48:57Z</time>
      </trkpt>
      <trkpt lat="46.34886" lon="6.72689">
        <ele>1750.5686</ele>
        <time>2014-08-28T09:49:02Z</time>
      </trkpt>
      <trkpt lat="46.34885" lon="6.72685">
        <ele>1746.1826</ele>
        <time>2014-08-28T09:49:07Z</time>
      </trkpt>
      <trkpt lat="46.34884" lon="6.72681">
        <ele>1746.1826</ele>
        <time>2014-08-28T09:49:12Z</time>
      </trkpt>
      <trkpt lat="46.34883" lon="6.72677">
        <ele>1746.1826</ele>
        <time>2014-08-28T09:49:17Z</time>
      </trkpt>
      <trkpt lat="46.34881" lon="6.72672">
        <ele>1741.9575</ele>
        <time>2014-08-28T09:49:22Z</time>
      </trkpt>
      <trkpt lat="46.34879" lon="6.72666">
        <ele>1741.9575</ele>
        <time>2014-08-28T09:49:27Z</time>
      </trkpt>
      <trkpt lat="46.34878" lon="6.7266">
        <ele>1738.0419</ele>
        <time>2014-08-28T09:49:32Z</time>
      </trkpt>
      <trkpt lat="46.34878" lon="6.72653">
        <ele>1738.0419</ele>
        <time>2014-08-28T09:49:37Z</time>
      </trkpt>
      <trkpt lat="46.34877" lon="6.72647">
        <ele>1738.0419</ele>
        <time>2014-08-28T09:49:42Z</time>
      </trkpt>
      <trkpt lat="46.34874" lon="6.72641">
        <ele>1734.097</ele>
        <time>2014-08-28T09:49:47Z</time>
      </trkpt>
      <trkpt lat="46.34873" lon="6.72636">
        <ele>1734.097</ele>
        <time>2014-08-28T09:49:52Z</time>
      </trkpt>
      <trkpt lat="46.34871" lon="6.72627">
        <ele>1730.3566</ele>
        <time>2014-08-28T09:49:57Z</time>
      </trkpt>
      <trkpt lat="46.34871" lon="6.72623">
        <ele>1730.3566</ele>
        <time>2014-08-28T09:50:02Z</time>
      </trkpt>
      <trkpt lat="46.34869" lon="6.72618">
        <ele>1730.3566</ele>
        <time>2014-08-28T09:50:07Z</time>
      </trkpt>
      <trkpt lat="46.34867" lon="6.72611">
        <ele>1726.5609</ele>
        <time>2014-08-28T09:50:12Z</time>
      </trkpt>
      <trkpt lat="46.34865" lon="6.72603">
        <ele>1726.5609</ele>
        <time>2014-08-28T09:50:17Z</time>
      </trkpt>
      <trkpt lat="46.34864" lon="6.72603">
        <ele>1726.5609</ele>
        <time>2014-08-28T09:50:22Z</time>
      </trkpt>
      <trkpt lat="46.34864" lon="6.72602">
        <ele>1726.5609</ele>
        <time>2014-08-28T09:50:27Z</time>
      </trkpt>
      <trkpt lat="46.34861" lon="6.72601">
        <ele>1722.9741</ele>
        <time>2014-08-28T09:50:32Z</time>
      </trkpt>
      <trkpt lat="46.34859" lon="6.72602">
        <ele>1722.9741</ele>
        <time>2014-08-28T09:50:37Z</time>
      </trkpt>
      <trkpt lat="46.34858" lon="6.726">
        <ele>1722.9741</ele>
        <time>2014-08-28T09:50:42Z</time>
      </trkpt>
      <trkpt lat="46.34859" lon="6.72599">
        <ele>1722.9741</ele>
        <time>2014-08-28T09:50:47Z</time>
      </trkpt>
      <trkpt lat="46.3486" lon="6.726">
        <ele>1722.9741</ele>
        <time>2014-08-28T09:50:52Z</time>
      </trkpt>
      <trkpt lat="46.34861" lon="6.726">
        <ele>1722.9741</ele>
        <time>2014-08-28T09:50:57Z</time>
      </trkpt>
      <trkpt lat="46.3486" lon="6.72594">
        <ele>1719.6813</ele>
        <time>2014-08-28T09:51:02Z</time>
      </trkpt>
      <trkpt lat="46.3486" lon="6.72586">
        <ele>1719.6813</ele>
        <time>2014-08-28T09:51:07Z</time>
      </trkpt>
      <trkpt lat="46.34861" lon="6.72581">
        <ele>1716.7178</ele>
        <time>2014-08-28T09:51:12Z</time>
      </trkpt>
      <trkpt lat="46.34861" lon="6.72576">
        <ele>1716.7178</ele>
        <time>2014-08-28T09:51:17Z</time>
      </trkpt>
      <trkpt lat="46.34861" lon="6.72571">
        <ele>1716.7178</ele>
        <time>2014-08-28T09:51:22Z</time>
      </trkpt>
      <trkpt lat="46.34862" lon="6.72567">
        <ele>1714.0138</ele>
        <time>2014-08-28T09:51:27Z</time>
      </trkpt>
      <trkpt lat="46.34862" lon="6.72566">
        <ele>1714.0138</ele>
        <time>2014-08-28T09:51:32Z</time>
      </trkpt>
      <trkpt lat="46.3486" lon="6.72562">
        <ele>1714.0138</ele>
        <time>2014-08-28T09:51:37Z</time>
      </trkpt>
      <trkpt lat="46.3486" lon="6.72554">
        <ele>1711.2595</ele>
        <time>2014-08-28T09:51:42Z</time>
      </trkpt>
      <trkpt lat="46.34859" lon="6.72549">
        <ele>1711.2595</ele>
        <time>2014-08-28T09:51:47Z</time>
      </trkpt>
      <trkpt lat="46.34858" lon="6.72543">
        <ele>1711.2595</ele>
        <time>2014-08-28T09:51:52Z</time>
      </trkpt>
      <trkpt lat="46.34861" lon="6.72538">
        <ele>1708.4415</ele>
        <time>2014-08-28T09:51:57Z</time>
      </trkpt>
      <trkpt lat="46.34861" lon="6.72533">
        <ele>1708.4415</ele>
        <time>2014-08-28T09:52:02Z</time>
      </trkpt>
      <trkpt lat="46.34862" lon="6.7253">
        <ele>1708.4415</ele>
        <time>2014-08-28T09:52:07Z</time>
      </trkpt>
      <trkpt lat="46.34862" lon="6.72525">
        <ele>1705.5619</ele>
        <time>2014-08-28T09:52:12Z</time>
      </trkpt>
      <trkpt lat="46.34862" lon="6.7252">
        <ele>1705.5619</ele>
        <time>2014-08-28T09:52:17Z</time>
      </trkpt>
      <trkpt lat="46.34861" lon="6.72513">
        <ele>1705.5619</ele>
        <time>2014-08-28T09:52:22Z</time>
      </trkpt>
      <trkpt lat="46.3486" lon="6.72506">
        <ele>1702.8102</ele>
        <time>2014-08-28T09:52:27Z</time>
      </trkpt>
      <trkpt lat="46.34859" lon="6.72502">
        <ele>1702.8102</ele>
        <time>2014-08-28T09:52:32Z</time>
      </trkpt>
      <trkpt lat="46.34857" lon="6.72496">
        <ele>1702.8102</ele>
        <time>2014-08-28T09:52:37Z</time>
      </trkpt>
      <trkpt lat="46.34856" lon="6.72488">
        <ele>1700.0303</ele>
        <time>2014-08-28T09:52:42Z</time>
      </trkpt>
      <trkpt lat="46.34855" lon="6.7248">
        <ele>1700.0303</ele>
        <time>2014-08-28T09:52:47Z</time>
      </trkpt>
      <trkpt lat="46.34855" lon="6.72475">
        <ele>1700.0303</ele>
        <time>2014-08-28T09:52:52Z</time>
      </trkpt>
      <trkpt lat="46.34854" lon="6.7247">
        <ele>1697.2216</ele>
        <time>2014-08-28T09:52:57Z</time>
      </trkpt>
      <trkpt lat="46.34853" lon="6.72462">
        <ele>1697.2216</ele>
        <time>2014-08-28T09:53:02Z</time>
      </trkpt>
      <trkpt lat="46.3485" lon="6.72458">
        <ele>1694.4846</ele>
        <time>2014-08-28T09:53:07Z</time>
      </trkpt>
      <trkpt lat="46.34849" lon="6.72452">
        <ele>1694.4846</ele>
        <time>2014-08-28T09:53:12Z</time>
      </trkpt>
      <trkpt lat="46.34848" lon="6.72447">
        <ele>1694.4846</ele>
        <time>2014-08-28T09:53:17Z</time>
      </trkpt>
      <trkpt lat="46.34846" lon="6.72441">
        <ele>1691.7104</ele>
        <time>2014-08-28T09:53:22Z</time>
      </trkpt>
      <trkpt lat="46.34844" lon="6.72435">
        <ele>1691.7104</ele>
        <time>2014-08-28T09:53:27Z</time>
      </trkpt>
      <trkpt lat="46.34843" lon="6.72435">
        <ele>1691.7104</ele>
        <time>2014-08-28T09:53:32Z</time>
      </trkpt>
      <trkpt lat="46.3484" lon="6.72433">
        <ele>1691.7104</ele>
        <time>2014-08-28T09:53:37Z</time>
      </trkpt>
      <trkpt lat="46.34839" lon="6.72429">
        <ele>1688.8418</ele>
        <time>2014-08-28T09:53:42Z</time>
      </trkpt>
      <trkpt lat="46.34837" lon="6.72421">
        <ele>1688.8418</ele>
        <time>2014-08-28T09:53:47Z</time>
      </trkpt>
      <trkpt lat="46.34833" lon="6.7242">
        <ele>1686.157</ele>
        <time>2014-08-28T09:53:52Z</time>
      </trkpt>
      <trkpt lat="46.34829" lon="6.72424">
        <ele>1686.157</ele>
        <time>2014-08-28T09:53:57Z</time>
      </trkpt>
      <trkpt lat="46.34825" lon="6.72429">
        <ele>1683.6686</ele>
        <time>2014-08-28T09:54:02Z</time>
      </trkpt>
      <trkpt lat="46.34821" lon="6.72439">
        <ele>1683.6686</ele>
        <time>2014-08-28T09:54:07Z</time>
      </trkpt>
      <trkpt lat="46.34819" lon="6.72444">
        <ele>1681.4022</ele>
        <time>2014-08-28T09:54:12Z</time>
      </trkpt>
      <trkpt lat="46.34816" lon="6.7245">
        <ele>1681.4022</ele>
        <time>2014-08-28T09:54:17Z</time>
      </trkpt>
      <trkpt lat="46.34816" lon="6.72452">
        <ele>1681.4022</ele>
        <time>2014-08-28T09:54:22Z</time>
      </trkpt>
      <trkpt lat="46.34813" lon="6.72454">
        <ele>1681.4022</ele>
        <time>2014-08-28T09:54:27Z</time>
      </trkpt>
      <trkpt lat="46.34808" lon="6.72455">
        <ele>1679.1793</ele>
        <time>2014-08-28T09:54:32Z</time>
      </trkpt>
      <trkpt lat="46.34805" lon="6.72454">
        <ele>1679.1793</ele>
        <time>2014-08-28T09:54:37Z</time>
      </trkpt>
      <trkpt lat="46.34802" lon="6.72453">
        <ele>1679.1793</ele>
        <time>2014-08-28T09:54:42Z</time>
      </trkpt>
      <trkpt lat="46.34798" lon="6.72454">
        <ele>1677.0215</ele>
        <time>2014-08-28T09:54:47Z</time>
      </trkpt>
      <trkpt lat="46.34792" lon="6.72457">
        <ele>1677.0215</ele>
        <time>2014-08-28T09:54:52Z</time>
      </trkpt>
      <trkpt lat="46.34788" lon="6.72458">
        <ele>1674.9777</ele>
        <time>2014-08-28T09:54:57Z</time>
      </trkpt>
      <trkpt lat="46.34783" lon="6.7246">
        <ele>1674.9777</ele>
        <time>2014-08-28T09:55:02Z</time>
      </trkpt>
      <trkpt lat="46.3478" lon="6.72461">
        <ele>1674.9777</ele>
        <time>2014-08-28T09:55:07Z</time>
      </trkpt>
      <trkpt lat="46.34779" lon="6.72463">
        <ele>1672.9344</ele>
        <time>2014-08-28T09:55:12Z</time>
      </trkpt>
      <trkpt lat="46.34776" lon="6.72466">
        <ele>1672.9344</ele>
        <time>2014-08-28T09:55:17Z</time>
      </trkpt>
      <trkpt lat="46.34773" lon="6.72468">
        <ele>1672.9344</ele>
        <time>2014-08-28T09:55:22Z</time>
      </trkpt>
      <trkpt lat="46.3477" lon="6.72471">
        <ele>1670.6569</ele>
        <time>2014-08-28T09:55:27Z</time>
      </trkpt>
      <trkpt lat="46.34765" lon="6.72473">
        <ele>1670.6569</ele>
        <time>2014-08-28T09:55:32Z</time>
      </trkpt>
      <trkpt lat="46.34763" lon="6.72478">
        <ele>1668.4615</ele>
        <time>2014-08-28T09:55:37Z</time>
      </trkpt>
      <trkpt lat="46.3476" lon="6.72481">
        <ele>1668.4615</ele>
        <time>2014-08-28T09:55:42Z</time>
      </trkpt>
      <trkpt lat="46.34755" lon="6.72481">
        <ele>1668.4615</ele>
        <time>2014-08-28T09:55:47Z</time>
      </trkpt>
      <trkpt lat="46.34752" lon="6.72481">
        <ele>1666.281</ele>
        <time>2014-08-28T09:55:52Z</time>
      </trkpt>
      <trkpt lat="46.34747" lon="6.7248">
        <ele>1666.281</ele>
        <time>2014-08-28T09:55:57Z</time>
      </trkpt>
      <trkpt lat="46.34744" lon="6.72481">
        <ele>1666.281</ele>
        <time>2014-08-28T09:56:02Z</time>
      </trkpt>
      <trkpt lat="46.34742" lon="6.72481">
        <ele>1663.9379</ele>
        <time>2014-08-28T09:56:07Z</time>
      </trkpt>
      <trkpt lat="46.34738" lon="6.72481">
        <ele>1663.9379</ele>
        <time>2014-08-28T09:56:12Z</time>
      </trkpt>
      <trkpt lat="46.34733" lon="6.72482">
        <ele>1663.9379</ele>
        <time>2014-08-28T09:56:17Z</time>
      </trkpt>
      <trkpt lat="46.34732" lon="6.72482">
        <ele>1661.5421</ele>
        <time>2014-08-28T09:56:22Z</time>
      </trkpt>
      <trkpt lat="46.34728" lon="6.7248">
        <ele>1661.5421</ele>
        <time>2014-08-28T09:56:27Z</time>
      </trkpt>
      <trkpt lat="46.34726" lon="6.72479">
        <ele>1661.5421</ele>
        <time>2014-08-28T09:56:32Z</time>
      </trkpt>
      <trkpt lat="46.34724" lon="6.72478">
        <ele>1661.5421</ele>
        <time>2014-08-28T09:56:37Z</time>
      </trkpt>
      <trkpt lat="46.34724" lon="6.72478">
        <ele>1661.5421</ele>
        <time>2014-08-28T09:56:42Z</time>
      </trkpt>
      <trkpt lat="46.3472" lon="6.7247">
        <ele>1658.6046</ele>
        <time>2014-08-28T09:56:47Z</time>
      </trkpt>
      <trkpt lat="46.34717" lon="6.72463">
        <ele>1658.6046</ele>
        <time>2014-08-28T09:56:52Z</time>
      </trkpt>
      <trkpt lat="46.34713" lon="6.72458">
        <ele>1655.8273</ele>
        <time>2014-08-28T09:56:57Z</time>
      </trkpt>
      <trkpt lat="46.34711" lon="6.72456">
        <ele>1655.8273</ele>
        <time>2014-08-28T09:57:02Z</time>
      </trkpt>
      <trkpt lat="46.34706" lon="6.7245">
        <ele>1655.8273</ele>
        <time>2014-08-28T09:57:07Z</time>
      </trkpt>
      <trkpt lat="46.34705" lon="6.72449">
        <ele>1653.1678</ele>
        <time>2014-08-28T09:57:12Z</time>
      </trkpt>
      <trkpt lat="46.34704" lon="6.72448">
        <ele>1653.1678</ele>
        <time>2014-08-28T09:57:17Z</time>
      </trkpt>
      <trkpt lat="46.347" lon="6.72444">
        <ele>1653.1678</ele>
        <time>2014-08-28T09:57:22Z</time>
      </trkpt>
      <trkpt lat="46.34697" lon="6.72441">
        <ele>1650.8323</ele>
        <time>2014-08-28T09:57:27Z</time>
      </trkpt>
      <trkpt lat="46.34695" lon="6.72438">
        <ele>1650.8323</ele>
        <time>2014-08-28T09:57:32Z</time>
      </trkpt>
      <trkpt lat="46.34697" lon="6.72432">
        <ele>1650.8323</ele>
        <time>2014-08-28T09:57:37Z</time>
      </trkpt>
      <trkpt lat="46.34697" lon="6.72432">
        <ele>1650.8323</ele>
        <time>2014-08-28T09:57:42Z</time>
      </trkpt>
      <trkpt lat="46.34697" lon="6.72433">
        <ele>1650.8323</ele>
        <time>2014-08-28T09:57:47Z</time>
      </trkpt>
      <trkpt lat="46.34697" lon="6.72433">
        <ele>1650.8323</ele>
        <time>2014-08-28T09:57:52Z</time>
      </trkpt>
      <trkpt lat="46.34697" lon="6.72433">
        <ele>1650.8323</ele>
        <time>2014-08-28T09:58:12Z</time>
      </trkpt>
      <trkpt lat="46.34697" lon="6.72433">
        <ele>1650.8323</ele>
        <time>2014-08-28T09:58:17Z</time>
      </trkpt>
      <trkpt lat="46.34697" lon="6.72433">
        <ele>1650.8323</ele>
        <time>2014-08-28T09:58:22Z</time>
      </trkpt>
      <trkpt lat="46.34697" lon="6.72433">
        <ele>1650.8323</ele>
        <time>2014-08-28T10:09:47Z</time>
      </trkpt>
      <trkpt lat="46.34697" lon="6.72438">
        <ele>1646.7478</ele>
        <time>2014-08-28T10:09:52Z</time>
      </trkpt>
      <trkpt lat="46.34697" lon="6.72437">
        <ele>1646.7478</ele>
        <time>2014-08-28T10:09:57Z</time>
      </trkpt>
      <trkpt lat="46.34697" lon="6.72437">
        <ele>1646.7478</ele>
        <time>2014-08-28T10:10:02Z</time>
      </trkpt>
      <trkpt lat="46.34698" lon="6.72437">
        <ele>1646.7478</ele>
        <time>2014-08-28T10:10:07Z</time>
      </trkpt>
      <trkpt lat="46.34698" lon="6.72437">
        <ele>1646.7478</ele>
        <time>2014-08-28T10:10:12Z</time>
      </trkpt>
      <trkpt lat="46.34698" lon="6.72438">
        <ele>1646.7478</ele>
        <time>2014-08-28T10:11:02Z</time>
      </trkpt>
      <trkpt lat="46.34698" lon="6.72438">
        <ele>1646.7478</ele>
        <time>2014-08-28T10:11:07Z</time>
      </trkpt>
      <trkpt lat="46.34698" lon="6.72439">
        <ele>1646.7478</ele>
        <time>2014-08-28T10:12:27Z</time>
      </trkpt>
      <trkpt lat="46.34698" lon="6.72439">
        <ele>1646.7478</ele>
        <time>2014-08-28T10:12:32Z</time>
      </trkpt>
      <trkpt lat="46.34697" lon="6.72439">
        <ele>1646.7478</ele>
        <time>2014-08-28T10:14:17Z</time>
      </trkpt>
      <trkpt lat="46.34698" lon="6.72439">
        <ele>1646.7478</ele>
        <time>2014-08-28T10:14:22Z</time>
      </trkpt>
      <trkpt lat="46.34697" lon="6.72438">
        <ele>1646.7478</ele>
        <time>2014-08-28T10:15:37Z</time>
      </trkpt>
      <trkpt lat="46.34697" lon="6.72438">
        <ele>1646.7478</ele>
        <time>2014-08-28T10:15:42Z</time>
      </trkpt>
      <trkpt lat="46.34697" lon="6.72441">
        <ele>1646.7478</ele>
        <time>2014-08-28T10:17:32Z</time>
      </trkpt>
      <trkpt lat="46.34697" lon="6.72442">
        <ele>1646.7478</ele>
        <time>2014-08-28T10:17:37Z</time>
      </trkpt>
      <trkpt lat="46.34697" lon="6.72442">
        <ele>1646.7478</ele>
        <time>2014-08-28T10:17:42Z</time>
      </trkpt>
      <trkpt lat="46.34698" lon="6.72442">
        <ele>1646.7478</ele>
        <time>2014-08-28T10:17:47Z</time>
      </trkpt>
      <trkpt lat="46.34698" lon="6.72442">
        <ele>1646.7478</ele>
        <time>2014-08-28T10:17:52Z</time>
      </trkpt>
      <trkpt lat="46.347" lon="6.72444">
        <ele>1642.9908</ele>
        <time>2014-08-28T10:18:02Z</time>
      </trkpt>
      <trkpt lat="46.347" lon="6.72444">
        <ele>1642.9908</ele>
        <time>2014-08-28T10:18:07Z</time>
      </trkpt>
      <trkpt lat="46.34699" lon="6.72446">
        <ele>1642.9908</ele>
        <time>2014-08-28T10:18:12Z</time>
      </trkpt>
      <trkpt lat="46.34698" lon="6.72447">
        <ele>1642.9908</ele>
        <time>2014-08-28T10:18:17Z</time>
      </trkpt>
      <trkpt lat="46.34698" lon="6.72447">
        <ele>1642.9908</ele>
        <time>2014-08-28T10:18:22Z</time>
      </trkpt>
      <trkpt lat="46.34699" lon="6.72447">
        <ele>1642.9908</ele>
        <time>2014-08-28T10:18:32Z</time>
      </trkpt>
      <trkpt lat="46.34699" lon="6.72447">
        <ele>1642.9908</ele>
        <time>2014-08-28T10:18:37Z</time>
      </trkpt>
      <trkpt lat="46.347" lon="6.72448">
        <ele>1642.9908</ele>
        <time>2014-08-28T10:18:42Z</time>
      </trkpt>
      <trkpt lat="46.347" lon="6.72448">
        <ele>1642.9908</ele>
        <time>2014-08-28T10:18:47Z</time>
      </trkpt>
      <trkpt lat="46.34701" lon="6.72448">
        <ele>1642.9908</ele>
        <time>2014-08-28T10:18:52Z</time>
      </trkpt>
      <trkpt lat="46.34705" lon="6.7245">
        <ele>1639.4816</ele>
        <time>2014-08-28T10:18:57Z</time>
      </trkpt>
      <trkpt lat="46.34711" lon="6.72459">
        <ele>1639.4816</ele>
        <time>2014-08-28T10:19:02Z</time>
      </trkpt>
      <trkpt lat="46.34716" lon="6.72463">
        <ele>1636.4043</ele>
        <time>2014-08-28T10:19:07Z</time>
      </trkpt>
      <trkpt lat="46.34718" lon="6.72465">
        <ele>1636.4043</ele>
        <time>2014-08-28T10:19:12Z</time>
      </trkpt>
      <trkpt lat="46.34723" lon="6.7247">
        <ele>1636.4043</ele>
        <time>2014-08-28T10:19:17Z</time>
      </trkpt>
      <trkpt lat="46.34723" lon="6.7247">
        <ele>1633.612</ele>
        <time>2014-08-28T10:19:22Z</time>
      </trkpt>
      <trkpt lat="46.34723" lon="6.7247">
        <ele>1633.612</ele>
        <time>2014-08-28T10:19:27Z</time>
      </trkpt>
      <trkpt lat="46.34724" lon="6.72471">
        <ele>1633.612</ele>
        <time>2014-08-28T10:19:42Z</time>
      </trkpt>
      <trkpt lat="46.34727" lon="6.72474">
        <ele>1633.612</ele>
        <time>2014-08-28T10:19:47Z</time>
      </trkpt>
      <trkpt lat="46.34731" lon="6.72479">
        <ele>1631.3856</ele>
        <time>2014-08-28T10:19:52Z</time>
      </trkpt>
      <trkpt lat="46.34732" lon="6.7248">
        <ele>1631.3856</ele>
        <time>2014-08-28T10:19:57Z</time>
      </trkpt>
      <trkpt lat="46.34735" lon="6.72481">
        <ele>1631.3856</ele>
        <time>2014-08-28T10:20:02Z</time>
      </trkpt>
      <trkpt lat="46.34739" lon="6.72483">
        <ele>1631.3856</ele>
        <time>2014-08-28T10:20:07Z</time>
      </trkpt>
      <trkpt lat="46.34739" lon="6.72488">
        <ele>1629.7385</ele>
        <time>2014-08-28T10:20:12Z</time>
      </trkpt>
      <trkpt lat="46.34739" lon="6.72488">
        <ele>1629.7385</ele>
        <time>2014-08-28T10:20:17Z</time>
      </trkpt>
      <trkpt lat="46.34738" lon="6.72486">
        <ele>1629.7385</ele>
        <time>2014-08-28T10:20:22Z</time>
      </trkpt>
      <trkpt lat="46.34739" lon="6.72488">
        <ele>1629.7385</ele>
        <time>2014-08-28T10:20:27Z</time>
      </trkpt>
      <trkpt lat="46.3474" lon="6.72491">
        <ele>1629.7385</ele>
        <time>2014-08-28T10:20:32Z</time>
      </trkpt>
      <trkpt lat="46.34739" lon="6.72497">
        <ele>1628.5524</ele>
        <time>2014-08-28T10:20:37Z</time>
      </trkpt>
      <trkpt lat="46.34737" lon="6.72502">
        <ele>1628.5524</ele>
        <time>2014-08-28T10:20:42Z</time>
      </trkpt>
      <trkpt lat="46.34736" lon="6.72509">
        <ele>1628.5524</ele>
        <time>2014-08-28T10:20:47Z</time>
      </trkpt>
      <trkpt lat="46.34735" lon="6.7252">
        <ele>1627.9176</ele>
        <time>2014-08-28T10:20:52Z</time>
      </trkpt>
      <trkpt lat="46.34732" lon="6.7253">
        <ele>1627.9176</ele>
        <time>2014-08-28T10:20:57Z</time>
      </trkpt>
      <trkpt lat="46.34732" lon="6.72538">
        <ele>1627.989</ele>
        <time>2014-08-28T10:21:02Z</time>
      </trkpt>
      <trkpt lat="46.34732" lon="6.72545">
        <ele>1627.989</ele>
        <time>2014-08-28T10:21:07Z</time>
      </trkpt>
      <trkpt lat="46.34731" lon="6.72553">
        <ele>1628.3025</ele>
        <time>2014-08-28T10:21:12Z</time>
      </trkpt>
      <trkpt lat="46.34731" lon="6.72562">
        <ele>1628.3025</ele>
        <time>2014-08-28T10:21:17Z</time>
      </trkpt>
      <trkpt lat="46.34732" lon="6.72569">
        <ele>1629.0906</ele>
        <time>2014-08-28T10:21:22Z</time>
      </trkpt>
      <trkpt lat="46.34732" lon="6.72577">
        <ele>1629.0906</ele>
        <time>2014-08-28T10:21:27Z</time>
      </trkpt>
      <trkpt lat="46.34733" lon="6.72583">
        <ele>1630.3369</ele>
        <time>2014-08-28T10:21:32Z</time>
      </trkpt>
      <trkpt lat="46.34734" lon="6.72589">
        <ele>1630.3369</ele>
        <time>2014-08-28T10:21:37Z</time>
      </trkpt>
      <trkpt lat="46.34736" lon="6.72596">
        <ele>1632.2703</ele>
        <time>2014-08-28T10:21:42Z</time>
      </trkpt>
      <trkpt lat="46.34738" lon="6.72606">
        <ele>1632.2703</ele>
        <time>2014-08-28T10:21:47Z</time>
      </trkpt>
      <trkpt lat="46.34741" lon="6.72613">
        <ele>1634.481</ele>
        <time>2014-08-28T10:21:52Z</time>
      </trkpt>
      <trkpt lat="46.34744" lon="6.72615">
        <ele>1634.481</ele>
        <time>2014-08-28T10:21:57Z</time>
      </trkpt>
      <trkpt lat="46.34745" lon="6.72617">
        <ele>1634.481</ele>
        <time>2014-08-28T10:22:02Z</time>
      </trkpt>
      <trkpt lat="46.34747" lon="6.72621">
        <ele>1634.481</ele>
        <time>2014-08-28T10:22:07Z</time>
      </trkpt>
      <trkpt lat="46.34747" lon="6.72623">
        <ele>1636.5746</ele>
        <time>2014-08-28T10:22:12Z</time>
      </trkpt>
      <trkpt lat="46.34748" lon="6.72628">
        <ele>1636.5746</ele>
        <time>2014-08-28T10:22:17Z</time>
      </trkpt>
      <trkpt lat="46.34747" lon="6.72635">
        <ele>1636.5746</ele>
        <time>2014-08-28T10:22:22Z</time>
      </trkpt>
      <trkpt lat="46.34749" lon="6.7264">
        <ele>1638.7194</ele>
        <time>2014-08-28T10:22:27Z</time>
      </trkpt>
      <trkpt lat="46.3475" lon="6.72641">
        <ele>1638.7194</ele>
        <time>2014-08-28T10:22:32Z</time>
      </trkpt>
      <trkpt lat="46.34751" lon="6.72647">
        <ele>1638.7194</ele>
        <time>2014-08-28T10:22:37Z</time>
      </trkpt>
      <trkpt lat="46.34753" lon="6.7265">
        <ele>1638.7194</ele>
        <time>2014-08-28T10:22:42Z</time>
      </trkpt>
      <trkpt lat="46.34755" lon="6.72658">
        <ele>1640.8986</ele>
        <time>2014-08-28T10:22:47Z</time>
      </trkpt>
      <trkpt lat="46.34755" lon="6.72663">
        <ele>1640.8986</ele>
        <time>2014-08-28T10:22:52Z</time>
      </trkpt>
      <trkpt lat="46.34756" lon="6.72665">
        <ele>1640.8986</ele>
        <time>2014-08-28T10:22:57Z</time>
      </trkpt>
      <trkpt lat="46.34756" lon="6.72669">
        <ele>1640.8986</ele>
        <time>2014-08-28T10:23:02Z</time>
      </trkpt>
      <trkpt lat="46.34758" lon="6.72674">
        <ele>1642.9237</ele>
        <time>2014-08-28T10:23:07Z</time>
      </trkpt>
      <trkpt lat="46.34757" lon="6.72679">
        <ele>1642.9237</ele>
        <time>2014-08-28T10:23:12Z</time>
      </trkpt>
      <trkpt lat="46.34756" lon="6.72687">
        <ele>1642.9237</ele>
        <time>2014-08-28T10:23:17Z</time>
      </trkpt>
      <trkpt lat="46.34756" lon="6.72691">
        <ele>1644.9379</ele>
        <time>2014-08-28T10:23:22Z</time>
      </trkpt>
      <trkpt lat="46.34757" lon="6.72697">
        <ele>1644.9379</ele>
        <time>2014-08-28T10:23:27Z</time>
      </trkpt>
      <trkpt lat="46.34756" lon="6.72706">
        <ele>1647.1029</ele>
        <time>2014-08-28T10:23:32Z</time>
      </trkpt>
      <trkpt lat="46.34755" lon="6.72713">
        <ele>1647.1029</ele>
        <time>2014-08-28T10:23:37Z</time>
      </trkpt>
      <trkpt lat="46.34755" lon="6.72718">
        <ele>1647.1029</ele>
        <time>2014-08-28T10:23:42Z</time>
      </trkpt>
      <trkpt lat="46.34755" lon="6.72721">
        <ele>1649.7129</ele>
        <time>2014-08-28T10:23:47Z</time>
      </trkpt>
      <trkpt lat="46.34754" lon="6.72727">
        <ele>1649.7129</ele>
        <time>2014-08-28T10:23:52Z</time>
      </trkpt>
      <trkpt lat="46.34754" lon="6.72731">
        <ele>1649.7129</ele>
        <time>2014-08-28T10:23:57Z</time>
      </trkpt>
      <trkpt lat="46.34753" lon="6.72736">
        <ele>1652.6644</ele>
        <time>2014-08-28T10:24:02Z</time>
      </trkpt>
      <trkpt lat="46.34753" lon="6.72741">
        <ele>1652.6644</ele>
        <time>2014-08-28T10:24:07Z</time>
      </trkpt>
      <trkpt lat="46.34752" lon="6.72745">
        <ele>1652.6644</ele>
        <time>2014-08-28T10:24:12Z</time>
      </trkpt>
      <trkpt lat="46.34752" lon="6.72749">
        <ele>1652.6644</ele>
        <time>2014-08-28T10:24:17Z</time>
      </trkpt>
      <trkpt lat="46.34753" lon="6.72752">
        <ele>1655.9764</ele>
        <time>2014-08-28T10:24:22Z</time>
      </trkpt>
      <trkpt lat="46.34753" lon="6.72759">
        <ele>1655.9764</ele>
        <time>2014-08-28T10:24:27Z</time>
      </trkpt>
      <trkpt lat="46.34753" lon="6.72762">
        <ele>1655.9764</ele>
        <time>2014-08-28T10:24:32Z</time>
      </trkpt>
      <trkpt lat="46.34754" lon="6.72767">
        <ele>1659.3058</ele>
        <time>2014-08-28T10:24:37Z</time>
      </trkpt>
      <trkpt lat="46.34754" lon="6.72769">
        <ele>1659.3058</ele>
        <time>2014-08-28T10:24:42Z</time>
      </trkpt>
      <trkpt lat="46.34754" lon="6.7277">
        <ele>1659.3058</ele>
        <time>2014-08-28T10:24:47Z</time>
      </trkpt>
      <trkpt lat="46.34752" lon="6.72776">
        <ele>1659.3058</ele>
        <time>2014-08-28T10:24:52Z</time>
      </trkpt>
      <trkpt lat="46.34751" lon="6.72778">
        <ele>1659.3058</ele>
        <time>2014-08-28T10:24:57Z</time>
      </trkpt>
      <trkpt lat="46.34751" lon="6.72779">
        <ele>1662.421</ele>
        <time>2014-08-28T10:25:02Z</time>
      </trkpt>
      <trkpt lat="46.34749" lon="6.72782">
        <ele>1662.421</ele>
        <time>2014-08-28T10:25:07Z</time>
      </trkpt>
      <trkpt lat="46.34748" lon="6.72787">
        <ele>1662.421</ele>
        <time>2014-08-28T10:25:12Z</time>
      </trkpt>
      <trkpt lat="46.34746" lon="6.72793">
        <ele>1665.3107</ele>
        <time>2014-08-28T10:25:17Z</time>
      </trkpt>
      <trkpt lat="46.34747" lon="6.72802">
        <ele>1665.3107</ele>
        <time>2014-08-28T10:25:22Z</time>
      </trkpt>
      <trkpt lat="46.34747" lon="6.72804">
        <ele>1665.3107</ele>
        <time>2014-08-28T10:25:27Z</time>
      </trkpt>
      <trkpt lat="46.34747" lon="6.7281">
        <ele>1668.1667</ele>
        <time>2014-08-28T10:25:32Z</time>
      </trkpt>
      <trkpt lat="46.34749" lon="6.72819">
        <ele>1668.1667</ele>
        <time>2014-08-28T10:25:37Z</time>
      </trkpt>
      <trkpt lat="46.34748" lon="6.72827">
        <ele>1671.0234</ele>
        <time>2014-08-28T10:25:42Z</time>
      </trkpt>
      <trkpt lat="46.34748" lon="6.7283">
        <ele>1671.0234</ele>
        <time>2014-08-28T10:25:47Z</time>
      </trkpt>
      <trkpt lat="46.34747" lon="6.72836">
        <ele>1671.0234</ele>
        <time>2014-08-28T10:25:52Z</time>
      </trkpt>
      <trkpt lat="46.34747" lon="6.72841">
        <ele>1673.6249</ele>
        <time>2014-08-28T10:25:57Z</time>
      </trkpt>
      <trkpt lat="46.34747" lon="6.72842">
        <ele>1673.6249</ele>
        <time>2014-08-28T10:26:02Z</time>
      </trkpt>
      <trkpt lat="46.34748" lon="6.72846">
        <ele>1673.6249</ele>
        <time>2014-08-28T10:26:32Z</time>
      </trkpt>
      <trkpt lat="46.34749" lon="6.72853">
        <ele>1673.6249</ele>
        <time>2014-08-28T10:26:37Z</time>
      </trkpt>
      <trkpt lat="46.34749" lon="6.72863">
        <ele>1676.2969</ele>
        <time>2014-08-28T10:26:42Z</time>
      </trkpt>
      <trkpt lat="46.34751" lon="6.72869">
        <ele>1676.2969</ele>
        <time>2014-08-28T10:26:47Z</time>
      </trkpt>
      <trkpt lat="46.34751" lon="6.72874">
        <ele>1676.2969</ele>
        <time>2014-08-28T10:26:52Z</time>
      </trkpt>
      <trkpt lat="46.34751" lon="6.7288">
        <ele>1678.7366</ele>
        <time>2014-08-28T10:26:57Z</time>
      </trkpt>
      <trkpt lat="46.34751" lon="6.72886">
        <ele>1678.7366</ele>
        <time>2014-08-28T10:27:02Z</time>
      </trkpt>
      <trkpt lat="46.34751" lon="6.7289">
        <ele>1678.7366</ele>
        <time>2014-08-28T10:27:07Z</time>
      </trkpt>
      <trkpt lat="46.34751" lon="6.72896">
        <ele>1680.9811</ele>
        <time>2014-08-28T10:27:12Z</time>
      </trkpt>
      <trkpt lat="46.3475" lon="6.72899">
        <ele>1680.9811</ele>
        <time>2014-08-28T10:27:17Z</time>
      </trkpt>
      <trkpt lat="46.3475" lon="6.72901">
        <ele>1680.9811</ele>
        <time>2014-08-28T10:27:22Z</time>
      </trkpt>
      <trkpt lat="46.34749" lon="6.72905">
        <ele>1680.9811</ele>
        <time>2014-08-28T10:27:27Z</time>
      </trkpt>
      <trkpt lat="46.34747" lon="6.72907">
        <ele>1680.9811</ele>
        <time>2014-08-28T10:27:32Z</time>
      </trkpt>
      <trkpt lat="46.34745" lon="6.72908">
        <ele>1682.3887</ele>
        <time>2014-08-28T10:27:37Z</time>
      </trkpt>
      <trkpt lat="46.34742" lon="6.72911">
        <ele>1682.3887</ele>
        <time>2014-08-28T10:27:42Z</time>
      </trkpt>
      <trkpt lat="46.34738" lon="6.72914">
        <ele>1682.3887</ele>
        <time>2014-08-28T10:27:47Z</time>
      </trkpt>
      <trkpt lat="46.34735" lon="6.72919">
        <ele>1683.0736</ele>
        <time>2014-08-28T10:27:52Z</time>
      </trkpt>
      <trkpt lat="46.34734" lon="6.72919">
        <ele>1683.0736</ele>
        <time>2014-08-28T10:27:57Z</time>
      </trkpt>
      <trkpt lat="46.3473" lon="6.72919">
        <ele>1683.0736</ele>
        <time>2014-08-28T10:28:02Z</time>
      </trkpt>
      <trkpt lat="46.34727" lon="6.72916">
        <ele>1683.0736</ele>
        <time>2014-08-28T10:28:07Z</time>
      </trkpt>
      <trkpt lat="46.34726" lon="6.72913">
        <ele>1683.2017</ele>
        <time>2014-08-28T10:28:12Z</time>
      </trkpt>
      <trkpt lat="46.34724" lon="6.72911">
        <ele>1683.2017</ele>
        <time>2014-08-28T10:28:17Z</time>
      </trkpt>
      <trkpt lat="46.34724" lon="6.72911">
        <ele>1683.2017</ele>
        <time>2014-08-28T10:28:22Z</time>
      </trkpt>
      <trkpt lat="46.34718" lon="6.72907">
        <ele>1683.2017</ele>
        <time>2014-08-28T10:28:37Z</time>
      </trkpt>
      <trkpt lat="46.34718" lon="6.72907">
        <ele>1683.2017</ele>
        <time>2014-08-28T10:28:42Z</time>
      </trkpt>
      <trkpt lat="46.34715" lon="6.72904">
        <ele>1683.4329</ele>
        <time>2014-08-28T10:28:47Z</time>
      </trkpt>
      <trkpt lat="46.34713" lon="6.72901">
        <ele>1683.4329</ele>
        <time>2014-08-28T10:28:52Z</time>
      </trkpt>
      <trkpt lat="46.34708" lon="6.72893">
        <ele>1683.6294</ele>
        <time>2014-08-28T10:28:57Z</time>
      </trkpt>
      <trkpt lat="46.34705" lon="6.72888">
        <ele>1683.6294</ele>
        <time>2014-08-28T10:29:02Z</time>
      </trkpt>
      <trkpt lat="46.34705" lon="6.72888">
        <ele>1683.6294</ele>
        <time>2014-08-28T10:29:07Z</time>
      </trkpt>
      <trkpt lat="46.34703" lon="6.72885">
        <ele>1683.6294</ele>
        <time>2014-08-28T10:29:12Z</time>
      </trkpt>
      <trkpt lat="46.34701" lon="6.7288">
        <ele>1684.0098</ele>
        <time>2014-08-28T10:29:17Z</time>
      </trkpt>
      <trkpt lat="46.34701" lon="6.7288">
        <ele>1684.0098</ele>
        <time>2014-08-28T10:29:22Z</time>
      </trkpt>
      <trkpt lat="46.34699" lon="6.72876">
        <ele>1684.0098</ele>
        <time>2014-08-28T10:29:27Z</time>
      </trkpt>
      <trkpt lat="46.34698" lon="6.72875">
        <ele>1684.0098</ele>
        <time>2014-08-28T10:29:32Z</time>
      </trkpt>
      <trkpt lat="46.34698" lon="6.72873">
        <ele>1684.0098</ele>
        <time>2014-08-28T10:29:37Z</time>
      </trkpt>
      <trkpt lat="46.34698" lon="6.72873">
        <ele>1684.0098</ele>
        <time>2014-08-28T10:29:42Z</time>
      </trkpt>
      <trkpt lat="46.34699" lon="6.72868">
        <ele>1684.8772</ele>
        <time>2014-08-28T10:29:47Z</time>
      </trkpt>
      <trkpt lat="46.34699" lon="6.72868">
        <ele>1684.8772</ele>
        <time>2014-08-28T10:29:52Z</time>
      </trkpt>
      <trkpt lat="46.34698" lon="6.72863">
        <ele>1684.8772</ele>
        <time>2014-08-28T10:29:57Z</time>
      </trkpt>
      <trkpt lat="46.34698" lon="6.7286">
        <ele>1684.8772</ele>
        <time>2014-08-28T10:30:02Z</time>
      </trkpt>
      <trkpt lat="46.34698" lon="6.72857">
        <ele>1684.8772</ele>
        <time>2014-08-28T10:30:07Z</time>
      </trkpt>
      <trkpt lat="46.34694" lon="6.72844">
        <ele>1686.4683</ele>
        <time>2014-08-28T10:30:12Z</time>
      </trkpt>
      <trkpt lat="46.3469" lon="6.72837">
        <ele>1686.4683</ele>
        <time>2014-08-28T10:30:17Z</time>
      </trkpt>
      <trkpt lat="46.34689" lon="6.72835">
        <ele>1686.4683</ele>
        <time>2014-08-28T10:30:22Z</time>
      </trkpt>
      <trkpt lat="46.34688" lon="6.72833">
        <ele>1688.2509</ele>
        <time>2014-08-28T10:30:27Z</time>
      </trkpt>
      <trkpt lat="46.34686" lon="6.7283">
        <ele>1688.2509</ele>
        <time>2014-08-28T10:30:32Z</time>
      </trkpt>
      <trkpt lat="46.34682" lon="6.72825">
        <ele>1688.2509</ele>
        <time>2014-08-28T10:30:37Z</time>
      </trkpt>
      <trkpt lat="46.34682" lon="6.72823">
        <ele>1688.2509</ele>
        <time>2014-08-28T10:30:42Z</time>
      </trkpt>
      <trkpt lat="46.3468" lon="6.72818">
        <ele>1690.0491</ele>
        <time>2014-08-28T10:30:47Z</time>
      </trkpt>
      <trkpt lat="46.34679" lon="6.72816">
        <ele>1690.0491</ele>
        <time>2014-08-28T10:30:52Z</time>
      </trkpt>
      <trkpt lat="46.34679" lon="6.72816">
        <ele>1690.0491</ele>
        <time>2014-08-28T10:30:57Z</time>
      </trkpt>
      <trkpt lat="46.34678" lon="6.72815">
        <ele>1690.0491</ele>
        <time>2014-08-28T10:31:17Z</time>
      </trkpt>
      <trkpt lat="46.34671" lon="6.72813">
        <ele>1691.7572</ele>
        <time>2014-08-28T10:31:22Z</time>
      </trkpt>
      <trkpt lat="46.34666" lon="6.72812">
        <ele>1691.7572</ele>
        <time>2014-08-28T10:31:27Z</time>
      </trkpt>
      <trkpt lat="46.34663" lon="6.72811">
        <ele>1691.7572</ele>
        <time>2014-08-28T10:31:32Z</time>
      </trkpt>
      <trkpt lat="46.34661" lon="6.7281">
        <ele>1693.2639</ele>
        <time>2014-08-28T10:31:37Z</time>
      </trkpt>
      <trkpt lat="46.34658" lon="6.72809">
        <ele>1693.2639</ele>
        <time>2014-08-28T10:31:42Z</time>
      </trkpt>
      <trkpt lat="46.34656" lon="6.72807">
        <ele>1693.2639</ele>
        <time>2014-08-28T10:31:47Z</time>
      </trkpt>
      <trkpt lat="46.34653" lon="6.72803">
        <ele>1694.6539</ele>
        <time>2014-08-28T10:31:52Z</time>
      </trkpt>
      <trkpt lat="46.34648" lon="6.728">
        <ele>1694.6539</ele>
        <time>2014-08-28T10:31:57Z</time>
      </trkpt>
      <trkpt lat="46.34644" lon="6.72798">
        <ele>1695.9054</ele>
        <time>2014-08-28T10:32:02Z</time>
      </trkpt>
      <trkpt lat="46.34642" lon="6.72798">
        <ele>1695.9054</ele>
        <time>2014-08-28T10:32:07Z</time>
      </trkpt>
      <trkpt lat="46.34638" lon="6.72796">
        <ele>1695.9054</ele>
        <time>2014-08-28T10:32:12Z</time>
      </trkpt>
      <trkpt lat="46.34635" lon="6.72795">
        <ele>1695.9054</ele>
        <time>2014-08-28T10:32:17Z</time>
      </trkpt>
      <trkpt lat="46.34634" lon="6.72794">
        <ele>1696.9266</ele>
        <time>2014-08-28T10:32:22Z</time>
      </trkpt>
      <trkpt lat="46.34633" lon="6.72794">
        <ele>1696.9266</ele>
        <time>2014-08-28T10:32:27Z</time>
      </trkpt>
      <trkpt lat="46.34632" lon="6.72794">
        <ele>1696.9266</ele>
        <time>2014-08-28T10:32:32Z</time>
      </trkpt>
      <trkpt lat="46.34633" lon="6.72794">
        <ele>1696.9266</ele>
        <time>2014-08-28T10:32:37Z</time>
      </trkpt>
      <trkpt lat="46.34633" lon="6.7279">
        <ele>1696.9266</ele>
        <time>2014-08-28T10:32:42Z</time>
      </trkpt>
      <trkpt lat="46.34635" lon="6.7279">
        <ele>1696.9266</ele>
        <time>2014-08-28T10:32:47Z</time>
      </trkpt>
      <trkpt lat="46.34634" lon="6.7279">
        <ele>1696.9266</ele>
        <time>2014-08-28T10:32:52Z</time>
      </trkpt>
      <trkpt lat="46.3463" lon="6.72789">
        <ele>1697.9794</ele>
        <time>2014-08-28T10:32:57Z</time>
      </trkpt>
      <trkpt lat="46.34627" lon="6.72787">
        <ele>1697.9794</ele>
        <time>2014-08-28T10:33:02Z</time>
      </trkpt>
      <trkpt lat="46.34626" lon="6.72784">
        <ele>1697.9794</ele>
        <time>2014-08-28T10:33:07Z</time>
      </trkpt>
      <trkpt lat="46.34624" lon="6.72782">
        <ele>1697.9794</ele>
        <time>2014-08-28T10:33:12Z</time>
      </trkpt>
      <trkpt lat="46.34624" lon="6.72782">
        <ele>1697.9794</ele>
        <time>2014-08-28T10:33:17Z</time>
      </trkpt>
      <trkpt lat="46.34624" lon="6.72783">
        <ele>1697.9794</ele>
        <time>2014-08-28T10:33:22Z</time>
      </trkpt>
      <trkpt lat="46.34623" lon="6.72783">
        <ele>1699.1332</ele>
        <time>2014-08-28T10:33:27Z</time>
      </trkpt>
      <trkpt lat="46.3462" lon="6.7278">
        <ele>1699.1332</ele>
        <time>2014-08-28T10:33:32Z</time>
      </trkpt>
      <trkpt lat="46.34617" lon="6.72778">
        <ele>1699.1332</ele>
        <time>2014-08-28T10:33:37Z</time>
      </trkpt>
      <trkpt lat="46.34613" lon="6.72775">
        <ele>1700.2797</ele>
        <time>2014-08-28T10:33:42Z</time>
      </trkpt>
      <trkpt lat="46.3461" lon="6.72776">
        <ele>1700.2797</ele>
        <time>2014-08-28T10:33:47Z</time>
      </trkpt>
      <trkpt lat="46.34606" lon="6.72775">
        <ele>1700.2797</ele>
        <time>2014-08-28T10:33:52Z</time>
      </trkpt>
      <trkpt lat="46.34603" lon="6.72777">
        <ele>1701.3761</ele>
        <time>2014-08-28T10:33:57Z</time>
      </trkpt>
      <trkpt lat="46.34601" lon="6.72779">
        <ele>1701.3761</ele>
        <time>2014-08-28T10:34:02Z</time>
      </trkpt>
      <trkpt lat="46.34601" lon="6.7278">
        <ele>1701.3761</ele>
        <time>2014-08-28T10:34:07Z</time>
      </trkpt>
      <trkpt lat="46.34598" lon="6.72784">
        <ele>1701.3761</ele>
        <time>2014-08-28T10:34:12Z</time>
      </trkpt>
      <trkpt lat="46.34598" lon="6.72786">
        <ele>1701.3761</ele>
        <time>2014-08-28T10:34:17Z</time>
      </trkpt>
      <trkpt lat="46.34596" lon="6.72789">
        <ele>1702.5992</ele>
        <time>2014-08-28T10:34:22Z</time>
      </trkpt>
      <trkpt lat="46.34595" lon="6.72791">
        <ele>1702.5992</ele>
        <time>2014-08-28T10:34:27Z</time>
      </trkpt>
      <trkpt lat="46.34593" lon="6.72793">
        <ele>1702.5992</ele>
        <time>2014-08-28T10:34:32Z</time>
      </trkpt>
      <trkpt lat="46.34591" lon="6.72796">
        <ele>1702.5992</ele>
        <time>2014-08-28T10:34:37Z</time>
      </trkpt>
      <trkpt lat="46.3459" lon="6.72798">
        <ele>1703.7958</ele>
        <time>2014-08-28T10:34:42Z</time>
      </trkpt>
      <trkpt lat="46.34591" lon="6.728">
        <ele>1703.7958</ele>
        <time>2014-08-28T10:34:47Z</time>
      </trkpt>
      <trkpt lat="46.3459" lon="6.72803">
        <ele>1703.7958</ele>
        <time>2014-08-28T10:34:52Z</time>
      </trkpt>
      <trkpt lat="46.34589" lon="6.72804">
        <ele>1703.7958</ele>
        <time>2014-08-28T10:34:57Z</time>
      </trkpt>
      <trkpt lat="46.34589" lon="6.72805">
        <ele>1703.7958</ele>
        <time>2014-08-28T10:35:02Z</time>
      </trkpt>
      <trkpt lat="46.34588" lon="6.72808">
        <ele>1703.7958</ele>
        <time>2014-08-28T10:35:07Z</time>
      </trkpt>
      <trkpt lat="46.34586" lon="6.72811">
        <ele>1705.083</ele>
        <time>2014-08-28T10:35:12Z</time>
      </trkpt>
      <trkpt lat="46.34585" lon="6.72813">
        <ele>1705.083</ele>
        <time>2014-08-28T10:35:17Z</time>
      </trkpt>
      <trkpt lat="46.34583" lon="6.72821">
        <ele>1705.083</ele>
        <time>2014-08-28T10:35:22Z</time>
      </trkpt>
      <trkpt lat="46.34582" lon="6.72824">
        <ele>1706.5985</ele>
        <time>2014-08-28T10:35:27Z</time>
      </trkpt>
      <trkpt lat="46.34581" lon="6.72826">
        <ele>1706.5985</ele>
        <time>2014-08-28T10:35:32Z</time>
      </trkpt>
      <trkpt lat="46.3458" lon="6.72831">
        <ele>1706.5985</ele>
        <time>2014-08-28T10:35:37Z</time>
      </trkpt>
      <trkpt lat="46.34581" lon="6.72835">
        <ele>1706.5985</ele>
        <time>2014-08-28T10:35:42Z</time>
      </trkpt>
      <trkpt lat="46.34583" lon="6.72842">
        <ele>1708.1664</ele>
        <time>2014-08-28T10:35:47Z</time>
      </trkpt>
      <trkpt lat="46.34584" lon="6.72846">
        <ele>1708.1664</ele>
        <time>2014-08-28T10:35:52Z</time>
      </trkpt>
      <trkpt lat="46.34585" lon="6.72849">
        <ele>1708.1664</ele>
        <time>2014-08-28T10:35:57Z</time>
      </trkpt>
      <trkpt lat="46.34586" lon="6.72854">
        <ele>1708.1664</ele>
        <time>2014-08-28T10:36:02Z</time>
      </trkpt>
      <trkpt lat="46.34585" lon="6.72859">
        <ele>1709.8545</ele>
        <time>2014-08-28T10:36:07Z</time>
      </trkpt>
      <trkpt lat="46.34588" lon="6.72869">
        <ele>1709.8545</ele>
        <time>2014-08-28T10:36:12Z</time>
      </trkpt>
      <trkpt lat="46.3459" lon="6.72878">
        <ele>1711.4224</ele>
        <time>2014-08-28T10:36:17Z</time>
      </trkpt>
      <trkpt lat="46.34591" lon="6.72881">
        <ele>1711.4224</ele>
        <time>2014-08-28T10:36:22Z</time>
      </trkpt>
      <trkpt lat="46.34594" lon="6.72887">
        <ele>1711.4224</ele>
        <time>2014-08-28T10:36:27Z</time>
      </trkpt>
      <trkpt lat="46.34597" lon="6.72893">
        <ele>1712.9075</ele>
        <time>2014-08-28T10:36:32Z</time>
      </trkpt>
      <trkpt lat="46.34598" lon="6.72895">
        <ele>1712.9075</ele>
        <time>2014-08-28T10:36:37Z</time>
      </trkpt>
      <trkpt lat="46.34601" lon="6.72898">
        <ele>1712.9075</ele>
        <time>2014-08-28T10:36:42Z</time>
      </trkpt>
      <trkpt lat="46.34603" lon="6.72898">
        <ele>1712.9075</ele>
        <time>2014-08-28T10:36:47Z</time>
      </trkpt>
      <trkpt lat="46.34604" lon="6.72901">
        <ele>1714.431</ele>
        <time>2014-08-28T10:36:52Z</time>
      </trkpt>
      <trkpt lat="46.34606" lon="6.72903">
        <ele>1714.431</ele>
        <time>2014-08-28T10:36:57Z</time>
      </trkpt>
      <trkpt lat="46.34606" lon="6.72903">
        <ele>1714.431</ele>
        <time>2014-08-28T10:37:02Z</time>
      </trkpt>
      <trkpt lat="46.34607" lon="6.72905">
        <ele>1714.431</ele>
        <time>2014-08-28T10:37:07Z</time>
      </trkpt>
      <trkpt lat="46.34607" lon="6.72908">
        <ele>1714.431</ele>
        <time>2014-08-28T10:37:12Z</time>
      </trkpt>
      <trkpt lat="46.34607" lon="6.7291">
        <ele>1714.431</ele>
        <time>2014-08-28T10:37:17Z</time>
      </trkpt>
      <trkpt lat="46.34607" lon="6.72913">
        <ele>1716.0908</ele>
        <time>2014-08-28T10:37:22Z</time>
      </trkpt>
      <trkpt lat="46.34606" lon="6.72916">
        <ele>1716.0908</ele>
        <time>2014-08-28T10:37:27Z</time>
      </trkpt>
      <trkpt lat="46.34607" lon="6.72918">
        <ele>1716.0908</ele>
        <time>2014-08-28T10:37:32Z</time>
      </trkpt>
      <trkpt lat="46.34607" lon="6.7292">
        <ele>1716.0908</ele>
        <time>2014-08-28T10:37:37Z</time>
      </trkpt>
      <trkpt lat="46.34607" lon="6.72923">
        <ele>1716.0908</ele>
        <time>2014-08-28T10:37:42Z</time>
      </trkpt>
      <trkpt lat="46.34606" lon="6.72926">
        <ele>1717.6605</ele>
        <time>2014-08-28T10:37:47Z</time>
      </trkpt>
      <trkpt lat="46.34603" lon="6.72929">
        <ele>1717.6605</ele>
        <time>2014-08-28T10:37:52Z</time>
      </trkpt>
      <trkpt lat="46.34601" lon="6.72932">
        <ele>1717.6605</ele>
        <time>2014-08-28T10:37:57Z</time>
      </trkpt>
      <trkpt lat="46.34602" lon="6.72934">
        <ele>1717.6605</ele>
        <time>2014-08-28T10:38:02Z</time>
      </trkpt>
      <trkpt lat="46.34603" lon="6.72935">
        <ele>1717.6605</ele>
        <time>2014-08-28T10:38:07Z</time>
      </trkpt>
      <trkpt lat="46.34602" lon="6.72935">
        <ele>1719.2617</ele>
        <time>2014-08-28T10:38:12Z</time>
      </trkpt>
      <trkpt lat="46.34603" lon="6.72934">
        <ele>1719.2617</ele>
        <time>2014-08-28T10:38:17Z</time>
      </trkpt>
      <trkpt lat="46.34603" lon="6.72934">
        <ele>1719.2617</ele>
        <time>2014-08-28T10:38:22Z</time>
      </trkpt>
      <trkpt lat="46.34605" lon="6.72936">
        <ele>1719.2617</ele>
        <time>2014-08-28T10:38:27Z</time>
      </trkpt>
      <trkpt lat="46.34606" lon="6.72938">
        <ele>1719.2617</ele>
        <time>2014-08-28T10:38:32Z</time>
      </trkpt>
      <trkpt lat="46.34607" lon="6.72941">
        <ele>1719.2617</ele>
        <time>2014-08-28T10:38:37Z</time>
      </trkpt>
      <trkpt lat="46.34608" lon="6.72944">
        <ele>1721.0793</ele>
        <time>2014-08-28T10:38:42Z</time>
      </trkpt>
      <trkpt lat="46.3461" lon="6.72948">
        <ele>1721.0793</ele>
        <time>2014-08-28T10:38:47Z</time>
      </trkpt>
      <trkpt lat="46.3461" lon="6.72949">
        <ele>1721.0793</ele>
        <time>2014-08-28T10:38:52Z</time>
      </trkpt>
      <trkpt lat="46.3461" lon="6.72952">
        <ele>1721.0793</ele>
        <time>2014-08-28T10:38:57Z</time>
      </trkpt>
      <trkpt lat="46.34611" lon="6.72957">
        <ele>1722.8375</ele>
        <time>2014-08-28T10:39:02Z</time>
      </trkpt>
      <trkpt lat="46.3461" lon="6.72961">
        <ele>1722.8375</ele>
        <time>2014-08-28T10:39:07Z</time>
      </trkpt>
      <trkpt lat="46.34611" lon="6.72963">
        <ele>1722.8375</ele>
        <time>2014-08-28T10:39:12Z</time>
      </trkpt>
      <trkpt lat="46.34612" lon="6.72966">
        <ele>1722.8375</ele>
        <time>2014-08-28T10:39:17Z</time>
      </trkpt>
      <trkpt lat="46.34612" lon="6.72967">
        <ele>1722.8375</ele>
        <time>2014-08-28T10:39:22Z</time>
      </trkpt>
      <trkpt lat="46.34612" lon="6.7297">
        <ele>1724.4246</ele>
        <time>2014-08-28T10:39:27Z</time>
      </trkpt>
      <trkpt lat="46.34613" lon="6.72973">
        <ele>1724.4246</ele>
        <time>2014-08-28T10:39:32Z</time>
      </trkpt>
      <trkpt lat="46.34612" lon="6.72979">
        <ele>1724.4246</ele>
        <time>2014-08-28T10:39:37Z</time>
      </trkpt>
      <trkpt lat="46.34614" lon="6.72984">
        <ele>1726.1272</ele>
        <time>2014-08-28T10:39:42Z</time>
      </trkpt>
      <trkpt lat="46.34614" lon="6.72989">
        <ele>1726.1272</ele>
        <time>2014-08-28T10:39:47Z</time>
      </trkpt>
      <trkpt lat="46.34615" lon="6.72991">
        <ele>1726.1272</ele>
        <time>2014-08-28T10:39:52Z</time>
      </trkpt>
      <trkpt lat="46.34613" lon="6.72992">
        <ele>1726.1272</ele>
        <time>2014-08-28T10:39:57Z</time>
      </trkpt>
      <trkpt lat="46.34611" lon="6.72994">
        <ele>1727.0317</ele>
        <time>2014-08-28T10:40:02Z</time>
      </trkpt>
      <trkpt lat="46.34611" lon="6.72992">
        <ele>1727.9364</ele>
        <time>2014-08-28T10:40:07Z</time>
      </trkpt>
      <trkpt lat="46.34613" lon="6.72985">
        <ele>1727.9364</ele>
        <time>2014-08-28T10:40:12Z</time>
      </trkpt>
      <trkpt lat="46.3461" lon="6.72985">
        <ele>1727.9364</ele>
        <time>2014-08-28T10:40:17Z</time>
      </trkpt>
      <trkpt lat="46.34607" lon="6.72986">
        <ele>1729.5127</ele>
        <time>2014-08-28T10:40:22Z</time>
      </trkpt>
      <trkpt lat="46.34608" lon="6.72987">
        <ele>1729.5127</ele>
        <time>2014-08-28T10:40:27Z</time>
      </trkpt>
      <trkpt lat="46.34608" lon="6.72994">
        <ele>1729.5127</ele>
        <time>2014-08-28T10:40:32Z</time>
      </trkpt>
      <trkpt lat="46.34607" lon="6.72999">
        <ele>1731.1038</ele>
        <time>2014-08-28T10:40:37Z</time>
      </trkpt>
      <trkpt lat="46.34605" lon="6.73005">
        <ele>1731.1038</ele>
        <time>2014-08-28T10:40:42Z</time>
      </trkpt>
      <trkpt lat="46.34605" lon="6.7301">
        <ele>1731.1038</ele>
        <time>2014-08-28T10:40:47Z</time>
      </trkpt>
      <trkpt lat="46.34604" lon="6.73012">
        <ele>1732.7231</ele>
        <time>2014-08-28T10:40:52Z</time>
      </trkpt>
      <trkpt lat="46.34603" lon="6.73014">
        <ele>1732.7231</ele>
        <time>2014-08-28T10:40:57Z</time>
      </trkpt>
      <trkpt lat="46.346" lon="6.73016">
        <ele>1732.7231</ele>
        <time>2014-08-28T10:41:02Z</time>
      </trkpt>
      <trkpt lat="46.34598" lon="6.7302">
        <ele>1732.7231</ele>
        <time>2014-08-28T10:41:07Z</time>
      </trkpt>
      <trkpt lat="46.34595" lon="6.73024">
        <ele>1734.4412</ele>
        <time>2014-08-28T10:41:12Z</time>
      </trkpt>
      <trkpt lat="46.34592" lon="6.73028">
        <ele>1734.4412</ele>
        <time>2014-08-28T10:41:17Z</time>
      </trkpt>
      <trkpt lat="46.34588" lon="6.7303">
        <ele>1734.4412</ele>
        <time>2014-08-28T10:41:22Z</time>
      </trkpt>
      <trkpt lat="46.34586" lon="6.73033">
        <ele>1736.3944</ele>
        <time>2014-08-28T10:41:27Z</time>
      </trkpt>
      <trkpt lat="46.34585" lon="6.73034">
        <ele>1736.3944</ele>
        <time>2014-08-28T10:41:32Z</time>
      </trkpt>
      <trkpt lat="46.34584" lon="6.73037">
        <ele>1736.3944</ele>
        <time>2014-08-28T10:41:37Z</time>
      </trkpt>
      <trkpt lat="46.34584" lon="6.73038">
        <ele>1736.3944</ele>
        <time>2014-08-28T10:41:42Z</time>
      </trkpt>
      <trkpt lat="46.34582" lon="6.73039">
        <ele>1736.3944</ele>
        <time>2014-08-28T10:41:47Z</time>
      </trkpt>
      <trkpt lat="46.34581" lon="6.73038">
        <ele>1736.3944</ele>
        <time>2014-08-28T10:41:52Z</time>
      </trkpt>
      <trkpt lat="46.3458" lon="6.7304">
        <ele>1736.3944</ele>
        <time>2014-08-28T10:41:57Z</time>
      </trkpt>
      <trkpt lat="46.3458" lon="6.7304">
        <ele>1738.3198</ele>
        <time>2014-08-28T10:42:02Z</time>
      </trkpt>
      <trkpt lat="46.3458" lon="6.7304">
        <ele>1738.3198</ele>
        <time>2014-08-28T10:42:07Z</time>
      </trkpt>
      <trkpt lat="46.3458" lon="6.73042">
        <ele>1738.3198</ele>
        <time>2014-08-28T10:42:42Z</time>
      </trkpt>
      <trkpt lat="46.3458" lon="6.73049">
        <ele>1738.3198</ele>
        <time>2014-08-28T10:42:47Z</time>
      </trkpt>
      <trkpt lat="46.3458" lon="6.73056">
        <ele>1740.3055</ele>
        <time>2014-08-28T10:42:52Z</time>
      </trkpt>
      <trkpt lat="46.34581" lon="6.73063">
        <ele>1740.3055</ele>
        <time>2014-08-28T10:42:57Z</time>
      </trkpt>
      <trkpt lat="46.34581" lon="6.73068">
        <ele>1740.3055</ele>
        <time>2014-08-28T10:43:02Z</time>
      </trkpt>
      <trkpt lat="46.34581" lon="6.73072">
        <ele>1742.2164</ele>
        <time>2014-08-28T10:43:07Z</time>
      </trkpt>
      <trkpt lat="46.3458" lon="6.73078">
        <ele>1742.2164</ele>
        <time>2014-08-28T10:43:12Z</time>
      </trkpt>
      <trkpt lat="46.34576" lon="6.73083">
        <ele>1744.0721</ele>
        <time>2014-08-28T10:43:17Z</time>
      </trkpt>
      <trkpt lat="46.34573" lon="6.73087">
        <ele>1744.0721</ele>
        <time>2014-08-28T10:43:22Z</time>
      </trkpt>
      <trkpt lat="46.34572" lon="6.73091">
        <ele>1744.0721</ele>
        <time>2014-08-28T10:43:27Z</time>
      </trkpt>
      <trkpt lat="46.34571" lon="6.73095">
        <ele>1745.6311</ele>
        <time>2014-08-28T10:43:32Z</time>
      </trkpt>
      <trkpt lat="46.34567" lon="6.73102">
        <ele>1745.6311</ele>
        <time>2014-08-28T10:43:37Z</time>
      </trkpt>
      <trkpt lat="46.34565" lon="6.73105">
        <ele>1747.2762</ele>
        <time>2014-08-28T10:43:42Z</time>
      </trkpt>
      <trkpt lat="46.34565" lon="6.73109">
        <ele>1747.2762</ele>
        <time>2014-08-28T10:43:47Z</time>
      </trkpt>
      <trkpt lat="46.34564" lon="6.73114">
        <ele>1747.2762</ele>
        <time>2014-08-28T10:43:52Z</time>
      </trkpt>
      <trkpt lat="46.34565" lon="6.73119">
        <ele>1748.785</ele>
        <time>2014-08-28T10:43:57Z</time>
      </trkpt>
      <trkpt lat="46.34564" lon="6.73122">
        <ele>1748.785</ele>
        <time>2014-08-28T10:44:02Z</time>
      </trkpt>
      <trkpt lat="46.34563" lon="6.73128">
        <ele>1748.785</ele>
        <time>2014-08-28T10:44:07Z</time>
      </trkpt>
      <trkpt lat="46.34562" lon="6.73135">
        <ele>1750.1973</ele>
        <time>2014-08-28T10:44:12Z</time>
      </trkpt>
      <trkpt lat="46.34563" lon="6.7314">
        <ele>1750.1973</ele>
        <time>2014-08-28T10:44:17Z</time>
      </trkpt>
      <trkpt lat="46.34566" lon="6.73147">
        <ele>1751.2183</ele>
        <time>2014-08-28T10:44:22Z</time>
      </trkpt>
      <trkpt lat="46.34571" lon="6.73152">
        <ele>1751.2183</ele>
        <time>2014-08-28T10:44:27Z</time>
      </trkpt>
      <trkpt lat="46.34572" lon="6.73153">
        <ele>1751.2183</ele>
        <time>2014-08-28T10:44:32Z</time>
      </trkpt>
      <trkpt lat="46.34575" lon="6.7316">
        <ele>1751.9366</ele>
        <time>2014-08-28T10:44:37Z</time>
      </trkpt>
      <trkpt lat="46.34576" lon="6.73164">
        <ele>1751.9366</ele>
        <time>2014-08-28T10:44:42Z</time>
      </trkpt>
      <trkpt lat="46.34576" lon="6.73164">
        <ele>1751.9366</ele>
        <time>2014-08-28T10:44:47Z</time>
      </trkpt>
      <trkpt lat="46.34577" lon="6.73165">
        <ele>1751.9366</ele>
        <time>2014-08-28T10:44:52Z</time>
      </trkpt>
      <trkpt lat="46.3458" lon="6.73167">
        <ele>1751.9366</ele>
        <time>2014-08-28T10:44:57Z</time>
      </trkpt>
      <trkpt lat="46.34585" lon="6.73169">
        <ele>1752.1035</ele>
        <time>2014-08-28T10:45:02Z</time>
      </trkpt>
      <trkpt lat="46.34588" lon="6.73174">
        <ele>1752.1035</ele>
        <time>2014-08-28T10:45:07Z</time>
      </trkpt>
      <trkpt lat="46.34589" lon="6.73175">
        <ele>1752.1035</ele>
        <time>2014-08-28T10:45:12Z</time>
      </trkpt>
      <trkpt lat="46.34594" lon="6.73179">
        <ele>1752.1821</ele>
        <time>2014-08-28T10:45:17Z</time>
      </trkpt>
      <trkpt lat="46.346" lon="6.73185">
        <ele>1752.1821</ele>
        <time>2014-08-28T10:45:22Z</time>
      </trkpt>
      <trkpt lat="46.34606" lon="6.73191">
        <ele>1752.0969</ele>
        <time>2014-08-28T10:45:27Z</time>
      </trkpt>
      <trkpt lat="46.34613" lon="6.73195">
        <ele>1752.0969</ele>
        <time>2014-08-28T10:45:32Z</time>
      </trkpt>
      <trkpt lat="46.34614" lon="6.73196">
        <ele>1752.0969</ele>
        <time>2014-08-28T10:45:37Z</time>
      </trkpt>
      <trkpt lat="46.34619" lon="6.73199">
        <ele>1751.7644</ele>
        <time>2014-08-28T10:45:42Z</time>
      </trkpt>
      <trkpt lat="46.34628" lon="6.73202">
        <ele>1751.3239</ele>
        <time>2014-08-28T10:45:47Z</time>
      </trkpt>
      <trkpt lat="46.34635" lon="6.73203">
        <ele>1751.3239</ele>
        <time>2014-08-28T10:45:52Z</time>
      </trkpt>
      <trkpt lat="46.34639" lon="6.73202">
        <ele>1750.8467</ele>
        <time>2014-08-28T10:45:57Z</time>
      </trkpt>
      <trkpt lat="46.34645" lon="6.73203">
        <ele>1750.8467</ele>
        <time>2014-08-28T10:46:02Z</time>
      </trkpt>
      <trkpt lat="46.34645" lon="6.73203">
        <ele>1750.8467</ele>
        <time>2014-08-28T10:46:07Z</time>
      </trkpt>
      <trkpt lat="46.34647" lon="6.73205">
        <ele>1750.8467</ele>
        <time>2014-08-28T10:46:12Z</time>
      </trkpt>
      <trkpt lat="46.34651" lon="6.73208">
        <ele>1750.5292</ele>
        <time>2014-08-28T10:46:17Z</time>
      </trkpt>
      <trkpt lat="46.34653" lon="6.73215">
        <ele>1750.5292</ele>
        <time>2014-08-28T10:46:22Z</time>
      </trkpt>
      <trkpt lat="46.34655" lon="6.7322">
        <ele>1750.1489</ele>
        <time>2014-08-28T10:46:27Z</time>
      </trkpt>
      <trkpt lat="46.34658" lon="6.73224">
        <ele>1750.1489</ele>
        <time>2014-08-28T10:46:32Z</time>
      </trkpt>
      <trkpt lat="46.34659" lon="6.73225">
        <ele>1750.1489</ele>
        <time>2014-08-28T10:46:37Z</time>
      </trkpt>
      <trkpt lat="46.34662" lon="6.73231">
        <ele>1749.817</ele>
        <time>2014-08-28T10:46:42Z</time>
      </trkpt>
      <trkpt lat="46.34665" lon="6.73238">
        <ele>1749.817</ele>
        <time>2014-08-28T10:46:47Z</time>
      </trkpt>
      <trkpt lat="46.34669" lon="6.73241">
        <ele>1749.3479</ele>
        <time>2014-08-28T10:46:52Z</time>
      </trkpt>
      <trkpt lat="46.34673" lon="6.73243">
        <ele>1749.3479</ele>
        <time>2014-08-28T10:46:57Z</time>
      </trkpt>
      <trkpt lat="46.34678" lon="6.73245">
        <ele>1748.9304</ele>
        <time>2014-08-28T10:47:02Z</time>
      </trkpt>
      <trkpt lat="46.34679" lon="6.7325">
        <ele>1748.9304</ele>
        <time>2014-08-28T10:47:07Z</time>
      </trkpt>
      <trkpt lat="46.34681" lon="6.73259">
        <ele>1748.7246</ele>
        <time>2014-08-28T10:47:12Z</time>
      </trkpt>
      <trkpt lat="46.34681" lon="6.7326">
        <ele>1748.7246</ele>
        <time>2014-08-28T10:47:17Z</time>
      </trkpt>
      <trkpt lat="46.34682" lon="6.73264">
        <ele>1748.7246</ele>
        <time>2014-08-28T10:47:22Z</time>
      </trkpt>
      <trkpt lat="46.34682" lon="6.73268">
        <ele>1748.7246</ele>
        <time>2014-08-28T10:47:27Z</time>
      </trkpt>
      <trkpt lat="46.34683" lon="6.73274">
        <ele>1748.6763</ele>
        <time>2014-08-28T10:47:32Z</time>
      </trkpt>
      <trkpt lat="46.34683" lon="6.73275">
        <ele>1748.6763</ele>
        <time>2014-08-28T10:47:37Z</time>
      </trkpt>
      <trkpt lat="46.34682" lon="6.73283">
        <ele>1748.6763</ele>
        <time>2014-08-28T10:47:42Z</time>
      </trkpt>
      <trkpt lat="46.34683" lon="6.7329">
        <ele>1748.9797</ele>
        <time>2014-08-28T10:47:47Z</time>
      </trkpt>
      <trkpt lat="46.34684" lon="6.73297">
        <ele>1748.9797</ele>
        <time>2014-08-28T10:47:52Z</time>
      </trkpt>
      <trkpt lat="46.34683" lon="6.73302">
        <ele>1748.9797</ele>
        <time>2014-08-28T10:47:57Z</time>
      </trkpt>
      <trkpt lat="46.34682" lon="6.73306">
        <ele>1749.252</ele>
        <time>2014-08-28T10:48:02Z</time>
      </trkpt>
      <trkpt lat="46.34683" lon="6.73312">
        <ele>1749.252</ele>
        <time>2014-08-28T10:48:07Z</time>
      </trkpt>
      <trkpt lat="46.34682" lon="6.73322">
        <ele>1749.4404</ele>
        <time>2014-08-28T10:48:12Z</time>
      </trkpt>
      <trkpt lat="46.34683" lon="6.73326">
        <ele>1749.4404</ele>
        <time>2014-08-28T10:48:17Z</time>
      </trkpt>
      <trkpt lat="46.34682" lon="6.73328">
        <ele>1749.4404</ele>
        <time>2014-08-28T10:48:22Z</time>
      </trkpt>
      <trkpt lat="46.34682" lon="6.73329">
        <ele>1749.4404</ele>
        <time>2014-08-28T10:48:27Z</time>
      </trkpt>
      <trkpt lat="46.34681" lon="6.73334">
        <ele>1749.8569</ele>
        <time>2014-08-28T10:48:32Z</time>
      </trkpt>
      <trkpt lat="46.34682" lon="6.73337">
        <ele>1749.8569</ele>
        <time>2014-08-28T10:48:37Z</time>
      </trkpt>
      <trkpt lat="46.34681" lon="6.7334">
        <ele>1749.8569</ele>
        <time>2014-08-28T10:48:42Z</time>
      </trkpt>
      <trkpt lat="46.34681" lon="6.7334">
        <ele>1749.8569</ele>
        <time>2014-08-28T10:48:47Z</time>
      </trkpt>
      <trkpt lat="46.3468" lon="6.73342">
        <ele>1749.8569</ele>
        <time>2014-08-28T10:48:57Z</time>
      </trkpt>
      <trkpt lat="46.3468" lon="6.73342">
        <ele>1749.8569</ele>
        <time>2014-08-28T10:49:02Z</time>
      </trkpt>
      <trkpt lat="46.3468" lon="6.73345">
        <ele>1749.8569</ele>
        <time>2014-08-28T10:49:07Z</time>
      </trkpt>
      <trkpt lat="46.34681" lon="6.73355">
        <ele>1750.8329</ele>
        <time>2014-08-28T10:49:12Z</time>
      </trkpt>
      <trkpt lat="46.34681" lon="6.7336">
        <ele>1750.8329</ele>
        <time>2014-08-28T10:49:17Z</time>
      </trkpt>
      <trkpt lat="46.34682" lon="6.73366">
        <ele>1750.8329</ele>
        <time>2014-08-28T10:49:22Z</time>
      </trkpt>
      <trkpt lat="46.34682" lon="6.73371">
        <ele>1751.9243</ele>
        <time>2014-08-28T10:49:27Z</time>
      </trkpt>
      <trkpt lat="46.34683" lon="6.73379">
        <ele>1751.9243</ele>
        <time>2014-08-28T10:49:32Z</time>
      </trkpt>
      <trkpt lat="46.34682" lon="6.73384">
        <ele>1753.0652</ele>
        <time>2014-08-28T10:49:37Z</time>
      </trkpt>
      <trkpt lat="46.34677" lon="6.7339">
        <ele>1753.0652</ele>
        <time>2014-08-28T10:49:42Z</time>
      </trkpt>
      <trkpt lat="46.34676" lon="6.73393">
        <ele>1753.0652</ele>
        <time>2014-08-28T10:49:47Z</time>
      </trkpt>
      <trkpt lat="46.34674" lon="6.73395">
        <ele>1754.367</ele>
        <time>2014-08-28T10:49:52Z</time>
      </trkpt>
      <trkpt lat="46.34674" lon="6.73397">
        <ele>1754.367</ele>
        <time>2014-08-28T10:49:57Z</time>
      </trkpt>
      <trkpt lat="46.34673" lon="6.73401">
        <ele>1754.367</ele>
        <time>2014-08-28T10:50:02Z</time>
      </trkpt>
      <trkpt lat="46.34673" lon="6.73403">
        <ele>1754.367</ele>
        <time>2014-08-28T10:50:07Z</time>
      </trkpt>
      <trkpt lat="46.34671" lon="6.73406">
        <ele>1754.367</ele>
        <time>2014-08-28T10:50:12Z</time>
      </trkpt>
      <trkpt lat="46.34671" lon="6.73406">
        <ele>1754.367</ele>
        <time>2014-08-28T10:50:17Z</time>
      </trkpt>
      <trkpt lat="46.34671" lon="6.73406">
        <ele>1755.9757</ele>
        <time>2014-08-28T10:50:22Z</time>
      </trkpt>
      <trkpt lat="46.34671" lon="6.73408">
        <ele>1755.9757</ele>
        <time>2014-08-28T10:50:27Z</time>
      </trkpt>
      <trkpt lat="46.34671" lon="6.73409">
        <ele>1755.9757</ele>
        <time>2014-08-28T10:50:32Z</time>
      </trkpt>
      <trkpt lat="46.3467" lon="6.7341">
        <ele>1755.9757</ele>
        <time>2014-08-28T10:50:37Z</time>
      </trkpt>
      <trkpt lat="46.3467" lon="6.7341">
        <ele>1755.9757</ele>
        <time>2014-08-28T10:50:42Z</time>
      </trkpt>
      <trkpt lat="46.34671" lon="6.7341">
        <ele>1755.9757</ele>
        <time>2014-08-28T10:50:47Z</time>
      </trkpt>
      <trkpt lat="46.34672" lon="6.7341">
        <ele>1755.9757</ele>
        <time>2014-08-28T10:50:52Z</time>
      </trkpt>
      <trkpt lat="46.34673" lon="6.73409">
        <ele>1755.9757</ele>
        <time>2014-08-28T10:50:57Z</time>
      </trkpt>
      <trkpt lat="46.34672" lon="6.73409">
        <ele>1755.9757</ele>
        <time>2014-08-28T10:51:02Z</time>
      </trkpt>
      <trkpt lat="46.34672" lon="6.73408">
        <ele>1755.9757</ele>
        <time>2014-08-28T10:51:07Z</time>
      </trkpt>
      <trkpt lat="46.34672" lon="6.73408">
        <ele>1755.9757</ele>
        <time>2014-08-28T10:51:12Z</time>
      </trkpt>
      <trkpt lat="46.34673" lon="6.73408">
        <ele>1757.4781</ele>
        <time>2014-08-28T10:51:17Z</time>
      </trkpt>
      <trkpt lat="46.34673" lon="6.73407">
        <ele>1757.4781</ele>
        <time>2014-08-28T10:51:22Z</time>
      </trkpt>
      <trkpt lat="46.34672" lon="6.73407">
        <ele>1757.4781</ele>
        <time>2014-08-28T10:51:27Z</time>
      </trkpt>
      <trkpt lat="46.34672" lon="6.73406">
        <ele>1757.4781</ele>
        <time>2014-08-28T10:51:32Z</time>
      </trkpt>
      <trkpt lat="46.34672" lon="6.73406">
        <ele>1757.4781</ele>
        <time>2014-08-28T10:51:37Z</time>
      </trkpt>
      <trkpt lat="46.34671" lon="6.73406">
        <ele>1757.4781</ele>
        <time>2014-08-28T10:52:07Z</time>
      </trkpt>
      <trkpt lat="46.3467" lon="6.73411">
        <ele>1757.4781</ele>
        <time>2014-08-28T10:52:12Z</time>
      </trkpt>
      <trkpt lat="46.34667" lon="6.73424">
        <ele>1758.8519</ele>
        <time>2014-08-28T10:52:17Z</time>
      </trkpt>
      <trkpt lat="46.34665" lon="6.7343">
        <ele>1758.8519</ele>
        <time>2014-08-28T10:52:22Z</time>
      </trkpt>
      <trkpt lat="46.34665" lon="6.73434">
        <ele>1758.8519</ele>
        <time>2014-08-28T10:52:27Z</time>
      </trkpt>
      <trkpt lat="46.34664" lon="6.7344">
        <ele>1760.1486</ele>
        <time>2014-08-28T10:52:32Z</time>
      </trkpt>
      <trkpt lat="46.34665" lon="6.73447">
        <ele>1760.1486</ele>
        <time>2014-08-28T10:52:37Z</time>
      </trkpt>
      <trkpt lat="46.34665" lon="6.73455">
        <ele>1761.4448</ele>
        <time>2014-08-28T10:52:42Z</time>
      </trkpt>
      <trkpt lat="46.34666" lon="6.73459">
        <ele>1761.4448</ele>
        <time>2014-08-28T10:52:47Z</time>
      </trkpt>
      <trkpt lat="46.34666" lon="6.73466">
        <ele>1761.4448</ele>
        <time>2014-08-28T10:52:52Z</time>
      </trkpt>
      <trkpt lat="46.34666" lon="6.73469">
        <ele>1762.8837</ele>
        <time>2014-08-28T10:52:57Z</time>
      </trkpt>
      <trkpt lat="46.34666" lon="6.73472">
        <ele>1762.8837</ele>
        <time>2014-08-28T10:53:02Z</time>
      </trkpt>
      <trkpt lat="46.34666" lon="6.73475">
        <ele>1762.8837</ele>
        <time>2014-08-28T10:53:07Z</time>
      </trkpt>
      <trkpt lat="46.34666" lon="6.73477">
        <ele>1762.8837</ele>
        <time>2014-08-28T10:53:12Z</time>
      </trkpt>
      <trkpt lat="46.34666" lon="6.73478">
        <ele>1762.8837</ele>
        <time>2014-08-28T10:53:17Z</time>
      </trkpt>
      <trkpt lat="46.34665" lon="6.73482">
        <ele>1764.7416</ele>
        <time>2014-08-28T10:53:22Z</time>
      </trkpt>
      <trkpt lat="46.34665" lon="6.73483">
        <ele>1764.7416</ele>
        <time>2014-08-28T10:53:27Z</time>
      </trkpt>
      <trkpt lat="46.34663" lon="6.73492">
        <ele>1764.7416</ele>
        <time>2014-08-28T10:53:32Z</time>
      </trkpt>
      <trkpt lat="46.34662" lon="6.73495">
        <ele>1766.8121</ele>
        <time>2014-08-28T10:53:37Z</time>
      </trkpt>
      <trkpt lat="46.34662" lon="6.73495">
        <ele>1766.8121</ele>
        <time>2014-08-28T10:53:42Z</time>
      </trkpt>
      <trkpt lat="46.34661" lon="6.73498">
        <ele>1766.8121</ele>
        <time>2014-08-28T10:53:47Z</time>
      </trkpt>
      <trkpt lat="46.34661" lon="6.73501">
        <ele>1766.8121</ele>
        <time>2014-08-28T10:53:52Z</time>
      </trkpt>
      <trkpt lat="46.3466" lon="6.73504">
        <ele>1766.8121</ele>
        <time>2014-08-28T10:53:57Z</time>
      </trkpt>
      <trkpt lat="46.34658" lon="6.73512">
        <ele>1768.6873</ele>
        <time>2014-08-28T10:54:02Z</time>
      </trkpt>
      <trkpt lat="46.34658" lon="6.73512">
        <ele>1768.6873</ele>
        <time>2014-08-28T10:54:07Z</time>
      </trkpt>
      <trkpt lat="46.34658" lon="6.73515">
        <ele>1768.6873</ele>
        <time>2014-08-28T10:54:32Z</time>
      </trkpt>
      <trkpt lat="46.34658" lon="6.73523">
        <ele>1768.6873</ele>
        <time>2014-08-28T10:54:37Z</time>
      </trkpt>
      <trkpt lat="46.34657" lon="6.73528">
        <ele>1770.7532</ele>
        <time>2014-08-28T10:54:42Z</time>
      </trkpt>
      <trkpt lat="46.34658" lon="6.73533">
        <ele>1770.7532</ele>
        <time>2014-08-28T10:54:47Z</time>
      </trkpt>
      <trkpt lat="46.34658" lon="6.73534">
        <ele>1770.7532</ele>
        <time>2014-08-28T10:54:52Z</time>
      </trkpt>
      <trkpt lat="46.34658" lon="6.73534">
        <ele>1770.7532</ele>
        <time>2014-08-28T10:54:57Z</time>
      </trkpt>
      <trkpt lat="46.34657" lon="6.73539">
        <ele>1770.7532</ele>
        <time>2014-08-28T10:55:02Z</time>
      </trkpt>
      <trkpt lat="46.34657" lon="6.73546">
        <ele>1772.7477</ele>
        <time>2014-08-28T10:55:07Z</time>
      </trkpt>
      <trkpt lat="46.34658" lon="6.7355">
        <ele>1772.7477</ele>
        <time>2014-08-28T10:55:12Z</time>
      </trkpt>
      <trkpt lat="46.34657" lon="6.73551">
        <ele>1772.7477</ele>
        <time>2014-08-28T10:55:17Z</time>
      </trkpt>
      <trkpt lat="46.34656" lon="6.73553">
        <ele>1772.7477</ele>
        <time>2014-08-28T10:55:22Z</time>
      </trkpt>
      <trkpt lat="46.34655" lon="6.73557">
        <ele>1772.7477</ele>
        <time>2014-08-28T10:55:27Z</time>
      </trkpt>
      <trkpt lat="46.34655" lon="6.73557">
        <ele>1772.7477</ele>
        <time>2014-08-28T10:55:32Z</time>
      </trkpt>
      <trkpt lat="46.34655" lon="6.73559">
        <ele>1774.6007</ele>
        <time>2014-08-28T10:55:37Z</time>
      </trkpt>
      <trkpt lat="46.34655" lon="6.73563">
        <ele>1774.6007</ele>
        <time>2014-08-28T10:55:42Z</time>
      </trkpt>
      <trkpt lat="46.34655" lon="6.73564">
        <ele>1774.6007</ele>
        <time>2014-08-28T10:55:47Z</time>
      </trkpt>
      <trkpt lat="46.34654" lon="6.73572">
        <ele>1776.493</ele>
        <time>2014-08-28T10:55:52Z</time>
      </trkpt>
      <trkpt lat="46.34654" lon="6.73572">
        <ele>1776.493</ele>
        <time>2014-08-28T10:55:57Z</time>
      </trkpt>
      <trkpt lat="46.34654" lon="6.73573">
        <ele>1776.493</ele>
        <time>2014-08-28T10:56:57Z</time>
      </trkpt>
      <trkpt lat="46.34653" lon="6.73577">
        <ele>1776.493</ele>
        <time>2014-08-28T10:57:17Z</time>
      </trkpt>
      <trkpt lat="46.34653" lon="6.73577">
        <ele>1776.493</ele>
        <time>2014-08-28T10:57:22Z</time>
      </trkpt>
      <trkpt lat="46.34653" lon="6.7358">
        <ele>1776.493</ele>
        <time>2014-08-28T10:57:27Z</time>
      </trkpt>
      <trkpt lat="46.34652" lon="6.73583">
        <ele>1776.493</ele>
        <time>2014-08-28T10:57:32Z</time>
      </trkpt>
      <trkpt lat="46.34651" lon="6.7359">
        <ele>1778.6495</ele>
        <time>2014-08-28T10:57:37Z</time>
      </trkpt>
      <trkpt lat="46.34648" lon="6.73595">
        <ele>1778.6495</ele>
        <time>2014-08-28T10:57:42Z</time>
      </trkpt>
      <trkpt lat="46.34646" lon="6.73603">
        <ele>1780.7878</ele>
        <time>2014-08-28T10:57:47Z</time>
      </trkpt>
      <trkpt lat="46.34644" lon="6.73609">
        <ele>1780.7878</ele>
        <time>2014-08-28T10:57:52Z</time>
      </trkpt>
      <trkpt lat="46.34644" lon="6.73614">
        <ele>1780.7878</ele>
        <time>2014-08-28T10:57:57Z</time>
      </trkpt>
      <trkpt lat="46.34644" lon="6.73617">
        <ele>1782.8625</ele>
        <time>2014-08-28T10:58:02Z</time>
      </trkpt>
      <trkpt lat="46.34643" lon="6.7362">
        <ele>1782.8625</ele>
        <time>2014-08-28T10:58:07Z</time>
      </trkpt>
      <trkpt lat="46.34644" lon="6.73621">
        <ele>1782.8625</ele>
        <time>2014-08-28T10:58:12Z</time>
      </trkpt>
      <trkpt lat="46.34643" lon="6.73624">
        <ele>1782.8625</ele>
        <time>2014-08-28T10:58:17Z</time>
      </trkpt>
      <trkpt lat="46.34644" lon="6.73631">
        <ele>1785.106</ele>
        <time>2014-08-28T10:58:22Z</time>
      </trkpt>
      <trkpt lat="46.34644" lon="6.73634">
        <ele>1785.106</ele>
        <time>2014-08-28T10:58:27Z</time>
      </trkpt>
      <trkpt lat="46.34645" lon="6.73638">
        <ele>1785.106</ele>
        <time>2014-08-28T10:58:32Z</time>
      </trkpt>
      <trkpt lat="46.34645" lon="6.73642">
        <ele>1785.106</ele>
        <time>2014-08-28T10:58:37Z</time>
      </trkpt>
      <trkpt lat="46.34645" lon="6.73644">
        <ele>1787.5308</ele>
        <time>2014-08-28T10:58:42Z</time>
      </trkpt>
      <trkpt lat="46.34646" lon="6.73646">
        <ele>1787.5308</ele>
        <time>2014-08-28T10:58:47Z</time>
      </trkpt>
      <trkpt lat="46.34646" lon="6.73647">
        <ele>1787.5308</ele>
        <time>2014-08-28T10:58:52Z</time>
      </trkpt>
      <trkpt lat="46.34646" lon="6.73648">
        <ele>1787.5308</ele>
        <time>2014-08-28T10:58:57Z</time>
      </trkpt>
      <trkpt lat="46.34648" lon="6.73653">
        <ele>1787.5308</ele>
        <time>2014-08-28T10:59:02Z</time>
      </trkpt>
      <trkpt lat="46.34648" lon="6.73655">
        <ele>1787.5308</ele>
        <time>2014-08-28T10:59:07Z</time>
      </trkpt>
      <trkpt lat="46.34649" lon="6.73661">
        <ele>1790.1628</ele>
        <time>2014-08-28T10:59:12Z</time>
      </trkpt>
      <trkpt lat="46.34649" lon="6.73661">
        <ele>1790.1628</ele>
        <time>2014-08-28T10:59:17Z</time>
      </trkpt>
      <trkpt lat="46.34649" lon="6.73666">
        <ele>1790.1628</ele>
        <time>2014-08-28T10:59:22Z</time>
      </trkpt>
      <trkpt lat="46.34649" lon="6.73666">
        <ele>1790.1628</ele>
        <time>2014-08-28T10:59:27Z</time>
      </trkpt>
      <trkpt lat="46.3465" lon="6.73669">
        <ele>1790.1628</ele>
        <time>2014-08-28T10:59:32Z</time>
      </trkpt>
      <trkpt lat="46.3465" lon="6.7367">
        <ele>1790.1628</ele>
        <time>2014-08-28T10:59:37Z</time>
      </trkpt>
      <trkpt lat="46.34648" lon="6.73681">
        <ele>1792.6075</ele>
        <time>2014-08-28T10:59:42Z</time>
      </trkpt>
      <trkpt lat="46.34648" lon="6.73681">
        <ele>1792.6075</ele>
        <time>2014-08-28T10:59:47Z</time>
      </trkpt>
      <trkpt lat="46.34649" lon="6.73682">
        <ele>1792.6075</ele>
        <time>2014-08-28T10:59:52Z</time>
      </trkpt>
      <trkpt lat="46.34649" lon="6.73682">
        <ele>1792.6075</ele>
        <time>2014-08-28T10:59:57Z</time>
      </trkpt>
      <trkpt lat="46.34651" lon="6.7369">
        <ele>1792.6075</ele>
        <time>2014-08-28T11:00:02Z</time>
      </trkpt>
      <trkpt lat="46.34651" lon="6.73694">
        <ele>1795.3071</ele>
        <time>2014-08-28T11:00:07Z</time>
      </trkpt>
      <trkpt lat="46.34652" lon="6.73697">
        <ele>1795.3071</ele>
        <time>2014-08-28T11:00:12Z</time>
      </trkpt>
      <trkpt lat="46.34653" lon="6.73702">
        <ele>1795.3071</ele>
        <time>2014-08-28T11:00:17Z</time>
      </trkpt>
      <trkpt lat="46.34653" lon="6.73702">
        <ele>1795.3071</ele>
        <time>2014-08-28T11:00:22Z</time>
      </trkpt>
      <trkpt lat="46.34654" lon="6.73705">
        <ele>1795.3071</ele>
        <time>2014-08-28T11:00:27Z</time>
      </trkpt>
      <trkpt lat="46.34654" lon="6.73706">
        <ele>1795.3071</ele>
        <time>2014-08-28T11:00:32Z</time>
      </trkpt>
      <trkpt lat="46.34654" lon="6.73706">
        <ele>1795.3071</ele>
        <time>2014-08-28T11:00:37Z</time>
      </trkpt>
      <trkpt lat="46.34656" lon="6.73709">
        <ele>1798.4401</ele>
        <time>2014-08-28T11:00:42Z</time>
      </trkpt>
      <trkpt lat="46.34656" lon="6.73709">
        <ele>1798.4401</ele>
        <time>2014-08-28T11:00:47Z</time>
      </trkpt>
      <trkpt lat="46.34656" lon="6.73712">
        <ele>1798.4401</ele>
        <time>2014-08-28T11:00:57Z</time>
      </trkpt>
      <trkpt lat="46.34656" lon="6.73722">
        <ele>1801.4642</ele>
        <time>2014-08-28T11:01:02Z</time>
      </trkpt>
      <trkpt lat="46.34656" lon="6.7373">
        <ele>1801.4642</ele>
        <time>2014-08-28T11:01:07Z</time>
      </trkpt>
      <trkpt lat="46.34659" lon="6.7374">
        <ele>1804.368</ele>
        <time>2014-08-28T11:01:12Z</time>
      </trkpt>
      <trkpt lat="46.34659" lon="6.73742">
        <ele>1804.368</ele>
        <time>2014-08-28T11:01:17Z</time>
      </trkpt>
      <trkpt lat="46.34659" lon="6.73742">
        <ele>1804.368</ele>
        <time>2014-08-28T11:01:22Z</time>
      </trkpt>
      <trkpt lat="46.3466" lon="6.73743">
        <ele>1804.368</ele>
        <time>2014-08-28T11:01:52Z</time>
      </trkpt>
      <trkpt lat="46.3466" lon="6.73744">
        <ele>1804.368</ele>
        <time>2014-08-28T11:01:57Z</time>
      </trkpt>
      <trkpt lat="46.3466" lon="6.73744">
        <ele>1804.368</ele>
        <time>2014-08-28T11:02:02Z</time>
      </trkpt>
      <trkpt lat="46.34661" lon="6.73747">
        <ele>1804.368</ele>
        <time>2014-08-28T11:02:07Z</time>
      </trkpt>
      <trkpt lat="46.34662" lon="6.7375">
        <ele>1804.368</ele>
        <time>2014-08-28T11:02:12Z</time>
      </trkpt>
      <trkpt lat="46.34662" lon="6.7375">
        <ele>1804.368</ele>
        <time>2014-08-28T11:02:17Z</time>
      </trkpt>
      <trkpt lat="46.34662" lon="6.73751">
        <ele>1804.368</ele>
        <time>2014-08-28T11:02:22Z</time>
      </trkpt>
      <trkpt lat="46.34665" lon="6.73757">
        <ele>1807.7029</ele>
        <time>2014-08-28T11:02:27Z</time>
      </trkpt>
      <trkpt lat="46.34665" lon="6.73758">
        <ele>1807.7029</ele>
        <time>2014-08-28T11:02:32Z</time>
      </trkpt>
      <trkpt lat="46.34665" lon="6.73762">
        <ele>1807.7029</ele>
        <time>2014-08-28T11:02:37Z</time>
      </trkpt>
      <trkpt lat="46.34665" lon="6.73763">
        <ele>1807.7029</ele>
        <time>2014-08-28T11:02:42Z</time>
      </trkpt>
      <trkpt lat="46.34664" lon="6.73765">
        <ele>1807.7029</ele>
        <time>2014-08-28T11:02:47Z</time>
      </trkpt>
      <trkpt lat="46.34664" lon="6.73765">
        <ele>1807.7029</ele>
        <time>2014-08-28T11:02:52Z</time>
      </trkpt>
      <trkpt lat="46.34667" lon="6.73774">
        <ele>1810.3936</ele>
        <time>2014-08-28T11:02:57Z</time>
      </trkpt>
      <trkpt lat="46.34666" lon="6.73777">
        <ele>1810.3936</ele>
        <time>2014-08-28T11:03:02Z</time>
      </trkpt>
      <trkpt lat="46.34665" lon="6.73781">
        <ele>1810.3936</ele>
        <time>2014-08-28T11:03:07Z</time>
      </trkpt>
      <trkpt lat="46.34664" lon="6.73784">
        <ele>1810.3936</ele>
        <time>2014-08-28T11:03:12Z</time>
      </trkpt>
      <trkpt lat="46.34663" lon="6.73789">
        <ele>1812.786</ele>
        <time>2014-08-28T11:03:17Z</time>
      </trkpt>
      <trkpt lat="46.34663" lon="6.73789">
        <ele>1812.786</ele>
        <time>2014-08-28T11:03:22Z</time>
      </trkpt>
      <trkpt lat="46.34663" lon="6.7379">
        <ele>1812.786</ele>
        <time>2014-08-28T11:03:27Z</time>
      </trkpt>
      <trkpt lat="46.34663" lon="6.73792">
        <ele>1812.786</ele>
        <time>2014-08-28T11:03:32Z</time>
      </trkpt>
      <trkpt lat="46.34663" lon="6.73793">
        <ele>1812.786</ele>
        <time>2014-08-28T11:03:37Z</time>
      </trkpt>
      <trkpt lat="46.34663" lon="6.73795">
        <ele>1812.786</ele>
        <time>2014-08-28T11:03:42Z</time>
      </trkpt>
      <trkpt lat="46.34663" lon="6.73795">
        <ele>1812.786</ele>
        <time>2014-08-28T11:03:47Z</time>
      </trkpt>
      <trkpt lat="46.34661" lon="6.73805">
        <ele>1814.9423</ele>
        <time>2014-08-28T11:03:52Z</time>
      </trkpt>
      <trkpt lat="46.34661" lon="6.73806">
        <ele>1814.9423</ele>
        <time>2014-08-28T11:03:57Z</time>
      </trkpt>
      <trkpt lat="46.3466" lon="6.73809">
        <ele>1814.9423</ele>
        <time>2014-08-28T11:04:02Z</time>
      </trkpt>
      <trkpt lat="46.3466" lon="6.73813">
        <ele>1814.9423</ele>
        <time>2014-08-28T11:04:07Z</time>
      </trkpt>
      <trkpt lat="46.3466" lon="6.73813">
        <ele>1814.9423</ele>
        <time>2014-08-28T11:04:12Z</time>
      </trkpt>
      <trkpt lat="46.3466" lon="6.73815">
        <ele>1814.9423</ele>
        <time>2014-08-28T11:04:17Z</time>
      </trkpt>
      <trkpt lat="46.34655" lon="6.73823">
        <ele>1817.7131</ele>
        <time>2014-08-28T11:04:22Z</time>
      </trkpt>
      <trkpt lat="46.34652" lon="6.73828">
        <ele>1817.7131</ele>
        <time>2014-08-28T11:04:27Z</time>
      </trkpt>
      <trkpt lat="46.34652" lon="6.7383">
        <ele>1817.7131</ele>
        <time>2014-08-28T11:04:32Z</time>
      </trkpt>
      <trkpt lat="46.34652" lon="6.7383">
        <ele>1817.7131</ele>
        <time>2014-08-28T11:04:37Z</time>
      </trkpt>
      <trkpt lat="46.34652" lon="6.73833">
        <ele>1817.7131</ele>
        <time>2014-08-28T11:04:42Z</time>
      </trkpt>
      <trkpt lat="46.34652" lon="6.73833">
        <ele>1817.7131</ele>
        <time>2014-08-28T11:04:47Z</time>
      </trkpt>
      <trkpt lat="46.34651" lon="6.7384">
        <ele>1820.9056</ele>
        <time>2014-08-28T11:04:52Z</time>
      </trkpt>
      <trkpt lat="46.34651" lon="6.73844">
        <ele>1820.9056</ele>
        <time>2014-08-28T11:04:57Z</time>
      </trkpt>
      <trkpt lat="46.34651" lon="6.73847">
        <ele>1820.9056</ele>
        <time>2014-08-28T11:05:02Z</time>
      </trkpt>
      <trkpt lat="46.34651" lon="6.73847">
        <ele>1820.9056</ele>
        <time>2014-08-28T11:05:07Z</time>
      </trkpt>
      <trkpt lat="46.34651" lon="6.7385">
        <ele>1820.9056</ele>
        <time>2014-08-28T11:05:12Z</time>
      </trkpt>
      <trkpt lat="46.34651" lon="6.7385">
        <ele>1820.9056</ele>
        <time>2014-08-28T11:05:17Z</time>
      </trkpt>
      <trkpt lat="46.34652" lon="6.73853">
        <ele>1824.3107</ele>
        <time>2014-08-28T11:05:22Z</time>
      </trkpt>
      <trkpt lat="46.34653" lon="6.73856">
        <ele>1824.3107</ele>
        <time>2014-08-28T11:05:27Z</time>
      </trkpt>
      <trkpt lat="46.34652" lon="6.73861">
        <ele>1824.3107</ele>
        <time>2014-08-28T11:05:32Z</time>
      </trkpt>
      <trkpt lat="46.34648" lon="6.73865">
        <ele>1827.3164</ele>
        <time>2014-08-28T11:05:37Z</time>
      </trkpt>
      <trkpt lat="46.34648" lon="6.73866">
        <ele>1827.3164</ele>
        <time>2014-08-28T11:05:42Z</time>
      </trkpt>
      <trkpt lat="46.34648" lon="6.73867">
        <ele>1827.3164</ele>
        <time>2014-08-28T11:07:07Z</time>
      </trkpt>
      <trkpt lat="46.34646" lon="6.7387">
        <ele>1827.3164</ele>
        <time>2014-08-28T11:07:12Z</time>
      </trkpt>
      <trkpt lat="46.34646" lon="6.73874">
        <ele>1827.3164</ele>
        <time>2014-08-28T11:07:17Z</time>
      </trkpt>
      <trkpt lat="46.34646" lon="6.73874">
        <ele>1827.3164</ele>
        <time>2014-08-28T11:07:22Z</time>
      </trkpt>
      <trkpt lat="46.34645" lon="6.73877">
        <ele>1827.3164</ele>
        <time>2014-08-28T11:07:32Z</time>
      </trkpt>
      <trkpt lat="46.34647" lon="6.73878">
        <ele>1830.6975</ele>
        <time>2014-08-28T11:07:37Z</time>
      </trkpt>
      <trkpt lat="46.34646" lon="6.73879">
        <ele>1830.6975</ele>
        <time>2014-08-28T11:07:42Z</time>
      </trkpt>
      <trkpt lat="46.34646" lon="6.73879">
        <ele>1830.6975</ele>
        <time>2014-08-28T11:07:47Z</time>
      </trkpt>
      <trkpt lat="46.34647" lon="6.73881">
        <ele>1830.6975</ele>
        <time>2014-08-28T11:07:52Z</time>
      </trkpt>
      <trkpt lat="46.34647" lon="6.73881">
        <ele>1830.6975</ele>
        <time>2014-08-28T11:07:57Z</time>
      </trkpt>
      <trkpt lat="46.34648" lon="6.73881">
        <ele>1830.6975</ele>
        <time>2014-08-28T11:08:07Z</time>
      </trkpt>
      <trkpt lat="46.34648" lon="6.73881">
        <ele>1830.6975</ele>
        <time>2014-08-28T11:08:12Z</time>
      </trkpt>
      <trkpt lat="46.34648" lon="6.7388">
        <ele>1830.6975</ele>
        <time>2014-08-28T11:08:27Z</time>
      </trkpt>
      <trkpt lat="46.34648" lon="6.7388">
        <ele>1830.6975</ele>
        <time>2014-08-28T11:08:32Z</time>
      </trkpt>
      <trkpt lat="46.34647" lon="6.73882">
        <ele>1830.6975</ele>
        <time>2014-08-28T11:08:47Z</time>
      </trkpt>
      <trkpt lat="46.34646" lon="6.73884">
        <ele>1830.6975</ele>
        <time>2014-08-28T11:08:52Z</time>
      </trkpt>
      <trkpt lat="46.34645" lon="6.73886">
        <ele>1830.6975</ele>
        <time>2014-08-28T11:08:57Z</time>
      </trkpt>
      <trkpt lat="46.34646" lon="6.73888">
        <ele>1836.3955</ele>
        <time>2014-08-28T11:09:02Z</time>
      </trkpt>
      <trkpt lat="46.34645" lon="6.73889">
        <ele>1836.3955</ele>
        <time>2014-08-28T11:09:07Z</time>
      </trkpt>
      <trkpt lat="46.34645" lon="6.73893">
        <ele>1836.3955</ele>
        <time>2014-08-28T11:09:12Z</time>
      </trkpt>
      <trkpt lat="46.34645" lon="6.73893">
        <ele>1836.3955</ele>
        <time>2014-08-28T11:09:17Z</time>
      </trkpt>
      <trkpt lat="46.34645" lon="6.73894">
        <ele>1836.3955</ele>
        <time>2014-08-28T11:09:22Z</time>
      </trkpt>
      <trkpt lat="46.34642" lon="6.73898">
        <ele>1836.3955</ele>
        <time>2014-08-28T11:09:27Z</time>
      </trkpt>
      <trkpt lat="46.34639" lon="6.73902">
        <ele>1841.9086</ele>
        <time>2014-08-28T11:09:32Z</time>
      </trkpt>
      <trkpt lat="46.34639" lon="6.73902">
        <ele>1841.9086</ele>
        <time>2014-08-28T11:09:37Z</time>
      </trkpt>
      <trkpt lat="46.3464" lon="6.73903">
        <ele>1841.9086</ele>
        <time>2014-08-28T11:09:42Z</time>
      </trkpt>
      <trkpt lat="46.3464" lon="6.73905">
        <ele>1841.9086</ele>
        <time>2014-08-28T11:09:47Z</time>
      </trkpt>
      <trkpt lat="46.3464" lon="6.73905">
        <ele>1841.9086</ele>
        <time>2014-08-28T11:09:52Z</time>
      </trkpt>
      <trkpt lat="46.34639" lon="6.73906">
        <ele>1841.9086</ele>
        <time>2014-08-28T11:09:57Z</time>
      </trkpt>
      <trkpt lat="46.34639" lon="6.73906">
        <ele>1841.9086</ele>
        <time>2014-08-28T11:10:02Z</time>
      </trkpt>
      <trkpt lat="46.34638" lon="6.73908">
        <ele>1841.9086</ele>
        <time>2014-08-28T11:10:47Z</time>
      </trkpt>
      <trkpt lat="46.34638" lon="6.73908">
        <ele>1841.9086</ele>
        <time>2014-08-28T11:10:52Z</time>
      </trkpt>
      <trkpt lat="46.34635" lon="6.73919">
        <ele>1847.283</ele>
        <time>2014-08-28T11:11:02Z</time>
      </trkpt>
      <trkpt lat="46.34634" lon="6.7392">
        <ele>1847.283</ele>
        <time>2014-08-28T11:11:07Z</time>
      </trkpt>
      <trkpt lat="46.34634" lon="6.73925">
        <ele>1847.283</ele>
        <time>2014-08-28T11:11:12Z</time>
      </trkpt>
      <trkpt lat="46.34633" lon="6.73928">
        <ele>1847.283</ele>
        <time>2014-08-28T11:11:17Z</time>
      </trkpt>
      <trkpt lat="46.34631" lon="6.73929">
        <ele>1847.283</ele>
        <time>2014-08-28T11:11:22Z</time>
      </trkpt>
      <trkpt lat="46.3463" lon="6.73934">
        <ele>1852.5618</ele>
        <time>2014-08-28T11:11:27Z</time>
      </trkpt>
      <trkpt lat="46.3463" lon="6.73937">
        <ele>1852.5618</ele>
        <time>2014-08-28T11:11:32Z</time>
      </trkpt>
      <trkpt lat="46.3463" lon="6.73937">
        <ele>1852.5618</ele>
        <time>2014-08-28T11:11:37Z</time>
      </trkpt>
      <trkpt lat="46.3463" lon="6.73938">
        <ele>1852.5618</ele>
        <time>2014-08-28T11:11:42Z</time>
      </trkpt>
      <trkpt lat="46.34629" lon="6.73946">
        <ele>1852.5618</ele>
        <time>2014-08-28T11:11:47Z</time>
      </trkpt>
      <trkpt lat="46.34628" lon="6.73948">
        <ele>1857.3531</ele>
        <time>2014-08-28T11:11:52Z</time>
      </trkpt>
      <trkpt lat="46.34628" lon="6.7395">
        <ele>1857.3531</ele>
        <time>2014-08-28T11:11:57Z</time>
      </trkpt>
      <trkpt lat="46.34628" lon="6.7395">
        <ele>1857.3531</ele>
        <time>2014-08-28T11:12:02Z</time>
      </trkpt>
      <trkpt lat="46.34626" lon="6.73953">
        <ele>1857.3531</ele>
        <time>2014-08-28T11:12:12Z</time>
      </trkpt>
      <trkpt lat="46.34626" lon="6.73958">
        <ele>1857.3531</ele>
        <time>2014-08-28T11:12:17Z</time>
      </trkpt>
      <trkpt lat="46.34626" lon="6.73958">
        <ele>1857.3531</ele>
        <time>2014-08-28T11:12:22Z</time>
      </trkpt>
      <trkpt lat="46.34625" lon="6.73966">
        <ele>1862.4633</ele>
        <time>2014-08-28T11:12:32Z</time>
      </trkpt>
      <trkpt lat="46.34625" lon="6.73966">
        <ele>1862.4633</ele>
        <time>2014-08-28T11:12:37Z</time>
      </trkpt>
      <trkpt lat="46.34624" lon="6.73969">
        <ele>1862.4633</ele>
        <time>2014-08-28T11:13:27Z</time>
      </trkpt>
      <trkpt lat="46.34623" lon="6.73974">
        <ele>1862.4633</ele>
        <time>2014-08-28T11:13:32Z</time>
      </trkpt>
      <trkpt lat="46.34622" lon="6.73979">
        <ele>1867.1248</ele>
        <time>2014-08-28T11:13:37Z</time>
      </trkpt>
      <trkpt lat="46.34622" lon="6.73987">
        <ele>1867.1248</ele>
        <time>2014-08-28T11:13:42Z</time>
      </trkpt>
      <trkpt lat="46.34623" lon="6.73989">
        <ele>1867.1248</ele>
        <time>2014-08-28T11:13:47Z</time>
      </trkpt>
      <trkpt lat="46.34622" lon="6.73994">
        <ele>1871.4785</ele>
        <time>2014-08-28T11:13:52Z</time>
      </trkpt>
      <trkpt lat="46.34621" lon="6.74">
        <ele>1871.4785</ele>
        <time>2014-08-28T11:13:57Z</time>
      </trkpt>
      <trkpt lat="46.3462" lon="6.74003">
        <ele>1871.4785</ele>
        <time>2014-08-28T11:14:02Z</time>
      </trkpt>
      <trkpt lat="46.34619" lon="6.74005">
        <ele>1871.4785</ele>
        <time>2014-08-28T11:14:07Z</time>
      </trkpt>
      <trkpt lat="46.3462" lon="6.74007">
        <ele>1875.6853</ele>
        <time>2014-08-28T11:14:12Z</time>
      </trkpt>
      <trkpt lat="46.34619" lon="6.74008">
        <ele>1875.6853</ele>
        <time>2014-08-28T11:14:17Z</time>
      </trkpt>
      <trkpt lat="46.34621" lon="6.7401">
        <ele>1875.6853</ele>
        <time>2014-08-28T11:14:22Z</time>
      </trkpt>
      <trkpt lat="46.34623" lon="6.74013">
        <ele>1875.6853</ele>
        <time>2014-08-28T11:14:27Z</time>
      </trkpt>
      <trkpt lat="46.34621" lon="6.74025">
        <ele>1879.3035</ele>
        <time>2014-08-28T11:14:32Z</time>
      </trkpt>
      <trkpt lat="46.34623" lon="6.74027">
        <ele>1879.3035</ele>
        <time>2014-08-28T11:14:37Z</time>
      </trkpt>
      <trkpt lat="46.34623" lon="6.74027">
        <ele>1879.3035</ele>
        <time>2014-08-28T11:14:42Z</time>
      </trkpt>
      <trkpt lat="46.34623" lon="6.74027">
        <ele>1879.3035</ele>
        <time>2014-08-28T11:14:47Z</time>
      </trkpt>
      <trkpt lat="46.34624" lon="6.74028">
        <ele>1879.3035</ele>
        <time>2014-08-28T11:14:52Z</time>
      </trkpt>
      <trkpt lat="46.34625" lon="6.74029">
        <ele>1879.3035</ele>
        <time>2014-08-28T11:14:57Z</time>
      </trkpt>
      <trkpt lat="46.34625" lon="6.7403">
        <ele>1879.3035</ele>
        <time>2014-08-28T11:15:02Z</time>
      </trkpt>
      <trkpt lat="46.34625" lon="6.7403">
        <ele>1879.3035</ele>
        <time>2014-08-28T11:15:07Z</time>
      </trkpt>
      <trkpt lat="46.34624" lon="6.74032">
        <ele>1879.3035</ele>
        <time>2014-08-28T11:15:22Z</time>
      </trkpt>
      <trkpt lat="46.34624" lon="6.74032">
        <ele>1879.3035</ele>
        <time>2014-08-28T11:15:27Z</time>
      </trkpt>
      <trkpt lat="46.34624" lon="6.74033">
        <ele>1879.3035</ele>
        <time>2014-08-28T11:15:32Z</time>
      </trkpt>
      <trkpt lat="46.34624" lon="6.74033">
        <ele>1879.3035</ele>
        <time>2014-08-28T11:15:37Z</time>
      </trkpt>
      <trkpt lat="46.34623" lon="6.74036">
        <ele>1883.3959</ele>
        <time>2014-08-28T11:15:42Z</time>
      </trkpt>
      <trkpt lat="46.34623" lon="6.74037">
        <ele>1883.3959</ele>
        <time>2014-08-28T11:15:47Z</time>
      </trkpt>
      <trkpt lat="46.34623" lon="6.74038">
        <ele>1883.3959</ele>
        <time>2014-08-28T11:15:52Z</time>
      </trkpt>
      <trkpt lat="46.34624" lon="6.74041">
        <ele>1883.3959</ele>
        <time>2014-08-28T11:15:57Z</time>
      </trkpt>
      <trkpt lat="46.34624" lon="6.74043">
        <ele>1883.3959</ele>
        <time>2014-08-28T11:16:02Z</time>
      </trkpt>
      <trkpt lat="46.34624" lon="6.74045">
        <ele>1883.3959</ele>
        <time>2014-08-28T11:16:07Z</time>
      </trkpt>
      <trkpt lat="46.34624" lon="6.74045">
        <ele>1883.3959</ele>
        <time>2014-08-28T11:16:12Z</time>
      </trkpt>
      <trkpt lat="46.34624" lon="6.74046">
        <ele>1883.3959</ele>
        <time>2014-08-28T11:16:17Z</time>
      </trkpt>
      <trkpt lat="46.34625" lon="6.74046">
        <ele>1883.3959</ele>
        <time>2014-08-28T11:16:22Z</time>
      </trkpt>
      <trkpt lat="46.34624" lon="6.7405">
        <ele>1889.5945</ele>
        <time>2014-08-28T11:16:27Z</time>
      </trkpt>
      <trkpt lat="46.34624" lon="6.74051">
        <ele>1889.5945</ele>
        <time>2014-08-28T11:16:32Z</time>
      </trkpt>
      <trkpt lat="46.34623" lon="6.74054">
        <ele>1889.5945</ele>
        <time>2014-08-28T11:16:37Z</time>
      </trkpt>
      <trkpt lat="46.34622" lon="6.74056">
        <ele>1889.5945</ele>
        <time>2014-08-28T11:16:42Z</time>
      </trkpt>
      <trkpt lat="46.34622" lon="6.74061">
        <ele>1889.5945</ele>
        <time>2014-08-28T11:16:47Z</time>
      </trkpt>
      <trkpt lat="46.34622" lon="6.74061">
        <ele>1889.5945</ele>
        <time>2014-08-28T11:16:52Z</time>
      </trkpt>
      <trkpt lat="46.3462" lon="6.74072">
        <ele>1895.3566</ele>
        <time>2014-08-28T11:16:57Z</time>
      </trkpt>
      <trkpt lat="46.34619" lon="6.74074">
        <ele>1895.3566</ele>
        <time>2014-08-28T11:17:02Z</time>
      </trkpt>
      <trkpt lat="46.34618" lon="6.74082">
        <ele>1895.3566</ele>
        <time>2014-08-28T11:17:07Z</time>
      </trkpt>
      <trkpt lat="46.34617" lon="6.74088">
        <ele>1900.0709</ele>
        <time>2014-08-28T11:17:12Z</time>
      </trkpt>
      <trkpt lat="46.34618" lon="6.74091">
        <ele>1900.0709</ele>
        <time>2014-08-28T11:17:17Z</time>
      </trkpt>
      <trkpt lat="46.34617" lon="6.74096">
        <ele>1900.0709</ele>
        <time>2014-08-28T11:17:22Z</time>
      </trkpt>
      <trkpt lat="46.34617" lon="6.74097">
        <ele>1900.0709</ele>
        <time>2014-08-28T11:17:27Z</time>
      </trkpt>
      <trkpt lat="46.34616" lon="6.74103">
        <ele>1903.9673</ele>
        <time>2014-08-28T11:17:32Z</time>
      </trkpt>
      <trkpt lat="46.34616" lon="6.74103">
        <ele>1903.9673</ele>
        <time>2014-08-28T11:17:37Z</time>
      </trkpt>
      <trkpt lat="46.34617" lon="6.74105">
        <ele>1903.9673</ele>
        <time>2014-08-28T11:17:57Z</time>
      </trkpt>
      <trkpt lat="46.34617" lon="6.74105">
        <ele>1903.9673</ele>
        <time>2014-08-28T11:18:02Z</time>
      </trkpt>
      <trkpt lat="46.34618" lon="6.74107">
        <ele>1903.9673</ele>
        <time>2014-08-28T11:18:07Z</time>
      </trkpt>
      <trkpt lat="46.34619" lon="6.74111">
        <ele>1903.9673</ele>
        <time>2014-08-28T11:18:12Z</time>
      </trkpt>
      <trkpt lat="46.34619" lon="6.74118">
        <ele>1907.6359</ele>
        <time>2014-08-28T11:18:17Z</time>
      </trkpt>
      <trkpt lat="46.34618" lon="6.7412">
        <ele>1907.6359</ele>
        <time>2014-08-28T11:18:22Z</time>
      </trkpt>
      <trkpt lat="46.34619" lon="6.74122">
        <ele>1907.6359</ele>
        <time>2014-08-28T11:18:27Z</time>
      </trkpt>
      <trkpt lat="46.3462" lon="6.74125">
        <ele>1907.6359</ele>
        <time>2014-08-28T11:18:32Z</time>
      </trkpt>
      <trkpt lat="46.34621" lon="6.74126">
        <ele>1907.6359</ele>
        <time>2014-08-28T11:18:37Z</time>
      </trkpt>
      <trkpt lat="46.34621" lon="6.74126">
        <ele>1907.6359</ele>
        <time>2014-08-28T11:18:42Z</time>
      </trkpt>
      <trkpt lat="46.34622" lon="6.7413">
        <ele>1911.2206</ele>
        <time>2014-08-28T11:18:47Z</time>
      </trkpt>
      <trkpt lat="46.34622" lon="6.7413">
        <ele>1911.2206</ele>
        <time>2014-08-28T11:18:52Z</time>
      </trkpt>
      <trkpt lat="46.34622" lon="6.74132">
        <ele>1911.2206</ele>
        <time>2014-08-28T11:18:57Z</time>
      </trkpt>
      <trkpt lat="46.34621" lon="6.74134">
        <ele>1911.2206</ele>
        <time>2014-08-28T11:19:02Z</time>
      </trkpt>
      <trkpt lat="46.34621" lon="6.74137">
        <ele>1911.2206</ele>
        <time>2014-08-28T11:19:07Z</time>
      </trkpt>
      <trkpt lat="46.34621" lon="6.7414">
        <ele>1911.2206</ele>
        <time>2014-08-28T11:19:12Z</time>
      </trkpt>
      <trkpt lat="46.34621" lon="6.74142">
        <ele>1911.2206</ele>
        <time>2014-08-28T11:19:17Z</time>
      </trkpt>
      <trkpt lat="46.34621" lon="6.74142">
        <ele>1911.2206</ele>
        <time>2014-08-28T11:19:22Z</time>
      </trkpt>
      <trkpt lat="46.34621" lon="6.74144">
        <ele>1914.7258</ele>
        <time>2014-08-28T11:19:27Z</time>
      </trkpt>
      <trkpt lat="46.34619" lon="6.74146">
        <ele>1914.7258</ele>
        <time>2014-08-28T11:19:32Z</time>
      </trkpt>
      <trkpt lat="46.34618" lon="6.74148">
        <ele>1914.7258</ele>
        <time>2014-08-28T11:19:37Z</time>
      </trkpt>
      <trkpt lat="46.34618" lon="6.74148">
        <ele>1914.7258</ele>
        <time>2014-08-28T11:19:42Z</time>
      </trkpt>
      <trkpt lat="46.34617" lon="6.74148">
        <ele>1914.7258</ele>
        <time>2014-08-28T11:19:52Z</time>
      </trkpt>
      <trkpt lat="46.34617" lon="6.74151">
        <ele>1914.7258</ele>
        <time>2014-08-28T11:19:57Z</time>
      </trkpt>
      <trkpt lat="46.34618" lon="6.74153">
        <ele>1914.7258</ele>
        <time>2014-08-28T11:20:02Z</time>
      </trkpt>
      <trkpt lat="46.34619" lon="6.74154">
        <ele>1918.2136</ele>
        <time>2014-08-28T11:20:07Z</time>
      </trkpt>
      <trkpt lat="46.34619" lon="6.74154">
        <ele>1918.2136</ele>
        <time>2014-08-28T11:20:12Z</time>
      </trkpt>
      <trkpt lat="46.34618" lon="6.74158">
        <ele>1918.2136</ele>
        <time>2014-08-28T11:20:17Z</time>
      </trkpt>
      <trkpt lat="46.34609" lon="6.74168">
        <ele>1921.2804</ele>
        <time>2014-08-28T11:20:22Z</time>
      </trkpt>
      <trkpt lat="46.34609" lon="6.74168">
        <ele>1921.2804</ele>
        <time>2014-08-28T11:20:27Z</time>
      </trkpt>
      <trkpt lat="46.34609" lon="6.74169">
        <ele>1921.2804</ele>
        <time>2014-08-28T11:20:32Z</time>
      </trkpt>
      <trkpt lat="46.34606" lon="6.74179">
        <ele>1921.2804</ele>
        <time>2014-08-28T11:20:37Z</time>
      </trkpt>
      <trkpt lat="46.34606" lon="6.74184">
        <ele>1924.2168</ele>
        <time>2014-08-28T11:20:42Z</time>
      </trkpt>
      <trkpt lat="46.34603" lon="6.74196">
        <ele>1924.2168</ele>
        <time>2014-08-28T11:20:47Z</time>
      </trkpt>
      <trkpt lat="46.34603" lon="6.74196">
        <ele>1924.2168</ele>
        <time>2014-08-28T11:20:52Z</time>
      </trkpt>
      <trkpt lat="46.34603" lon="6.74199">
        <ele>1926.5575</ele>
        <time>2014-08-28T11:21:02Z</time>
      </trkpt>
      <trkpt lat="46.34602" lon="6.74202">
        <ele>1926.5575</ele>
        <time>2014-08-28T11:21:07Z</time>
      </trkpt>
      <trkpt lat="46.34595" lon="6.74212">
        <ele>1928.4064</ele>
        <time>2014-08-28T11:21:12Z</time>
      </trkpt>
      <trkpt lat="46.34595" lon="6.74213">
        <ele>1928.4064</ele>
        <time>2014-08-28T11:21:17Z</time>
      </trkpt>
      <trkpt lat="46.34595" lon="6.74214">
        <ele>1928.4064</ele>
        <time>2014-08-28T11:21:22Z</time>
      </trkpt>
      <trkpt lat="46.34592" lon="6.7422">
        <ele>1928.4064</ele>
        <time>2014-08-28T11:21:27Z</time>
      </trkpt>
      <trkpt lat="46.34591" lon="6.74222">
        <ele>1928.4064</ele>
        <time>2014-08-28T11:21:32Z</time>
      </trkpt>
      <trkpt lat="46.34591" lon="6.74226">
        <ele>1929.847</ele>
        <time>2014-08-28T11:21:37Z</time>
      </trkpt>
      <trkpt lat="46.34591" lon="6.74229">
        <ele>1929.847</ele>
        <time>2014-08-28T11:21:42Z</time>
      </trkpt>
      <trkpt lat="46.34591" lon="6.74229">
        <ele>1929.847</ele>
        <time>2014-08-28T11:21:47Z</time>
      </trkpt>
      <trkpt lat="46.34591" lon="6.7423">
        <ele>1929.847</ele>
        <time>2014-08-28T11:21:52Z</time>
      </trkpt>
      <trkpt lat="46.34591" lon="6.7423">
        <ele>1929.847</ele>
        <time>2014-08-28T11:21:57Z</time>
      </trkpt>
      <trkpt lat="46.3459" lon="6.74231">
        <ele>1929.847</ele>
        <time>2014-08-28T11:22:02Z</time>
      </trkpt>
      <trkpt lat="46.34589" lon="6.74233">
        <ele>1929.847</ele>
        <time>2014-08-28T11:22:07Z</time>
      </trkpt>
      <trkpt lat="46.34588" lon="6.74233">
        <ele>1929.847</ele>
        <time>2014-08-28T11:22:12Z</time>
      </trkpt>
      <trkpt lat="46.34586" lon="6.74236">
        <ele>1932.0387</ele>
        <time>2014-08-28T11:22:17Z</time>
      </trkpt>
      <trkpt lat="46.34581" lon="6.74242">
        <ele>1932.0387</ele>
        <time>2014-08-28T11:22:22Z</time>
      </trkpt>
      <trkpt lat="46.34576" lon="6.74247">
        <ele>1933.8344</ele>
        <time>2014-08-28T11:22:27Z</time>
      </trkpt>
      <trkpt lat="46.34576" lon="6.74247">
        <ele>1933.8344</ele>
        <time>2014-08-28T11:22:32Z</time>
      </trkpt>
      <trkpt lat="46.34575" lon="6.74247">
        <ele>1933.8344</ele>
        <time>2014-08-28T11:22:37Z</time>
      </trkpt>
      <trkpt lat="46.34574" lon="6.74247">
        <ele>1933.8344</ele>
        <time>2014-08-28T11:22:42Z</time>
      </trkpt>
      <trkpt lat="46.34574" lon="6.74247">
        <ele>1933.8344</ele>
        <time>2014-08-28T11:22:47Z</time>
      </trkpt>
      <trkpt lat="46.34575" lon="6.7425">
        <ele>1933.8344</ele>
        <time>2014-08-28T11:23:02Z</time>
      </trkpt>
      <trkpt lat="46.34573" lon="6.74254">
        <ele>1933.8344</ele>
        <time>2014-08-28T11:23:07Z</time>
      </trkpt>
      <trkpt lat="46.34573" lon="6.74254">
        <ele>1933.8344</ele>
        <time>2014-08-28T11:23:12Z</time>
      </trkpt>
      <trkpt lat="46.34572" lon="6.74259">
        <ele>1935.8439</ele>
        <time>2014-08-28T11:23:27Z</time>
      </trkpt>
      <trkpt lat="46.34572" lon="6.7426">
        <ele>1935.8439</ele>
        <time>2014-08-28T11:23:32Z</time>
      </trkpt>
      <trkpt lat="46.34572" lon="6.7426">
        <ele>1935.8439</ele>
        <time>2014-08-28T11:23:37Z</time>
      </trkpt>
      <trkpt lat="46.34573" lon="6.74261">
        <ele>1935.8439</ele>
        <time>2014-08-28T11:23:42Z</time>
      </trkpt>
      <trkpt lat="46.34571" lon="6.74265">
        <ele>1935.8439</ele>
        <time>2014-08-28T11:23:47Z</time>
      </trkpt>
      <trkpt lat="46.3457" lon="6.74267">
        <ele>1935.8439</ele>
        <time>2014-08-28T11:23:52Z</time>
      </trkpt>
      <trkpt lat="46.34568" lon="6.74269">
        <ele>1937.9548</ele>
        <time>2014-08-28T11:23:57Z</time>
      </trkpt>
      <trkpt lat="46.34568" lon="6.74269">
        <ele>1937.9548</ele>
        <time>2014-08-28T11:24:02Z</time>
      </trkpt>
      <trkpt lat="46.34562" lon="6.74281">
        <ele>1939.8031</ele>
        <time>2014-08-28T11:24:07Z</time>
      </trkpt>
      <trkpt lat="46.34561" lon="6.74285">
        <ele>1939.8031</ele>
        <time>2014-08-28T11:24:12Z</time>
      </trkpt>
      <trkpt lat="46.34561" lon="6.74285">
        <ele>1939.8031</ele>
        <time>2014-08-28T11:24:17Z</time>
      </trkpt>
      <trkpt lat="46.34561" lon="6.74287">
        <ele>1939.8031</ele>
        <time>2014-08-28T11:24:22Z</time>
      </trkpt>
      <trkpt lat="46.34561" lon="6.74287">
        <ele>1939.8031</ele>
        <time>2014-08-28T11:24:27Z</time>
      </trkpt>
      <trkpt lat="46.3456" lon="6.74289">
        <ele>1939.8031</ele>
        <time>2014-08-28T11:24:32Z</time>
      </trkpt>
      <trkpt lat="46.3456" lon="6.74289">
        <ele>1939.8031</ele>
        <time>2014-08-28T11:24:37Z</time>
      </trkpt>
      <trkpt lat="46.34559" lon="6.74289">
        <ele>1939.8031</ele>
        <time>2014-08-28T11:25:47Z</time>
      </trkpt>
      <trkpt lat="46.34559" lon="6.74289">
        <ele>1939.8031</ele>
        <time>2014-08-28T11:25:52Z</time>
      </trkpt>
      <trkpt lat="46.34559" lon="6.7429">
        <ele>1939.8031</ele>
        <time>2014-08-28T11:35:32Z</time>
      </trkpt>
      <trkpt lat="46.34557" lon="6.7429">
        <ele>1942.3494</ele>
        <time>2014-08-28T11:35:37Z</time>
      </trkpt>
      <trkpt lat="46.34556" lon="6.74293">
        <ele>1942.3494</ele>
        <time>2014-08-28T11:35:42Z</time>
      </trkpt>
      <trkpt lat="46.34557" lon="6.74292">
        <ele>1942.3494</ele>
        <time>2014-08-28T11:39:37Z</time>
      </trkpt>
      <trkpt lat="46.34557" lon="6.74292">
        <ele>1942.3494</ele>
        <time>2014-08-28T11:39:42Z</time>
      </trkpt>
      <trkpt lat="46.34557" lon="6.74293">
        <ele>1942.3494</ele>
        <time>2014-08-28T11:40:07Z</time>
      </trkpt>
      <trkpt lat="46.34559" lon="6.74298">
        <ele>1942.3494</ele>
        <time>2014-08-28T11:40:12Z</time>
      </trkpt>
      <trkpt lat="46.34561" lon="6.74303">
        <ele>1943.8008</ele>
        <time>2014-08-28T11:40:17Z</time>
      </trkpt>
      <trkpt lat="46.34563" lon="6.74312">
        <ele>1943.8008</ele>
        <time>2014-08-28T11:40:22Z</time>
      </trkpt>
      <trkpt lat="46.34568" lon="6.7432">
        <ele>1944.6906</ele>
        <time>2014-08-28T11:40:27Z</time>
      </trkpt>
      <trkpt lat="46.34569" lon="6.74322">
        <ele>1944.6906</ele>
        <time>2014-08-28T11:40:32Z</time>
      </trkpt>
      <trkpt lat="46.34569" lon="6.74324">
        <ele>1944.6906</ele>
        <time>2014-08-28T11:40:37Z</time>
      </trkpt>
      <trkpt lat="46.34569" lon="6.74327">
        <ele>1944.6906</ele>
        <time>2014-08-28T11:40:42Z</time>
      </trkpt>
      <trkpt lat="46.3457" lon="6.74329">
        <ele>1944.6906</ele>
        <time>2014-08-28T11:40:47Z</time>
      </trkpt>
      <trkpt lat="46.3457" lon="6.74329">
        <ele>1944.6906</ele>
        <time>2014-08-28T11:40:52Z</time>
      </trkpt>
      <trkpt lat="46.3457" lon="6.7433">
        <ele>1944.6906</ele>
        <time>2014-08-28T11:40:57Z</time>
      </trkpt>
      <trkpt lat="46.3457" lon="6.74331">
        <ele>1944.6906</ele>
        <time>2014-08-28T11:41:32Z</time>
      </trkpt>
      <trkpt lat="46.3457" lon="6.74333">
        <ele>1944.4758</ele>
        <time>2014-08-28T11:41:37Z</time>
      </trkpt>
      <trkpt lat="46.34571" lon="6.74335">
        <ele>1944.4758</ele>
        <time>2014-08-28T11:41:42Z</time>
      </trkpt>
      <trkpt lat="46.34575" lon="6.74339">
        <ele>1944.4758</ele>
        <time>2014-08-28T11:41:47Z</time>
      </trkpt>
      <trkpt lat="46.34577" lon="6.74345">
        <ele>1943.6229</ele>
        <time>2014-08-28T11:41:52Z</time>
      </trkpt>
      <trkpt lat="46.34581" lon="6.74353">
        <ele>1943.6229</ele>
        <time>2014-08-28T11:41:57Z</time>
      </trkpt>
      <trkpt lat="46.34584" lon="6.74357">
        <ele>1942.3059</ele>
        <time>2014-08-28T11:42:02Z</time>
      </trkpt>
      <trkpt lat="46.34588" lon="6.7436">
        <ele>1942.3059</ele>
        <time>2014-08-28T11:42:07Z</time>
      </trkpt>
      <trkpt lat="46.34589" lon="6.74359">
        <ele>1942.3059</ele>
        <time>2014-08-28T11:42:12Z</time>
      </trkpt>
      <trkpt lat="46.34591" lon="6.74358">
        <ele>1942.3059</ele>
        <time>2014-08-28T11:42:17Z</time>
      </trkpt>
      <trkpt lat="46.34592" lon="6.74358">
        <ele>1940.3558</ele>
        <time>2014-08-28T11:42:22Z</time>
      </trkpt>
      <trkpt lat="46.34596" lon="6.74359">
        <ele>1940.3558</ele>
        <time>2014-08-28T11:42:27Z</time>
      </trkpt>
      <trkpt lat="46.34603" lon="6.74358">
        <ele>1939.3038</ele>
        <time>2014-08-28T11:42:32Z</time>
      </trkpt>
      <trkpt lat="46.34606" lon="6.74356">
        <ele>1938.2518</ele>
        <time>2014-08-28T11:42:37Z</time>
      </trkpt>
      <trkpt lat="46.34611" lon="6.74356">
        <ele>1938.2518</ele>
        <time>2014-08-28T11:42:42Z</time>
      </trkpt>
      <trkpt lat="46.34614" lon="6.74355">
        <ele>1938.2518</ele>
        <time>2014-08-28T11:42:47Z</time>
      </trkpt>
      <trkpt lat="46.34618" lon="6.74353">
        <ele>1935.9196</ele>
        <time>2014-08-28T11:42:52Z</time>
      </trkpt>
      <trkpt lat="46.34626" lon="6.74354">
        <ele>1935.9196</ele>
        <time>2014-08-28T11:42:57Z</time>
      </trkpt>
      <trkpt lat="46.34631" lon="6.74357">
        <ele>1933.5929</ele>
        <time>2014-08-28T11:43:02Z</time>
      </trkpt>
      <trkpt lat="46.34636" lon="6.74361">
        <ele>1933.5929</ele>
        <time>2014-08-28T11:43:07Z</time>
      </trkpt>
      <trkpt lat="46.34639" lon="6.74364">
        <ele>1933.5929</ele>
        <time>2014-08-28T11:43:12Z</time>
      </trkpt>
      <trkpt lat="46.34644" lon="6.74367">
        <ele>1931.2722</ele>
        <time>2014-08-28T11:43:17Z</time>
      </trkpt>
      <trkpt lat="46.34646" lon="6.74368">
        <ele>1931.2722</ele>
        <time>2014-08-28T11:43:22Z</time>
      </trkpt>
      <trkpt lat="46.34647" lon="6.74368">
        <ele>1931.2722</ele>
        <time>2014-08-28T11:43:27Z</time>
      </trkpt>
      <trkpt lat="46.34651" lon="6.74374">
        <ele>1931.2722</ele>
        <time>2014-08-28T11:43:32Z</time>
      </trkpt>
      <trkpt lat="46.34652" lon="6.74379">
        <ele>1929.2029</ele>
        <time>2014-08-28T11:43:37Z</time>
      </trkpt>
      <trkpt lat="46.34654" lon="6.74386">
        <ele>1929.2029</ele>
        <time>2014-08-28T11:43:42Z</time>
      </trkpt>
      <trkpt lat="46.34656" lon="6.74395">
        <ele>1927.4092</ele>
        <time>2014-08-28T11:43:47Z</time>
      </trkpt>
      <trkpt lat="46.34658" lon="6.74399">
        <ele>1927.4092</ele>
        <time>2014-08-28T11:43:52Z</time>
      </trkpt>
      <trkpt lat="46.3466" lon="6.74401">
        <ele>1927.4092</ele>
        <time>2014-08-28T11:43:57Z</time>
      </trkpt>
      <trkpt lat="46.34662" lon="6.74403">
        <ele>1927.4092</ele>
        <time>2014-08-28T11:44:02Z</time>
      </trkpt>
      <trkpt lat="46.34663" lon="6.74406">
        <ele>1925.9413</ele>
        <time>2014-08-28T11:44:07Z</time>
      </trkpt>
      <trkpt lat="46.34663" lon="6.7441">
        <ele>1925.9413</ele>
        <time>2014-08-28T11:44:12Z</time>
      </trkpt>
      <trkpt lat="46.34662" lon="6.74414">
        <ele>1925.9413</ele>
        <time>2014-08-28T11:44:17Z</time>
      </trkpt>
      <trkpt lat="46.34665" lon="6.74417">
        <ele>1923.6343</ele>
        <time>2014-08-28T11:44:22Z</time>
      </trkpt>
      <trkpt lat="46.34666" lon="6.74419">
        <ele>1923.6343</ele>
        <time>2014-08-28T11:44:27Z</time>
      </trkpt>
      <trkpt lat="46.34667" lon="6.74421">
        <ele>1923.6343</ele>
        <time>2014-08-28T11:44:32Z</time>
      </trkpt>
      <trkpt lat="46.34668" lon="6.74422">
        <ele>1923.6343</ele>
        <time>2014-08-28T11:44:37Z</time>
      </trkpt>
      <trkpt lat="46.34669" lon="6.74424">
        <ele>1923.6343</ele>
        <time>2014-08-28T11:44:42Z</time>
      </trkpt>
      <trkpt lat="46.34673" lon="6.74427">
        <ele>1920.3185</ele>
        <time>2014-08-28T11:44:47Z</time>
      </trkpt>
      <trkpt lat="46.34675" lon="6.74432">
        <ele>1920.3185</ele>
        <time>2014-08-28T11:44:52Z</time>
      </trkpt>
      <trkpt lat="46.34677" lon="6.74433">
        <ele>1920.3185</ele>
        <time>2014-08-28T11:44:57Z</time>
      </trkpt>
      <trkpt lat="46.34677" lon="6.74433">
        <ele>1920.3185</ele>
        <time>2014-08-28T11:45:02Z</time>
      </trkpt>
      <trkpt lat="46.34682" lon="6.74435">
        <ele>1916.4587</ele>
        <time>2014-08-28T11:45:07Z</time>
      </trkpt>
      <trkpt lat="46.34684" lon="6.74435">
        <ele>1916.4587</ele>
        <time>2014-08-28T11:45:12Z</time>
      </trkpt>
      <trkpt lat="46.34685" lon="6.74437">
        <ele>1916.4587</ele>
        <time>2014-08-28T11:45:17Z</time>
      </trkpt>
      <trkpt lat="46.34688" lon="6.74441">
        <ele>1916.4587</ele>
        <time>2014-08-28T11:45:22Z</time>
      </trkpt>
      <trkpt lat="46.34688" lon="6.74441">
        <ele>1916.4587</ele>
        <time>2014-08-28T11:45:27Z</time>
      </trkpt>
      <trkpt lat="46.3469" lon="6.74444">
        <ele>1912.4873</ele>
        <time>2014-08-28T11:45:37Z</time>
      </trkpt>
      <trkpt lat="46.34693" lon="6.74448">
        <ele>1912.4873</ele>
        <time>2014-08-28T11:45:42Z</time>
      </trkpt>
      <trkpt lat="46.34693" lon="6.74448">
        <ele>1912.4873</ele>
        <time>2014-08-28T11:45:47Z</time>
      </trkpt>
      <trkpt lat="46.34695" lon="6.74452">
        <ele>1912.4873</ele>
        <time>2014-08-28T11:45:52Z</time>
      </trkpt>
      <trkpt lat="46.34695" lon="6.74454">
        <ele>1908.7177</ele>
        <time>2014-08-28T11:45:57Z</time>
      </trkpt>
      <trkpt lat="46.34698" lon="6.74456">
        <ele>1908.7177</ele>
        <time>2014-08-28T11:46:02Z</time>
      </trkpt>
      <trkpt lat="46.34702" lon="6.7446">
        <ele>1908.7177</ele>
        <time>2014-08-28T11:46:07Z</time>
      </trkpt>
      <trkpt lat="46.34707" lon="6.74465">
        <ele>1905.1946</ele>
        <time>2014-08-28T11:46:12Z</time>
      </trkpt>
      <trkpt lat="46.34713" lon="6.74474">
        <ele>1901.8575</ele>
        <time>2014-08-28T11:46:17Z</time>
      </trkpt>
      <trkpt lat="46.34716" lon="6.74483">
        <ele>1901.8575</ele>
        <time>2014-08-28T11:46:22Z</time>
      </trkpt>
      <trkpt lat="46.34717" lon="6.74487">
        <ele>1898.4187</ele>
        <time>2014-08-28T11:46:27Z</time>
      </trkpt>
      <trkpt lat="46.34721" lon="6.74489">
        <ele>1898.4187</ele>
        <time>2014-08-28T11:46:32Z</time>
      </trkpt>
      <trkpt lat="46.34725" lon="6.74494">
        <ele>1895.1881</ele>
        <time>2014-08-28T11:46:37Z</time>
      </trkpt>
      <trkpt lat="46.34727" lon="6.74499">
        <ele>1895.1881</ele>
        <time>2014-08-28T11:46:42Z</time>
      </trkpt>
      <trkpt lat="46.34728" lon="6.745">
        <ele>1895.1881</ele>
        <time>2014-08-28T11:46:47Z</time>
      </trkpt>
      <trkpt lat="46.3473" lon="6.74511">
        <ele>1892.3937</ele>
        <time>2014-08-28T11:46:52Z</time>
      </trkpt>
      <trkpt lat="46.34731" lon="6.74513">
        <ele>1892.3937</ele>
        <time>2014-08-28T11:46:57Z</time>
      </trkpt>
      <trkpt lat="46.34732" lon="6.74523">
        <ele>1892.3937</ele>
        <time>2014-08-28T11:47:02Z</time>
      </trkpt>
      <trkpt lat="46.34733" lon="6.74527">
        <ele>1890.0149</ele>
        <time>2014-08-28T11:47:07Z</time>
      </trkpt>
      <trkpt lat="46.34733" lon="6.74528">
        <ele>1890.0149</ele>
        <time>2014-08-28T11:47:12Z</time>
      </trkpt>
      <trkpt lat="46.34733" lon="6.74529">
        <ele>1890.0149</ele>
        <time>2014-08-28T11:47:17Z</time>
      </trkpt>
      <trkpt lat="46.34733" lon="6.74529">
        <ele>1890.0149</ele>
        <time>2014-08-28T11:48:52Z</time>
      </trkpt>
      <trkpt lat="46.34733" lon="6.74529">
        <ele>1890.0149</ele>
        <time>2014-08-28T11:48:57Z</time>
      </trkpt>
      <trkpt lat="46.34734" lon="6.74529">
        <ele>1890.0149</ele>
        <time>2014-08-28T11:49:02Z</time>
      </trkpt>
      <trkpt lat="46.34734" lon="6.7453">
        <ele>1890.0149</ele>
        <time>2014-08-28T11:49:07Z</time>
      </trkpt>
      <trkpt lat="46.34734" lon="6.74535">
        <ele>1890.0149</ele>
        <time>2014-08-28T11:49:12Z</time>
      </trkpt>
      <trkpt lat="46.34735" lon="6.7454">
        <ele>1886.1287</ele>
        <time>2014-08-28T11:49:17Z</time>
      </trkpt>
      <trkpt lat="46.34735" lon="6.74543">
        <ele>1886.1287</ele>
        <time>2014-08-28T11:49:22Z</time>
      </trkpt>
      <trkpt lat="46.34734" lon="6.74545">
        <ele>1886.1287</ele>
        <time>2014-08-28T11:49:27Z</time>
      </trkpt>
      <trkpt lat="46.34736" lon="6.74555">
        <ele>1882.9486</ele>
        <time>2014-08-28T11:49:32Z</time>
      </trkpt>
      <trkpt lat="46.34737" lon="6.74561">
        <ele>1882.9486</ele>
        <time>2014-08-28T11:49:37Z</time>
      </trkpt>
      <trkpt lat="46.34739" lon="6.74567">
        <ele>1882.9486</ele>
        <time>2014-08-28T11:49:42Z</time>
      </trkpt>
      <trkpt lat="46.3474" lon="6.74574">
        <ele>1881.14</ele>
        <time>2014-08-28T11:49:47Z</time>
      </trkpt>
      <trkpt lat="46.3474" lon="6.74577">
        <ele>1881.14</ele>
        <time>2014-08-28T11:49:52Z</time>
      </trkpt>
      <trkpt lat="46.34741" lon="6.74587">
        <ele>1879.9894</ele>
        <time>2014-08-28T11:49:57Z</time>
      </trkpt>
      <trkpt lat="46.34737" lon="6.74598">
        <ele>1879.9894</ele>
        <time>2014-08-28T11:50:02Z</time>
      </trkpt>
      <trkpt lat="46.34736" lon="6.74608">
        <ele>1879.4525</ele>
        <time>2014-08-28T11:50:07Z</time>
      </trkpt>
      <trkpt lat="46.34737" lon="6.74612">
        <ele>1879.4525</ele>
        <time>2014-08-28T11:50:12Z</time>
      </trkpt>
      <trkpt lat="46.34737" lon="6.74613">
        <ele>1879.4525</ele>
        <time>2014-08-28T11:50:17Z</time>
      </trkpt>
      <trkpt lat="46.34738" lon="6.74615">
        <ele>1879.4525</ele>
        <time>2014-08-28T11:50:22Z</time>
      </trkpt>
      <trkpt lat="46.34738" lon="6.74615">
        <ele>1879.4525</ele>
        <time>2014-08-28T11:50:27Z</time>
      </trkpt>
      <trkpt lat="46.34738" lon="6.74617">
        <ele>1879.4525</ele>
        <time>2014-08-28T11:50:32Z</time>
      </trkpt>
      <trkpt lat="46.34739" lon="6.74618">
        <ele>1879.4525</ele>
        <time>2014-08-28T11:50:37Z</time>
      </trkpt>
      <trkpt lat="46.3474" lon="6.7462">
        <ele>1879.7749</ele>
        <time>2014-08-28T11:50:42Z</time>
      </trkpt>
      <trkpt lat="46.34742" lon="6.74624">
        <ele>1879.7749</ele>
        <time>2014-08-28T11:50:47Z</time>
      </trkpt>
      <trkpt lat="46.34744" lon="6.7463">
        <ele>1879.7749</ele>
        <time>2014-08-28T11:50:52Z</time>
      </trkpt>
      <trkpt lat="46.34747" lon="6.74636">
        <ele>1880.4463</ele>
        <time>2014-08-28T11:50:57Z</time>
      </trkpt>
      <trkpt lat="46.34748" lon="6.74639">
        <ele>1880.4463</ele>
        <time>2014-08-28T11:51:02Z</time>
      </trkpt>
      <trkpt lat="46.34748" lon="6.74642">
        <ele>1880.4463</ele>
        <time>2014-08-28T11:51:07Z</time>
      </trkpt>
      <trkpt lat="46.34749" lon="6.74645">
        <ele>1880.4463</ele>
        <time>2014-08-28T11:51:12Z</time>
      </trkpt>
      <trkpt lat="46.34751" lon="6.74647">
        <ele>1880.4463</ele>
        <time>2014-08-28T11:51:17Z</time>
      </trkpt>
      <trkpt lat="46.34752" lon="6.7465">
        <ele>1881.3958</ele>
        <time>2014-08-28T11:51:22Z</time>
      </trkpt>
      <trkpt lat="46.34754" lon="6.74651">
        <ele>1881.3958</ele>
        <time>2014-08-28T11:51:27Z</time>
      </trkpt>
      <trkpt lat="46.34755" lon="6.74653">
        <ele>1881.3958</ele>
        <time>2014-08-28T11:51:32Z</time>
      </trkpt>
      <trkpt lat="46.34755" lon="6.74653">
        <ele>1881.3958</ele>
        <time>2014-08-28T11:51:37Z</time>
      </trkpt>
      <trkpt lat="46.34757" lon="6.74658">
        <ele>1881.3958</ele>
        <time>2014-08-28T11:51:42Z</time>
      </trkpt>
      <trkpt lat="46.34756" lon="6.74662">
        <ele>1882.3837</ele>
        <time>2014-08-28T11:51:47Z</time>
      </trkpt>
      <trkpt lat="46.34757" lon="6.74666">
        <ele>1882.3837</ele>
        <time>2014-08-28T11:51:52Z</time>
      </trkpt>
      <trkpt lat="46.34756" lon="6.74667">
        <ele>1882.3837</ele>
        <time>2014-08-28T11:51:57Z</time>
      </trkpt>
      <trkpt lat="46.34756" lon="6.74672">
        <ele>1882.3837</ele>
        <time>2014-08-28T11:52:02Z</time>
      </trkpt>
      <trkpt lat="46.34752" lon="6.74676">
        <ele>1883.5913</ele>
        <time>2014-08-28T11:52:07Z</time>
      </trkpt>
      <trkpt lat="46.34754" lon="6.74681">
        <ele>1883.5913</ele>
        <time>2014-08-28T11:52:12Z</time>
      </trkpt>
      <trkpt lat="46.34754" lon="6.74688">
        <ele>1883.5913</ele>
        <time>2014-08-28T11:52:17Z</time>
      </trkpt>
      <trkpt lat="46.34755" lon="6.74691">
        <ele>1884.5513</ele>
        <time>2014-08-28T11:52:22Z</time>
      </trkpt>
      <trkpt lat="46.34754" lon="6.74695">
        <ele>1884.5513</ele>
        <time>2014-08-28T11:52:27Z</time>
      </trkpt>
      <trkpt lat="46.34754" lon="6.74695">
        <ele>1884.5513</ele>
        <time>2014-08-28T11:52:32Z</time>
      </trkpt>
      <trkpt lat="46.34754" lon="6.74701">
        <ele>1884.5513</ele>
        <time>2014-08-28T11:52:37Z</time>
      </trkpt>
      <trkpt lat="46.34754" lon="6.74708">
        <ele>1885.8258</ele>
        <time>2014-08-28T11:52:42Z</time>
      </trkpt>
      <trkpt lat="46.34753" lon="6.74714">
        <ele>1885.8258</ele>
        <time>2014-08-28T11:52:47Z</time>
      </trkpt>
      <trkpt lat="46.34752" lon="6.74723">
        <ele>1887.0408</ele>
        <time>2014-08-28T11:52:52Z</time>
      </trkpt>
      <trkpt lat="46.34749" lon="6.7473">
        <ele>1887.0408</ele>
        <time>2014-08-28T11:52:57Z</time>
      </trkpt>
      <trkpt lat="46.34743" lon="6.74741">
        <ele>1888.484</ele>
        <time>2014-08-28T11:53:02Z</time>
      </trkpt>
      <trkpt lat="46.34742" lon="6.74745">
        <ele>1888.484</ele>
        <time>2014-08-28T11:53:07Z</time>
      </trkpt>
      <trkpt lat="46.34742" lon="6.74745">
        <ele>1888.484</ele>
        <time>2014-08-28T11:53:12Z</time>
      </trkpt>
      <trkpt lat="46.34742" lon="6.74746">
        <ele>1888.484</ele>
        <time>2014-08-28T11:53:17Z</time>
      </trkpt>
      <trkpt lat="46.34742" lon="6.74747">
        <ele>1888.484</ele>
        <time>2014-08-28T11:53:22Z</time>
      </trkpt>
      <trkpt lat="46.34743" lon="6.74751">
        <ele>1888.484</ele>
        <time>2014-08-28T11:53:27Z</time>
      </trkpt>
      <trkpt lat="46.34746" lon="6.74753">
        <ele>1890.5653</ele>
        <time>2014-08-28T11:53:32Z</time>
      </trkpt>
      <trkpt lat="46.34745" lon="6.74757">
        <ele>1890.5653</ele>
        <time>2014-08-28T11:53:37Z</time>
      </trkpt>
      <trkpt lat="46.34745" lon="6.74758">
        <ele>1890.5653</ele>
        <time>2014-08-28T11:53:42Z</time>
      </trkpt>
      <trkpt lat="46.34745" lon="6.74759">
        <ele>1890.5653</ele>
        <time>2014-08-28T11:53:47Z</time>
      </trkpt>
      <trkpt lat="46.34745" lon="6.74759">
        <ele>1890.5653</ele>
        <time>2014-08-28T11:53:52Z</time>
      </trkpt>
      <trkpt lat="46.34746" lon="6.74761">
        <ele>1890.5653</ele>
        <time>2014-08-28T11:53:57Z</time>
      </trkpt>
      <trkpt lat="46.34746" lon="6.74764">
        <ele>1890.5653</ele>
        <time>2014-08-28T11:54:02Z</time>
      </trkpt>
      <trkpt lat="46.34746" lon="6.74764">
        <ele>1890.5653</ele>
        <time>2014-08-28T11:54:07Z</time>
      </trkpt>
      <trkpt lat="46.34747" lon="6.74765">
        <ele>1892.8411</ele>
        <time>2014-08-28T11:54:12Z</time>
      </trkpt>
      <trkpt lat="46.34747" lon="6.74765">
        <ele>1892.8411</ele>
        <time>2014-08-28T11:54:17Z</time>
      </trkpt>
      <trkpt lat="46.34748" lon="6.74769">
        <ele>1892.8411</ele>
        <time>2014-08-28T11:55:27Z</time>
      </trkpt>
      <trkpt lat="46.34747" lon="6.74774">
        <ele>1892.8411</ele>
        <time>2014-08-28T11:55:32Z</time>
      </trkpt>
      <trkpt lat="46.34747" lon="6.74779">
        <ele>1895.3752</ele>
        <time>2014-08-28T11:55:37Z</time>
      </trkpt>
      <trkpt lat="46.34747" lon="6.74779">
        <ele>1895.3752</ele>
        <time>2014-08-28T11:55:42Z</time>
      </trkpt>
      <trkpt lat="46.34748" lon="6.7478">
        <ele>1895.3752</ele>
        <time>2014-08-28T11:55:57Z</time>
      </trkpt>
      <trkpt lat="46.34748" lon="6.74782">
        <ele>1895.3752</ele>
        <time>2014-08-28T11:56:02Z</time>
      </trkpt>
      <trkpt lat="46.34748" lon="6.74782">
        <ele>1895.3752</ele>
        <time>2014-08-28T11:56:07Z</time>
      </trkpt>
      <trkpt lat="46.34749" lon="6.74784">
        <ele>1895.3752</ele>
        <time>2014-08-28T11:56:17Z</time>
      </trkpt>
      <trkpt lat="46.3475" lon="6.74788">
        <ele>1895.3752</ele>
        <time>2014-08-28T11:56:22Z</time>
      </trkpt>
      <trkpt lat="46.3475" lon="6.74797">
        <ele>1898.356</ele>
        <time>2014-08-28T11:56:27Z</time>
      </trkpt>
      <trkpt lat="46.3475" lon="6.74797">
        <ele>1898.356</ele>
        <time>2014-08-28T11:56:32Z</time>
      </trkpt>
      <trkpt lat="46.34751" lon="6.74799">
        <ele>1898.356</ele>
        <time>2014-08-28T11:56:37Z</time>
      </trkpt>
      <trkpt lat="46.34751" lon="6.74799">
        <ele>1898.356</ele>
        <time>2014-08-28T11:56:42Z</time>
      </trkpt>
      <trkpt lat="46.34752" lon="6.74807">
        <ele>1898.356</ele>
        <time>2014-08-28T11:57:12Z</time>
      </trkpt>
      <trkpt lat="46.34754" lon="6.74816">
        <ele>1901.7977</ele>
        <time>2014-08-28T11:57:17Z</time>
      </trkpt>
      <trkpt lat="46.34756" lon="6.74828">
        <ele>1901.7977</ele>
        <time>2014-08-28T11:57:22Z</time>
      </trkpt>
      <trkpt lat="46.34756" lon="6.74834">
        <ele>1905.3525</ele>
        <time>2014-08-28T11:57:27Z</time>
      </trkpt>
      <trkpt lat="46.34757" lon="6.74839">
        <ele>1905.3525</ele>
        <time>2014-08-28T11:57:32Z</time>
      </trkpt>
      <trkpt lat="46.34756" lon="6.74844">
        <ele>1905.3525</ele>
        <time>2014-08-28T11:57:37Z</time>
      </trkpt>
      <trkpt lat="46.34755" lon="6.74847">
        <ele>1909.058</ele>
        <time>2014-08-28T11:57:42Z</time>
      </trkpt>
      <trkpt lat="46.34755" lon="6.74849">
        <ele>1909.058</ele>
        <time>2014-08-28T11:57:47Z</time>
      </trkpt>
      <trkpt lat="46.34753" lon="6.74854">
        <ele>1909.058</ele>
        <time>2014-08-28T11:57:52Z</time>
      </trkpt>
      <trkpt lat="46.34752" lon="6.74858">
        <ele>1909.058</ele>
        <time>2014-08-28T11:57:57Z</time>
      </trkpt>
      <trkpt lat="46.34749" lon="6.74863">
        <ele>1912.8185</ele>
        <time>2014-08-28T11:58:02Z</time>
      </trkpt>
      <trkpt lat="46.34745" lon="6.74872">
        <ele>1912.8185</ele>
        <time>2014-08-28T11:58:07Z</time>
      </trkpt>
      <trkpt lat="46.34743" lon="6.7488">
        <ele>1916.4161</ele>
        <time>2014-08-28T11:58:12Z</time>
      </trkpt>
      <trkpt lat="46.34741" lon="6.74886">
        <ele>1916.4161</ele>
        <time>2014-08-28T11:58:17Z</time>
      </trkpt>
      <trkpt lat="46.34737" lon="6.74894">
        <ele>1919.7936</ele>
        <time>2014-08-28T11:58:22Z</time>
      </trkpt>
      <trkpt lat="46.34736" lon="6.74898">
        <ele>1919.7936</ele>
        <time>2014-08-28T11:58:27Z</time>
      </trkpt>
      <trkpt lat="46.34734" lon="6.74901">
        <ele>1919.7936</ele>
        <time>2014-08-28T11:58:32Z</time>
      </trkpt>
      <trkpt lat="46.34731" lon="6.74908">
        <ele>1922.9128</ele>
        <time>2014-08-28T11:58:37Z</time>
      </trkpt>
      <trkpt lat="46.3473" lon="6.74912">
        <ele>1922.9128</ele>
        <time>2014-08-28T11:58:42Z</time>
      </trkpt>
      <trkpt lat="46.34725" lon="6.74921">
        <ele>1925.8695</ele>
        <time>2014-08-28T11:58:47Z</time>
      </trkpt>
      <trkpt lat="46.34724" lon="6.74924">
        <ele>1925.8695</ele>
        <time>2014-08-28T11:58:52Z</time>
      </trkpt>
      <trkpt lat="46.34721" lon="6.74929">
        <ele>1925.8695</ele>
        <time>2014-08-28T11:58:57Z</time>
      </trkpt>
      <trkpt lat="46.34718" lon="6.74933">
        <ele>1928.4932</ele>
        <time>2014-08-28T11:59:02Z</time>
      </trkpt>
      <trkpt lat="46.34716" lon="6.74935">
        <ele>1928.4932</ele>
        <time>2014-08-28T11:59:07Z</time>
      </trkpt>
      <trkpt lat="46.34714" lon="6.74936">
        <ele>1928.4932</ele>
        <time>2014-08-28T11:59:12Z</time>
      </trkpt>
      <trkpt lat="46.34713" lon="6.74941">
        <ele>1928.4932</ele>
        <time>2014-08-28T11:59:17Z</time>
      </trkpt>
      <trkpt lat="46.3471" lon="6.74945">
        <ele>1930.656</ele>
        <time>2014-08-28T11:59:22Z</time>
      </trkpt>
      <trkpt lat="46.34706" lon="6.74951">
        <ele>1930.656</ele>
        <time>2014-08-28T11:59:27Z</time>
      </trkpt>
      <trkpt lat="46.34705" lon="6.74951">
        <ele>1930.656</ele>
        <time>2014-08-28T11:59:32Z</time>
      </trkpt>
      <trkpt lat="46.34704" lon="6.74953">
        <ele>1930.656</ele>
        <time>2014-08-28T11:59:37Z</time>
      </trkpt>
      <trkpt lat="46.34703" lon="6.74955">
        <ele>1932.3853</ele>
        <time>2014-08-28T11:59:42Z</time>
      </trkpt>
      <trkpt lat="46.34703" lon="6.74955">
        <ele>1932.3853</ele>
        <time>2014-08-28T11:59:47Z</time>
      </trkpt>
      <trkpt lat="46.34699" lon="6.74961">
        <ele>1932.3853</ele>
        <time>2014-08-28T11:59:52Z</time>
      </trkpt>
      <trkpt lat="46.34699" lon="6.74961">
        <ele>1932.3853</ele>
        <time>2014-08-28T11:59:57Z</time>
      </trkpt>
      <trkpt lat="46.34699" lon="6.74961">
        <ele>1932.3853</ele>
        <time>2014-08-28T12:00:02Z</time>
      </trkpt>
      <trkpt lat="46.34699" lon="6.74961">
        <ele>1932.3853</ele>
        <time>2014-08-28T12:00:07Z</time>
      </trkpt>
      <trkpt lat="46.34698" lon="6.74962">
        <ele>1932.3853</ele>
        <time>2014-08-28T12:00:17Z</time>
      </trkpt>
      <trkpt lat="46.34698" lon="6.74962">
        <ele>1932.3853</ele>
        <time>2014-08-28T12:00:22Z</time>
      </trkpt>
      <trkpt lat="46.34698" lon="6.74964">
        <ele>1932.3853</ele>
        <time>2014-08-28T12:00:52Z</time>
      </trkpt>
      <trkpt lat="46.34699" lon="6.7497">
        <ele>1933.9812</ele>
        <time>2014-08-28T12:00:57Z</time>
      </trkpt>
      <trkpt lat="46.347" lon="6.74975">
        <ele>1933.9812</ele>
        <time>2014-08-28T12:01:02Z</time>
      </trkpt>
      <trkpt lat="46.347" lon="6.74979">
        <ele>1933.9812</ele>
        <time>2014-08-28T12:01:07Z</time>
      </trkpt>
      <trkpt lat="46.347" lon="6.74979">
        <ele>1933.9812</ele>
        <time>2014-08-28T12:01:12Z</time>
      </trkpt>
      <trkpt lat="46.34697" lon="6.74986">
        <ele>1935.55</ele>
        <time>2014-08-28T12:01:22Z</time>
      </trkpt>
      <trkpt lat="46.34697" lon="6.74986">
        <ele>1935.55</ele>
        <time>2014-08-28T12:01:27Z</time>
      </trkpt>
      <trkpt lat="46.34696" lon="6.74995">
        <ele>1935.55</ele>
        <time>2014-08-28T12:01:42Z</time>
      </trkpt>
      <trkpt lat="46.34694" lon="6.7501">
        <ele>1937.291</ele>
        <time>2014-08-28T12:01:47Z</time>
      </trkpt>
      <trkpt lat="46.34692" lon="6.7502">
        <ele>1937.291</ele>
        <time>2014-08-28T12:01:52Z</time>
      </trkpt>
      <trkpt lat="46.3469" lon="6.7503">
        <ele>1939.1006</ele>
        <time>2014-08-28T12:01:57Z</time>
      </trkpt>
      <trkpt lat="46.3469" lon="6.75037">
        <ele>1939.1006</ele>
        <time>2014-08-28T12:02:02Z</time>
      </trkpt>
      <trkpt lat="46.34689" lon="6.75042">
        <ele>1939.1006</ele>
        <time>2014-08-28T12:02:07Z</time>
      </trkpt>
      <trkpt lat="46.34687" lon="6.75048">
        <ele>1940.7816</ele>
        <time>2014-08-28T12:02:12Z</time>
      </trkpt>
      <trkpt lat="46.34686" lon="6.75054">
        <ele>1940.7816</ele>
        <time>2014-08-28T12:02:17Z</time>
      </trkpt>
      <trkpt lat="46.34683" lon="6.75061">
        <ele>1942.2964</ele>
        <time>2014-08-28T12:02:22Z</time>
      </trkpt>
      <trkpt lat="46.34683" lon="6.75063">
        <ele>1942.2964</ele>
        <time>2014-08-28T12:02:27Z</time>
      </trkpt>
      <trkpt lat="46.34683" lon="6.75063">
        <ele>1942.2964</ele>
        <time>2014-08-28T12:02:32Z</time>
      </trkpt>
      <trkpt lat="46.34683" lon="6.75063">
        <ele>1942.2964</ele>
        <time>2014-08-28T12:02:37Z</time>
      </trkpt>
      <trkpt lat="46.34684" lon="6.75065">
        <ele>1942.2964</ele>
        <time>2014-08-28T12:02:42Z</time>
      </trkpt>
      <trkpt lat="46.34684" lon="6.75065">
        <ele>1942.2964</ele>
        <time>2014-08-28T12:02:47Z</time>
      </trkpt>
      <trkpt lat="46.34684" lon="6.75066">
        <ele>1942.2964</ele>
        <time>2014-08-28T12:02:57Z</time>
      </trkpt>
      <trkpt lat="46.34685" lon="6.75072">
        <ele>1942.2964</ele>
        <time>2014-08-28T12:03:02Z</time>
      </trkpt>
      <trkpt lat="46.34685" lon="6.75074">
        <ele>1943.6394</ele>
        <time>2014-08-28T12:03:07Z</time>
      </trkpt>
      <trkpt lat="46.34686" lon="6.75077">
        <ele>1943.6394</ele>
        <time>2014-08-28T12:03:12Z</time>
      </trkpt>
      <trkpt lat="46.34688" lon="6.7508">
        <ele>1943.6394</ele>
        <time>2014-08-28T12:03:17Z</time>
      </trkpt>
      <trkpt lat="46.34691" lon="6.75087">
        <ele>1944.9502</ele>
        <time>2014-08-28T12:03:22Z</time>
      </trkpt>
      <trkpt lat="46.34692" lon="6.75091">
        <ele>1944.9502</ele>
        <time>2014-08-28T12:03:27Z</time>
      </trkpt>
      <trkpt lat="46.34692" lon="6.75091">
        <ele>1944.9502</ele>
        <time>2014-08-28T12:03:32Z</time>
      </trkpt>
      <trkpt lat="46.34692" lon="6.75092">
        <ele>1944.9502</ele>
        <time>2014-08-28T12:03:42Z</time>
      </trkpt>
      <trkpt lat="46.34693" lon="6.75096">
        <ele>1944.9502</ele>
        <time>2014-08-28T12:03:47Z</time>
      </trkpt>
      <trkpt lat="46.34694" lon="6.75101">
        <ele>1946.2001</ele>
        <time>2014-08-28T12:03:52Z</time>
      </trkpt>
      <trkpt lat="46.34695" lon="6.75105">
        <ele>1946.2001</ele>
        <time>2014-08-28T12:03:57Z</time>
      </trkpt>
      <trkpt lat="46.34695" lon="6.75107">
        <ele>1946.2001</ele>
        <time>2014-08-28T12:04:02Z</time>
      </trkpt>
      <trkpt lat="46.34697" lon="6.75109">
        <ele>1946.2001</ele>
        <time>2014-08-28T12:04:07Z</time>
      </trkpt>
      <trkpt lat="46.34697" lon="6.7511">
        <ele>1946.2001</ele>
        <time>2014-08-28T12:04:12Z</time>
      </trkpt>
      <trkpt lat="46.34698" lon="6.75111">
        <ele>1946.2001</ele>
        <time>2014-08-28T12:04:17Z</time>
      </trkpt>
      <trkpt lat="46.34698" lon="6.75111">
        <ele>1946.2001</ele>
        <time>2014-08-28T12:04:22Z</time>
      </trkpt>
      <trkpt lat="46.34699" lon="6.7511">
        <ele>1947.2616</ele>
        <time>2014-08-28T12:04:27Z</time>
      </trkpt>
      <trkpt lat="46.34699" lon="6.7511">
        <ele>1947.2616</ele>
        <time>2014-08-28T12:04:32Z</time>
      </trkpt>
      <trkpt lat="46.34699" lon="6.7511">
        <ele>1947.2616</ele>
        <time>2014-08-28T12:04:37Z</time>
      </trkpt>
      <trkpt lat="46.34699" lon="6.75115">
        <ele>1947.2616</ele>
        <time>2014-08-28T12:04:52Z</time>
      </trkpt>
      <trkpt lat="46.34703" lon="6.75122">
        <ele>1948.0898</ele>
        <time>2014-08-28T12:04:57Z</time>
      </trkpt>
      <trkpt lat="46.34705" lon="6.75129">
        <ele>1948.0898</ele>
        <time>2014-08-28T12:05:02Z</time>
      </trkpt>
      <trkpt lat="46.34708" lon="6.75133">
        <ele>1948.7733</ele>
        <time>2014-08-28T12:05:07Z</time>
      </trkpt>
      <trkpt lat="46.3471" lon="6.75138">
        <ele>1948.7733</ele>
        <time>2014-08-28T12:05:12Z</time>
      </trkpt>
      <trkpt lat="46.34713" lon="6.75142">
        <ele>1948.7733</ele>
        <time>2014-08-28T12:05:17Z</time>
      </trkpt>
      <trkpt lat="46.34712" lon="6.75143">
        <ele>1949.395</ele>
        <time>2014-08-28T12:05:22Z</time>
      </trkpt>
      <trkpt lat="46.34713" lon="6.75146">
        <ele>1949.395</ele>
        <time>2014-08-28T12:05:27Z</time>
      </trkpt>
      <trkpt lat="46.34715" lon="6.75151">
        <ele>1949.395</ele>
        <time>2014-08-28T12:05:32Z</time>
      </trkpt>
      <trkpt lat="46.34718" lon="6.75158">
        <ele>1949.8876</ele>
        <time>2014-08-28T12:05:37Z</time>
      </trkpt>
      <trkpt lat="46.34721" lon="6.75165">
        <ele>1949.8876</ele>
        <time>2014-08-28T12:05:42Z</time>
      </trkpt>
      <trkpt lat="46.34724" lon="6.75172">
        <ele>1950.2327</ele>
        <time>2014-08-28T12:05:47Z</time>
      </trkpt>
      <trkpt lat="46.34727" lon="6.75176">
        <ele>1950.2327</ele>
        <time>2014-08-28T12:05:52Z</time>
      </trkpt>
      <trkpt lat="46.34731" lon="6.75181">
        <ele>1950.3849</ele>
        <time>2014-08-28T12:05:57Z</time>
      </trkpt>
      <trkpt lat="46.34736" lon="6.75189">
        <ele>1950.3849</ele>
        <time>2014-08-28T12:06:02Z</time>
      </trkpt>
      <trkpt lat="46.34739" lon="6.75197">
        <ele>1950.5046</ele>
        <time>2014-08-28T12:06:07Z</time>
      </trkpt>
      <trkpt lat="46.34742" lon="6.75202">
        <ele>1950.5046</ele>
        <time>2014-08-28T12:06:12Z</time>
      </trkpt>
      <trkpt lat="46.34746" lon="6.75205">
        <ele>1950.5046</ele>
        <time>2014-08-28T12:06:17Z</time>
      </trkpt>
      <trkpt lat="46.34748" lon="6.7521">
        <ele>1950.6108</ele>
        <time>2014-08-28T12:06:22Z</time>
      </trkpt>
      <trkpt lat="46.3475" lon="6.75212">
        <ele>1950.6108</ele>
        <time>2014-08-28T12:06:27Z</time>
      </trkpt>
      <trkpt lat="46.34753" lon="6.75215">
        <ele>1950.6108</ele>
        <time>2014-08-28T12:06:32Z</time>
      </trkpt>
      <trkpt lat="46.34758" lon="6.75219">
        <ele>1950.7213</ele>
        <time>2014-08-28T12:06:37Z</time>
      </trkpt>
      <trkpt lat="46.34762" lon="6.7522">
        <ele>1950.7213</ele>
        <time>2014-08-28T12:06:42Z</time>
      </trkpt>
      <trkpt lat="46.34765" lon="6.75226">
        <ele>1950.867</ele>
        <time>2014-08-28T12:06:47Z</time>
      </trkpt>
      <trkpt lat="46.34766" lon="6.75231">
        <ele>1950.867</ele>
        <time>2014-08-28T12:06:55Z</time>
      </trkpt>
      <trkpt lat="46.34767" lon="6.75232">
        <ele>1950.867</ele>
        <time>2014-08-28T12:06:57Z</time>
      </trkpt>
      <trkpt lat="46.34772" lon="6.75237">
        <ele>1950.9899</ele>
        <time>2014-08-28T12:07:02Z</time>
      </trkpt>
      <trkpt lat="46.34774" lon="6.75241">
        <ele>1950.9899</ele>
        <time>2014-08-28T12:07:07Z</time>
      </trkpt>
      <trkpt lat="46.34774" lon="6.7524">
        <ele>1950.9899</ele>
        <time>2014-08-28T12:07:12Z</time>
      </trkpt>
      <trkpt lat="46.34775" lon="6.75242">
        <ele>1950.9899</ele>
        <time>2014-08-28T12:07:17Z</time>
      </trkpt>
      <trkpt lat="46.34776" lon="6.75248">
        <ele>1950.8782</ele>
        <time>2014-08-28T12:07:22Z</time>
      </trkpt>
      <trkpt lat="46.34776" lon="6.75253">
        <ele>1950.8782</ele>
        <time>2014-08-28T12:07:27Z</time>
      </trkpt>
      <trkpt lat="46.34776" lon="6.75253">
        <ele>1950.8782</ele>
        <time>2014-08-28T12:07:32Z</time>
      </trkpt>
      <trkpt lat="46.34776" lon="6.75251">
        <ele>1950.8782</ele>
        <time>2014-08-28T12:07:37Z</time>
      </trkpt>
      <trkpt lat="46.34776" lon="6.75251">
        <ele>1950.8782</ele>
        <time>2014-08-28T12:07:42Z</time>
      </trkpt>
      <trkpt lat="46.34776" lon="6.7525">
        <ele>1950.8782</ele>
        <time>2014-08-28T12:07:47Z</time>
      </trkpt>
      <trkpt lat="46.34777" lon="6.7525">
        <ele>1950.8782</ele>
        <time>2014-08-28T12:07:52Z</time>
      </trkpt>
      <trkpt lat="46.34778" lon="6.7525">
        <ele>1950.8782</ele>
        <time>2014-08-28T12:07:57Z</time>
      </trkpt>
      <trkpt lat="46.34778" lon="6.7525">
        <ele>1950.8782</ele>
        <time>2014-08-28T12:08:02Z</time>
      </trkpt>
      <trkpt lat="46.34778" lon="6.7525">
        <ele>1950.8782</ele>
        <time>2014-08-28T12:08:07Z</time>
      </trkpt>
      <trkpt lat="46.34781" lon="6.75252">
        <ele>1950.6099</ele>
        <time>2014-08-28T12:08:22Z</time>
      </trkpt>
      <trkpt lat="46.34786" lon="6.75253">
        <ele>1950.6099</ele>
        <time>2014-08-28T12:08:27Z</time>
      </trkpt>
      <trkpt lat="46.34789" lon="6.75257">
        <ele>1950.128</ele>
        <time>2014-08-28T12:08:32Z</time>
      </trkpt>
      <trkpt lat="46.34791" lon="6.75262">
        <ele>1950.128</ele>
        <time>2014-08-28T12:08:37Z</time>
      </trkpt>
      <trkpt lat="46.34793" lon="6.75268">
        <ele>1950.128</ele>
        <time>2014-08-28T12:08:42Z</time>
      </trkpt>
      <trkpt lat="46.34793" lon="6.75272">
        <ele>1949.3804</ele>
        <time>2014-08-28T12:08:47Z</time>
      </trkpt>
      <trkpt lat="46.34792" lon="6.75273">
        <ele>1949.3804</ele>
        <time>2014-08-28T12:08:52Z</time>
      </trkpt>
      <trkpt lat="46.34792" lon="6.75282">
        <ele>1949.3804</ele>
        <time>2014-08-28T12:08:57Z</time>
      </trkpt>
      <trkpt lat="46.34789" lon="6.7529">
        <ele>1948.2764</ele>
        <time>2014-08-28T12:09:02Z</time>
      </trkpt>
      <trkpt lat="46.34788" lon="6.75298">
        <ele>1948.2764</ele>
        <time>2014-08-28T12:09:07Z</time>
      </trkpt>
      <trkpt lat="46.34788" lon="6.75306">
        <ele>1946.9343</ele>
        <time>2014-08-28T12:09:12Z</time>
      </trkpt>
      <trkpt lat="46.34788" lon="6.75313">
        <ele>1946.9343</ele>
        <time>2014-08-28T12:09:17Z</time>
      </trkpt>
      <trkpt lat="46.34788" lon="6.75318">
        <ele>1946.9343</ele>
        <time>2014-08-28T12:09:22Z</time>
      </trkpt>
      <trkpt lat="46.34788" lon="6.75322">
        <ele>1945.2198</ele>
        <time>2014-08-28T12:09:27Z</time>
      </trkpt>
      <trkpt lat="46.34788" lon="6.75329">
        <ele>1945.2198</ele>
        <time>2014-08-28T12:09:32Z</time>
      </trkpt>
      <trkpt lat="46.34788" lon="6.75335">
        <ele>1943.2545</ele>
        <time>2014-08-28T12:09:37Z</time>
      </trkpt>
      <trkpt lat="46.34788" lon="6.75343">
        <ele>1943.2545</ele>
        <time>2014-08-28T12:09:42Z</time>
      </trkpt>
      <trkpt lat="46.34791" lon="6.75346">
        <ele>1943.2545</ele>
        <time>2014-08-28T12:09:47Z</time>
      </trkpt>
      <trkpt lat="46.34792" lon="6.75345">
        <ele>1941.3529</ele>
        <time>2014-08-28T12:09:52Z</time>
      </trkpt>
      <trkpt lat="46.34795" lon="6.75342">
        <ele>1941.3529</ele>
        <time>2014-08-28T12:09:57Z</time>
      </trkpt>
      <trkpt lat="46.34797" lon="6.7534">
        <ele>1941.3529</ele>
        <time>2014-08-28T12:10:02Z</time>
      </trkpt>
      <trkpt lat="46.34801" lon="6.75336">
        <ele>1938.7836</ele>
        <time>2014-08-28T12:10:07Z</time>
      </trkpt>
      <trkpt lat="46.34803" lon="6.75334">
        <ele>1938.7836</ele>
        <time>2014-08-28T12:10:12Z</time>
      </trkpt>
      <trkpt lat="46.34804" lon="6.75334">
        <ele>1938.7836</ele>
        <time>2014-08-28T12:10:17Z</time>
      </trkpt>
      <trkpt lat="46.34804" lon="6.75337">
        <ele>1938.7836</ele>
        <time>2014-08-28T12:10:22Z</time>
      </trkpt>
      <trkpt lat="46.34805" lon="6.75342">
        <ele>1938.7836</ele>
        <time>2014-08-28T12:10:27Z</time>
      </trkpt>
      <trkpt lat="46.34802" lon="6.75347">
        <ele>1935.259</ele>
        <time>2014-08-28T12:10:32Z</time>
      </trkpt>
      <trkpt lat="46.34802" lon="6.75348">
        <ele>1935.259</ele>
        <time>2014-08-28T12:10:37Z</time>
      </trkpt>
      <trkpt lat="46.34801" lon="6.75353">
        <ele>1935.259</ele>
        <time>2014-08-28T12:10:42Z</time>
      </trkpt>
      <trkpt lat="46.34801" lon="6.75355">
        <ele>1935.259</ele>
        <time>2014-08-28T12:10:47Z</time>
      </trkpt>
      <trkpt lat="46.34801" lon="6.75356">
        <ele>1935.259</ele>
        <time>2014-08-28T12:10:52Z</time>
      </trkpt>
      <trkpt lat="46.34803" lon="6.7536">
        <ele>1931.3087</ele>
        <time>2014-08-28T12:10:57Z</time>
      </trkpt>
      <trkpt lat="46.34806" lon="6.75363">
        <ele>1931.3087</ele>
        <time>2014-08-28T12:11:02Z</time>
      </trkpt>
      <trkpt lat="46.34808" lon="6.75369">
        <ele>1931.3087</ele>
        <time>2014-08-28T12:11:07Z</time>
      </trkpt>
      <trkpt lat="46.3481" lon="6.75375">
        <ele>1927.5967</ele>
        <time>2014-08-28T12:11:12Z</time>
      </trkpt>
      <trkpt lat="46.34812" lon="6.7538">
        <ele>1927.5967</ele>
        <time>2014-08-28T12:11:17Z</time>
      </trkpt>
      <trkpt lat="46.34812" lon="6.75381">
        <ele>1927.5967</ele>
        <time>2014-08-28T12:11:22Z</time>
      </trkpt>
      <trkpt lat="46.34812" lon="6.75381">
        <ele>1927.5967</ele>
        <time>2014-08-28T12:11:27Z</time>
      </trkpt>
      <trkpt lat="46.34812" lon="6.75383">
        <ele>1927.5967</ele>
        <time>2014-08-28T12:11:32Z</time>
      </trkpt>
      <trkpt lat="46.34813" lon="6.75385">
        <ele>1927.5967</ele>
        <time>2014-08-28T12:11:37Z</time>
      </trkpt>
      <trkpt lat="46.34813" lon="6.75388">
        <ele>1923.3829</ele>
        <time>2014-08-28T12:11:42Z</time>
      </trkpt>
      <trkpt lat="46.34813" lon="6.75388">
        <ele>1923.3829</ele>
        <time>2014-08-28T12:11:47Z</time>
      </trkpt>
      <trkpt lat="46.34813" lon="6.75389">
        <ele>1923.3829</ele>
        <time>2014-08-28T12:12:07Z</time>
      </trkpt>
      <trkpt lat="46.34814" lon="6.75391">
        <ele>1923.3829</ele>
        <time>2014-08-28T12:12:12Z</time>
      </trkpt>
      <trkpt lat="46.34816" lon="6.75395">
        <ele>1923.3829</ele>
        <time>2014-08-28T12:12:17Z</time>
      </trkpt>
      <trkpt lat="46.3482" lon="6.75399">
        <ele>1918.9917</ele>
        <time>2014-08-28T12:12:22Z</time>
      </trkpt>
      <trkpt lat="46.34824" lon="6.75405">
        <ele>1918.9917</ele>
        <time>2014-08-28T12:12:27Z</time>
      </trkpt>
      <trkpt lat="46.34827" lon="6.75407">
        <ele>1914.6948</ele>
        <time>2014-08-28T12:12:32Z</time>
      </trkpt>
      <trkpt lat="46.34831" lon="6.75408">
        <ele>1914.6948</ele>
        <time>2014-08-28T12:12:37Z</time>
      </trkpt>
      <trkpt lat="46.34833" lon="6.7541">
        <ele>1914.6948</ele>
        <time>2014-08-28T12:12:42Z</time>
      </trkpt>
      <trkpt lat="46.34834" lon="6.75411">
        <ele>1914.6948</ele>
        <time>2014-08-28T12:12:47Z</time>
      </trkpt>
      <trkpt lat="46.34837" lon="6.75415">
        <ele>1910.0233</ele>
        <time>2014-08-28T12:12:52Z</time>
      </trkpt>
      <trkpt lat="46.3484" lon="6.75419">
        <ele>1910.0233</ele>
        <time>2014-08-28T12:12:57Z</time>
      </trkpt>
      <trkpt lat="46.3484" lon="6.75419">
        <ele>1910.0233</ele>
        <time>2014-08-28T12:13:02Z</time>
      </trkpt>
      <trkpt lat="46.34841" lon="6.75421">
        <ele>1910.0233</ele>
        <time>2014-08-28T12:13:27Z</time>
      </trkpt>
      <trkpt lat="46.34843" lon="6.75423">
        <ele>1910.0233</ele>
        <time>2014-08-28T12:13:32Z</time>
      </trkpt>
      <trkpt lat="46.34844" lon="6.75428">
        <ele>1905.3501</ele>
        <time>2014-08-28T12:13:37Z</time>
      </trkpt>
      <trkpt lat="46.34847" lon="6.75432">
        <ele>1905.3501</ele>
        <time>2014-08-28T12:13:42Z</time>
      </trkpt>
      <trkpt lat="46.34848" lon="6.75433">
        <ele>1905.3501</ele>
        <time>2014-08-28T12:13:47Z</time>
      </trkpt>
      <trkpt lat="46.34848" lon="6.75435">
        <ele>1905.3501</ele>
        <time>2014-08-28T12:13:52Z</time>
      </trkpt>
      <trkpt lat="46.3485" lon="6.75439">
        <ele>1900.8334</ele>
        <time>2014-08-28T12:13:57Z</time>
      </trkpt>
      <trkpt lat="46.34851" lon="6.7544">
        <ele>1900.8334</ele>
        <time>2014-08-28T12:14:02Z</time>
      </trkpt>
      <trkpt lat="46.34852" lon="6.7544">
        <ele>1900.8334</ele>
        <time>2014-08-28T12:14:07Z</time>
      </trkpt>
      <trkpt lat="46.34852" lon="6.75442">
        <ele>1900.8334</ele>
        <time>2014-08-28T12:14:12Z</time>
      </trkpt>
      <trkpt lat="46.34852" lon="6.75443">
        <ele>1900.8334</ele>
        <time>2014-08-28T12:14:17Z</time>
      </trkpt>
      <trkpt lat="46.34852" lon="6.75444">
        <ele>1900.8334</ele>
        <time>2014-08-28T12:14:22Z</time>
      </trkpt>
      <trkpt lat="46.34853" lon="6.75452">
        <ele>1896.1144</ele>
        <time>2014-08-28T12:14:27Z</time>
      </trkpt>
      <trkpt lat="46.34854" lon="6.75455">
        <ele>1896.1144</ele>
        <time>2014-08-28T12:14:32Z</time>
      </trkpt>
      <trkpt lat="46.34856" lon="6.75462">
        <ele>1896.1144</ele>
        <time>2014-08-28T12:14:37Z</time>
      </trkpt>
      <trkpt lat="46.34856" lon="6.75472">
        <ele>1891.7688</ele>
        <time>2014-08-28T12:14:42Z</time>
      </trkpt>
      <trkpt lat="46.34855" lon="6.7548">
        <ele>1891.7688</ele>
        <time>2014-08-28T12:14:47Z</time>
      </trkpt>
      <trkpt lat="46.34855" lon="6.75487">
        <ele>1887.8821</ele>
        <time>2014-08-28T12:14:52Z</time>
      </trkpt>
      <trkpt lat="46.34855" lon="6.75494">
        <ele>1887.8821</ele>
        <time>2014-08-28T12:14:57Z</time>
      </trkpt>
      <trkpt lat="46.34853" lon="6.755">
        <ele>1887.8821</ele>
        <time>2014-08-28T12:15:02Z</time>
      </trkpt>
      <trkpt lat="46.34852" lon="6.75507">
        <ele>1884.2723</ele>
        <time>2014-08-28T12:15:07Z</time>
      </trkpt>
      <trkpt lat="46.34852" lon="6.75514">
        <ele>1884.2723</ele>
        <time>2014-08-28T12:15:12Z</time>
      </trkpt>
      <trkpt lat="46.34852" lon="6.75524">
        <ele>1881.0146</ele>
        <time>2014-08-28T12:15:17Z</time>
      </trkpt>
      <trkpt lat="46.34851" lon="6.75529">
        <ele>1881.0146</ele>
        <time>2014-08-28T12:15:22Z</time>
      </trkpt>
      <trkpt lat="46.3485" lon="6.75532">
        <ele>1881.0146</ele>
        <time>2014-08-28T12:15:27Z</time>
      </trkpt>
      <trkpt lat="46.3485" lon="6.75532">
        <ele>1881.0146</ele>
        <time>2014-08-28T12:15:32Z</time>
      </trkpt>
      <trkpt lat="46.3485" lon="6.75537">
        <ele>1877.9037</ele>
        <time>2014-08-28T12:15:37Z</time>
      </trkpt>
      <trkpt lat="46.34849" lon="6.75542">
        <ele>1877.9037</ele>
        <time>2014-08-28T12:15:42Z</time>
      </trkpt>
      <trkpt lat="46.34849" lon="6.75547">
        <ele>1877.9037</ele>
        <time>2014-08-28T12:15:47Z</time>
      </trkpt>
      <trkpt lat="46.34849" lon="6.75554">
        <ele>1874.9933</ele>
        <time>2014-08-28T12:15:52Z</time>
      </trkpt>
      <trkpt lat="46.34851" lon="6.75558">
        <ele>1874.9933</ele>
        <time>2014-08-28T12:15:57Z</time>
      </trkpt>
      <trkpt lat="46.34853" lon="6.75564">
        <ele>1874.9933</ele>
        <time>2014-08-28T12:16:02Z</time>
      </trkpt>
      <trkpt lat="46.34854" lon="6.75569">
        <ele>1872.1741</ele>
        <time>2014-08-28T12:16:07Z</time>
      </trkpt>
      <trkpt lat="46.34854" lon="6.75568">
        <ele>1872.1741</ele>
        <time>2014-08-28T12:16:12Z</time>
      </trkpt>
      <trkpt lat="46.34854" lon="6.75565">
        <ele>1872.1741</ele>
        <time>2014-08-28T12:16:17Z</time>
      </trkpt>
      <trkpt lat="46.34854" lon="6.75565">
        <ele>1872.1741</ele>
        <time>2014-08-28T12:16:22Z</time>
      </trkpt>
      <trkpt lat="46.34858" lon="6.75568">
        <ele>1872.1741</ele>
        <time>2014-08-28T12:16:27Z</time>
      </trkpt>
      <trkpt lat="46.34859" lon="6.75573">
        <ele>1869.1853</ele>
        <time>2014-08-28T12:16:32Z</time>
      </trkpt>
      <trkpt lat="46.3486" lon="6.75574">
        <ele>1869.1853</ele>
        <time>2014-08-28T12:16:37Z</time>
      </trkpt>
      <trkpt lat="46.34864" lon="6.75575">
        <ele>1869.1853</ele>
        <time>2014-08-28T12:16:42Z</time>
      </trkpt>
      <trkpt lat="46.34864" lon="6.7558">
        <ele>1869.1853</ele>
        <time>2014-08-28T12:16:47Z</time>
      </trkpt>
      <trkpt lat="46.34866" lon="6.75582">
        <ele>1865.8721</ele>
        <time>2014-08-28T12:16:52Z</time>
      </trkpt>
      <trkpt lat="46.34868" lon="6.75584">
        <ele>1865.8721</ele>
        <time>2014-08-28T12:16:57Z</time>
      </trkpt>
      <trkpt lat="46.34869" lon="6.75588">
        <ele>1865.8721</ele>
        <time>2014-08-28T12:17:02Z</time>
      </trkpt>
      <trkpt lat="46.34872" lon="6.75595">
        <ele>1862.5961</ele>
        <time>2014-08-28T12:17:07Z</time>
      </trkpt>
      <trkpt lat="46.34874" lon="6.75601">
        <ele>1862.5961</ele>
        <time>2014-08-28T12:17:12Z</time>
      </trkpt>
      <trkpt lat="46.34876" lon="6.75605">
        <ele>1862.5961</ele>
        <time>2014-08-28T12:17:17Z</time>
      </trkpt>
      <trkpt lat="46.34877" lon="6.75608">
        <ele>1859.418</ele>
        <time>2014-08-28T12:17:22Z</time>
      </trkpt>
      <trkpt lat="46.34879" lon="6.75613">
        <ele>1859.418</ele>
        <time>2014-08-28T12:17:27Z</time>
      </trkpt>
      <trkpt lat="46.34881" lon="6.75621">
        <ele>1856.4799</ele>
        <time>2014-08-28T12:17:32Z</time>
      </trkpt>
      <trkpt lat="46.34884" lon="6.75631">
        <ele>1856.4799</ele>
        <time>2014-08-28T12:17:37Z</time>
      </trkpt>
      <trkpt lat="46.34887" lon="6.75636">
        <ele>1853.8115</ele>
        <time>2014-08-28T12:17:42Z</time>
      </trkpt>
      <trkpt lat="46.34887" lon="6.75643">
        <ele>1853.8115</ele>
        <time>2014-08-28T12:17:47Z</time>
      </trkpt>
      <trkpt lat="46.34887" lon="6.75651">
        <ele>1851.3965</ele>
        <time>2014-08-28T12:17:52Z</time>
      </trkpt>
      <trkpt lat="46.34887" lon="6.75658">
        <ele>1851.3965</ele>
        <time>2014-08-28T12:17:57Z</time>
      </trkpt>
      <trkpt lat="46.34888" lon="6.75665">
        <ele>1849.2039</ele>
        <time>2014-08-28T12:18:02Z</time>
      </trkpt>
      <trkpt lat="46.34888" lon="6.7567">
        <ele>1849.2039</ele>
        <time>2014-08-28T12:18:07Z</time>
      </trkpt>
      <trkpt lat="46.34889" lon="6.75677">
        <ele>1849.2039</ele>
        <time>2014-08-28T12:18:12Z</time>
      </trkpt>
      <trkpt lat="46.34889" lon="6.75683">
        <ele>1847.1176</ele>
        <time>2014-08-28T12:18:17Z</time>
      </trkpt>
      <trkpt lat="46.34889" lon="6.75689">
        <ele>1847.1176</ele>
        <time>2014-08-28T12:18:22Z</time>
      </trkpt>
      <trkpt lat="46.34889" lon="6.75695">
        <ele>1847.1176</ele>
        <time>2014-08-28T12:18:27Z</time>
      </trkpt>
      <trkpt lat="46.34889" lon="6.75706">
        <ele>1845.0732</ele>
        <time>2014-08-28T12:18:32Z</time>
      </trkpt>
      <trkpt lat="46.34892" lon="6.75709">
        <ele>1845.0732</ele>
        <time>2014-08-28T12:18:37Z</time>
      </trkpt>
      <trkpt lat="46.34893" lon="6.75711">
        <ele>1845.0732</ele>
        <time>2014-08-28T12:18:42Z</time>
      </trkpt>
      <trkpt lat="46.34893" lon="6.75717">
        <ele>1843.0391</ele>
        <time>2014-08-28T12:18:47Z</time>
      </trkpt>
      <trkpt lat="46.34893" lon="6.75723">
        <ele>1843.0391</ele>
        <time>2014-08-28T12:18:52Z</time>
      </trkpt>
      <trkpt lat="46.34893" lon="6.75725">
        <ele>1843.0391</ele>
        <time>2014-08-28T12:18:57Z</time>
      </trkpt>
      <trkpt lat="46.34893" lon="6.75725">
        <ele>1843.0391</ele>
        <time>2014-08-28T12:19:02Z</time>
      </trkpt>
      <trkpt lat="46.34893" lon="6.75724">
        <ele>1843.0391</ele>
        <time>2014-08-28T12:19:52Z</time>
      </trkpt>
      <trkpt lat="46.34893" lon="6.7572">
        <ele>1840.64</ele>
        <time>2014-08-28T12:19:57Z</time>
      </trkpt>
      <trkpt lat="46.34892" lon="6.75717">
        <ele>1840.64</ele>
        <time>2014-08-28T12:20:02Z</time>
      </trkpt>
      <trkpt lat="46.34892" lon="6.7571">
        <ele>1840.64</ele>
        <time>2014-08-28T12:20:07Z</time>
      </trkpt>
      <trkpt lat="46.3489" lon="6.75705">
        <ele>1838.4657</ele>
        <time>2014-08-28T12:20:12Z</time>
      </trkpt>
      <trkpt lat="46.34888" lon="6.75702">
        <ele>1838.4657</ele>
        <time>2014-08-28T12:20:17Z</time>
      </trkpt>
      <trkpt lat="46.34888" lon="6.75697">
        <ele>1838.4657</ele>
        <time>2014-08-28T12:20:22Z</time>
      </trkpt>
      <trkpt lat="46.34886" lon="6.75691">
        <ele>1836.399</ele>
        <time>2014-08-28T12:20:27Z</time>
      </trkpt>
      <trkpt lat="46.34886" lon="6.75686">
        <ele>1836.399</ele>
        <time>2014-08-28T12:20:32Z</time>
      </trkpt>
      <trkpt lat="46.34886" lon="6.75684">
        <ele>1836.399</ele>
        <time>2014-08-28T12:20:37Z</time>
      </trkpt>
      <trkpt lat="46.34887" lon="6.75673">
        <ele>1834.5903</ele>
        <time>2014-08-28T12:20:42Z</time>
      </trkpt>
      <trkpt lat="46.34887" lon="6.75673">
        <ele>1834.5903</ele>
        <time>2014-08-28T12:20:47Z</time>
      </trkpt>
      <trkpt lat="46.34888" lon="6.7567">
        <ele>1834.5903</ele>
        <time>2014-08-28T12:20:52Z</time>
      </trkpt>
      <trkpt lat="46.34887" lon="6.75669">
        <ele>1834.5903</ele>
        <time>2014-08-28T12:20:57Z</time>
      </trkpt>
      <trkpt lat="46.34884" lon="6.7566">
        <ele>1833.3364</ele>
        <time>2014-08-28T12:21:02Z</time>
      </trkpt>
      <trkpt lat="46.34882" lon="6.75648">
        <ele>1833.3364</ele>
        <time>2014-08-28T12:21:07Z</time>
      </trkpt>
      <trkpt lat="46.34882" lon="6.7564">
        <ele>1832.464</ele>
        <time>2014-08-28T12:21:12Z</time>
      </trkpt>
      <trkpt lat="46.34882" lon="6.75635">
        <ele>1832.464</ele>
        <time>2014-08-28T12:21:17Z</time>
      </trkpt>
      <trkpt lat="46.34881" lon="6.75629">
        <ele>1832.464</ele>
        <time>2014-08-28T12:21:22Z</time>
      </trkpt>
      <trkpt lat="46.3488" lon="6.75626">
        <ele>1831.8977</ele>
        <time>2014-08-28T12:21:27Z</time>
      </trkpt>
      <trkpt lat="46.3488" lon="6.75624">
        <ele>1831.8977</ele>
        <time>2014-08-28T12:21:32Z</time>
      </trkpt>
      <trkpt lat="46.34879" lon="6.75618">
        <ele>1831.8977</ele>
        <time>2014-08-28T12:21:37Z</time>
      </trkpt>
      <trkpt lat="46.34879" lon="6.75612">
        <ele>1831.4948</ele>
        <time>2014-08-28T12:21:42Z</time>
      </trkpt>
      <trkpt lat="46.34878" lon="6.75608">
        <ele>1831.4948</ele>
        <time>2014-08-28T12:21:47Z</time>
      </trkpt>
      <trkpt lat="46.34877" lon="6.75604">
        <ele>1831.4948</ele>
        <time>2014-08-28T12:21:52Z</time>
      </trkpt>
      <trkpt lat="46.34877" lon="6.75604">
        <ele>1831.4948</ele>
        <time>2014-08-28T12:21:57Z</time>
      </trkpt>
      <trkpt lat="46.34876" lon="6.75601">
        <ele>1831.4948</ele>
        <time>2014-08-28T12:22:02Z</time>
      </trkpt>
      <trkpt lat="46.34871" lon="6.75595">
        <ele>1831.3528</ele>
        <time>2014-08-28T12:22:07Z</time>
      </trkpt>
      <trkpt lat="46.34871" lon="6.75594">
        <ele>1831.3528</ele>
        <time>2014-08-28T12:22:12Z</time>
      </trkpt>
      <trkpt lat="46.34871" lon="6.75594">
        <ele>1831.3528</ele>
        <time>2014-08-28T12:22:17Z</time>
      </trkpt>
      <trkpt lat="46.3487" lon="6.75592">
        <ele>1831.3528</ele>
        <time>2014-08-28T12:22:22Z</time>
      </trkpt>
      <trkpt lat="46.34867" lon="6.75587">
        <ele>1831.3528</ele>
        <time>2014-08-28T12:22:27Z</time>
      </trkpt>
      <trkpt lat="46.34867" lon="6.75587">
        <ele>1831.3528</ele>
        <time>2014-08-28T12:22:32Z</time>
      </trkpt>
      <trkpt lat="46.34867" lon="6.75586">
        <ele>1831.3528</ele>
        <time>2014-08-28T12:22:37Z</time>
      </trkpt>
      <trkpt lat="46.34865" lon="6.75584">
        <ele>1831.5472</ele>
        <time>2014-08-28T12:22:42Z</time>
      </trkpt>
      <trkpt lat="46.34865" lon="6.75584">
        <ele>1831.5472</ele>
        <time>2014-08-28T12:22:47Z</time>
      </trkpt>
      <trkpt lat="46.34866" lon="6.75582">
        <ele>1831.5472</ele>
        <time>2014-08-28T12:23:12Z</time>
      </trkpt>
      <trkpt lat="46.34864" lon="6.75576">
        <ele>1831.5472</ele>
        <time>2014-08-28T12:23:17Z</time>
      </trkpt>
      <trkpt lat="46.34864" lon="6.75576">
        <ele>1831.5472</ele>
        <time>2014-08-28T12:23:22Z</time>
      </trkpt>
      <trkpt lat="46.34864" lon="6.75575">
        <ele>1831.5472</ele>
        <time>2014-08-28T12:23:32Z</time>
      </trkpt>
      <trkpt lat="46.34863" lon="6.75568">
        <ele>1832.5936</ele>
        <time>2014-08-28T12:23:37Z</time>
      </trkpt>
      <trkpt lat="46.34863" lon="6.75568">
        <ele>1832.5936</ele>
        <time>2014-08-28T12:23:42Z</time>
      </trkpt>
      <trkpt lat="46.34863" lon="6.75568">
        <ele>1832.5936</ele>
        <time>2014-08-28T12:23:57Z</time>
      </trkpt>
      <trkpt lat="46.34861" lon="6.75565">
        <ele>1832.5936</ele>
        <time>2014-08-28T12:24:02Z</time>
      </trkpt>
      <trkpt lat="46.34861" lon="6.75565">
        <ele>1832.5936</ele>
        <time>2014-08-28T12:24:07Z</time>
      </trkpt>
      <trkpt lat="46.34861" lon="6.75569">
        <ele>1832.5936</ele>
        <time>2014-08-28T12:24:12Z</time>
      </trkpt>
      <trkpt lat="46.34862" lon="6.75573">
        <ele>1832.5936</ele>
        <time>2014-08-28T12:24:17Z</time>
      </trkpt>
      <trkpt lat="46.34862" lon="6.75576">
        <ele>1834.2898</ele>
        <time>2014-08-28T12:24:22Z</time>
      </trkpt>
      <trkpt lat="46.34862" lon="6.75583">
        <ele>1834.2898</ele>
        <time>2014-08-28T12:24:27Z</time>
      </trkpt>
      <trkpt lat="46.34862" lon="6.75587">
        <ele>1834.2898</ele>
        <time>2014-08-28T12:24:32Z</time>
      </trkpt>
      <trkpt lat="46.34861" lon="6.7559">
        <ele>1836.274</ele>
        <time>2014-08-28T12:24:37Z</time>
      </trkpt>
      <trkpt lat="46.3486" lon="6.75592">
        <ele>1836.274</ele>
        <time>2014-08-28T12:24:42Z</time>
      </trkpt>
      <trkpt lat="46.3486" lon="6.75592">
        <ele>1836.274</ele>
        <time>2014-08-28T12:24:47Z</time>
      </trkpt>
      <trkpt lat="46.34859" lon="6.75599">
        <ele>1836.274</ele>
        <time>2014-08-28T12:25:07Z</time>
      </trkpt>
      <trkpt lat="46.34857" lon="6.75605">
        <ele>1838.3976</ele>
        <time>2014-08-28T12:25:12Z</time>
      </trkpt>
      <trkpt lat="46.34856" lon="6.75613">
        <ele>1838.3976</ele>
        <time>2014-08-28T12:25:17Z</time>
      </trkpt>
      <trkpt lat="46.34853" lon="6.75621">
        <ele>1840.6232</ele>
        <time>2014-08-28T12:25:22Z</time>
      </trkpt>
      <trkpt lat="46.34852" lon="6.75629">
        <ele>1840.6232</ele>
        <time>2014-08-28T12:25:27Z</time>
      </trkpt>
      <trkpt lat="46.34852" lon="6.75636">
        <ele>1842.9594</ele>
        <time>2014-08-28T12:25:32Z</time>
      </trkpt>
      <trkpt lat="46.34852" lon="6.75639">
        <ele>1842.9594</ele>
        <time>2014-08-28T12:25:37Z</time>
      </trkpt>
      <trkpt lat="46.34852" lon="6.75645">
        <ele>1842.9594</ele>
        <time>2014-08-28T12:25:42Z</time>
      </trkpt>
      <trkpt lat="46.34849" lon="6.75653">
        <ele>1845.3706</ele>
        <time>2014-08-28T12:25:47Z</time>
      </trkpt>
      <trkpt lat="46.3485" lon="6.75661">
        <ele>1845.3706</ele>
        <time>2014-08-28T12:25:52Z</time>
      </trkpt>
      <trkpt lat="46.3485" lon="6.75673">
        <ele>1847.68</ele>
        <time>2014-08-28T12:25:57Z</time>
      </trkpt>
      <trkpt lat="46.3485" lon="6.75682">
        <ele>1847.68</ele>
        <time>2014-08-28T12:26:02Z</time>
      </trkpt>
      <trkpt lat="46.34849" lon="6.75688">
        <ele>1849.9259</ele>
        <time>2014-08-28T12:26:07Z</time>
      </trkpt>
      <trkpt lat="46.34847" lon="6.75695">
        <ele>1849.9259</ele>
        <time>2014-08-28T12:26:12Z</time>
      </trkpt>
      <trkpt lat="46.34845" lon="6.75702">
        <ele>1852.0864</ele>
        <time>2014-08-28T12:26:17Z</time>
      </trkpt>
      <trkpt lat="46.34841" lon="6.75708">
        <ele>1852.0864</ele>
        <time>2014-08-28T12:26:22Z</time>
      </trkpt>
      <trkpt lat="46.34837" lon="6.75713">
        <ele>1854.2137</ele>
        <time>2014-08-28T12:26:27Z</time>
      </trkpt>
      <trkpt lat="46.34833" lon="6.75717">
        <ele>1854.2137</ele>
        <time>2014-08-28T12:26:32Z</time>
      </trkpt>
      <trkpt lat="46.3483" lon="6.7572">
        <ele>1854.2137</ele>
        <time>2014-08-28T12:26:37Z</time>
      </trkpt>
      <trkpt lat="46.34826" lon="6.75723">
        <ele>1856.2704</ele>
        <time>2014-08-28T12:26:42Z</time>
      </trkpt>
      <trkpt lat="46.34824" lon="6.75726">
        <ele>1856.2704</ele>
        <time>2014-08-28T12:26:47Z</time>
      </trkpt>
      <trkpt lat="46.34824" lon="6.75726">
        <ele>1856.2704</ele>
        <time>2014-08-28T12:26:52Z</time>
      </trkpt>
      <trkpt lat="46.34822" lon="6.75732">
        <ele>1856.2704</ele>
        <time>2014-08-28T12:26:57Z</time>
      </trkpt>
      <trkpt lat="46.34817" lon="6.75737">
        <ele>1857.9481</ele>
        <time>2014-08-28T12:27:02Z</time>
      </trkpt>
      <trkpt lat="46.34815" lon="6.75741">
        <ele>1857.9481</ele>
        <time>2014-08-28T12:27:07Z</time>
      </trkpt>
      <trkpt lat="46.34813" lon="6.75744">
        <ele>1857.9481</ele>
        <time>2014-08-28T12:27:12Z</time>
      </trkpt>
      <trkpt lat="46.34811" lon="6.75749">
        <ele>1859.323</ele>
        <time>2014-08-28T12:27:17Z</time>
      </trkpt>
      <trkpt lat="46.34808" lon="6.75757">
        <ele>1859.323</ele>
        <time>2014-08-28T12:27:22Z</time>
      </trkpt>
      <trkpt lat="46.34809" lon="6.75761">
        <ele>1859.323</ele>
        <time>2014-08-28T12:27:27Z</time>
      </trkpt>
      <trkpt lat="46.34809" lon="6.75764">
        <ele>1860.5964</ele>
        <time>2014-08-28T12:27:32Z</time>
      </trkpt>
      <trkpt lat="46.34809" lon="6.75768">
        <ele>1860.5964</ele>
        <time>2014-08-28T12:27:37Z</time>
      </trkpt>
      <trkpt lat="46.34809" lon="6.75772">
        <ele>1860.5964</ele>
        <time>2014-08-28T12:27:42Z</time>
      </trkpt>
      <trkpt lat="46.34808" lon="6.75778">
        <ele>1861.6527</ele>
        <time>2014-08-28T12:27:47Z</time>
      </trkpt>
      <trkpt lat="46.34808" lon="6.75786">
        <ele>1861.6527</ele>
        <time>2014-08-28T12:27:52Z</time>
      </trkpt>
      <trkpt lat="46.34808" lon="6.75794">
        <ele>1862.3569</ele>
        <time>2014-08-28T12:27:57Z</time>
      </trkpt>
      <trkpt lat="46.34807" lon="6.75804">
        <ele>1862.3569</ele>
        <time>2014-08-28T12:28:02Z</time>
      </trkpt>
      <trkpt lat="46.34805" lon="6.7581">
        <ele>1862.816</ele>
        <time>2014-08-28T12:28:07Z</time>
      </trkpt>
      <trkpt lat="46.34803" lon="6.75813">
        <ele>1862.816</ele>
        <time>2014-08-28T12:28:12Z</time>
      </trkpt>
      <trkpt lat="46.34802" lon="6.75817">
        <ele>1862.816</ele>
        <time>2014-08-28T12:28:17Z</time>
      </trkpt>
      <trkpt lat="46.348" lon="6.75824">
        <ele>1863.0577</ele>
        <time>2014-08-28T12:28:22Z</time>
      </trkpt>
      <trkpt lat="46.34799" lon="6.75832">
        <ele>1863.0577</ele>
        <time>2014-08-28T12:28:27Z</time>
      </trkpt>
      <trkpt lat="46.34798" lon="6.75838">
        <ele>1863.1809</ele>
        <time>2014-08-28T12:28:32Z</time>
      </trkpt>
      <trkpt lat="46.34797" lon="6.75841">
        <ele>1863.1809</ele>
        <time>2014-08-28T12:28:37Z</time>
      </trkpt>
      <trkpt lat="46.34797" lon="6.75841">
        <ele>1863.1809</ele>
        <time>2014-08-28T12:28:42Z</time>
      </trkpt>
      <trkpt lat="46.34797" lon="6.75845">
        <ele>1863.1809</ele>
        <time>2014-08-28T12:28:57Z</time>
      </trkpt>
      <trkpt lat="46.34794" lon="6.75852">
        <ele>1863.0759</ele>
        <time>2014-08-28T12:29:02Z</time>
      </trkpt>
      <trkpt lat="46.34793" lon="6.75858">
        <ele>1863.0759</ele>
        <time>2014-08-28T12:29:07Z</time>
      </trkpt>
      <trkpt lat="46.3479" lon="6.75865">
        <ele>1862.7717</ele>
        <time>2014-08-28T12:29:12Z</time>
      </trkpt>
      <trkpt lat="46.34789" lon="6.75868">
        <ele>1862.7717</ele>
        <time>2014-08-28T12:29:17Z</time>
      </trkpt>
      <trkpt lat="46.34785" lon="6.75871">
        <ele>1862.7717</ele>
        <time>2014-08-28T12:29:22Z</time>
      </trkpt>
      <trkpt lat="46.34783" lon="6.75872">
        <ele>1862.325</ele>
        <time>2014-08-28T12:29:27Z</time>
      </trkpt>
      <trkpt lat="46.34783" lon="6.75872">
        <ele>1862.325</ele>
        <time>2014-08-28T12:29:32Z</time>
      </trkpt>
      <trkpt lat="46.3478" lon="6.75877">
        <ele>1862.325</ele>
        <time>2014-08-28T12:29:42Z</time>
      </trkpt>
      <trkpt lat="46.34776" lon="6.75883">
        <ele>1861.7163</ele>
        <time>2014-08-28T12:29:47Z</time>
      </trkpt>
      <trkpt lat="46.34774" lon="6.75887">
        <ele>1861.7163</ele>
        <time>2014-08-28T12:29:52Z</time>
      </trkpt>
      <trkpt lat="46.34771" lon="6.75889">
        <ele>1861.7163</ele>
        <time>2014-08-28T12:29:57Z</time>
      </trkpt>
      <trkpt lat="46.34769" lon="6.75892">
        <ele>1861.03</ele>
        <time>2014-08-28T12:30:02Z</time>
      </trkpt>
      <trkpt lat="46.34766" lon="6.75896">
        <ele>1861.03</ele>
        <time>2014-08-28T12:30:07Z</time>
      </trkpt>
      <trkpt lat="46.34765" lon="6.75903">
        <ele>1861.03</ele>
        <time>2014-08-28T12:30:12Z</time>
      </trkpt>
      <trkpt lat="46.34764" lon="6.75908">
        <ele>1860.2719</ele>
        <time>2014-08-28T12:30:17Z</time>
      </trkpt>
      <trkpt lat="46.34763" lon="6.75911">
        <ele>1860.2719</ele>
        <time>2014-08-28T12:30:22Z</time>
      </trkpt>
      <trkpt lat="46.34762" lon="6.75911">
        <ele>1860.2719</ele>
        <time>2014-08-28T12:30:27Z</time>
      </trkpt>
      <trkpt lat="46.34761" lon="6.75912">
        <ele>1860.2719</ele>
        <time>2014-08-28T12:30:32Z</time>
      </trkpt>
      <trkpt lat="46.34761" lon="6.75913">
        <ele>1860.2719</ele>
        <time>2014-08-28T12:30:37Z</time>
      </trkpt>
      <trkpt lat="46.3476" lon="6.75914">
        <ele>1860.2719</ele>
        <time>2014-08-28T12:30:42Z</time>
      </trkpt>
      <trkpt lat="46.34753" lon="6.7592">
        <ele>1859.5632</ele>
        <time>2014-08-28T12:30:47Z</time>
      </trkpt>
      <trkpt lat="46.3475" lon="6.75924">
        <ele>1859.5632</ele>
        <time>2014-08-28T12:30:52Z</time>
      </trkpt>
      <trkpt lat="46.34747" lon="6.75926">
        <ele>1859.5632</ele>
        <time>2014-08-28T12:30:57Z</time>
      </trkpt>
      <trkpt lat="46.34746" lon="6.75927">
        <ele>1859.0599</ele>
        <time>2014-08-28T12:31:02Z</time>
      </trkpt>
      <trkpt lat="46.34741" lon="6.75934">
        <ele>1859.0599</ele>
        <time>2014-08-28T12:31:07Z</time>
      </trkpt>
      <trkpt lat="46.34738" lon="6.75941">
        <ele>1858.6749</ele>
        <time>2014-08-28T12:31:12Z</time>
      </trkpt>
      <trkpt lat="46.34737" lon="6.75942">
        <ele>1858.6749</ele>
        <time>2014-08-28T12:31:17Z</time>
      </trkpt>
      <trkpt lat="46.34736" lon="6.75943">
        <ele>1858.6749</ele>
        <time>2014-08-28T12:31:22Z</time>
      </trkpt>
      <trkpt lat="46.34734" lon="6.75943">
        <ele>1858.6749</ele>
        <time>2014-08-28T12:31:27Z</time>
      </trkpt>
      <trkpt lat="46.34734" lon="6.75943">
        <ele>1858.6749</ele>
        <time>2014-08-28T12:31:32Z</time>
      </trkpt>
      <trkpt lat="46.34732" lon="6.75946">
        <ele>1858.6749</ele>
        <time>2014-08-28T12:31:37Z</time>
      </trkpt>
      <trkpt lat="46.34732" lon="6.75945">
        <ele>1858.6749</ele>
        <time>2014-08-28T12:31:42Z</time>
      </trkpt>
      <trkpt lat="46.34731" lon="6.75944">
        <ele>1858.6749</ele>
        <time>2014-08-28T12:31:47Z</time>
      </trkpt>
      <trkpt lat="46.3473" lon="6.75946">
        <ele>1858.4143</ele>
        <time>2014-08-28T12:31:52Z</time>
      </trkpt>
      <trkpt lat="46.34731" lon="6.75949">
        <ele>1858.4143</ele>
        <time>2014-08-28T12:31:57Z</time>
      </trkpt>
      <trkpt lat="46.34731" lon="6.75952">
        <ele>1858.4143</ele>
        <time>2014-08-28T12:32:02Z</time>
      </trkpt>
      <trkpt lat="46.34732" lon="6.75955">
        <ele>1858.4143</ele>
        <time>2014-08-28T12:32:07Z</time>
      </trkpt>
      <trkpt lat="46.34733" lon="6.75954">
        <ele>1858.4143</ele>
        <time>2014-08-28T12:32:12Z</time>
      </trkpt>
      <trkpt lat="46.34729" lon="6.75954">
        <ele>1858.341</ele>
        <time>2014-08-28T12:32:17Z</time>
      </trkpt>
      <trkpt lat="46.34729" lon="6.75954">
        <ele>1858.341</ele>
        <time>2014-08-28T12:32:22Z</time>
      </trkpt>
      <trkpt lat="46.34728" lon="6.75955">
        <ele>1858.341</ele>
        <time>2014-08-28T12:32:27Z</time>
      </trkpt>
      <trkpt lat="46.34723" lon="6.75958">
        <ele>1858.341</ele>
        <time>2014-08-28T12:32:32Z</time>
      </trkpt>
      <trkpt lat="46.34719" lon="6.75962">
        <ele>1858.2532</ele>
        <time>2014-08-28T12:32:37Z</time>
      </trkpt>
      <trkpt lat="46.34718" lon="6.75962">
        <ele>1858.2532</ele>
        <time>2014-08-28T12:32:42Z</time>
      </trkpt>
      <trkpt lat="46.34717" lon="6.75963">
        <ele>1858.2532</ele>
        <time>2014-08-28T12:32:47Z</time>
      </trkpt>
      <trkpt lat="46.34715" lon="6.75963">
        <ele>1858.2532</ele>
        <time>2014-08-28T12:32:52Z</time>
      </trkpt>
      <trkpt lat="46.34715" lon="6.75961">
        <ele>1858.2532</ele>
        <time>2014-08-28T12:32:57Z</time>
      </trkpt>
      <trkpt lat="46.34715" lon="6.75961">
        <ele>1858.2532</ele>
        <time>2014-08-28T12:33:02Z</time>
      </trkpt>
      <trkpt lat="46.34716" lon="6.75963">
        <ele>1858.2532</ele>
        <time>2014-08-28T12:33:07Z</time>
      </trkpt>
      <trkpt lat="46.34715" lon="6.75963">
        <ele>1858.2532</ele>
        <time>2014-08-28T12:33:12Z</time>
      </trkpt>
      <trkpt lat="46.34715" lon="6.75966">
        <ele>1858.267</ele>
        <time>2014-08-28T12:33:17Z</time>
      </trkpt>
      <trkpt lat="46.34715" lon="6.75967">
        <ele>1858.267</ele>
        <time>2014-08-28T12:33:22Z</time>
      </trkpt>
      <trkpt lat="46.34716" lon="6.75966">
        <ele>1858.267</ele>
        <time>2014-08-28T12:33:27Z</time>
      </trkpt>
      <trkpt lat="46.34718" lon="6.75964">
        <ele>1858.267</ele>
        <time>2014-08-28T12:33:32Z</time>
      </trkpt>
      <trkpt lat="46.34718" lon="6.75964">
        <ele>1858.267</ele>
        <time>2014-08-28T12:33:37Z</time>
      </trkpt>
      <trkpt lat="46.34718" lon="6.75966">
        <ele>1858.267</ele>
        <time>2014-08-28T12:33:42Z</time>
      </trkpt>
      <trkpt lat="46.34718" lon="6.75966">
        <ele>1858.267</ele>
        <time>2014-08-28T12:33:47Z</time>
      </trkpt>
      <trkpt lat="46.34715" lon="6.75965">
        <ele>1858.1007</ele>
        <time>2014-08-28T12:34:02Z</time>
      </trkpt>
      <trkpt lat="46.34713" lon="6.75967">
        <ele>1858.1007</ele>
        <time>2014-08-28T12:34:07Z</time>
      </trkpt>
      <trkpt lat="46.34711" lon="6.75968">
        <ele>1858.1007</ele>
        <time>2014-08-28T12:34:12Z</time>
      </trkpt>
      <trkpt lat="46.34709" lon="6.75969">
        <ele>1858.1007</ele>
        <time>2014-08-28T12:34:17Z</time>
      </trkpt>
      <trkpt lat="46.34707" lon="6.7597">
        <ele>1858.1007</ele>
        <time>2014-08-28T12:34:22Z</time>
      </trkpt>
      <trkpt lat="46.34705" lon="6.7597">
        <ele>1858.4595</ele>
        <time>2014-08-28T12:34:27Z</time>
      </trkpt>
      <trkpt lat="46.34702" lon="6.75973">
        <ele>1858.4595</ele>
        <time>2014-08-28T12:34:32Z</time>
      </trkpt>
      <trkpt lat="46.34699" lon="6.75974">
        <ele>1858.4595</ele>
        <time>2014-08-28T12:34:37Z</time>
      </trkpt>
      <trkpt lat="46.34695" lon="6.75976">
        <ele>1858.8566</ele>
        <time>2014-08-28T12:34:42Z</time>
      </trkpt>
      <trkpt lat="46.34692" lon="6.75977">
        <ele>1858.8566</ele>
        <time>2014-08-28T12:34:47Z</time>
      </trkpt>
      <trkpt lat="46.34689" lon="6.75977">
        <ele>1858.8566</ele>
        <time>2014-08-28T12:34:52Z</time>
      </trkpt>
      <trkpt lat="46.34688" lon="6.75976">
        <ele>1858.8566</ele>
        <time>2014-08-28T12:34:57Z</time>
      </trkpt>
      <trkpt lat="46.34687" lon="6.75975">
        <ele>1858.8566</ele>
        <time>2014-08-28T12:35:02Z</time>
      </trkpt>
      <trkpt lat="46.34686" lon="6.75975">
        <ele>1858.8566</ele>
        <time>2014-08-28T12:35:07Z</time>
      </trkpt>
      <trkpt lat="46.34686" lon="6.75976">
        <ele>1859.605</ele>
        <time>2014-08-28T12:35:12Z</time>
      </trkpt>
      <trkpt lat="46.34686" lon="6.75976">
        <ele>1859.605</ele>
        <time>2014-08-28T12:35:17Z</time>
      </trkpt>
      <trkpt lat="46.34686" lon="6.75974">
        <ele>1859.605</ele>
        <time>2014-08-28T12:35:22Z</time>
      </trkpt>
      <trkpt lat="46.34686" lon="6.75972">
        <ele>1859.605</ele>
        <time>2014-08-28T12:35:27Z</time>
      </trkpt>
      <trkpt lat="46.34685" lon="6.75968">
        <ele>1859.605</ele>
        <time>2014-08-28T12:35:32Z</time>
      </trkpt>
      <trkpt lat="46.34684" lon="6.75964">
        <ele>1859.605</ele>
        <time>2014-08-28T12:35:37Z</time>
      </trkpt>
      <trkpt lat="46.34683" lon="6.75961">
        <ele>1860.2876</ele>
        <time>2014-08-28T12:35:42Z</time>
      </trkpt>
      <trkpt lat="46.34683" lon="6.75961">
        <ele>1860.2876</ele>
        <time>2014-08-28T12:35:47Z</time>
      </trkpt>
      <trkpt lat="46.34682" lon="6.75961">
        <ele>1860.2876</ele>
        <time>2014-08-28T12:35:52Z</time>
      </trkpt>
      <trkpt lat="46.34682" lon="6.75962">
        <ele>1860.2876</ele>
        <time>2014-08-28T12:35:57Z</time>
      </trkpt>
      <trkpt lat="46.34683" lon="6.75964">
        <ele>1860.2876</ele>
        <time>2014-08-28T12:36:02Z</time>
      </trkpt>
      <trkpt lat="46.34682" lon="6.75964">
        <ele>1860.2876</ele>
        <time>2014-08-28T12:36:07Z</time>
      </trkpt>
      <trkpt lat="46.34678" lon="6.75966">
        <ele>1860.2876</ele>
        <time>2014-08-28T12:36:12Z</time>
      </trkpt>
      <trkpt lat="46.34673" lon="6.75966">
        <ele>1861.3829</ele>
        <time>2014-08-28T12:36:17Z</time>
      </trkpt>
      <trkpt lat="46.34672" lon="6.75967">
        <ele>1861.3829</ele>
        <time>2014-08-28T12:36:22Z</time>
      </trkpt>
      <trkpt lat="46.34672" lon="6.75968">
        <ele>1861.3829</ele>
        <time>2014-08-28T12:36:27Z</time>
      </trkpt>
      <trkpt lat="46.34672" lon="6.75969">
        <ele>1861.3829</ele>
        <time>2014-08-28T12:36:32Z</time>
      </trkpt>
      <trkpt lat="46.34672" lon="6.75971">
        <ele>1861.3829</ele>
        <time>2014-08-28T12:36:37Z</time>
      </trkpt>
      <trkpt lat="46.34671" lon="6.7597">
        <ele>1861.3829</ele>
        <time>2014-08-28T12:36:42Z</time>
      </trkpt>
      <trkpt lat="46.3467" lon="6.75969">
        <ele>1861.3829</ele>
        <time>2014-08-28T12:36:47Z</time>
      </trkpt>
      <trkpt lat="46.34668" lon="6.7597">
        <ele>1861.3829</ele>
        <time>2014-08-28T12:36:52Z</time>
      </trkpt>
      <trkpt lat="46.34668" lon="6.7597">
        <ele>1861.3829</ele>
        <time>2014-08-28T12:36:57Z</time>
      </trkpt>
      <trkpt lat="46.34666" lon="6.75968">
        <ele>1862.8289</ele>
        <time>2014-08-28T12:37:02Z</time>
      </trkpt>
      <trkpt lat="46.34666" lon="6.75967">
        <ele>1862.8289</ele>
        <time>2014-08-28T12:37:07Z</time>
      </trkpt>
      <trkpt lat="46.34665" lon="6.75967">
        <ele>1862.8289</ele>
        <time>2014-08-28T12:37:12Z</time>
      </trkpt>
      <trkpt lat="46.34663" lon="6.75968">
        <ele>1862.8289</ele>
        <time>2014-08-28T12:37:17Z</time>
      </trkpt>
      <trkpt lat="46.34661" lon="6.75969">
        <ele>1862.8289</ele>
        <time>2014-08-28T12:37:22Z</time>
      </trkpt>
      <trkpt lat="46.34657" lon="6.75969">
        <ele>1864.4371</ele>
        <time>2014-08-28T12:37:27Z</time>
      </trkpt>
      <trkpt lat="46.34654" lon="6.7597">
        <ele>1864.4371</ele>
        <time>2014-08-28T12:37:32Z</time>
      </trkpt>
      <trkpt lat="46.34654" lon="6.7597">
        <ele>1864.4371</ele>
        <time>2014-08-28T12:37:37Z</time>
      </trkpt>
      <trkpt lat="46.34654" lon="6.7597">
        <ele>1864.4371</ele>
        <time>2014-08-28T12:37:42Z</time>
      </trkpt>
      <trkpt lat="46.34653" lon="6.75969">
        <ele>1864.4371</ele>
        <time>2014-08-28T12:38:07Z</time>
      </trkpt>
      <trkpt lat="46.34652" lon="6.7597">
        <ele>1864.4371</ele>
        <time>2014-08-28T12:38:12Z</time>
      </trkpt>
      <trkpt lat="46.34651" lon="6.75969">
        <ele>1864.4371</ele>
        <time>2014-08-28T12:38:22Z</time>
      </trkpt>
      <trkpt lat="46.34649" lon="6.75969">
        <ele>1864.4371</ele>
        <time>2014-08-28T12:38:27Z</time>
      </trkpt>
      <trkpt lat="46.34649" lon="6.75969">
        <ele>1864.4371</ele>
        <time>2014-08-28T12:38:32Z</time>
      </trkpt>
      <trkpt lat="46.34649" lon="6.7597">
        <ele>1864.4371</ele>
        <time>2014-08-28T12:38:37Z</time>
      </trkpt>
      <trkpt lat="46.34644" lon="6.75969">
        <ele>1866.8113</ele>
        <time>2014-08-28T12:38:42Z</time>
      </trkpt>
      <trkpt lat="46.34639" lon="6.75971">
        <ele>1866.8113</ele>
        <time>2014-08-28T12:38:47Z</time>
      </trkpt>
      <trkpt lat="46.34636" lon="6.75974">
        <ele>1866.8113</ele>
        <time>2014-08-28T12:38:52Z</time>
      </trkpt>
      <trkpt lat="46.34635" lon="6.75975">
        <ele>1869.3124</ele>
        <time>2014-08-28T12:38:57Z</time>
      </trkpt>
      <trkpt lat="46.34634" lon="6.75976">
        <ele>1869.3124</ele>
        <time>2014-08-28T12:39:02Z</time>
      </trkpt>
      <trkpt lat="46.34631" lon="6.75978">
        <ele>1869.3124</ele>
        <time>2014-08-28T12:39:07Z</time>
      </trkpt>
      <trkpt lat="46.34631" lon="6.75978">
        <ele>1869.3124</ele>
        <time>2014-08-28T12:39:12Z</time>
      </trkpt>
      <trkpt lat="46.34631" lon="6.75979">
        <ele>1869.3124</ele>
        <time>2014-08-28T12:39:17Z</time>
      </trkpt>
      <trkpt lat="46.34631" lon="6.75978">
        <ele>1869.3124</ele>
        <time>2014-08-28T12:39:22Z</time>
      </trkpt>
      <trkpt lat="46.34631" lon="6.75978">
        <ele>1869.3124</ele>
        <time>2014-08-28T12:39:27Z</time>
      </trkpt>
      <trkpt lat="46.34629" lon="6.75979">
        <ele>1869.3124</ele>
        <time>2014-08-28T12:39:32Z</time>
      </trkpt>
      <trkpt lat="46.34626" lon="6.75979">
        <ele>1871.593</ele>
        <time>2014-08-28T12:39:37Z</time>
      </trkpt>
      <trkpt lat="46.34624" lon="6.7598">
        <ele>1871.593</ele>
        <time>2014-08-28T12:39:42Z</time>
      </trkpt>
      <trkpt lat="46.34623" lon="6.7598">
        <ele>1871.593</ele>
        <time>2014-08-28T12:39:47Z</time>
      </trkpt>
      <trkpt lat="46.34623" lon="6.7598">
        <ele>1871.593</ele>
        <time>2014-08-28T12:39:52Z</time>
      </trkpt>
      <trkpt lat="46.3462" lon="6.7598">
        <ele>1871.593</ele>
        <time>2014-08-28T12:40:27Z</time>
      </trkpt>
      <trkpt lat="46.34612" lon="6.75987">
        <ele>1874.7732</ele>
        <time>2014-08-28T12:40:32Z</time>
      </trkpt>
      <trkpt lat="46.34607" lon="6.75988">
        <ele>1874.7732</ele>
        <time>2014-08-28T12:40:37Z</time>
      </trkpt>
      <trkpt lat="46.34604" lon="6.75991">
        <ele>1874.7732</ele>
        <time>2014-08-28T12:40:42Z</time>
      </trkpt>
      <trkpt lat="46.34599" lon="6.75993">
        <ele>1877.9141</ele>
        <time>2014-08-28T12:40:47Z</time>
      </trkpt>
      <trkpt lat="46.34595" lon="6.75995">
        <ele>1877.9141</ele>
        <time>2014-08-28T12:40:52Z</time>
      </trkpt>
      <trkpt lat="46.34593" lon="6.75998">
        <ele>1877.9141</ele>
        <time>2014-08-28T12:40:57Z</time>
      </trkpt>
      <trkpt lat="46.34593" lon="6.75998">
        <ele>1877.9141</ele>
        <time>2014-08-28T12:41:02Z</time>
      </trkpt>
      <trkpt lat="46.34592" lon="6.75999">
        <ele>1877.9141</ele>
        <time>2014-08-28T12:41:07Z</time>
      </trkpt>
      <trkpt lat="46.34592" lon="6.76">
        <ele>1877.9141</ele>
        <time>2014-08-28T12:41:12Z</time>
      </trkpt>
      <trkpt lat="46.3459" lon="6.76003">
        <ele>1881.2123</ele>
        <time>2014-08-28T12:41:17Z</time>
      </trkpt>
      <trkpt lat="46.34589" lon="6.76005">
        <ele>1881.2123</ele>
        <time>2014-08-28T12:41:22Z</time>
      </trkpt>
      <trkpt lat="46.34587" lon="6.76007">
        <ele>1881.2123</ele>
        <time>2014-08-28T12:41:27Z</time>
      </trkpt>
      <trkpt lat="46.34587" lon="6.76008">
        <ele>1881.2123</ele>
        <time>2014-08-28T12:41:32Z</time>
      </trkpt>
      <trkpt lat="46.34584" lon="6.7601">
        <ele>1881.2123</ele>
        <time>2014-08-28T12:41:37Z</time>
      </trkpt>
      <trkpt lat="46.34582" lon="6.76013">
        <ele>1884.4895</ele>
        <time>2014-08-28T12:41:42Z</time>
      </trkpt>
      <trkpt lat="46.3458" lon="6.76017">
        <ele>1884.4895</ele>
        <time>2014-08-28T12:41:47Z</time>
      </trkpt>
      <trkpt lat="46.34578" lon="6.7602">
        <ele>1884.4895</ele>
        <time>2014-08-28T12:41:52Z</time>
      </trkpt>
      <trkpt lat="46.34576" lon="6.76022">
        <ele>1884.4895</ele>
        <time>2014-08-28T12:41:57Z</time>
      </trkpt>
      <trkpt lat="46.34575" lon="6.76021">
        <ele>1887.7104</ele>
        <time>2014-08-28T12:42:02Z</time>
      </trkpt>
      <trkpt lat="46.34573" lon="6.76024">
        <ele>1887.7104</ele>
        <time>2014-08-28T12:42:07Z</time>
      </trkpt>
      <trkpt lat="46.34573" lon="6.76025">
        <ele>1887.7104</ele>
        <time>2014-08-28T12:42:12Z</time>
      </trkpt>
      <trkpt lat="46.34572" lon="6.76026">
        <ele>1887.7104</ele>
        <time>2014-08-28T12:42:17Z</time>
      </trkpt>
      <trkpt lat="46.3457" lon="6.76027">
        <ele>1887.7104</ele>
        <time>2014-08-28T12:42:22Z</time>
      </trkpt>
      <trkpt lat="46.34568" lon="6.76027">
        <ele>1890.6986</ele>
        <time>2014-08-28T12:42:27Z</time>
      </trkpt>
      <trkpt lat="46.34565" lon="6.76026">
        <ele>1890.6986</ele>
        <time>2014-08-28T12:42:32Z</time>
      </trkpt>
      <trkpt lat="46.34563" lon="6.76027">
        <ele>1890.6986</ele>
        <time>2014-08-28T12:42:37Z</time>
      </trkpt>
      <trkpt lat="46.34565" lon="6.76026">
        <ele>1890.6986</ele>
        <time>2014-08-28T12:42:42Z</time>
      </trkpt>
      <trkpt lat="46.34565" lon="6.76025">
        <ele>1890.6986</ele>
        <time>2014-08-28T12:42:47Z</time>
      </trkpt>
      <trkpt lat="46.34565" lon="6.76024">
        <ele>1890.6986</ele>
        <time>2014-08-28T12:42:52Z</time>
      </trkpt>
      <trkpt lat="46.34565" lon="6.76023">
        <ele>1893.8535</ele>
        <time>2014-08-28T12:42:57Z</time>
      </trkpt>
      <trkpt lat="46.34566" lon="6.76021">
        <ele>1893.8535</ele>
        <time>2014-08-28T12:43:02Z</time>
      </trkpt>
      <trkpt lat="46.34566" lon="6.7602">
        <ele>1893.8535</ele>
        <time>2014-08-28T12:43:08Z</time>
      </trkpt>
      <trkpt lat="46.34566" lon="6.76018">
        <ele>1893.8535</ele>
        <time>2014-08-28T12:43:12Z</time>
      </trkpt>
      <trkpt lat="46.34565" lon="6.76018">
        <ele>1893.8535</ele>
        <time>2014-08-28T12:43:17Z</time>
      </trkpt>
      <trkpt lat="46.34564" lon="6.76019">
        <ele>1893.8535</ele>
        <time>2014-08-28T12:43:22Z</time>
      </trkpt>
      <trkpt lat="46.34562" lon="6.76021">
        <ele>1893.8535</ele>
        <time>2014-08-28T12:43:27Z</time>
      </trkpt>
      <trkpt lat="46.34562" lon="6.76024">
        <ele>1896.8387</ele>
        <time>2014-08-28T12:43:32Z</time>
      </trkpt>
      <trkpt lat="46.3456" lon="6.76027">
        <ele>1896.8387</ele>
        <time>2014-08-28T12:43:37Z</time>
      </trkpt>
      <trkpt lat="46.34561" lon="6.76029">
        <ele>1896.8387</ele>
        <time>2014-08-28T12:43:42Z</time>
      </trkpt>
      <trkpt lat="46.34561" lon="6.7603">
        <ele>1896.8387</ele>
        <time>2014-08-28T12:43:47Z</time>
      </trkpt>
      <trkpt lat="46.34561" lon="6.7603">
        <ele>1896.8387</ele>
        <time>2014-08-28T12:43:52Z</time>
      </trkpt>
      <trkpt lat="46.34561" lon="6.7603">
        <ele>1896.8387</ele>
        <time>2014-08-28T12:43:57Z</time>
      </trkpt>
      <trkpt lat="46.34561" lon="6.7603">
        <ele>1896.8387</ele>
        <time>2014-08-28T12:44:02Z</time>
      </trkpt>
      <trkpt lat="46.34562" lon="6.7603">
        <ele>1896.8387</ele>
        <time>2014-08-28T12:44:07Z</time>
      </trkpt>
      <trkpt lat="46.34563" lon="6.76034">
        <ele>1899.8042</ele>
        <time>2014-08-28T12:44:12Z</time>
      </trkpt>
      <trkpt lat="46.34565" lon="6.76036">
        <ele>1899.8042</ele>
        <time>2014-08-28T12:44:17Z</time>
      </trkpt>
      <trkpt lat="46.34563" lon="6.76039">
        <ele>1899.8042</ele>
        <time>2014-08-28T12:44:22Z</time>
      </trkpt>
      <trkpt lat="46.34563" lon="6.76042">
        <ele>1899.8042</ele>
        <time>2014-08-28T12:44:27Z</time>
      </trkpt>
      <trkpt lat="46.34562" lon="6.76043">
        <ele>1899.8042</ele>
        <time>2014-08-28T12:44:32Z</time>
      </trkpt>
      <trkpt lat="46.34562" lon="6.76044">
        <ele>1899.8042</ele>
        <time>2014-08-28T12:44:37Z</time>
      </trkpt>
      <trkpt lat="46.34561" lon="6.76045">
        <ele>1903.0337</ele>
        <time>2014-08-28T12:44:42Z</time>
      </trkpt>
      <trkpt lat="46.34561" lon="6.76046">
        <ele>1903.0337</ele>
        <time>2014-08-28T12:44:47Z</time>
      </trkpt>
      <trkpt lat="46.34559" lon="6.76049">
        <ele>1903.0337</ele>
        <time>2014-08-28T12:44:52Z</time>
      </trkpt>
      <trkpt lat="46.34558" lon="6.76049">
        <ele>1903.0337</ele>
        <time>2014-08-28T12:44:57Z</time>
      </trkpt>
      <trkpt lat="46.34558" lon="6.76049">
        <ele>1903.0337</ele>
        <time>2014-08-28T12:45:02Z</time>
      </trkpt>
      <trkpt lat="46.34559" lon="6.76047">
        <ele>1903.0337</ele>
        <time>2014-08-28T12:45:07Z</time>
      </trkpt>
      <trkpt lat="46.3456" lon="6.76046">
        <ele>1903.0337</ele>
        <time>2014-08-28T12:45:12Z</time>
      </trkpt>
      <trkpt lat="46.34561" lon="6.76045">
        <ele>1903.0337</ele>
        <time>2014-08-28T12:45:17Z</time>
      </trkpt>
      <trkpt lat="46.34561" lon="6.76045">
        <ele>1903.0337</ele>
        <time>2014-08-28T12:45:22Z</time>
      </trkpt>
      <trkpt lat="46.34561" lon="6.76044">
        <ele>1903.0337</ele>
        <time>2014-08-28T12:45:27Z</time>
      </trkpt>
      <trkpt lat="46.3456" lon="6.76044">
        <ele>1906.5875</ele>
        <time>2014-08-28T12:45:32Z</time>
      </trkpt>
      <trkpt lat="46.34559" lon="6.76046">
        <ele>1906.5875</ele>
        <time>2014-08-28T12:45:37Z</time>
      </trkpt>
      <trkpt lat="46.34558" lon="6.76046">
        <ele>1906.5875</ele>
        <time>2014-08-28T12:45:42Z</time>
      </trkpt>
      <trkpt lat="46.34558" lon="6.76047">
        <ele>1906.5875</ele>
        <time>2014-08-28T12:45:47Z</time>
      </trkpt>
      <trkpt lat="46.34558" lon="6.76048">
        <ele>1906.5875</ele>
        <time>2014-08-28T12:45:52Z</time>
      </trkpt>
      <trkpt lat="46.34557" lon="6.76049">
        <ele>1906.5875</ele>
        <time>2014-08-28T12:45:57Z</time>
      </trkpt>
      <trkpt lat="46.34557" lon="6.76049">
        <ele>1906.5875</ele>
        <time>2014-08-28T12:46:02Z</time>
      </trkpt>
      <trkpt lat="46.34557" lon="6.76049">
        <ele>1906.5875</ele>
        <time>2014-08-28T12:46:07Z</time>
      </trkpt>
      <trkpt lat="46.34557" lon="6.76049">
        <ele>1906.5875</ele>
        <time>2014-08-28T12:46:12Z</time>
      </trkpt>
      <trkpt lat="46.34557" lon="6.76048">
        <ele>1906.5875</ele>
        <time>2014-08-28T12:46:17Z</time>
      </trkpt>
      <trkpt lat="46.34557" lon="6.76049">
        <ele>1906.5875</ele>
        <time>2014-08-28T12:46:22Z</time>
      </trkpt>
      <trkpt lat="46.34557" lon="6.76049">
        <ele>1906.5875</ele>
        <time>2014-08-28T12:46:27Z</time>
      </trkpt>
      <trkpt lat="46.34557" lon="6.76048">
        <ele>1906.5875</ele>
        <time>2014-08-28T12:46:32Z</time>
      </trkpt>
      <trkpt lat="46.34557" lon="6.76048">
        <ele>1906.5875</ele>
        <time>2014-08-28T12:46:37Z</time>
      </trkpt>
      <trkpt lat="46.34557" lon="6.76048">
        <ele>1906.5875</ele>
        <time>2014-08-28T12:46:42Z</time>
      </trkpt>
      <trkpt lat="46.34557" lon="6.76047">
        <ele>1909.9877</ele>
        <time>2014-08-28T12:46:47Z</time>
      </trkpt>
      <trkpt lat="46.34557" lon="6.76047">
        <ele>1909.9877</ele>
        <time>2014-08-28T12:46:52Z</time>
      </trkpt>
      <trkpt lat="46.34558" lon="6.76046">
        <ele>1909.9877</ele>
        <time>2014-08-28T12:46:57Z</time>
      </trkpt>
      <trkpt lat="46.34558" lon="6.76046">
        <ele>1909.9877</ele>
        <time>2014-08-28T12:47:02Z</time>
      </trkpt>
      <trkpt lat="46.34558" lon="6.76046">
        <ele>1909.9877</ele>
        <time>2014-08-28T12:47:07Z</time>
      </trkpt>
      <trkpt lat="46.34557" lon="6.76047">
        <ele>1909.9877</ele>
        <time>2014-08-28T12:47:12Z</time>
      </trkpt>
      <trkpt lat="46.34558" lon="6.76048">
        <ele>1909.9877</ele>
        <time>2014-08-28T12:47:17Z</time>
      </trkpt>
      <trkpt lat="46.34558" lon="6.76048">
        <ele>1909.9877</ele>
        <time>2014-08-28T12:47:22Z</time>
      </trkpt>
      <trkpt lat="46.34559" lon="6.76049">
        <ele>1909.9877</ele>
        <time>2014-08-28T12:47:27Z</time>
      </trkpt>
      <trkpt lat="46.34558" lon="6.76049">
        <ele>1909.9877</ele>
        <time>2014-08-28T12:47:32Z</time>
      </trkpt>
      <trkpt lat="46.34558" lon="6.76048">
        <ele>1909.9877</ele>
        <time>2014-08-28T12:47:37Z</time>
      </trkpt>
      <trkpt lat="46.34558" lon="6.76048">
        <ele>1909.9877</ele>
        <time>2014-08-28T12:47:42Z</time>
      </trkpt>
      <trkpt lat="46.34558" lon="6.76047">
        <ele>1909.9877</ele>
        <time>2014-08-28T12:47:47Z</time>
      </trkpt>
      <trkpt lat="46.34559" lon="6.76048">
        <ele>1909.9877</ele>
        <time>2014-08-28T12:47:52Z</time>
      </trkpt>
      <trkpt lat="46.34559" lon="6.76047">
        <ele>1909.9877</ele>
        <time>2014-08-28T12:47:57Z</time>
      </trkpt>
      <trkpt lat="46.3456" lon="6.76047">
        <ele>1909.9877</ele>
        <time>2014-08-28T12:48:02Z</time>
      </trkpt>
      <trkpt lat="46.34561" lon="6.76047">
        <ele>1909.9877</ele>
        <time>2014-08-28T12:48:07Z</time>
      </trkpt>
      <trkpt lat="46.34562" lon="6.76048">
        <ele>1913.0947</ele>
        <time>2014-08-28T12:48:12Z</time>
      </trkpt>
      <trkpt lat="46.34562" lon="6.76047">
        <ele>1913.0947</ele>
        <time>2014-08-28T12:48:17Z</time>
      </trkpt>
      <trkpt lat="46.34562" lon="6.76047">
        <ele>1913.0947</ele>
        <time>2014-08-28T12:48:22Z</time>
      </trkpt>
      <trkpt lat="46.34562" lon="6.76046">
        <ele>1913.0947</ele>
        <time>2014-08-28T12:48:27Z</time>
      </trkpt>
      <trkpt lat="46.34562" lon="6.76047">
        <ele>1913.0947</ele>
        <time>2014-08-28T12:48:32Z</time>
      </trkpt>
      <trkpt lat="46.34562" lon="6.76047">
        <ele>1913.0947</ele>
        <time>2014-08-28T12:48:37Z</time>
      </trkpt>
      <trkpt lat="46.34562" lon="6.76047">
        <ele>1913.0947</ele>
        <time>2014-08-28T12:48:45Z</time>
      </trkpt>
      <trkpt lat="46.34562" lon="6.76047">
        <ele>1913.0947</ele>
        <time>2014-08-28T12:48:47Z</time>
      </trkpt>
      <trkpt lat="46.34562" lon="6.76047">
        <ele>1913.0947</ele>
        <time>2014-08-28T12:48:52Z</time>
      </trkpt>
      <trkpt lat="46.34563" lon="6.76047">
        <ele>1913.0947</ele>
        <time>2014-08-28T12:48:57Z</time>
      </trkpt>
      <trkpt lat="46.34563" lon="6.76047">
        <ele>1913.0947</ele>
        <time>2014-08-28T12:49:02Z</time>
      </trkpt>
      <trkpt lat="46.34563" lon="6.76047">
        <ele>1913.0947</ele>
        <time>2014-08-28T12:49:07Z</time>
      </trkpt>
      <trkpt lat="46.34563" lon="6.76047">
        <ele>1913.0947</ele>
        <time>2014-08-28T12:49:12Z</time>
      </trkpt>
      <trkpt lat="46.34562" lon="6.76046">
        <ele>1913.0947</ele>
        <time>2014-08-28T12:49:17Z</time>
      </trkpt>
      <trkpt lat="46.34561" lon="6.76045">
        <ele>1913.0947</ele>
        <time>2014-08-28T12:49:22Z</time>
      </trkpt>
      <trkpt lat="46.3456" lon="6.76045">
        <ele>1913.0947</ele>
        <time>2014-08-28T12:49:27Z</time>
      </trkpt>
      <trkpt lat="46.3456" lon="6.76046">
        <ele>1913.0947</ele>
        <time>2014-08-28T12:49:32Z</time>
      </trkpt>
      <trkpt lat="46.3456" lon="6.76048">
        <ele>1913.0947</ele>
        <time>2014-08-28T12:49:37Z</time>
      </trkpt>
      <trkpt lat="46.3456" lon="6.76049">
        <ele>1913.0947</ele>
        <time>2014-08-28T12:49:42Z</time>
      </trkpt>
      <trkpt lat="46.34559" lon="6.7605">
        <ele>1915.8234</ele>
        <time>2014-08-28T12:49:47Z</time>
      </trkpt>
      <trkpt lat="46.34559" lon="6.76049">
        <ele>1915.8234</ele>
        <time>2014-08-28T12:49:52Z</time>
      </trkpt>
      <trkpt lat="46.34558" lon="6.76049">
        <ele>1915.8234</ele>
        <time>2014-08-28T12:49:57Z</time>
      </trkpt>
      <trkpt lat="46.34558" lon="6.76049">
        <ele>1915.8234</ele>
        <time>2014-08-28T12:50:02Z</time>
      </trkpt>
      <trkpt lat="46.34557" lon="6.76049">
        <ele>1915.8234</ele>
        <time>2014-08-28T12:50:07Z</time>
      </trkpt>
      <trkpt lat="46.34557" lon="6.76049">
        <ele>1915.8234</ele>
        <time>2014-08-28T12:50:12Z</time>
      </trkpt>
      <trkpt lat="46.34557" lon="6.76049">
        <ele>1915.8234</ele>
        <time>2014-08-28T12:50:17Z</time>
      </trkpt>
      <trkpt lat="46.34557" lon="6.76049">
        <ele>1915.8234</ele>
        <time>2014-08-28T12:51:22Z</time>
      </trkpt>
      <trkpt lat="46.34557" lon="6.76049">
        <ele>1915.8234</ele>
        <time>2014-08-28T12:51:27Z</time>
      </trkpt>
      <trkpt lat="46.34557" lon="6.76049">
        <ele>1915.8234</ele>
        <time>2014-08-28T12:51:32Z</time>
      </trkpt>
      <trkpt lat="46.34557" lon="6.76049">
        <ele>1915.8234</ele>
        <time>2014-08-28T12:51:37Z</time>
      </trkpt>
      <trkpt lat="46.34557" lon="6.76049">
        <ele>1915.8234</ele>
        <time>2014-08-28T12:51:42Z</time>
      </trkpt>
      <trkpt lat="46.34557" lon="6.76049">
        <ele>1915.8234</ele>
        <time>2014-08-28T12:51:47Z</time>
      </trkpt>
      <trkpt lat="46.34557" lon="6.76049">
        <ele>1915.8234</ele>
        <time>2014-08-28T12:51:52Z</time>
      </trkpt>
      <trkpt lat="46.34557" lon="6.76049">
        <ele>1915.8234</ele>
        <time>2014-08-28T12:51:57Z</time>
      </trkpt>
      <trkpt lat="46.34556" lon="6.76049">
        <ele>1915.8234</ele>
        <time>2014-08-28T12:52:02Z</time>
      </trkpt>
      <trkpt lat="46.34556" lon="6.76048">
        <ele>1915.8234</ele>
        <time>2014-08-28T12:52:07Z</time>
      </trkpt>
      <trkpt lat="46.34556" lon="6.76047">
        <ele>1915.8234</ele>
        <time>2014-08-28T12:52:12Z</time>
      </trkpt>
      <trkpt lat="46.34556" lon="6.76047">
        <ele>1915.8234</ele>
        <time>2014-08-28T12:52:17Z</time>
      </trkpt>
      <trkpt lat="46.34556" lon="6.76047">
        <ele>1915.8234</ele>
        <time>2014-08-28T12:52:22Z</time>
      </trkpt>
      <trkpt lat="46.34556" lon="6.76046">
        <ele>1915.8234</ele>
        <time>2014-08-28T12:52:27Z</time>
      </trkpt>
      <trkpt lat="46.34556" lon="6.76046">
        <ele>1915.8234</ele>
        <time>2014-08-28T12:52:32Z</time>
      </trkpt>
      <trkpt lat="46.34555" lon="6.76046">
        <ele>1915.8234</ele>
        <time>2014-08-28T12:52:37Z</time>
      </trkpt>
      <trkpt lat="46.34555" lon="6.76046">
        <ele>1915.8234</ele>
        <time>2014-08-28T12:52:42Z</time>
      </trkpt>
      <trkpt lat="46.34554" lon="6.76045">
        <ele>1915.8234</ele>
        <time>2014-08-28T12:52:47Z</time>
      </trkpt>
      <trkpt lat="46.34553" lon="6.76045">
        <ele>1918.5432</ele>
        <time>2014-08-28T12:52:52Z</time>
      </trkpt>
      <trkpt lat="46.34552" lon="6.76045">
        <ele>1918.5432</ele>
        <time>2014-08-28T12:52:57Z</time>
      </trkpt>
      <trkpt lat="46.34552" lon="6.76045">
        <ele>1918.5432</ele>
        <time>2014-08-28T12:53:02Z</time>
      </trkpt>
      <trkpt lat="46.34552" lon="6.76045">
        <ele>1918.5432</ele>
        <time>2014-08-28T12:53:07Z</time>
      </trkpt>
      <trkpt lat="46.34552" lon="6.76046">
        <ele>1918.5432</ele>
        <time>2014-08-28T12:53:12Z</time>
      </trkpt>
      <trkpt lat="46.34553" lon="6.76048">
        <ele>1918.5432</ele>
        <time>2014-08-28T12:53:17Z</time>
      </trkpt>
      <trkpt lat="46.34553" lon="6.76048">
        <ele>1918.5432</ele>
        <time>2014-08-28T12:53:22Z</time>
      </trkpt>
      <trkpt lat="46.34553" lon="6.76049">
        <ele>1918.5432</ele>
        <time>2014-08-28T12:53:27Z</time>
      </trkpt>
      <trkpt lat="46.34554" lon="6.76049">
        <ele>1918.5432</ele>
        <time>2014-08-28T12:53:32Z</time>
      </trkpt>
      <trkpt lat="46.34554" lon="6.76049">
        <ele>1918.5432</ele>
        <time>2014-08-28T12:53:37Z</time>
      </trkpt>
      <trkpt lat="46.34554" lon="6.76049">
        <ele>1918.5432</ele>
        <time>2014-08-28T12:53:42Z</time>
      </trkpt>
      <trkpt lat="46.34554" lon="6.76048">
        <ele>1918.5432</ele>
        <time>2014-08-28T12:53:47Z</time>
      </trkpt>
      <trkpt lat="46.34554" lon="6.76048">
        <ele>1918.5432</ele>
        <time>2014-08-28T12:53:52Z</time>
      </trkpt>
      <trkpt lat="46.34555" lon="6.76049">
        <ele>1918.5432</ele>
        <time>2014-08-28T12:53:57Z</time>
      </trkpt>
      <trkpt lat="46.34555" lon="6.76049">
        <ele>1918.5432</ele>
        <time>2014-08-28T12:54:02Z</time>
      </trkpt>
      <trkpt lat="46.34556" lon="6.7605">
        <ele>1918.5432</ele>
        <time>2014-08-28T12:54:07Z</time>
      </trkpt>
      <trkpt lat="46.34556" lon="6.76049">
        <ele>1918.5432</ele>
        <time>2014-08-28T12:54:12Z</time>
      </trkpt>
      <trkpt lat="46.34557" lon="6.76049">
        <ele>1921.0487</ele>
        <time>2014-08-28T12:54:17Z</time>
      </trkpt>
      <trkpt lat="46.34559" lon="6.7605">
        <ele>1921.0487</ele>
        <time>2014-08-28T12:54:22Z</time>
      </trkpt>
      <trkpt lat="46.34559" lon="6.76051">
        <ele>1921.0487</ele>
        <time>2014-08-28T12:54:27Z</time>
      </trkpt>
      <trkpt lat="46.34559" lon="6.76051">
        <ele>1921.0487</ele>
        <time>2014-08-28T12:54:32Z</time>
      </trkpt>
      <trkpt lat="46.34559" lon="6.76053">
        <ele>1921.0487</ele>
        <time>2014-08-28T12:54:37Z</time>
      </trkpt>
      <trkpt lat="46.34559" lon="6.76053">
        <ele>1921.0487</ele>
        <time>2014-08-28T12:54:42Z</time>
      </trkpt>
      <trkpt lat="46.34558" lon="6.76052">
        <ele>1921.0487</ele>
        <time>2014-08-28T12:54:47Z</time>
      </trkpt>
      <trkpt lat="46.34557" lon="6.7605">
        <ele>1921.0487</ele>
        <time>2014-08-28T12:54:52Z</time>
      </trkpt>
      <trkpt lat="46.34557" lon="6.76049">
        <ele>1921.0487</ele>
        <time>2014-08-28T12:54:57Z</time>
      </trkpt>
      <trkpt lat="46.34557" lon="6.76047">
        <ele>1923.2947</ele>
        <time>2014-08-28T12:55:02Z</time>
      </trkpt>
      <trkpt lat="46.34559" lon="6.76047">
        <ele>1923.2947</ele>
        <time>2014-08-28T12:55:07Z</time>
      </trkpt>
      <trkpt lat="46.3456" lon="6.76046">
        <ele>1923.2947</ele>
        <time>2014-08-28T12:55:12Z</time>
      </trkpt>
      <trkpt lat="46.34562" lon="6.76046">
        <ele>1923.2947</ele>
        <time>2014-08-28T12:55:17Z</time>
      </trkpt>
      <trkpt lat="46.34555" lon="6.76049">
        <ele>1926.5516</ele>
        <time>2014-08-28T13:13:39Z</time>
      </trkpt>
      <trkpt lat="46.34558" lon="6.76049">
        <ele>1926.5516</ele>
        <time>2014-08-28T13:13:44Z</time>
      </trkpt>
      <trkpt lat="46.34559" lon="6.76049">
        <ele>1926.5516</ele>
        <time>2014-08-28T13:13:49Z</time>
      </trkpt>
      <trkpt lat="46.34559" lon="6.76049">
        <ele>1926.5516</ele>
        <time>2014-08-28T13:13:54Z</time>
      </trkpt>
      <trkpt lat="46.34561" lon="6.76048">
        <ele>1926.5516</ele>
        <time>2014-08-28T13:14:04Z</time>
      </trkpt>
      <trkpt lat="46.34561" lon="6.76048">
        <ele>1926.5516</ele>
        <time>2014-08-28T13:14:09Z</time>
      </trkpt>
      <trkpt lat="46.34558" lon="6.7604">
        <ele>1929.2847</ele>
        <time>2014-08-28T13:14:14Z</time>
      </trkpt>
      <trkpt lat="46.34558" lon="6.7604">
        <ele>1929.2847</ele>
        <time>2014-08-28T13:14:19Z</time>
      </trkpt>
      <trkpt lat="46.34558" lon="6.76038">
        <ele>1929.2847</ele>
        <time>2014-08-28T13:14:39Z</time>
      </trkpt>
      <trkpt lat="46.34553" lon="6.76036">
        <ele>1929.2847</ele>
        <time>2014-08-28T13:14:44Z</time>
      </trkpt>
      <trkpt lat="46.34551" lon="6.76036">
        <ele>1929.2847</ele>
        <time>2014-08-28T13:14:49Z</time>
      </trkpt>
      <trkpt lat="46.34548" lon="6.76037">
        <ele>1931.1255</ele>
        <time>2014-08-28T13:14:54Z</time>
      </trkpt>
      <trkpt lat="46.34546" lon="6.76036">
        <ele>1931.1255</ele>
        <time>2014-08-28T13:14:59Z</time>
      </trkpt>
      <trkpt lat="46.34543" lon="6.76039">
        <ele>1931.1255</ele>
        <time>2014-08-28T13:15:04Z</time>
      </trkpt>
      <trkpt lat="46.34542" lon="6.7604">
        <ele>1931.1255</ele>
        <time>2014-08-28T13:15:09Z</time>
      </trkpt>
      <trkpt lat="46.34537" lon="6.76042">
        <ele>1931.9226</ele>
        <time>2014-08-28T13:15:14Z</time>
      </trkpt>
      <trkpt lat="46.34535" lon="6.76043">
        <ele>1931.9226</ele>
        <time>2014-08-28T13:15:19Z</time>
      </trkpt>
      <trkpt lat="46.34534" lon="6.76044">
        <ele>1931.9226</ele>
        <time>2014-08-28T13:15:24Z</time>
      </trkpt>
      <trkpt lat="46.34529" lon="6.7605">
        <ele>1932.0435</ele>
        <time>2014-08-28T13:15:29Z</time>
      </trkpt>
      <trkpt lat="46.34525" lon="6.76055">
        <ele>1932.0435</ele>
        <time>2014-08-28T13:15:34Z</time>
      </trkpt>
      <trkpt lat="46.34522" lon="6.76059">
        <ele>1932.0435</ele>
        <time>2014-08-28T13:15:39Z</time>
      </trkpt>
      <trkpt lat="46.3452" lon="6.76062">
        <ele>1931.5277</ele>
        <time>2014-08-28T13:15:44Z</time>
      </trkpt>
      <trkpt lat="46.34517" lon="6.76062">
        <ele>1931.5277</ele>
        <time>2014-08-28T13:15:49Z</time>
      </trkpt>
      <trkpt lat="46.34514" lon="6.76064">
        <ele>1931.5277</ele>
        <time>2014-08-28T13:15:54Z</time>
      </trkpt>
      <trkpt lat="46.3451" lon="6.76062">
        <ele>1930.3422</ele>
        <time>2014-08-28T13:15:59Z</time>
      </trkpt>
      <trkpt lat="46.34509" lon="6.76062">
        <ele>1930.3422</ele>
        <time>2014-08-28T13:16:04Z</time>
      </trkpt>
      <trkpt lat="46.34506" lon="6.76061">
        <ele>1930.3422</ele>
        <time>2014-08-28T13:16:09Z</time>
      </trkpt>
      <trkpt lat="46.34502" lon="6.76062">
        <ele>1930.3422</ele>
        <time>2014-08-28T13:16:14Z</time>
      </trkpt>
      <trkpt lat="46.34498" lon="6.76065">
        <ele>1928.3425</ele>
        <time>2014-08-28T13:16:19Z</time>
      </trkpt>
      <trkpt lat="46.34496" lon="6.7606">
        <ele>1928.3425</ele>
        <time>2014-08-28T13:16:24Z</time>
      </trkpt>
      <trkpt lat="46.34495" lon="6.76053">
        <ele>1925.9885</ele>
        <time>2014-08-28T13:16:29Z</time>
      </trkpt>
      <trkpt lat="46.34495" lon="6.76047">
        <ele>1925.9885</ele>
        <time>2014-08-28T13:16:34Z</time>
      </trkpt>
      <trkpt lat="46.34494" lon="6.7604">
        <ele>1925.9885</ele>
        <time>2014-08-28T13:16:39Z</time>
      </trkpt>
      <trkpt lat="46.34494" lon="6.76032">
        <ele>1923.3179</ele>
        <time>2014-08-28T13:16:44Z</time>
      </trkpt>
      <trkpt lat="46.34493" lon="6.76025">
        <ele>1923.3179</ele>
        <time>2014-08-28T13:16:49Z</time>
      </trkpt>
      <trkpt lat="46.34495" lon="6.76018">
        <ele>1920.525</ele>
        <time>2014-08-28T13:16:54Z</time>
      </trkpt>
      <trkpt lat="46.34494" lon="6.76017">
        <ele>1920.525</ele>
        <time>2014-08-28T13:16:59Z</time>
      </trkpt>
      <trkpt lat="46.34491" lon="6.76019">
        <ele>1920.525</ele>
        <time>2014-08-28T13:17:04Z</time>
      </trkpt>
      <trkpt lat="46.3449" lon="6.7602">
        <ele>1920.525</ele>
        <time>2014-08-28T13:17:09Z</time>
      </trkpt>
      <trkpt lat="46.34487" lon="6.76023">
        <ele>1916.8969</ele>
        <time>2014-08-28T13:17:14Z</time>
      </trkpt>
      <trkpt lat="46.34485" lon="6.76025">
        <ele>1916.8969</ele>
        <time>2014-08-28T13:17:19Z</time>
      </trkpt>
      <trkpt lat="46.34481" lon="6.76029">
        <ele>1916.8969</ele>
        <time>2014-08-28T13:17:24Z</time>
      </trkpt>
      <trkpt lat="46.34481" lon="6.76027">
        <ele>1916.8969</ele>
        <time>2014-08-28T13:17:29Z</time>
      </trkpt>
      <trkpt lat="46.34479" lon="6.7603">
        <ele>1912.611</ele>
        <time>2014-08-28T13:17:34Z</time>
      </trkpt>
      <trkpt lat="46.34478" lon="6.76034">
        <ele>1912.611</ele>
        <time>2014-08-28T13:17:39Z</time>
      </trkpt>
      <trkpt lat="46.34478" lon="6.76037">
        <ele>1912.611</ele>
        <time>2014-08-28T13:17:44Z</time>
      </trkpt>
      <trkpt lat="46.34477" lon="6.76038">
        <ele>1912.611</ele>
        <time>2014-08-28T13:17:49Z</time>
      </trkpt>
      <trkpt lat="46.34477" lon="6.76039">
        <ele>1912.611</ele>
        <time>2014-08-28T13:17:54Z</time>
      </trkpt>
      <trkpt lat="46.34477" lon="6.76039">
        <ele>1912.611</ele>
        <time>2014-08-28T13:17:59Z</time>
      </trkpt>
      <trkpt lat="46.34477" lon="6.76038">
        <ele>1912.611</ele>
        <time>2014-08-28T13:18:19Z</time>
      </trkpt>
      <trkpt lat="46.34475" lon="6.76031">
        <ele>1908.5106</ele>
        <time>2014-08-28T13:18:24Z</time>
      </trkpt>
      <trkpt lat="46.34474" lon="6.76024">
        <ele>1908.5106</ele>
        <time>2014-08-28T13:18:29Z</time>
      </trkpt>
      <trkpt lat="46.34472" lon="6.7602">
        <ele>1908.5106</ele>
        <time>2014-08-28T13:18:34Z</time>
      </trkpt>
      <trkpt lat="46.34468" lon="6.76015">
        <ele>1904.1519</ele>
        <time>2014-08-28T13:18:39Z</time>
      </trkpt>
      <trkpt lat="46.34467" lon="6.76013">
        <ele>1904.1519</ele>
        <time>2014-08-28T13:18:44Z</time>
      </trkpt>
      <trkpt lat="46.34465" lon="6.76008">
        <ele>1904.1519</ele>
        <time>2014-08-28T13:18:49Z</time>
      </trkpt>
      <trkpt lat="46.34461" lon="6.75999">
        <ele>1899.6567</ele>
        <time>2014-08-28T13:18:54Z</time>
      </trkpt>
      <trkpt lat="46.34457" lon="6.75998">
        <ele>1899.6567</ele>
        <time>2014-08-28T13:18:59Z</time>
      </trkpt>
      <trkpt lat="46.34454" lon="6.75994">
        <ele>1899.6567</ele>
        <time>2014-08-28T13:19:04Z</time>
      </trkpt>
      <trkpt lat="46.34453" lon="6.75995">
        <ele>1899.6567</ele>
        <time>2014-08-28T13:19:09Z</time>
      </trkpt>
      <trkpt lat="46.34452" lon="6.75992">
        <ele>1894.2164</ele>
        <time>2014-08-28T13:19:14Z</time>
      </trkpt>
      <trkpt lat="46.34447" lon="6.75997">
        <ele>1894.2164</ele>
        <time>2014-08-28T13:19:19Z</time>
      </trkpt>
      <trkpt lat="46.34444" lon="6.76005">
        <ele>1888.6691</ele>
        <time>2014-08-28T13:19:24Z</time>
      </trkpt>
      <trkpt lat="46.34441" lon="6.7601">
        <ele>1888.6691</ele>
        <time>2014-08-28T13:19:29Z</time>
      </trkpt>
      <trkpt lat="46.34439" lon="6.76012">
        <ele>1888.6691</ele>
        <time>2014-08-28T13:19:34Z</time>
      </trkpt>
      <trkpt lat="46.34438" lon="6.76014">
        <ele>1883.0563</ele>
        <time>2014-08-28T13:19:39Z</time>
      </trkpt>
      <trkpt lat="46.34435" lon="6.76013">
        <ele>1883.0563</ele>
        <time>2014-08-28T13:19:44Z</time>
      </trkpt>
      <trkpt lat="46.34432" lon="6.76013">
        <ele>1883.0563</ele>
        <time>2014-08-28T13:19:49Z</time>
      </trkpt>
      <trkpt lat="46.34431" lon="6.76016">
        <ele>1883.0563</ele>
        <time>2014-08-28T13:19:54Z</time>
      </trkpt>
      <trkpt lat="46.34428" lon="6.7602">
        <ele>1877.0272</ele>
        <time>2014-08-28T13:19:59Z</time>
      </trkpt>
      <trkpt lat="46.34426" lon="6.76022">
        <ele>1877.0272</ele>
        <time>2014-08-28T13:20:04Z</time>
      </trkpt>
      <trkpt lat="46.34425" lon="6.7602">
        <ele>1877.0272</ele>
        <time>2014-08-28T13:20:09Z</time>
      </trkpt>
      <trkpt lat="46.34423" lon="6.76019">
        <ele>1877.0272</ele>
        <time>2014-08-28T13:20:14Z</time>
      </trkpt>
      <trkpt lat="46.34419" lon="6.76019">
        <ele>1870.6902</ele>
        <time>2014-08-28T13:20:19Z</time>
      </trkpt>
      <trkpt lat="46.34417" lon="6.76017">
        <ele>1870.6902</ele>
        <time>2014-08-28T13:20:24Z</time>
      </trkpt>
      <trkpt lat="46.34415" lon="6.76017">
        <ele>1870.6902</ele>
        <time>2014-08-28T13:20:29Z</time>
      </trkpt>
      <trkpt lat="46.34414" lon="6.76019">
        <ele>1870.6902</ele>
        <time>2014-08-28T13:20:34Z</time>
      </trkpt>
      <trkpt lat="46.3441" lon="6.76023">
        <ele>1864.0304</ele>
        <time>2014-08-28T13:20:39Z</time>
      </trkpt>
      <trkpt lat="46.34408" lon="6.76024">
        <ele>1864.0304</ele>
        <time>2014-08-28T13:20:44Z</time>
      </trkpt>
      <trkpt lat="46.34405" lon="6.76023">
        <ele>1864.0304</ele>
        <time>2014-08-28T13:20:49Z</time>
      </trkpt>
      <trkpt lat="46.34404" lon="6.76023">
        <ele>1864.0304</ele>
        <time>2014-08-28T13:20:54Z</time>
      </trkpt>
      <trkpt lat="46.34402" lon="6.76021">
        <ele>1864.0304</ele>
        <time>2014-08-28T13:20:59Z</time>
      </trkpt>
      <trkpt lat="46.34399" lon="6.76024">
        <ele>1856.7179</ele>
        <time>2014-08-28T13:21:04Z</time>
      </trkpt>
      <trkpt lat="46.34398" lon="6.76026">
        <ele>1856.7179</ele>
        <time>2014-08-28T13:21:09Z</time>
      </trkpt>
      <trkpt lat="46.34397" lon="6.76025">
        <ele>1856.7179</ele>
        <time>2014-08-28T13:21:14Z</time>
      </trkpt>
      <trkpt lat="46.34394" lon="6.76024">
        <ele>1856.7179</ele>
        <time>2014-08-28T13:21:19Z</time>
      </trkpt>
      <trkpt lat="46.3439" lon="6.76022">
        <ele>1849.0823</ele>
        <time>2014-08-28T13:21:24Z</time>
      </trkpt>
      <trkpt lat="46.34386" lon="6.76022">
        <ele>1849.0823</ele>
        <time>2014-08-28T13:21:29Z</time>
      </trkpt>
      <trkpt lat="46.3438" lon="6.76022">
        <ele>1841.6453</ele>
        <time>2014-08-28T13:21:34Z</time>
      </trkpt>
      <trkpt lat="46.34375" lon="6.76023">
        <ele>1841.6453</ele>
        <time>2014-08-28T13:21:39Z</time>
      </trkpt>
      <trkpt lat="46.34371" lon="6.76023">
        <ele>1841.6453</ele>
        <time>2014-08-28T13:21:44Z</time>
      </trkpt>
      <trkpt lat="46.34365" lon="6.76023">
        <ele>1834.4574</ele>
        <time>2014-08-28T13:21:49Z</time>
      </trkpt>
      <trkpt lat="46.3436" lon="6.76026">
        <ele>1834.4574</ele>
        <time>2014-08-28T13:21:54Z</time>
      </trkpt>
      <trkpt lat="46.34356" lon="6.7603">
        <ele>1827.8807</ele>
        <time>2014-08-28T13:21:59Z</time>
      </trkpt>
      <trkpt lat="46.34353" lon="6.7603">
        <ele>1827.8807</ele>
        <time>2014-08-28T13:22:04Z</time>
      </trkpt>
      <trkpt lat="46.34349" lon="6.76031">
        <ele>1827.8807</ele>
        <time>2014-08-28T13:22:09Z</time>
      </trkpt>
      <trkpt lat="46.34345" lon="6.76031">
        <ele>1821.4272</ele>
        <time>2014-08-28T13:22:14Z</time>
      </trkpt>
      <trkpt lat="46.34342" lon="6.7603">
        <ele>1821.4272</ele>
        <time>2014-08-28T13:22:19Z</time>
      </trkpt>
      <trkpt lat="46.34339" lon="6.76029">
        <ele>1821.4272</ele>
        <time>2014-08-28T13:22:24Z</time>
      </trkpt>
      <trkpt lat="46.34336" lon="6.76029">
        <ele>1815.1917</ele>
        <time>2014-08-28T13:22:29Z</time>
      </trkpt>
      <trkpt lat="46.34333" lon="6.76034">
        <ele>1815.1917</ele>
        <time>2014-08-28T13:22:34Z</time>
      </trkpt>
      <trkpt lat="46.34331" lon="6.76034">
        <ele>1815.1917</ele>
        <time>2014-08-28T13:22:39Z</time>
      </trkpt>
      <trkpt lat="46.34329" lon="6.76033">
        <ele>1815.1917</ele>
        <time>2014-08-28T13:22:44Z</time>
      </trkpt>
      <trkpt lat="46.34326" lon="6.76033">
        <ele>1808.9432</ele>
        <time>2014-08-28T13:22:49Z</time>
      </trkpt>
      <trkpt lat="46.34322" lon="6.76031">
        <ele>1808.9432</ele>
        <time>2014-08-28T13:22:54Z</time>
      </trkpt>
      <trkpt lat="46.34322" lon="6.76031">
        <ele>1808.9432</ele>
        <time>2014-08-28T13:22:59Z</time>
      </trkpt>
      <trkpt lat="46.34321" lon="6.76031">
        <ele>1808.9432</ele>
        <time>2014-08-28T13:23:04Z</time>
      </trkpt>
      <trkpt lat="46.34317" lon="6.76033">
        <ele>1802.8855</ele>
        <time>2014-08-28T13:23:09Z</time>
      </trkpt>
      <trkpt lat="46.34312" lon="6.76033">
        <ele>1802.8855</ele>
        <time>2014-08-28T13:23:14Z</time>
      </trkpt>
      <trkpt lat="46.34306" lon="6.76034">
        <ele>1797.2206</ele>
        <time>2014-08-28T13:23:19Z</time>
      </trkpt>
      <trkpt lat="46.34303" lon="6.76035">
        <ele>1797.2206</ele>
        <time>2014-08-28T13:23:24Z</time>
      </trkpt>
      <trkpt lat="46.34303" lon="6.76033">
        <ele>1797.2206</ele>
        <time>2014-08-28T13:23:29Z</time>
      </trkpt>
      <trkpt lat="46.34303" lon="6.76033">
        <ele>1797.2206</ele>
        <time>2014-08-28T13:23:34Z</time>
      </trkpt>
      <trkpt lat="46.34303" lon="6.76033">
        <ele>1797.2206</ele>
        <time>2014-08-28T13:23:54Z</time>
      </trkpt>
      <trkpt lat="46.34304" lon="6.76034">
        <ele>1797.2206</ele>
        <time>2014-08-28T13:23:59Z</time>
      </trkpt>
      <trkpt lat="46.34303" lon="6.76034">
        <ele>1797.2206</ele>
        <time>2014-08-28T13:24:09Z</time>
      </trkpt>
      <trkpt lat="46.34302" lon="6.76034">
        <ele>1797.2206</ele>
        <time>2014-08-28T13:25:44Z</time>
      </trkpt>
      <trkpt lat="46.34298" lon="6.76034">
        <ele>1791.1539</ele>
        <time>2014-08-28T13:25:49Z</time>
      </trkpt>
      <trkpt lat="46.34291" lon="6.76034">
        <ele>1791.1539</ele>
        <time>2014-08-28T13:25:54Z</time>
      </trkpt>
      <trkpt lat="46.34287" lon="6.76035">
        <ele>1785.5927</ele>
        <time>2014-08-28T13:25:59Z</time>
      </trkpt>
      <trkpt lat="46.34282" lon="6.76037">
        <ele>1785.5927</ele>
        <time>2014-08-28T13:26:04Z</time>
      </trkpt>
      <trkpt lat="46.34277" lon="6.76035">
        <ele>1780.5542</ele>
        <time>2014-08-28T13:26:09Z</time>
      </trkpt>
      <trkpt lat="46.34273" lon="6.76035">
        <ele>1780.5542</ele>
        <time>2014-08-28T13:26:14Z</time>
      </trkpt>
      <trkpt lat="46.34267" lon="6.76034">
        <ele>1775.9082</ele>
        <time>2014-08-28T13:26:19Z</time>
      </trkpt>
      <trkpt lat="46.34263" lon="6.76034">
        <ele>1775.9082</ele>
        <time>2014-08-28T13:26:24Z</time>
      </trkpt>
      <trkpt lat="46.34259" lon="6.76036">
        <ele>1775.9082</ele>
        <time>2014-08-28T13:26:29Z</time>
      </trkpt>
      <trkpt lat="46.34255" lon="6.7604">
        <ele>1771.6908</ele>
        <time>2014-08-28T13:26:34Z</time>
      </trkpt>
      <trkpt lat="46.34249" lon="6.76044">
        <ele>1771.6908</ele>
        <time>2014-08-28T13:26:39Z</time>
      </trkpt>
      <trkpt lat="46.34246" lon="6.76042">
        <ele>1768.0205</ele>
        <time>2014-08-28T13:26:44Z</time>
      </trkpt>
      <trkpt lat="46.34243" lon="6.7604">
        <ele>1768.0205</ele>
        <time>2014-08-28T13:26:49Z</time>
      </trkpt>
      <trkpt lat="46.34241" lon="6.76039">
        <ele>1768.0205</ele>
        <time>2014-08-28T13:26:54Z</time>
      </trkpt>
      <trkpt lat="46.34238" lon="6.76038">
        <ele>1768.0205</ele>
        <time>2014-08-28T13:26:59Z</time>
      </trkpt>
      <trkpt lat="46.34233" lon="6.76034">
        <ele>1763.9384</ele>
        <time>2014-08-28T13:27:04Z</time>
      </trkpt>
      <trkpt lat="46.34229" lon="6.76031">
        <ele>1763.9384</ele>
        <time>2014-08-28T13:27:09Z</time>
      </trkpt>
      <trkpt lat="46.34224" lon="6.76031">
        <ele>1759.7526</ele>
        <time>2014-08-28T13:27:14Z</time>
      </trkpt>
      <trkpt lat="46.3422" lon="6.76034">
        <ele>1759.7526</ele>
        <time>2014-08-28T13:27:19Z</time>
      </trkpt>
      <trkpt lat="46.34217" lon="6.76035">
        <ele>1759.7526</ele>
        <time>2014-08-28T13:27:24Z</time>
      </trkpt>
      <trkpt lat="46.34213" lon="6.76037">
        <ele>1755.6913</ele>
        <time>2014-08-28T13:27:29Z</time>
      </trkpt>
      <trkpt lat="46.34208" lon="6.76037">
        <ele>1755.6913</ele>
        <time>2014-08-28T13:27:34Z</time>
      </trkpt>
      <trkpt lat="46.34204" lon="6.76039">
        <ele>1751.9935</ele>
        <time>2014-08-28T13:27:39Z</time>
      </trkpt>
      <trkpt lat="46.34201" lon="6.7604">
        <ele>1751.9935</ele>
        <time>2014-08-28T13:27:44Z</time>
      </trkpt>
      <trkpt lat="46.34197" lon="6.76042">
        <ele>1751.9935</ele>
        <time>2014-08-28T13:27:49Z</time>
      </trkpt>
      <trkpt lat="46.34194" lon="6.76043">
        <ele>1748.404</ele>
        <time>2014-08-28T13:27:54Z</time>
      </trkpt>
      <trkpt lat="46.34191" lon="6.76043">
        <ele>1748.404</ele>
        <time>2014-08-28T13:27:59Z</time>
      </trkpt>
      <trkpt lat="46.34186" lon="6.76043">
        <ele>1748.404</ele>
        <time>2014-08-28T13:28:04Z</time>
      </trkpt>
      <trkpt lat="46.34181" lon="6.76045">
        <ele>1744.9305</ele>
        <time>2014-08-28T13:28:09Z</time>
      </trkpt>
      <trkpt lat="46.34176" lon="6.76047">
        <ele>1744.9305</ele>
        <time>2014-08-28T13:28:14Z</time>
      </trkpt>
      <trkpt lat="46.34171" lon="6.76048">
        <ele>1741.8387</ele>
        <time>2014-08-28T13:28:19Z</time>
      </trkpt>
      <trkpt lat="46.34168" lon="6.76048">
        <ele>1741.8387</ele>
        <time>2014-08-28T13:28:24Z</time>
      </trkpt>
      <trkpt lat="46.34165" lon="6.76046">
        <ele>1741.8387</ele>
        <time>2014-08-28T13:28:29Z</time>
      </trkpt>
      <trkpt lat="46.34162" lon="6.76044">
        <ele>1738.826</ele>
        <time>2014-08-28T13:28:34Z</time>
      </trkpt>
      <trkpt lat="46.34161" lon="6.76044">
        <ele>1738.826</ele>
        <time>2014-08-28T13:28:39Z</time>
      </trkpt>
      <trkpt lat="46.34159" lon="6.76041">
        <ele>1738.826</ele>
        <time>2014-08-28T13:28:44Z</time>
      </trkpt>
      <trkpt lat="46.34154" lon="6.76035">
        <ele>1735.8995</ele>
        <time>2014-08-28T13:28:49Z</time>
      </trkpt>
      <trkpt lat="46.34149" lon="6.76037">
        <ele>1735.8995</ele>
        <time>2014-08-28T13:28:54Z</time>
      </trkpt>
      <trkpt lat="46.34145" lon="6.76041">
        <ele>1733.2816</ele>
        <time>2014-08-28T13:28:59Z</time>
      </trkpt>
      <trkpt lat="46.34141" lon="6.7604">
        <ele>1733.2816</ele>
        <time>2014-08-28T13:29:04Z</time>
      </trkpt>
      <trkpt lat="46.34136" lon="6.76041">
        <ele>1733.2816</ele>
        <time>2014-08-28T13:29:09Z</time>
      </trkpt>
      <trkpt lat="46.34133" lon="6.76042">
        <ele>1730.9033</ele>
        <time>2014-08-28T13:29:14Z</time>
      </trkpt>
      <trkpt lat="46.34129" lon="6.76043">
        <ele>1730.9033</ele>
        <time>2014-08-28T13:29:19Z</time>
      </trkpt>
      <trkpt lat="46.34125" lon="6.76041">
        <ele>1730.9033</ele>
        <time>2014-08-28T13:29:24Z</time>
      </trkpt>
      <trkpt lat="46.34121" lon="6.7604">
        <ele>1728.527</ele>
        <time>2014-08-28T13:29:29Z</time>
      </trkpt>
      <trkpt lat="46.34117" lon="6.76037">
        <ele>1728.527</ele>
        <time>2014-08-28T13:29:34Z</time>
      </trkpt>
      <trkpt lat="46.34114" lon="6.76037">
        <ele>1728.527</ele>
        <time>2014-08-28T13:29:39Z</time>
      </trkpt>
      <trkpt lat="46.3411" lon="6.76033">
        <ele>1726.1052</ele>
        <time>2014-08-28T13:29:44Z</time>
      </trkpt>
      <trkpt lat="46.34107" lon="6.76032">
        <ele>1726.1052</ele>
        <time>2014-08-28T13:29:49Z</time>
      </trkpt>
      <trkpt lat="46.34099" lon="6.76026">
        <ele>1723.7667</ele>
        <time>2014-08-28T13:29:54Z</time>
      </trkpt>
      <trkpt lat="46.34094" lon="6.76021">
        <ele>1723.7667</ele>
        <time>2014-08-28T13:29:59Z</time>
      </trkpt>
      <trkpt lat="46.34093" lon="6.7602">
        <ele>1723.7667</ele>
        <time>2014-08-28T13:30:04Z</time>
      </trkpt>
      <trkpt lat="46.34089" lon="6.76017">
        <ele>1721.472</ele>
        <time>2014-08-28T13:30:09Z</time>
      </trkpt>
      <trkpt lat="46.34084" lon="6.76013">
        <ele>1721.472</ele>
        <time>2014-08-28T13:30:14Z</time>
      </trkpt>
      <trkpt lat="46.34082" lon="6.76011">
        <ele>1721.472</ele>
        <time>2014-08-28T13:30:19Z</time>
      </trkpt>
      <trkpt lat="46.3408" lon="6.76007">
        <ele>1719.1987</ele>
        <time>2014-08-28T13:30:24Z</time>
      </trkpt>
      <trkpt lat="46.34079" lon="6.76006">
        <ele>1719.1987</ele>
        <time>2014-08-28T13:30:29Z</time>
      </trkpt>
      <trkpt lat="46.34077" lon="6.76004">
        <ele>1719.1987</ele>
        <time>2014-08-28T13:30:34Z</time>
      </trkpt>
      <trkpt lat="46.34076" lon="6.76004">
        <ele>1719.1987</ele>
        <time>2014-08-28T13:30:39Z</time>
      </trkpt>
      <trkpt lat="46.34073" lon="6.76009">
        <ele>1716.9404</ele>
        <time>2014-08-28T13:30:44Z</time>
      </trkpt>
      <trkpt lat="46.3407" lon="6.76013">
        <ele>1716.9404</ele>
        <time>2014-08-28T13:30:49Z</time>
      </trkpt>
      <trkpt lat="46.34067" lon="6.76014">
        <ele>1716.9404</ele>
        <time>2014-08-28T13:30:54Z</time>
      </trkpt>
      <trkpt lat="46.34064" lon="6.76017">
        <ele>1714.7341</ele>
        <time>2014-08-28T13:30:59Z</time>
      </trkpt>
      <trkpt lat="46.34062" lon="6.76016">
        <ele>1714.7341</ele>
        <time>2014-08-28T13:31:04Z</time>
      </trkpt>
      <trkpt lat="46.34056" lon="6.76012">
        <ele>1714.7341</ele>
        <time>2014-08-28T13:31:09Z</time>
      </trkpt>
      <trkpt lat="46.34056" lon="6.76011">
        <ele>1712.2826</ele>
        <time>2014-08-28T13:31:14Z</time>
      </trkpt>
      <trkpt lat="46.34055" lon="6.76011">
        <ele>1712.2826</ele>
        <time>2014-08-28T13:31:19Z</time>
      </trkpt>
      <trkpt lat="46.34054" lon="6.7601">
        <ele>1712.2826</ele>
        <time>2014-08-28T13:31:24Z</time>
      </trkpt>
      <trkpt lat="46.34051" lon="6.76007">
        <ele>1712.2826</ele>
        <time>2014-08-28T13:31:29Z</time>
      </trkpt>
      <trkpt lat="46.34049" lon="6.76006">
        <ele>1712.2826</ele>
        <time>2014-08-28T13:31:34Z</time>
      </trkpt>
      <trkpt lat="46.34047" lon="6.76007">
        <ele>1709.7433</ele>
        <time>2014-08-28T13:31:39Z</time>
      </trkpt>
      <trkpt lat="46.34044" lon="6.76011">
        <ele>1709.7433</ele>
        <time>2014-08-28T13:31:44Z</time>
      </trkpt>
      <trkpt lat="46.34041" lon="6.76014">
        <ele>1709.7433</ele>
        <time>2014-08-28T13:31:49Z</time>
      </trkpt>
      <trkpt lat="46.34039" lon="6.76017">
        <ele>1707.2479</ele>
        <time>2014-08-28T13:31:54Z</time>
      </trkpt>
      <trkpt lat="46.34036" lon="6.76022">
        <ele>1707.2479</ele>
        <time>2014-08-28T13:31:59Z</time>
      </trkpt>
      <trkpt lat="46.34034" lon="6.76025">
        <ele>1707.2479</ele>
        <time>2014-08-28T13:32:04Z</time>
      </trkpt>
      <trkpt lat="46.34031" lon="6.76027">
        <ele>1704.789</ele>
        <time>2014-08-28T13:32:09Z</time>
      </trkpt>
      <trkpt lat="46.34027" lon="6.76032">
        <ele>1704.789</ele>
        <time>2014-08-28T13:32:14Z</time>
      </trkpt>
      <trkpt lat="46.34024" lon="6.76034">
        <ele>1704.789</ele>
        <time>2014-08-28T13:32:19Z</time>
      </trkpt>
      <trkpt lat="46.34023" lon="6.76035">
        <ele>1702.2869</ele>
        <time>2014-08-28T13:32:24Z</time>
      </trkpt>
      <trkpt lat="46.34023" lon="6.76033">
        <ele>1702.2869</ele>
        <time>2014-08-28T13:32:29Z</time>
      </trkpt>
      <trkpt lat="46.34024" lon="6.76033">
        <ele>1702.2869</ele>
        <time>2014-08-28T13:32:34Z</time>
      </trkpt>
      <trkpt lat="46.34023" lon="6.76028">
        <ele>1702.2869</ele>
        <time>2014-08-28T13:32:39Z</time>
      </trkpt>
      <trkpt lat="46.34023" lon="6.76028">
        <ele>1702.2869</ele>
        <time>2014-08-28T13:32:44Z</time>
      </trkpt>
      <trkpt lat="46.34023" lon="6.76018">
        <ele>1699.5388</ele>
        <time>2014-08-28T13:32:49Z</time>
      </trkpt>
      <trkpt lat="46.34022" lon="6.76011">
        <ele>1699.5388</ele>
        <time>2014-08-28T13:32:54Z</time>
      </trkpt>
      <trkpt lat="46.34021" lon="6.7601">
        <ele>1699.5388</ele>
        <time>2014-08-28T13:32:59Z</time>
      </trkpt>
      <trkpt lat="46.34018" lon="6.76013">
        <ele>1697.0923</ele>
        <time>2014-08-28T13:33:04Z</time>
      </trkpt>
      <trkpt lat="46.34016" lon="6.76016">
        <ele>1697.0923</ele>
        <time>2014-08-28T13:33:09Z</time>
      </trkpt>
      <trkpt lat="46.34014" lon="6.76018">
        <ele>1697.0923</ele>
        <time>2014-08-28T13:33:14Z</time>
      </trkpt>
      <trkpt lat="46.3401" lon="6.76018">
        <ele>1694.3298</ele>
        <time>2014-08-28T13:33:19Z</time>
      </trkpt>
      <trkpt lat="46.34009" lon="6.76019">
        <ele>1694.3298</ele>
        <time>2014-08-28T13:33:24Z</time>
      </trkpt>
      <trkpt lat="46.34008" lon="6.7602">
        <ele>1694.3298</ele>
        <time>2014-08-28T13:33:29Z</time>
      </trkpt>
      <trkpt lat="46.34003" lon="6.76022">
        <ele>1694.3298</ele>
        <time>2014-08-28T13:33:34Z</time>
      </trkpt>
      <trkpt lat="46.33999" lon="6.76027">
        <ele>1691.3431</ele>
        <time>2014-08-28T13:33:39Z</time>
      </trkpt>
      <trkpt lat="46.33995" lon="6.76029">
        <ele>1691.3431</ele>
        <time>2014-08-28T13:33:44Z</time>
      </trkpt>
      <trkpt lat="46.33991" lon="6.7603">
        <ele>1691.3431</ele>
        <time>2014-08-28T13:33:49Z</time>
      </trkpt>
      <trkpt lat="46.33987" lon="6.76032">
        <ele>1688.189</ele>
        <time>2014-08-28T13:33:54Z</time>
      </trkpt>
      <trkpt lat="46.33984" lon="6.76034">
        <ele>1688.189</ele>
        <time>2014-08-28T13:33:59Z</time>
      </trkpt>
      <trkpt lat="46.33982" lon="6.76036">
        <ele>1688.189</ele>
        <time>2014-08-28T13:34:04Z</time>
      </trkpt>
      <trkpt lat="46.3398" lon="6.76038">
        <ele>1688.189</ele>
        <time>2014-08-28T13:34:09Z</time>
      </trkpt>
      <trkpt lat="46.33978" lon="6.7604">
        <ele>1685.1078</ele>
        <time>2014-08-28T13:34:14Z</time>
      </trkpt>
      <trkpt lat="46.33974" lon="6.76045">
        <ele>1685.1078</ele>
        <time>2014-08-28T13:34:19Z</time>
      </trkpt>
      <trkpt lat="46.33972" lon="6.76049">
        <ele>1685.1078</ele>
        <time>2014-08-28T13:34:24Z</time>
      </trkpt>
      <trkpt lat="46.33968" lon="6.76053">
        <ele>1682.1063</ele>
        <time>2014-08-28T13:34:29Z</time>
      </trkpt>
      <trkpt lat="46.33967" lon="6.76054">
        <ele>1682.1063</ele>
        <time>2014-08-28T13:34:34Z</time>
      </trkpt>
      <trkpt lat="46.33967" lon="6.76054">
        <ele>1682.1063</ele>
        <time>2014-08-28T13:34:39Z</time>
      </trkpt>
      <trkpt lat="46.33966" lon="6.76054">
        <ele>1682.1063</ele>
        <time>2014-08-28T13:35:04Z</time>
      </trkpt>
      <trkpt lat="46.33963" lon="6.76054">
        <ele>1682.1063</ele>
        <time>2014-08-28T13:35:09Z</time>
      </trkpt>
      <trkpt lat="46.33958" lon="6.76056">
        <ele>1678.7006</ele>
        <time>2014-08-28T13:35:14Z</time>
      </trkpt>
      <trkpt lat="46.33956" lon="6.76059">
        <ele>1678.7006</ele>
        <time>2014-08-28T13:35:19Z</time>
      </trkpt>
      <trkpt lat="46.33954" lon="6.76064">
        <ele>1678.7006</ele>
        <time>2014-08-28T13:35:24Z</time>
      </trkpt>
      <trkpt lat="46.33951" lon="6.76068">
        <ele>1675.2644</ele>
        <time>2014-08-28T13:35:29Z</time>
      </trkpt>
      <trkpt lat="46.33948" lon="6.76072">
        <ele>1675.2644</ele>
        <time>2014-08-28T13:35:34Z</time>
      </trkpt>
      <trkpt lat="46.33946" lon="6.76074">
        <ele>1675.2644</ele>
        <time>2014-08-28T13:35:39Z</time>
      </trkpt>
      <trkpt lat="46.33942" lon="6.76076">
        <ele>1671.8711</ele>
        <time>2014-08-28T13:35:44Z</time>
      </trkpt>
      <trkpt lat="46.33938" lon="6.76078">
        <ele>1671.8711</ele>
        <time>2014-08-28T13:35:49Z</time>
      </trkpt>
      <trkpt lat="46.33933" lon="6.7608">
        <ele>1668.6313</ele>
        <time>2014-08-28T13:35:54Z</time>
      </trkpt>
      <trkpt lat="46.33928" lon="6.76081">
        <ele>1668.6313</ele>
        <time>2014-08-28T13:35:59Z</time>
      </trkpt>
      <trkpt lat="46.33925" lon="6.76083">
        <ele>1668.6313</ele>
        <time>2014-08-28T13:36:04Z</time>
      </trkpt>
      <trkpt lat="46.33922" lon="6.76083">
        <ele>1665.2296</ele>
        <time>2014-08-28T13:36:09Z</time>
      </trkpt>
      <trkpt lat="46.33918" lon="6.76082">
        <ele>1665.2296</ele>
        <time>2014-08-28T13:36:14Z</time>
      </trkpt>
      <trkpt lat="46.33916" lon="6.76083">
        <ele>1665.2296</ele>
        <time>2014-08-28T13:36:19Z</time>
      </trkpt>
      <trkpt lat="46.33911" lon="6.76084">
        <ele>1661.6333</ele>
        <time>2014-08-28T13:36:24Z</time>
      </trkpt>
      <trkpt lat="46.33905" lon="6.76085">
        <ele>1661.6333</ele>
        <time>2014-08-28T13:36:29Z</time>
      </trkpt>
      <trkpt lat="46.33901" lon="6.76087">
        <ele>1657.8131</ele>
        <time>2014-08-28T13:36:34Z</time>
      </trkpt>
      <trkpt lat="46.33898" lon="6.76089">
        <ele>1657.8131</ele>
        <time>2014-08-28T13:36:39Z</time>
      </trkpt>
      <trkpt lat="46.33895" lon="6.76092">
        <ele>1657.8131</ele>
        <time>2014-08-28T13:36:44Z</time>
      </trkpt>
      <trkpt lat="46.33892" lon="6.76093">
        <ele>1653.6846</ele>
        <time>2014-08-28T13:36:49Z</time>
      </trkpt>
      <trkpt lat="46.33888" lon="6.76093">
        <ele>1653.6846</ele>
        <time>2014-08-28T13:36:54Z</time>
      </trkpt>
      <trkpt lat="46.33884" lon="6.76094">
        <ele>1653.6846</ele>
        <time>2014-08-28T13:36:59Z</time>
      </trkpt>
      <trkpt lat="46.3388" lon="6.7609">
        <ele>1649.3291</ele>
        <time>2014-08-28T13:37:04Z</time>
      </trkpt>
      <trkpt lat="46.3388" lon="6.7609">
        <ele>1649.3291</ele>
        <time>2014-08-28T13:37:09Z</time>
      </trkpt>
      <trkpt lat="46.3388" lon="6.7609">
        <ele>1649.3291</ele>
        <time>2014-08-28T13:37:14Z</time>
      </trkpt>
      <trkpt lat="46.3388" lon="6.7609">
        <ele>1649.3291</ele>
        <time>2014-08-28T13:37:19Z</time>
      </trkpt>
      <trkpt lat="46.3388" lon="6.7609">
        <ele>1649.3291</ele>
        <time>2014-08-28T13:38:04Z</time>
      </trkpt>
      <trkpt lat="46.3388" lon="6.7609">
        <ele>1649.3291</ele>
        <time>2014-08-28T13:38:09Z</time>
      </trkpt>
      <trkpt lat="46.3388" lon="6.7609">
        <ele>1649.3291</ele>
        <time>2014-08-28T13:38:19Z</time>
      </trkpt>
      <trkpt lat="46.33881" lon="6.76087">
        <ele>1649.3291</ele>
        <time>2014-08-28T13:38:24Z</time>
      </trkpt>
      <trkpt lat="46.33882" lon="6.76083">
        <ele>1649.3291</ele>
        <time>2014-08-28T13:38:29Z</time>
      </trkpt>
      <trkpt lat="46.33879" lon="6.76076">
        <ele>1645.6154</ele>
        <time>2014-08-28T13:38:34Z</time>
      </trkpt>
      <trkpt lat="46.33879" lon="6.7608">
        <ele>1645.6154</ele>
        <time>2014-08-28T13:38:39Z</time>
      </trkpt>
      <trkpt lat="46.33879" lon="6.76081">
        <ele>1645.6154</ele>
        <time>2014-08-28T13:38:44Z</time>
      </trkpt>
      <trkpt lat="46.3388" lon="6.76084">
        <ele>1645.6154</ele>
        <time>2014-08-28T13:38:49Z</time>
      </trkpt>
      <trkpt lat="46.33876" lon="6.76089">
        <ele>1642.3234</ele>
        <time>2014-08-28T13:38:54Z</time>
      </trkpt>
      <trkpt lat="46.33873" lon="6.76095">
        <ele>1642.3234</ele>
        <time>2014-08-28T13:38:59Z</time>
      </trkpt>
      <trkpt lat="46.33866" lon="6.76099">
        <ele>1639.1471</ele>
        <time>2014-08-28T13:39:04Z</time>
      </trkpt>
      <trkpt lat="46.33861" lon="6.76099">
        <ele>1639.1471</ele>
        <time>2014-08-28T13:39:09Z</time>
      </trkpt>
      <trkpt lat="46.33857" lon="6.76096">
        <ele>1635.8461</ele>
        <time>2014-08-28T13:39:14Z</time>
      </trkpt>
      <trkpt lat="46.33854" lon="6.76094">
        <ele>1635.8461</ele>
        <time>2014-08-28T13:39:19Z</time>
      </trkpt>
      <trkpt lat="46.3385" lon="6.76094">
        <ele>1635.8461</ele>
        <time>2014-08-28T13:39:24Z</time>
      </trkpt>
      <trkpt lat="46.33846" lon="6.76094">
        <ele>1632.1113</ele>
        <time>2014-08-28T13:39:29Z</time>
      </trkpt>
      <trkpt lat="46.33842" lon="6.76094">
        <ele>1632.1113</ele>
        <time>2014-08-28T13:39:34Z</time>
      </trkpt>
      <trkpt lat="46.33837" lon="6.76097">
        <ele>1628.4218</ele>
        <time>2014-08-28T13:39:39Z</time>
      </trkpt>
      <trkpt lat="46.33832" lon="6.76102">
        <ele>1628.4218</ele>
        <time>2014-08-28T13:39:44Z</time>
      </trkpt>
      <trkpt lat="46.33828" lon="6.76106">
        <ele>1624.8462</ele>
        <time>2014-08-28T13:39:49Z</time>
      </trkpt>
      <trkpt lat="46.33824" lon="6.7611">
        <ele>1624.8462</ele>
        <time>2014-08-28T13:39:54Z</time>
      </trkpt>
      <trkpt lat="46.33821" lon="6.76112">
        <ele>1624.8462</ele>
        <time>2014-08-28T13:39:59Z</time>
      </trkpt>
      <trkpt lat="46.33817" lon="6.76115">
        <ele>1621.6211</ele>
        <time>2014-08-28T13:40:04Z</time>
      </trkpt>
      <trkpt lat="46.33813" lon="6.76118">
        <ele>1621.6211</ele>
        <time>2014-08-28T13:40:09Z</time>
      </trkpt>
      <trkpt lat="46.33808" lon="6.7612">
        <ele>1618.5465</ele>
        <time>2014-08-28T13:40:14Z</time>
      </trkpt>
      <trkpt lat="46.33804" lon="6.76124">
        <ele>1618.5465</ele>
        <time>2014-08-28T13:40:19Z</time>
      </trkpt>
      <trkpt lat="46.33799" lon="6.76128">
        <ele>1615.3507</ele>
        <time>2014-08-28T13:40:24Z</time>
      </trkpt>
      <trkpt lat="46.33796" lon="6.76131">
        <ele>1615.3507</ele>
        <time>2014-08-28T13:40:29Z</time>
      </trkpt>
      <trkpt lat="46.33793" lon="6.76133">
        <ele>1615.3507</ele>
        <time>2014-08-28T13:40:34Z</time>
      </trkpt>
      <trkpt lat="46.33789" lon="6.76136">
        <ele>1611.6812</ele>
        <time>2014-08-28T13:40:39Z</time>
      </trkpt>
      <trkpt lat="46.33784" lon="6.76138">
        <ele>1611.6812</ele>
        <time>2014-08-28T13:40:44Z</time>
      </trkpt>
      <trkpt lat="46.33782" lon="6.76141">
        <ele>1611.6812</ele>
        <time>2014-08-28T13:40:49Z</time>
      </trkpt>
      <trkpt lat="46.33779" lon="6.76144">
        <ele>1608.0195</ele>
        <time>2014-08-28T13:40:54Z</time>
      </trkpt>
      <trkpt lat="46.33776" lon="6.76149">
        <ele>1608.0195</ele>
        <time>2014-08-28T13:40:59Z</time>
      </trkpt>
      <trkpt lat="46.33772" lon="6.76154">
        <ele>1604.3656</ele>
        <time>2014-08-28T13:41:04Z</time>
      </trkpt>
      <trkpt lat="46.33768" lon="6.76158">
        <ele>1604.3656</ele>
        <time>2014-08-28T13:41:09Z</time>
      </trkpt>
      <trkpt lat="46.33764" lon="6.7616">
        <ele>1604.3656</ele>
        <time>2014-08-28T13:41:14Z</time>
      </trkpt>
      <trkpt lat="46.33761" lon="6.76162">
        <ele>1600.8918</ele>
        <time>2014-08-28T13:41:19Z</time>
      </trkpt>
      <trkpt lat="46.33759" lon="6.76163">
        <ele>1600.8918</ele>
        <time>2014-08-28T13:41:24Z</time>
      </trkpt>
      <trkpt lat="46.33755" lon="6.76162">
        <ele>1600.8918</ele>
        <time>2014-08-28T13:41:29Z</time>
      </trkpt>
      <trkpt lat="46.3375" lon="6.76162">
        <ele>1597.513</ele>
        <time>2014-08-28T13:41:34Z</time>
      </trkpt>
      <trkpt lat="46.33746" lon="6.76163">
        <ele>1597.513</ele>
        <time>2014-08-28T13:41:39Z</time>
      </trkpt>
      <trkpt lat="46.33744" lon="6.76164">
        <ele>1597.513</ele>
        <time>2014-08-28T13:41:44Z</time>
      </trkpt>
      <trkpt lat="46.33741" lon="6.76168">
        <ele>1594.1492</ele>
        <time>2014-08-28T13:41:49Z</time>
      </trkpt>
      <trkpt lat="46.33737" lon="6.7617">
        <ele>1594.1492</ele>
        <time>2014-08-28T13:41:54Z</time>
      </trkpt>
      <trkpt lat="46.33734" lon="6.76174">
        <ele>1594.1492</ele>
        <time>2014-08-28T13:41:59Z</time>
      </trkpt>
      <trkpt lat="46.33732" lon="6.76179">
        <ele>1591.0442</ele>
        <time>2014-08-28T13:42:04Z</time>
      </trkpt>
      <trkpt lat="46.33731" lon="6.76182">
        <ele>1591.0442</ele>
        <time>2014-08-28T13:42:09Z</time>
      </trkpt>
      <trkpt lat="46.33728" lon="6.76187">
        <ele>1591.0442</ele>
        <time>2014-08-28T13:42:14Z</time>
      </trkpt>
      <trkpt lat="46.33726" lon="6.76191">
        <ele>1588.2063</ele>
        <time>2014-08-28T13:42:19Z</time>
      </trkpt>
      <trkpt lat="46.33724" lon="6.76195">
        <ele>1588.2063</ele>
        <time>2014-08-28T13:42:24Z</time>
      </trkpt>
      <trkpt lat="46.33721" lon="6.76199">
        <ele>1588.2063</ele>
        <time>2014-08-28T13:42:29Z</time>
      </trkpt>
      <trkpt lat="46.33719" lon="6.76204">
        <ele>1585.1099</ele>
        <time>2014-08-28T13:42:34Z</time>
      </trkpt>
      <trkpt lat="46.33715" lon="6.76208">
        <ele>1585.1099</ele>
        <time>2014-08-28T13:42:39Z</time>
      </trkpt>
      <trkpt lat="46.3371" lon="6.76213">
        <ele>1582.1041</ele>
        <time>2014-08-28T13:42:44Z</time>
      </trkpt>
      <trkpt lat="46.33706" lon="6.76217">
        <ele>1582.1041</ele>
        <time>2014-08-28T13:42:49Z</time>
      </trkpt>
      <trkpt lat="46.33703" lon="6.76221">
        <ele>1579.4259</ele>
        <time>2014-08-28T13:42:54Z</time>
      </trkpt>
      <trkpt lat="46.337" lon="6.76225">
        <ele>1579.4259</ele>
        <time>2014-08-28T13:42:59Z</time>
      </trkpt>
      <trkpt lat="46.33696" lon="6.7623">
        <ele>1577.1786</ele>
        <time>2014-08-28T13:43:04Z</time>
      </trkpt>
      <trkpt lat="46.33693" lon="6.76236">
        <ele>1577.1786</ele>
        <time>2014-08-28T13:43:09Z</time>
      </trkpt>
      <trkpt lat="46.3369" lon="6.76242">
        <ele>1575.0247</ele>
        <time>2014-08-28T13:43:14Z</time>
      </trkpt>
      <trkpt lat="46.33687" lon="6.76248">
        <ele>1575.0247</ele>
        <time>2014-08-28T13:43:19Z</time>
      </trkpt>
      <trkpt lat="46.33684" lon="6.76253">
        <ele>1572.939</ele>
        <time>2014-08-28T13:43:24Z</time>
      </trkpt>
      <trkpt lat="46.33681" lon="6.76259">
        <ele>1572.939</ele>
        <time>2014-08-28T13:43:29Z</time>
      </trkpt>
      <trkpt lat="46.33679" lon="6.76268">
        <ele>1570.8984</ele>
        <time>2014-08-28T13:43:34Z</time>
      </trkpt>
      <trkpt lat="46.33677" lon="6.76274">
        <ele>1570.8984</ele>
        <time>2014-08-28T13:43:39Z</time>
      </trkpt>
      <trkpt lat="46.33676" lon="6.76278">
        <ele>1570.8984</ele>
        <time>2014-08-28T13:43:44Z</time>
      </trkpt>
      <trkpt lat="46.33674" lon="6.76283">
        <ele>1568.7084</ele>
        <time>2014-08-28T13:43:49Z</time>
      </trkpt>
      <trkpt lat="46.33673" lon="6.76288">
        <ele>1568.7084</ele>
        <time>2014-08-28T13:43:54Z</time>
      </trkpt>
      <trkpt lat="46.33671" lon="6.76291">
        <ele>1568.7084</ele>
        <time>2014-08-28T13:43:59Z</time>
      </trkpt>
      <trkpt lat="46.33667" lon="6.76295">
        <ele>1566.4199</ele>
        <time>2014-08-28T13:44:04Z</time>
      </trkpt>
      <trkpt lat="46.33662" lon="6.76297">
        <ele>1566.4199</ele>
        <time>2014-08-28T13:44:09Z</time>
      </trkpt>
      <trkpt lat="46.33657" lon="6.76302">
        <ele>1564.0658</ele>
        <time>2014-08-28T13:44:14Z</time>
      </trkpt>
      <trkpt lat="46.33653" lon="6.76307">
        <ele>1564.0658</ele>
        <time>2014-08-28T13:44:19Z</time>
      </trkpt>
      <trkpt lat="46.3365" lon="6.76315">
        <ele>1561.6627</ele>
        <time>2014-08-28T13:44:24Z</time>
      </trkpt>
      <trkpt lat="46.33649" lon="6.76321">
        <ele>1561.6627</ele>
        <time>2014-08-28T13:44:29Z</time>
      </trkpt>
      <trkpt lat="46.33646" lon="6.76327">
        <ele>1559.3124</ele>
        <time>2014-08-28T13:44:34Z</time>
      </trkpt>
      <trkpt lat="46.33643" lon="6.76332">
        <ele>1559.3124</ele>
        <time>2014-08-28T13:44:39Z</time>
      </trkpt>
      <trkpt lat="46.33643" lon="6.76339">
        <ele>1557.167</ele>
        <time>2014-08-28T13:44:44Z</time>
      </trkpt>
      <trkpt lat="46.33643" lon="6.76347">
        <ele>1557.167</ele>
        <time>2014-08-28T13:44:49Z</time>
      </trkpt>
      <trkpt lat="46.33643" lon="6.76353">
        <ele>1555.2083</ele>
        <time>2014-08-28T13:44:54Z</time>
      </trkpt>
      <trkpt lat="46.33643" lon="6.76358">
        <ele>1555.2083</ele>
        <time>2014-08-28T13:44:59Z</time>
      </trkpt>
      <trkpt lat="46.33642" lon="6.76361">
        <ele>1555.2083</ele>
        <time>2014-08-28T13:45:04Z</time>
      </trkpt>
      <trkpt lat="46.33642" lon="6.76363">
        <ele>1555.2083</ele>
        <time>2014-08-28T13:45:09Z</time>
      </trkpt>
      <trkpt lat="46.33643" lon="6.76366">
        <ele>1555.2083</ele>
        <time>2014-08-28T13:45:14Z</time>
      </trkpt>
      <trkpt lat="46.33641" lon="6.76368">
        <ele>1553.0299</ele>
        <time>2014-08-28T13:45:19Z</time>
      </trkpt>
      <trkpt lat="46.3364" lon="6.76369">
        <ele>1553.0299</ele>
        <time>2014-08-28T13:45:24Z</time>
      </trkpt>
      <trkpt lat="46.3364" lon="6.76369">
        <ele>1553.0299</ele>
        <time>2014-08-28T13:45:29Z</time>
      </trkpt>
      <trkpt lat="46.33639" lon="6.7637">
        <ele>1553.0299</ele>
        <time>2014-08-28T13:45:34Z</time>
      </trkpt>
      <trkpt lat="46.33635" lon="6.76372">
        <ele>1553.0299</ele>
        <time>2014-08-28T13:45:39Z</time>
      </trkpt>
      <trkpt lat="46.33631" lon="6.76374">
        <ele>1550.4723</ele>
        <time>2014-08-28T13:45:44Z</time>
      </trkpt>
      <trkpt lat="46.33628" lon="6.76377">
        <ele>1550.4723</ele>
        <time>2014-08-28T13:45:49Z</time>
      </trkpt>
      <trkpt lat="46.33623" lon="6.76382">
        <ele>1547.893</ele>
        <time>2014-08-28T13:45:54Z</time>
      </trkpt>
      <trkpt lat="46.33618" lon="6.76385">
        <ele>1547.893</ele>
        <time>2014-08-28T13:45:59Z</time>
      </trkpt>
      <trkpt lat="46.33614" lon="6.7639">
        <ele>1545.3496</ele>
        <time>2014-08-28T13:46:04Z</time>
      </trkpt>
      <trkpt lat="46.3361" lon="6.76394">
        <ele>1545.3496</ele>
        <time>2014-08-28T13:46:09Z</time>
      </trkpt>
      <trkpt lat="46.33606" lon="6.764">
        <ele>1543.1985</ele>
        <time>2014-08-28T13:46:14Z</time>
      </trkpt>
      <trkpt lat="46.33601" lon="6.76406">
        <ele>1543.1985</ele>
        <time>2014-08-28T13:46:19Z</time>
      </trkpt>
      <trkpt lat="46.33598" lon="6.76411">
        <ele>1541.2783</ele>
        <time>2014-08-28T13:46:24Z</time>
      </trkpt>
      <trkpt lat="46.33593" lon="6.76414">
        <ele>1541.2783</ele>
        <time>2014-08-28T13:46:29Z</time>
      </trkpt>
      <trkpt lat="46.33587" lon="6.76415">
        <ele>1539.497</ele>
        <time>2014-08-28T13:46:34Z</time>
      </trkpt>
      <trkpt lat="46.33583" lon="6.7642">
        <ele>1539.497</ele>
        <time>2014-08-28T13:46:39Z</time>
      </trkpt>
      <trkpt lat="46.33578" lon="6.76429">
        <ele>1537.8984</ele>
        <time>2014-08-28T13:46:44Z</time>
      </trkpt>
      <trkpt lat="46.33574" lon="6.76436">
        <ele>1537.8984</ele>
        <time>2014-08-28T13:46:49Z</time>
      </trkpt>
      <trkpt lat="46.33571" lon="6.76444">
        <ele>1536.4224</ele>
        <time>2014-08-28T13:46:54Z</time>
      </trkpt>
      <trkpt lat="46.33567" lon="6.76449">
        <ele>1536.4224</ele>
        <time>2014-08-28T13:46:59Z</time>
      </trkpt>
      <trkpt lat="46.33562" lon="6.76454">
        <ele>1535.0411</ele>
        <time>2014-08-28T13:47:04Z</time>
      </trkpt>
      <trkpt lat="46.33559" lon="6.76457">
        <ele>1535.0411</ele>
        <time>2014-08-28T13:47:09Z</time>
      </trkpt>
      <trkpt lat="46.33556" lon="6.76464">
        <ele>1534.003</ele>
        <time>2014-08-28T13:47:14Z</time>
      </trkpt>
      <trkpt lat="46.33554" lon="6.76474">
        <ele>1534.003</ele>
        <time>2014-08-28T13:47:19Z</time>
      </trkpt>
      <trkpt lat="46.33553" lon="6.76482">
        <ele>1533.2632</ele>
        <time>2014-08-28T13:47:24Z</time>
      </trkpt>
      <trkpt lat="46.3355" lon="6.76488">
        <ele>1533.2632</ele>
        <time>2014-08-28T13:47:29Z</time>
      </trkpt>
      <trkpt lat="46.33545" lon="6.76492">
        <ele>1532.693</ele>
        <time>2014-08-28T13:47:34Z</time>
      </trkpt>
      <trkpt lat="46.33543" lon="6.76495">
        <ele>1532.693</ele>
        <time>2014-08-28T13:47:39Z</time>
      </trkpt>
      <trkpt lat="46.33541" lon="6.76496">
        <ele>1532.693</ele>
        <time>2014-08-28T13:47:44Z</time>
      </trkpt>
      <trkpt lat="46.33539" lon="6.76498">
        <ele>1532.693</ele>
        <time>2014-08-28T13:47:49Z</time>
      </trkpt>
      <trkpt lat="46.33537" lon="6.76501">
        <ele>1531.8848</ele>
        <time>2014-08-28T13:47:54Z</time>
      </trkpt>
      <trkpt lat="46.33535" lon="6.76504">
        <ele>1531.8848</ele>
        <time>2014-08-28T13:47:59Z</time>
      </trkpt>
      <trkpt lat="46.33533" lon="6.76508">
        <ele>1531.8848</ele>
        <time>2014-08-28T13:48:04Z</time>
      </trkpt>
      <trkpt lat="46.33531" lon="6.76512">
        <ele>1531.0092</ele>
        <time>2014-08-28T13:48:09Z</time>
      </trkpt>
      <trkpt lat="46.33532" lon="6.76514">
        <ele>1531.0092</ele>
        <time>2014-08-28T13:48:14Z</time>
      </trkpt>
      <trkpt lat="46.33531" lon="6.76518">
        <ele>1531.0092</ele>
        <time>2014-08-28T13:48:19Z</time>
      </trkpt>
      <trkpt lat="46.3353" lon="6.76519">
        <ele>1531.0092</ele>
        <time>2014-08-28T13:48:24Z</time>
      </trkpt>
      <trkpt lat="46.33527" lon="6.76523">
        <ele>1530.4839</ele>
        <time>2014-08-28T13:48:29Z</time>
      </trkpt>
      <trkpt lat="46.33523" lon="6.76529">
        <ele>1530.4839</ele>
        <time>2014-08-28T13:48:34Z</time>
      </trkpt>
      <trkpt lat="46.3352" lon="6.76534">
        <ele>1530.1765</ele>
        <time>2014-08-28T13:48:39Z</time>
      </trkpt>
      <trkpt lat="46.33514" lon="6.76542">
        <ele>1530.1765</ele>
        <time>2014-08-28T13:48:44Z</time>
      </trkpt>
      <trkpt lat="46.3351" lon="6.76546">
        <ele>1530.0358</ele>
        <time>2014-08-28T13:48:49Z</time>
      </trkpt>
      <trkpt lat="46.33505" lon="6.76551">
        <ele>1530.0358</ele>
        <time>2014-08-28T13:48:54Z</time>
      </trkpt>
      <trkpt lat="46.33501" lon="6.76553">
        <ele>1530.0717</ele>
        <time>2014-08-28T13:48:59Z</time>
      </trkpt>
      <trkpt lat="46.33497" lon="6.76551">
        <ele>1530.0717</ele>
        <time>2014-08-28T13:49:04Z</time>
      </trkpt>
      <trkpt lat="46.33494" lon="6.76545">
        <ele>1530.1345</ele>
        <time>2014-08-28T13:49:09Z</time>
      </trkpt>
      <trkpt lat="46.33489" lon="6.76542">
        <ele>1530.1345</ele>
        <time>2014-08-28T13:49:14Z</time>
      </trkpt>
      <trkpt lat="46.33482" lon="6.76542">
        <ele>1530.3884</ele>
        <time>2014-08-28T13:49:19Z</time>
      </trkpt>
      <trkpt lat="46.33478" lon="6.76543">
        <ele>1530.3884</ele>
        <time>2014-08-28T13:49:24Z</time>
      </trkpt>
      <trkpt lat="46.33474" lon="6.76545">
        <ele>1530.9706</ele>
        <time>2014-08-28T13:49:29Z</time>
      </trkpt>
      <trkpt lat="46.33473" lon="6.76548">
        <ele>1530.9706</ele>
        <time>2014-08-28T13:49:34Z</time>
      </trkpt>
      <trkpt lat="46.33469" lon="6.76552">
        <ele>1530.9706</ele>
        <time>2014-08-28T13:49:39Z</time>
      </trkpt>
      <trkpt lat="46.33467" lon="6.76556">
        <ele>1531.748</ele>
        <time>2014-08-28T13:49:44Z</time>
      </trkpt>
      <trkpt lat="46.33464" lon="6.76559">
        <ele>1531.748</ele>
        <time>2014-08-28T13:49:49Z</time>
      </trkpt>
      <trkpt lat="46.3346" lon="6.76562">
        <ele>1531.748</ele>
        <time>2014-08-28T13:49:54Z</time>
      </trkpt>
      <trkpt lat="46.33455" lon="6.76565">
        <ele>1532.7557</ele>
        <time>2014-08-28T13:49:59Z</time>
      </trkpt>
      <trkpt lat="46.33452" lon="6.76567">
        <ele>1532.7557</ele>
        <time>2014-08-28T13:50:04Z</time>
      </trkpt>
      <trkpt lat="46.33449" lon="6.76568">
        <ele>1532.7557</ele>
        <time>2014-08-28T13:50:09Z</time>
      </trkpt>
      <trkpt lat="46.33445" lon="6.76568">
        <ele>1534.0112</ele>
        <time>2014-08-28T13:50:14Z</time>
      </trkpt>
      <trkpt lat="46.33437" lon="6.76566">
        <ele>1534.0112</ele>
        <time>2014-08-28T13:50:19Z</time>
      </trkpt>
      <trkpt lat="46.33432" lon="6.76561">
        <ele>1535.4872</ele>
        <time>2014-08-28T13:50:24Z</time>
      </trkpt>
      <trkpt lat="46.33427" lon="6.76559">
        <ele>1535.4872</ele>
        <time>2014-08-28T13:50:29Z</time>
      </trkpt>
      <trkpt lat="46.33422" lon="6.76561">
        <ele>1537.0713</ele>
        <time>2014-08-28T13:50:34Z</time>
      </trkpt>
      <trkpt lat="46.33418" lon="6.7656">
        <ele>1537.0713</ele>
        <time>2014-08-28T13:50:39Z</time>
      </trkpt>
      <trkpt lat="46.33414" lon="6.76561">
        <ele>1537.0713</ele>
        <time>2014-08-28T13:50:44Z</time>
      </trkpt>
      <trkpt lat="46.33413" lon="6.76566">
        <ele>1538.4143</ele>
        <time>2014-08-28T13:50:49Z</time>
      </trkpt>
      <trkpt lat="46.33409" lon="6.76568">
        <ele>1538.4143</ele>
        <time>2014-08-28T13:50:54Z</time>
      </trkpt>
      <trkpt lat="46.33406" lon="6.76572">
        <ele>1538.4143</ele>
        <time>2014-08-28T13:50:59Z</time>
      </trkpt>
      <trkpt lat="46.33402" lon="6.76577">
        <ele>1539.4534</ele>
        <time>2014-08-28T13:51:04Z</time>
      </trkpt>
      <trkpt lat="46.33397" lon="6.76581">
        <ele>1539.4534</ele>
        <time>2014-08-28T13:51:09Z</time>
      </trkpt>
      <trkpt lat="46.33393" lon="6.76584">
        <ele>1540.2031</ele>
        <time>2014-08-28T13:51:14Z</time>
      </trkpt>
      <trkpt lat="46.33387" lon="6.76584">
        <ele>1540.2031</ele>
        <time>2014-08-28T13:51:19Z</time>
      </trkpt>
      <trkpt lat="46.33382" lon="6.76589">
        <ele>1540.6349</ele>
        <time>2014-08-28T13:51:24Z</time>
      </trkpt>
      <trkpt lat="46.33379" lon="6.76592">
        <ele>1540.6349</ele>
        <time>2014-08-28T13:51:29Z</time>
      </trkpt>
      <trkpt lat="46.33375" lon="6.76596">
        <ele>1540.6349</ele>
        <time>2014-08-28T13:51:34Z</time>
      </trkpt>
      <trkpt lat="46.33371" lon="6.76598">
        <ele>1540.7091</ele>
        <time>2014-08-28T13:51:39Z</time>
      </trkpt>
      <trkpt lat="46.33369" lon="6.76602">
        <ele>1540.7091</ele>
        <time>2014-08-28T13:51:44Z</time>
      </trkpt>
      <trkpt lat="46.33364" lon="6.76606">
        <ele>1540.7091</ele>
        <time>2014-08-28T13:51:49Z</time>
      </trkpt>
      <trkpt lat="46.3336" lon="6.76608">
        <ele>1540.4047</ele>
        <time>2014-08-28T13:51:54Z</time>
      </trkpt>
      <trkpt lat="46.33356" lon="6.7661">
        <ele>1540.4047</ele>
        <time>2014-08-28T13:51:59Z</time>
      </trkpt>
      <trkpt lat="46.33353" lon="6.76611">
        <ele>1540.4047</ele>
        <time>2014-08-28T13:52:04Z</time>
      </trkpt>
      <trkpt lat="46.3335" lon="6.76613">
        <ele>1540.0345</ele>
        <time>2014-08-28T13:52:09Z</time>
      </trkpt>
      <trkpt lat="46.33346" lon="6.76615">
        <ele>1540.0345</ele>
        <time>2014-08-28T13:52:14Z</time>
      </trkpt>
      <trkpt lat="46.33343" lon="6.7662">
        <ele>1539.2123</ele>
        <time>2014-08-28T13:52:19Z</time>
      </trkpt>
      <trkpt lat="46.33339" lon="6.76619">
        <ele>1539.2123</ele>
        <time>2014-08-28T13:52:24Z</time>
      </trkpt>
      <trkpt lat="46.33333" lon="6.76619">
        <ele>1538.489</ele>
        <time>2014-08-28T13:52:29Z</time>
      </trkpt>
      <trkpt lat="46.33327" lon="6.76622">
        <ele>1538.489</ele>
        <time>2014-08-28T13:52:34Z</time>
      </trkpt>
      <trkpt lat="46.33322" lon="6.7662">
        <ele>1538.0004</ele>
        <time>2014-08-28T13:52:39Z</time>
      </trkpt>
      <trkpt lat="46.33318" lon="6.7662">
        <ele>1538.0004</ele>
        <time>2014-08-28T13:52:44Z</time>
      </trkpt>
      <trkpt lat="46.33312" lon="6.76623">
        <ele>1537.5549</ele>
        <time>2014-08-28T13:52:49Z</time>
      </trkpt>
      <trkpt lat="46.33309" lon="6.76623">
        <ele>1537.5549</ele>
        <time>2014-08-28T13:52:54Z</time>
      </trkpt>
      <trkpt lat="46.33304" lon="6.76624">
        <ele>1537.5549</ele>
        <time>2014-08-28T13:52:59Z</time>
      </trkpt>
      <trkpt lat="46.33298" lon="6.76627">
        <ele>1537.0328</ele>
        <time>2014-08-28T13:53:04Z</time>
      </trkpt>
      <trkpt lat="46.33291" lon="6.76629">
        <ele>1537.0328</ele>
        <time>2014-08-28T13:53:09Z</time>
      </trkpt>
      <trkpt lat="46.33286" lon="6.7663">
        <ele>1536.4242</ele>
        <time>2014-08-28T13:53:14Z</time>
      </trkpt>
      <trkpt lat="46.3328" lon="6.76632">
        <ele>1536.4242</ele>
        <time>2014-08-28T13:53:19Z</time>
      </trkpt>
      <trkpt lat="46.33276" lon="6.76632">
        <ele>1535.8071</ele>
        <time>2014-08-28T13:53:24Z</time>
      </trkpt>
      <trkpt lat="46.33273" lon="6.76633">
        <ele>1535.8071</ele>
        <time>2014-08-28T13:53:29Z</time>
      </trkpt>
      <trkpt lat="46.33267" lon="6.7663">
        <ele>1535.1672</ele>
        <time>2014-08-28T13:53:34Z</time>
      </trkpt>
      <trkpt lat="46.33263" lon="6.76629">
        <ele>1535.1672</ele>
        <time>2014-08-28T13:53:39Z</time>
      </trkpt>
      <trkpt lat="46.33265" lon="6.76629">
        <ele>1535.1672</ele>
        <time>2014-08-28T13:53:44Z</time>
      </trkpt>
      <trkpt lat="46.33266" lon="6.76629">
        <ele>1535.1672</ele>
        <time>2014-08-28T13:53:49Z</time>
      </trkpt>
      <trkpt lat="46.33267" lon="6.7663">
        <ele>1535.1672</ele>
        <time>2014-08-28T13:53:54Z</time>
      </trkpt>
      <trkpt lat="46.3327" lon="6.7663">
        <ele>1534.535</ele>
        <time>2014-08-28T13:53:59Z</time>
      </trkpt>
      <trkpt lat="46.3327" lon="6.7663">
        <ele>1534.535</ele>
        <time>2014-08-28T13:54:04Z</time>
      </trkpt>
      <trkpt lat="46.33271" lon="6.76632">
        <ele>1534.535</ele>
        <time>2014-08-28T13:54:09Z</time>
      </trkpt>
      <trkpt lat="46.3327" lon="6.76633">
        <ele>1534.535</ele>
        <time>2014-08-28T13:54:14Z</time>
      </trkpt>
      <trkpt lat="46.33267" lon="6.76636">
        <ele>1534.535</ele>
        <time>2014-08-28T13:54:19Z</time>
      </trkpt>
      <trkpt lat="46.3326" lon="6.76637">
        <ele>1534.1692</ele>
        <time>2014-08-28T13:54:24Z</time>
      </trkpt>
      <trkpt lat="46.33253" lon="6.76635">
        <ele>1534.1692</ele>
        <time>2014-08-28T13:54:29Z</time>
      </trkpt>
      <trkpt lat="46.33247" lon="6.7663">
        <ele>1533.9055</ele>
        <time>2014-08-28T13:54:34Z</time>
      </trkpt>
      <trkpt lat="46.33242" lon="6.76628">
        <ele>1533.9055</ele>
        <time>2014-08-28T13:54:39Z</time>
      </trkpt>
      <trkpt lat="46.33238" lon="6.76626">
        <ele>1533.9055</ele>
        <time>2014-08-28T13:54:44Z</time>
      </trkpt>
      <trkpt lat="46.33236" lon="6.76622">
        <ele>1533.4329</ele>
        <time>2014-08-28T13:54:49Z</time>
      </trkpt>
      <trkpt lat="46.33232" lon="6.76621">
        <ele>1533.4329</ele>
        <time>2014-08-28T13:54:54Z</time>
      </trkpt>
      <trkpt lat="46.33229" lon="6.76618">
        <ele>1533.4329</ele>
        <time>2014-08-28T13:54:59Z</time>
      </trkpt>
      <trkpt lat="46.33226" lon="6.76617">
        <ele>1532.536</ele>
        <time>2014-08-28T13:55:04Z</time>
      </trkpt>
      <trkpt lat="46.33222" lon="6.76614">
        <ele>1532.536</ele>
        <time>2014-08-28T13:55:09Z</time>
      </trkpt>
      <trkpt lat="46.33219" lon="6.76612">
        <ele>1532.536</ele>
        <time>2014-08-28T13:55:14Z</time>
      </trkpt>
      <trkpt lat="46.33215" lon="6.76612">
        <ele>1531.2616</ele>
        <time>2014-08-28T13:55:19Z</time>
      </trkpt>
      <trkpt lat="46.33209" lon="6.76612">
        <ele>1531.2616</ele>
        <time>2014-08-28T13:55:24Z</time>
      </trkpt>
      <trkpt lat="46.33206" lon="6.76607">
        <ele>1529.856</ele>
        <time>2014-08-28T13:55:29Z</time>
      </trkpt>
      <trkpt lat="46.33203" lon="6.76604">
        <ele>1529.856</ele>
        <time>2014-08-28T13:55:34Z</time>
      </trkpt>
      <trkpt lat="46.332" lon="6.76597">
        <ele>1528.3169</ele>
        <time>2014-08-28T13:55:39Z</time>
      </trkpt>
      <trkpt lat="46.33195" lon="6.76591">
        <ele>1528.3169</ele>
        <time>2014-08-28T13:55:44Z</time>
      </trkpt>
      <trkpt lat="46.33191" lon="6.76585">
        <ele>1526.9602</ele>
        <time>2014-08-28T13:55:49Z</time>
      </trkpt>
      <trkpt lat="46.33186" lon="6.76581">
        <ele>1526.9602</ele>
        <time>2014-08-28T13:55:54Z</time>
      </trkpt>
      <trkpt lat="46.33181" lon="6.76576">
        <ele>1525.7607</ele>
        <time>2014-08-28T13:55:59Z</time>
      </trkpt>
      <trkpt lat="46.33177" lon="6.76573">
        <ele>1525.7607</ele>
        <time>2014-08-28T13:56:04Z</time>
      </trkpt>
      <trkpt lat="46.33173" lon="6.76572">
        <ele>1525.7607</ele>
        <time>2014-08-28T13:56:09Z</time>
      </trkpt>
      <trkpt lat="46.33169" lon="6.7657">
        <ele>1524.5219</ele>
        <time>2014-08-28T13:56:14Z</time>
      </trkpt>
      <trkpt lat="46.33165" lon="6.76568">
        <ele>1524.5219</ele>
        <time>2014-08-28T13:56:19Z</time>
      </trkpt>
      <trkpt lat="46.3316" lon="6.76566">
        <ele>1523.2203</ele>
        <time>2014-08-28T13:56:24Z</time>
      </trkpt>
      <trkpt lat="46.33155" lon="6.76562">
        <ele>1523.2203</ele>
        <time>2014-08-28T13:56:29Z</time>
      </trkpt>
      <trkpt lat="46.3315" lon="6.76559">
        <ele>1521.8632</ele>
        <time>2014-08-28T13:56:34Z</time>
      </trkpt>
      <trkpt lat="46.33147" lon="6.76558">
        <ele>1521.8632</ele>
        <time>2014-08-28T13:56:39Z</time>
      </trkpt>
      <trkpt lat="46.33143" lon="6.76555">
        <ele>1521.8632</ele>
        <time>2014-08-28T13:56:44Z</time>
      </trkpt>
      <trkpt lat="46.33138" lon="6.76554">
        <ele>1520.2413</ele>
        <time>2014-08-28T13:56:49Z</time>
      </trkpt>
      <trkpt lat="46.33135" lon="6.76551">
        <ele>1520.2413</ele>
        <time>2014-08-28T13:56:54Z</time>
      </trkpt>
      <trkpt lat="46.33131" lon="6.7655">
        <ele>1520.2413</ele>
        <time>2014-08-28T13:56:59Z</time>
      </trkpt>
      <trkpt lat="46.33128" lon="6.76546">
        <ele>1518.4786</ele>
        <time>2014-08-28T13:57:04Z</time>
      </trkpt>
      <trkpt lat="46.33125" lon="6.76544">
        <ele>1518.4786</ele>
        <time>2014-08-28T13:57:09Z</time>
      </trkpt>
      <trkpt lat="46.33122" lon="6.76543">
        <ele>1518.4786</ele>
        <time>2014-08-28T13:57:14Z</time>
      </trkpt>
      <trkpt lat="46.33117" lon="6.76545">
        <ele>1516.4164</ele>
        <time>2014-08-28T13:57:19Z</time>
      </trkpt>
      <trkpt lat="46.33113" lon="6.76544">
        <ele>1516.4164</ele>
        <time>2014-08-28T13:57:24Z</time>
      </trkpt>
      <trkpt lat="46.3311" lon="6.76545">
        <ele>1516.4164</ele>
        <time>2014-08-28T13:57:29Z</time>
      </trkpt>
      <trkpt lat="46.33106" lon="6.76549">
        <ele>1514.1534</ele>
        <time>2014-08-28T13:57:34Z</time>
      </trkpt>
      <trkpt lat="46.33101" lon="6.76549">
        <ele>1514.1534</ele>
        <time>2014-08-28T13:57:39Z</time>
      </trkpt>
      <trkpt lat="46.33096" lon="6.76551">
        <ele>1512.0126</ele>
        <time>2014-08-28T13:57:44Z</time>
      </trkpt>
      <trkpt lat="46.33092" lon="6.76554">
        <ele>1512.0126</ele>
        <time>2014-08-28T13:57:49Z</time>
      </trkpt>
      <trkpt lat="46.33089" lon="6.76559">
        <ele>1512.0126</ele>
        <time>2014-08-28T13:57:54Z</time>
      </trkpt>
      <trkpt lat="46.33086" lon="6.7656">
        <ele>1510.0472</ele>
        <time>2014-08-28T13:57:59Z</time>
      </trkpt>
      <trkpt lat="46.33083" lon="6.7656">
        <ele>1510.0472</ele>
        <time>2014-08-28T13:58:04Z</time>
      </trkpt>
      <trkpt lat="46.33078" lon="6.76559">
        <ele>1510.0472</ele>
        <time>2014-08-28T13:58:09Z</time>
      </trkpt>
      <trkpt lat="46.33075" lon="6.76562">
        <ele>1508.1191</ele>
        <time>2014-08-28T13:58:14Z</time>
      </trkpt>
      <trkpt lat="46.33071" lon="6.7656">
        <ele>1508.1191</ele>
        <time>2014-08-28T13:58:19Z</time>
      </trkpt>
      <trkpt lat="46.33067" lon="6.76559">
        <ele>1508.1191</ele>
        <time>2014-08-28T13:58:24Z</time>
      </trkpt>
      <trkpt lat="46.33062" lon="6.76559">
        <ele>1506.1292</ele>
        <time>2014-08-28T13:58:29Z</time>
      </trkpt>
      <trkpt lat="46.33058" lon="6.76558">
        <ele>1506.1292</ele>
        <time>2014-08-28T13:58:34Z</time>
      </trkpt>
      <trkpt lat="46.33053" lon="6.76557">
        <ele>1504.2299</ele>
        <time>2014-08-28T13:58:39Z</time>
      </trkpt>
      <trkpt lat="46.33052" lon="6.76558">
        <ele>1504.2299</ele>
        <time>2014-08-28T13:58:44Z</time>
      </trkpt>
      <trkpt lat="46.33052" lon="6.76558">
        <ele>1504.2299</ele>
        <time>2014-08-28T13:58:49Z</time>
      </trkpt>
      <trkpt lat="46.33051" lon="6.76559">
        <ele>1504.2299</ele>
        <time>2014-08-28T13:58:54Z</time>
      </trkpt>
      <trkpt lat="46.33051" lon="6.76559">
        <ele>1504.2299</ele>
        <time>2014-08-28T13:58:59Z</time>
      </trkpt>
      <trkpt lat="46.33051" lon="6.76559">
        <ele>1504.2299</ele>
        <time>2014-08-28T13:59:04Z</time>
      </trkpt>
      <trkpt lat="46.33052" lon="6.76562">
        <ele>1504.2299</ele>
        <time>2014-08-28T13:59:44Z</time>
      </trkpt>
      <trkpt lat="46.33052" lon="6.76571">
        <ele>1502.0441</ele>
        <time>2014-08-28T13:59:49Z</time>
      </trkpt>
      <trkpt lat="46.33049" lon="6.76574">
        <ele>1502.0441</ele>
        <time>2014-08-28T13:59:54Z</time>
      </trkpt>
      <trkpt lat="46.33046" lon="6.76576">
        <ele>1502.0441</ele>
        <time>2014-08-28T13:59:59Z</time>
      </trkpt>
      <trkpt lat="46.33043" lon="6.76577">
        <ele>1501.0586</ele>
        <time>2014-08-28T14:00:04Z</time>
      </trkpt>
      <trkpt lat="46.3304" lon="6.76577">
        <ele>1500.073</ele>
        <time>2014-08-28T14:00:09Z</time>
      </trkpt>
      <trkpt lat="46.33035" lon="6.76577">
        <ele>1500.073</ele>
        <time>2014-08-28T14:00:14Z</time>
      </trkpt>
      <trkpt lat="46.33036" lon="6.76579">
        <ele>1500.073</ele>
        <time>2014-08-28T14:00:19Z</time>
      </trkpt>
      <trkpt lat="46.33037" lon="6.76582">
        <ele>1500.073</ele>
        <time>2014-08-28T14:00:24Z</time>
      </trkpt>
      <trkpt lat="46.33037" lon="6.76582">
        <ele>1500.073</ele>
        <time>2014-08-28T14:00:29Z</time>
      </trkpt>
      <trkpt lat="46.33037" lon="6.76582">
        <ele>1498.4346</ele>
        <time>2014-08-28T14:00:49Z</time>
      </trkpt>
      <trkpt lat="46.33037" lon="6.7658">
        <ele>1498.4346</ele>
        <time>2014-08-28T14:01:14Z</time>
      </trkpt>
      <trkpt lat="46.33038" lon="6.76576">
        <ele>1498.4346</ele>
        <time>2014-08-28T14:01:19Z</time>
      </trkpt>
      <trkpt lat="46.33035" lon="6.76576">
        <ele>1498.4346</ele>
        <time>2014-08-28T14:01:24Z</time>
      </trkpt>
      <trkpt lat="46.33035" lon="6.76576">
        <ele>1498.4346</ele>
        <time>2014-08-28T14:01:29Z</time>
      </trkpt>
      <trkpt lat="46.33036" lon="6.76576">
        <ele>1498.4346</ele>
        <time>2014-08-28T14:01:49Z</time>
      </trkpt>
      <trkpt lat="46.33036" lon="6.76576">
        <ele>1498.4346</ele>
        <time>2014-08-28T14:01:54Z</time>
      </trkpt>
      <trkpt lat="46.33037" lon="6.76575">
        <ele>1496.646</ele>
        <time>2014-08-28T14:02:14Z</time>
      </trkpt>
      <trkpt lat="46.33043" lon="6.76574">
        <ele>1496.646</ele>
        <time>2014-08-28T14:02:19Z</time>
      </trkpt>
      <trkpt lat="46.33046" lon="6.76577">
        <ele>1495.0676</ele>
        <time>2014-08-28T14:02:24Z</time>
      </trkpt>
      <trkpt lat="46.33053" lon="6.76579">
        <ele>1495.0676</ele>
        <time>2014-08-28T14:02:29Z</time>
      </trkpt>
      <trkpt lat="46.33058" lon="6.76582">
        <ele>1493.8306</ele>
        <time>2014-08-28T14:02:34Z</time>
      </trkpt>
      <trkpt lat="46.3306" lon="6.76582">
        <ele>1493.8306</ele>
        <time>2014-08-28T14:02:39Z</time>
      </trkpt>
      <trkpt lat="46.33059" lon="6.7659">
        <ele>1493.8306</ele>
        <time>2014-08-28T14:02:44Z</time>
      </trkpt>
      <trkpt lat="46.3306" lon="6.76597">
        <ele>1492.9113</ele>
        <time>2014-08-28T14:02:49Z</time>
      </trkpt>
      <trkpt lat="46.33059" lon="6.76604">
        <ele>1492.9113</ele>
        <time>2014-08-28T14:02:54Z</time>
      </trkpt>
      <trkpt lat="46.33059" lon="6.7661">
        <ele>1492.1571</ele>
        <time>2014-08-28T14:02:59Z</time>
      </trkpt>
      <trkpt lat="46.33061" lon="6.76616">
        <ele>1492.1571</ele>
        <time>2014-08-28T14:03:04Z</time>
      </trkpt>
      <trkpt lat="46.33063" lon="6.76624">
        <ele>1491.4264</ele>
        <time>2014-08-28T14:03:09Z</time>
      </trkpt>
      <trkpt lat="46.33065" lon="6.76633">
        <ele>1491.4264</ele>
        <time>2014-08-28T14:03:14Z</time>
      </trkpt>
      <trkpt lat="46.33068" lon="6.76636">
        <ele>1490.6162</ele>
        <time>2014-08-28T14:03:19Z</time>
      </trkpt>
      <trkpt lat="46.33072" lon="6.76642">
        <ele>1490.6162</ele>
        <time>2014-08-28T14:03:24Z</time>
      </trkpt>
      <trkpt lat="46.33073" lon="6.76649">
        <ele>1489.7467</ele>
        <time>2014-08-28T14:03:29Z</time>
      </trkpt>
      <trkpt lat="46.33075" lon="6.76652">
        <ele>1489.7467</ele>
        <time>2014-08-28T14:03:34Z</time>
      </trkpt>
      <trkpt lat="46.33078" lon="6.76656">
        <ele>1489.7467</ele>
        <time>2014-08-28T14:03:39Z</time>
      </trkpt>
      <trkpt lat="46.3308" lon="6.76657">
        <ele>1489.0963</ele>
        <time>2014-08-28T14:03:44Z</time>
      </trkpt>
      <trkpt lat="46.33086" lon="6.76659">
        <ele>1489.0963</ele>
        <time>2014-08-28T14:03:49Z</time>
      </trkpt>
      <trkpt lat="46.33092" lon="6.76661">
        <ele>1488.6624</ele>
        <time>2014-08-28T14:03:54Z</time>
      </trkpt>
      <trkpt lat="46.33098" lon="6.76664">
        <ele>1488.6624</ele>
        <time>2014-08-28T14:03:59Z</time>
      </trkpt>
      <trkpt lat="46.33102" lon="6.76666">
        <ele>1488.4568</ele>
        <time>2014-08-28T14:04:04Z</time>
      </trkpt>
      <trkpt lat="46.33102" lon="6.76666">
        <ele>1488.4568</ele>
        <time>2014-08-28T14:04:09Z</time>
      </trkpt>
      <trkpt lat="46.33104" lon="6.76669">
        <ele>1488.4568</ele>
        <time>2014-08-28T14:04:29Z</time>
      </trkpt>
      <trkpt lat="46.33109" lon="6.76674">
        <ele>1488.4568</ele>
        <time>2014-08-28T14:04:34Z</time>
      </trkpt>
      <trkpt lat="46.33113" lon="6.76681">
        <ele>1488.403</ele>
        <time>2014-08-28T14:04:39Z</time>
      </trkpt>
      <trkpt lat="46.33116" lon="6.76684">
        <ele>1488.403</ele>
        <time>2014-08-28T14:04:44Z</time>
      </trkpt>
      <trkpt lat="46.33116" lon="6.76685">
        <ele>1488.403</ele>
        <time>2014-08-28T14:04:49Z</time>
      </trkpt>
      <trkpt lat="46.33116" lon="6.76684">
        <ele>1488.403</ele>
        <time>2014-08-28T14:05:09Z</time>
      </trkpt>
      <trkpt lat="46.33116" lon="6.76684">
        <ele>1488.403</ele>
        <time>2014-08-28T14:05:14Z</time>
      </trkpt>
      <trkpt lat="46.33115" lon="6.76686">
        <ele>1488.403</ele>
        <time>2014-08-28T14:05:29Z</time>
      </trkpt>
      <trkpt lat="46.33113" lon="6.76688">
        <ele>1488.3575</ele>
        <time>2014-08-28T14:05:34Z</time>
      </trkpt>
      <trkpt lat="46.33111" lon="6.7669">
        <ele>1488.3575</ele>
        <time>2014-08-28T14:05:39Z</time>
      </trkpt>
      <trkpt lat="46.33109" lon="6.76692">
        <ele>1488.3575</ele>
        <time>2014-08-28T14:05:44Z</time>
      </trkpt>
      <trkpt lat="46.33106" lon="6.76695">
        <ele>1488.3575</ele>
        <time>2014-08-28T14:05:49Z</time>
      </trkpt>
      <trkpt lat="46.33105" lon="6.76698">
        <ele>1488.2311</ele>
        <time>2014-08-28T14:05:54Z</time>
      </trkpt>
      <trkpt lat="46.33102" lon="6.76699">
        <ele>1488.2311</ele>
        <time>2014-08-28T14:05:59Z</time>
      </trkpt>
      <trkpt lat="46.33099" lon="6.76703">
        <ele>1488.2311</ele>
        <time>2014-08-28T14:06:04Z</time>
      </trkpt>
      <trkpt lat="46.33099" lon="6.76704">
        <ele>1488.2311</ele>
        <time>2014-08-28T14:06:09Z</time>
      </trkpt>
      <trkpt lat="46.33098" lon="6.76707">
        <ele>1488.0848</ele>
        <time>2014-08-28T14:06:14Z</time>
      </trkpt>
      <trkpt lat="46.33095" lon="6.76714">
        <ele>1488.0848</ele>
        <time>2014-08-28T14:06:19Z</time>
      </trkpt>
      <trkpt lat="46.3309" lon="6.76722">
        <ele>1487.8602</ele>
        <time>2014-08-28T14:06:24Z</time>
      </trkpt>
      <trkpt lat="46.33086" lon="6.76725">
        <ele>1487.8602</ele>
        <time>2014-08-28T14:06:29Z</time>
      </trkpt>
      <trkpt lat="46.33081" lon="6.76732">
        <ele>1487.8492</ele>
        <time>2014-08-28T14:06:34Z</time>
      </trkpt>
      <trkpt lat="46.33081" lon="6.76733">
        <ele>1487.8492</ele>
        <time>2014-08-28T14:06:39Z</time>
      </trkpt>
      <trkpt lat="46.3308" lon="6.76739">
        <ele>1487.8492</ele>
        <time>2014-08-28T14:06:44Z</time>
      </trkpt>
      <trkpt lat="46.33077" lon="6.76744">
        <ele>1487.947</ele>
        <time>2014-08-28T14:06:49Z</time>
      </trkpt>
      <trkpt lat="46.33074" lon="6.76748">
        <ele>1487.947</ele>
        <time>2014-08-28T14:06:54Z</time>
      </trkpt>
      <trkpt lat="46.33071" lon="6.7675">
        <ele>1487.947</ele>
        <time>2014-08-28T14:06:59Z</time>
      </trkpt>
      <trkpt lat="46.33066" lon="6.76753">
        <ele>1488.3589</ele>
        <time>2014-08-28T14:07:04Z</time>
      </trkpt>
      <trkpt lat="46.33065" lon="6.76755">
        <ele>1488.3589</ele>
        <time>2014-08-28T14:07:09Z</time>
      </trkpt>
      <trkpt lat="46.33063" lon="6.76756">
        <ele>1488.3589</ele>
        <time>2014-08-28T14:07:14Z</time>
      </trkpt>
      <trkpt lat="46.33062" lon="6.76759">
        <ele>1488.3589</ele>
        <time>2014-08-28T14:07:19Z</time>
      </trkpt>
      <trkpt lat="46.33061" lon="6.76761">
        <ele>1488.3589</ele>
        <time>2014-08-28T14:07:24Z</time>
      </trkpt>
      <trkpt lat="46.33058" lon="6.76767">
        <ele>1488.6543</ele>
        <time>2014-08-28T14:07:29Z</time>
      </trkpt>
      <trkpt lat="46.33056" lon="6.7677">
        <ele>1488.6543</ele>
        <time>2014-08-28T14:07:34Z</time>
      </trkpt>
      <trkpt lat="46.33056" lon="6.7677">
        <ele>1488.6543</ele>
        <time>2014-08-28T14:07:39Z</time>
      </trkpt>
      <trkpt lat="46.3305" lon="6.76778">
        <ele>1489.0834</ele>
        <time>2014-08-28T14:07:44Z</time>
      </trkpt>
      <trkpt lat="46.3305" lon="6.76779">
        <ele>1489.0834</ele>
        <time>2014-08-28T14:07:49Z</time>
      </trkpt>
      <trkpt lat="46.33048" lon="6.76783">
        <ele>1489.0834</ele>
        <time>2014-08-28T14:07:54Z</time>
      </trkpt>
      <trkpt lat="46.33045" lon="6.76787">
        <ele>1489.0834</ele>
        <time>2014-08-28T14:07:59Z</time>
      </trkpt>
      <trkpt lat="46.33043" lon="6.7679">
        <ele>1489.7766</ele>
        <time>2014-08-28T14:08:04Z</time>
      </trkpt>
      <trkpt lat="46.33041" lon="6.76793">
        <ele>1489.7766</ele>
        <time>2014-08-28T14:08:09Z</time>
      </trkpt>
      <trkpt lat="46.3304" lon="6.76793">
        <ele>1489.7766</ele>
        <time>2014-08-28T14:08:14Z</time>
      </trkpt>
      <trkpt lat="46.3304" lon="6.76793">
        <ele>1489.7766</ele>
        <time>2014-08-28T14:08:29Z</time>
      </trkpt>
      <trkpt lat="46.33038" lon="6.76795">
        <ele>1489.7766</ele>
        <time>2014-08-28T14:08:34Z</time>
      </trkpt>
      <trkpt lat="46.33038" lon="6.76795">
        <ele>1489.7766</ele>
        <time>2014-08-28T14:08:39Z</time>
      </trkpt>
      <trkpt lat="46.33036" lon="6.76799">
        <ele>1490.6958</ele>
        <time>2014-08-28T14:08:44Z</time>
      </trkpt>
      <trkpt lat="46.33034" lon="6.76802">
        <ele>1490.6958</ele>
        <time>2014-08-28T14:08:49Z</time>
      </trkpt>
      <trkpt lat="46.33032" lon="6.76806">
        <ele>1490.6958</ele>
        <time>2014-08-28T14:08:54Z</time>
      </trkpt>
      <trkpt lat="46.3303" lon="6.76809">
        <ele>1491.9344</ele>
        <time>2014-08-28T14:08:59Z</time>
      </trkpt>
      <trkpt lat="46.33029" lon="6.76813">
        <ele>1491.9344</ele>
        <time>2014-08-28T14:09:04Z</time>
      </trkpt>
      <trkpt lat="46.33027" lon="6.76816">
        <ele>1491.9344</ele>
        <time>2014-08-28T14:09:09Z</time>
      </trkpt>
      <trkpt lat="46.33026" lon="6.76819">
        <ele>1491.9344</ele>
        <time>2014-08-28T14:09:14Z</time>
      </trkpt>
      <trkpt lat="46.33025" lon="6.76822">
        <ele>1493.6217</ele>
        <time>2014-08-28T14:09:19Z</time>
      </trkpt>
      <trkpt lat="46.33023" lon="6.76824">
        <ele>1493.6217</ele>
        <time>2014-08-28T14:09:24Z</time>
      </trkpt>
      <trkpt lat="46.33021" lon="6.76828">
        <ele>1493.6217</ele>
        <time>2014-08-28T14:09:29Z</time>
      </trkpt>
      <trkpt lat="46.33019" lon="6.76831">
        <ele>1493.6217</ele>
        <time>2014-08-28T14:09:34Z</time>
      </trkpt>
      <trkpt lat="46.33017" lon="6.76833">
        <ele>1495.7177</ele>
        <time>2014-08-28T14:09:39Z</time>
      </trkpt>
      <trkpt lat="46.33016" lon="6.76835">
        <ele>1495.7177</ele>
        <time>2014-08-28T14:09:44Z</time>
      </trkpt>
      <trkpt lat="46.33016" lon="6.76835">
        <ele>1495.7177</ele>
        <time>2014-08-28T14:09:49Z</time>
      </trkpt>
      <trkpt lat="46.33014" lon="6.76839">
        <ele>1495.7177</ele>
        <time>2014-08-28T14:09:54Z</time>
      </trkpt>
      <trkpt lat="46.33014" lon="6.7684">
        <ele>1495.7177</ele>
        <time>2014-08-28T14:09:59Z</time>
      </trkpt>
      <trkpt lat="46.33013" lon="6.76842">
        <ele>1495.7177</ele>
        <time>2014-08-28T14:10:04Z</time>
      </trkpt>
      <trkpt lat="46.33009" lon="6.76845">
        <ele>1497.9823</ele>
        <time>2014-08-28T14:10:09Z</time>
      </trkpt>
      <trkpt lat="46.33008" lon="6.76844">
        <ele>1497.9823</ele>
        <time>2014-08-28T14:10:14Z</time>
      </trkpt>
      <trkpt lat="46.33008" lon="6.76844">
        <ele>1497.9823</ele>
        <time>2014-08-28T14:10:19Z</time>
      </trkpt>
      <trkpt lat="46.33008" lon="6.76844">
        <ele>1497.9823</ele>
        <time>2014-08-28T14:10:34Z</time>
      </trkpt>
      <trkpt lat="46.33004" lon="6.76842">
        <ele>1497.9823</ele>
        <time>2014-08-28T14:10:39Z</time>
      </trkpt>
      <trkpt lat="46.33001" lon="6.76839">
        <ele>1500.9424</ele>
        <time>2014-08-28T14:10:44Z</time>
      </trkpt>
      <trkpt lat="46.32998" lon="6.76836">
        <ele>1500.9424</ele>
        <time>2014-08-28T14:10:49Z</time>
      </trkpt>
      <trkpt lat="46.32997" lon="6.76836">
        <ele>1500.9424</ele>
        <time>2014-08-28T14:10:54Z</time>
      </trkpt>
      <trkpt lat="46.32996" lon="6.76834">
        <ele>1500.9424</ele>
        <time>2014-08-28T14:10:59Z</time>
      </trkpt>
      <trkpt lat="46.32993" lon="6.7683">
        <ele>1503.8303</ele>
        <time>2014-08-28T14:11:04Z</time>
      </trkpt>
      <trkpt lat="46.32991" lon="6.76827">
        <ele>1503.8303</ele>
        <time>2014-08-28T14:11:09Z</time>
      </trkpt>
      <trkpt lat="46.3299" lon="6.76825">
        <ele>1503.8303</ele>
        <time>2014-08-28T14:11:14Z</time>
      </trkpt>
      <trkpt lat="46.3299" lon="6.76827">
        <ele>1503.8303</ele>
        <time>2014-08-28T14:11:19Z</time>
      </trkpt>
      <trkpt lat="46.3299" lon="6.76827">
        <ele>1503.8303</ele>
        <time>2014-08-28T14:11:24Z</time>
      </trkpt>
      <trkpt lat="46.3299" lon="6.76827">
        <ele>1503.8303</ele>
        <time>2014-08-28T14:11:29Z</time>
      </trkpt>
      <trkpt lat="46.32991" lon="6.76828">
        <ele>1503.8303</ele>
        <time>2014-08-28T14:11:34Z</time>
      </trkpt>
      <trkpt lat="46.32991" lon="6.7683">
        <ele>1503.8303</ele>
        <time>2014-08-28T14:11:39Z</time>
      </trkpt>
      <trkpt lat="46.3299" lon="6.76831">
        <ele>1507.4486</ele>
        <time>2014-08-28T14:11:44Z</time>
      </trkpt>
      <trkpt lat="46.32991" lon="6.76832">
        <ele>1507.4486</ele>
        <time>2014-08-28T14:11:49Z</time>
      </trkpt>
      <trkpt lat="46.32991" lon="6.76834">
        <ele>1507.4486</ele>
        <time>2014-08-28T14:11:54Z</time>
      </trkpt>
      <trkpt lat="46.32991" lon="6.76836">
        <ele>1507.4486</ele>
        <time>2014-08-28T14:11:59Z</time>
      </trkpt>
      <trkpt lat="46.32991" lon="6.76837">
        <ele>1507.4486</ele>
        <time>2014-08-28T14:12:04Z</time>
      </trkpt>
      <trkpt lat="46.3299" lon="6.76839">
        <ele>1507.4486</ele>
        <time>2014-08-28T14:12:09Z</time>
      </trkpt>
      <trkpt lat="46.32991" lon="6.76842">
        <ele>1507.4486</ele>
        <time>2014-08-28T14:12:14Z</time>
      </trkpt>
      <trkpt lat="46.32991" lon="6.76842">
        <ele>1507.4486</ele>
        <time>2014-08-28T14:12:19Z</time>
      </trkpt>
      <trkpt lat="46.32991" lon="6.76846">
        <ele>1511.6163</ele>
        <time>2014-08-28T14:12:24Z</time>
      </trkpt>
      <trkpt lat="46.32992" lon="6.76847">
        <ele>1511.6163</ele>
        <time>2014-08-28T14:12:29Z</time>
      </trkpt>
      <trkpt lat="46.32992" lon="6.76852">
        <ele>1511.6163</ele>
        <time>2014-08-28T14:12:34Z</time>
      </trkpt>
      <trkpt lat="46.32992" lon="6.76852">
        <ele>1511.6163</ele>
        <time>2014-08-28T14:12:39Z</time>
      </trkpt>
      <trkpt lat="46.32992" lon="6.76855">
        <ele>1511.6163</ele>
        <time>2014-08-28T14:12:54Z</time>
      </trkpt>
      <trkpt lat="46.32991" lon="6.76854">
        <ele>1511.6163</ele>
        <time>2014-08-28T14:12:59Z</time>
      </trkpt>
      <trkpt lat="46.32991" lon="6.76854">
        <ele>1511.6163</ele>
        <time>2014-08-28T14:13:04Z</time>
      </trkpt>
      <trkpt lat="46.3299" lon="6.76853">
        <ele>1511.6163</ele>
        <time>2014-08-28T14:13:14Z</time>
      </trkpt>
      <trkpt lat="46.3299" lon="6.76853">
        <ele>1511.6163</ele>
        <time>2014-08-28T14:13:19Z</time>
      </trkpt>
      <trkpt lat="46.32989" lon="6.76852">
        <ele>1515.8478</ele>
        <time>2014-08-28T14:13:24Z</time>
      </trkpt>
      <trkpt lat="46.32988" lon="6.76854">
        <ele>1515.8478</ele>
        <time>2014-08-28T14:13:29Z</time>
      </trkpt>
      <trkpt lat="46.32988" lon="6.76855">
        <ele>1515.8478</ele>
        <time>2014-08-28T14:13:34Z</time>
      </trkpt>
      <trkpt lat="46.32987" lon="6.76858">
        <ele>1515.8478</ele>
        <time>2014-08-28T14:13:39Z</time>
      </trkpt>
      <trkpt lat="46.32987" lon="6.76858">
        <ele>1515.8478</ele>
        <time>2014-08-28T14:13:44Z</time>
      </trkpt>
      <trkpt lat="46.32987" lon="6.76859">
        <ele>1515.8478</ele>
        <time>2014-08-28T14:13:54Z</time>
      </trkpt>
      <trkpt lat="46.32986" lon="6.7686">
        <ele>1515.8478</ele>
        <time>2014-08-28T14:13:59Z</time>
      </trkpt>
      <trkpt lat="46.32986" lon="6.7686">
        <ele>1515.8478</ele>
        <time>2014-08-28T14:14:04Z</time>
      </trkpt>
      <trkpt lat="46.32985" lon="6.76862">
        <ele>1515.8478</ele>
        <time>2014-08-28T14:14:19Z</time>
      </trkpt>
      <trkpt lat="46.32984" lon="6.76867">
        <ele>1520.3988</ele>
        <time>2014-08-28T14:14:24Z</time>
      </trkpt>
      <trkpt lat="46.32985" lon="6.76868">
        <ele>1520.3988</ele>
        <time>2014-08-28T14:14:29Z</time>
      </trkpt>
      <trkpt lat="46.32985" lon="6.76868">
        <ele>1520.3988</ele>
        <time>2014-08-28T14:14:34Z</time>
      </trkpt>
      <trkpt lat="46.32985" lon="6.76871">
        <ele>1520.3988</ele>
        <time>2014-08-28T14:14:39Z</time>
      </trkpt>
      <trkpt lat="46.32984" lon="6.76874">
        <ele>1520.3988</ele>
        <time>2014-08-28T14:14:44Z</time>
      </trkpt>
      <trkpt lat="46.32981" lon="6.76878">
        <ele>1524.9728</ele>
        <time>2014-08-28T14:14:49Z</time>
      </trkpt>
      <trkpt lat="46.32978" lon="6.76884">
        <ele>1524.9728</ele>
        <time>2014-08-28T14:14:54Z</time>
      </trkpt>
      <trkpt lat="46.32977" lon="6.76885">
        <ele>1524.9728</ele>
        <time>2014-08-28T14:14:59Z</time>
      </trkpt>
      <trkpt lat="46.32977" lon="6.76885">
        <ele>1524.9728</ele>
        <time>2014-08-28T14:15:04Z</time>
      </trkpt>
      <trkpt lat="46.32975" lon="6.7689">
        <ele>1529.396</ele>
        <time>2014-08-28T14:15:29Z</time>
      </trkpt>
      <trkpt lat="46.32973" lon="6.76892">
        <ele>1529.396</ele>
        <time>2014-08-28T14:15:34Z</time>
      </trkpt>
      <trkpt lat="46.3297" lon="6.76895">
        <ele>1529.396</ele>
        <time>2014-08-28T14:15:39Z</time>
      </trkpt>
      <trkpt lat="46.32969" lon="6.76896">
        <ele>1529.396</ele>
        <time>2014-08-28T14:15:44Z</time>
      </trkpt>
      <trkpt lat="46.32969" lon="6.76897">
        <ele>1529.396</ele>
        <time>2014-08-28T14:15:49Z</time>
      </trkpt>
      <trkpt lat="46.32969" lon="6.76899">
        <ele>1534.4591</ele>
        <time>2014-08-28T14:15:54Z</time>
      </trkpt>
      <trkpt lat="46.32969" lon="6.76899">
        <ele>1534.4591</ele>
        <time>2014-08-28T14:15:59Z</time>
      </trkpt>
      <trkpt lat="46.32971" lon="6.76901">
        <ele>1534.4591</ele>
        <time>2014-08-28T14:16:19Z</time>
      </trkpt>
      <trkpt lat="46.32973" lon="6.76906">
        <ele>1534.4591</ele>
        <time>2014-08-28T14:16:24Z</time>
      </trkpt>
      <trkpt lat="46.32973" lon="6.76906">
        <ele>1534.4591</ele>
        <time>2014-08-28T14:16:29Z</time>
      </trkpt>
      <trkpt lat="46.32973" lon="6.76907">
        <ele>1534.4591</ele>
        <time>2014-08-28T14:16:44Z</time>
      </trkpt>
      <trkpt lat="46.32973" lon="6.76908">
        <ele>1534.4591</ele>
        <time>2014-08-28T14:16:49Z</time>
      </trkpt>
      <trkpt lat="46.32973" lon="6.76908">
        <ele>1534.4591</ele>
        <time>2014-08-28T14:16:54Z</time>
      </trkpt>
      <trkpt lat="46.32974" lon="6.76908">
        <ele>1534.4591</ele>
        <time>2014-08-28T14:17:44Z</time>
      </trkpt>
      <trkpt lat="46.32974" lon="6.76908">
        <ele>1534.4591</ele>
        <time>2014-08-28T14:17:49Z</time>
      </trkpt>
      <trkpt lat="46.32973" lon="6.76908">
        <ele>1539.5243</ele>
        <time>2014-08-28T14:17:59Z</time>
      </trkpt>
      <trkpt lat="46.32973" lon="6.76908">
        <ele>1539.5243</ele>
        <time>2014-08-28T14:18:04Z</time>
      </trkpt>
      <trkpt lat="46.32973" lon="6.76908">
        <ele>1539.5243</ele>
        <time>2014-08-28T14:18:14Z</time>
      </trkpt>
      <trkpt lat="46.32973" lon="6.76909">
        <ele>1539.5243</ele>
        <time>2014-08-28T14:18:19Z</time>
      </trkpt>
      <trkpt lat="46.32973" lon="6.76909">
        <ele>1539.5243</ele>
        <time>2014-08-28T14:18:24Z</time>
      </trkpt>
      <trkpt lat="46.32974" lon="6.7691">
        <ele>1539.5243</ele>
        <time>2014-08-28T14:18:44Z</time>
      </trkpt>
      <trkpt lat="46.32974" lon="6.7691">
        <ele>1539.5243</ele>
        <time>2014-08-28T14:18:49Z</time>
      </trkpt>
      <trkpt lat="46.32973" lon="6.76912">
        <ele>1539.5243</ele>
        <time>2014-08-28T14:19:24Z</time>
      </trkpt>
      <trkpt lat="46.32973" lon="6.76914">
        <ele>1539.5243</ele>
        <time>2014-08-28T14:19:29Z</time>
      </trkpt>
      <trkpt lat="46.32973" lon="6.76916">
        <ele>1539.5243</ele>
        <time>2014-08-28T14:19:34Z</time>
      </trkpt>
      <trkpt lat="46.32973" lon="6.76918">
        <ele>1539.5243</ele>
        <time>2014-08-28T14:19:39Z</time>
      </trkpt>
      <trkpt lat="46.32975" lon="6.76922">
        <ele>1544.6207</ele>
        <time>2014-08-28T14:19:44Z</time>
      </trkpt>
      <trkpt lat="46.32975" lon="6.76923">
        <ele>1544.6207</ele>
        <time>2014-08-28T14:19:49Z</time>
      </trkpt>
      <trkpt lat="46.32977" lon="6.76933">
        <ele>1544.6207</ele>
        <time>2014-08-28T14:19:54Z</time>
      </trkpt>
      <trkpt lat="46.32979" lon="6.76941">
        <ele>1549.271</ele>
        <time>2014-08-28T14:19:59Z</time>
      </trkpt>
      <trkpt lat="46.32978" lon="6.7695">
        <ele>1549.271</ele>
        <time>2014-08-28T14:20:04Z</time>
      </trkpt>
      <trkpt lat="46.32978" lon="6.76951">
        <ele>1549.271</ele>
        <time>2014-08-28T14:20:09Z</time>
      </trkpt>
      <trkpt lat="46.32977" lon="6.76954">
        <ele>1553.4813</ele>
        <time>2014-08-28T14:20:14Z</time>
      </trkpt>
      <trkpt lat="46.32976" lon="6.76957">
        <ele>1553.4813</ele>
        <time>2014-08-28T14:20:19Z</time>
      </trkpt>
      <trkpt lat="46.32975" lon="6.76959">
        <ele>1553.4813</ele>
        <time>2014-08-28T14:20:24Z</time>
      </trkpt>
      <trkpt lat="46.32975" lon="6.76961">
        <ele>1553.4813</ele>
        <time>2014-08-28T14:20:29Z</time>
      </trkpt>
      <trkpt lat="46.32972" lon="6.76966">
        <ele>1557.0571</ele>
        <time>2014-08-28T14:20:34Z</time>
      </trkpt>
      <trkpt lat="46.32971" lon="6.76971">
        <ele>1557.0571</ele>
        <time>2014-08-28T14:20:39Z</time>
      </trkpt>
      <trkpt lat="46.32972" lon="6.76972">
        <ele>1557.0571</ele>
        <time>2014-08-28T14:20:44Z</time>
      </trkpt>
      <trkpt lat="46.3297" lon="6.76975">
        <ele>1557.0571</ele>
        <time>2014-08-28T14:20:49Z</time>
      </trkpt>
      <trkpt lat="46.32968" lon="6.76977">
        <ele>1560.1089</ele>
        <time>2014-08-28T14:20:54Z</time>
      </trkpt>
      <trkpt lat="46.32968" lon="6.76977">
        <ele>1560.1089</ele>
        <time>2014-08-28T14:20:59Z</time>
      </trkpt>
      <trkpt lat="46.32966" lon="6.76983">
        <ele>1560.1089</ele>
        <time>2014-08-28T14:21:04Z</time>
      </trkpt>
      <trkpt lat="46.32966" lon="6.76986">
        <ele>1560.1089</ele>
        <time>2014-08-28T14:21:09Z</time>
      </trkpt>
      <trkpt lat="46.32964" lon="6.76992">
        <ele>1563.0284</ele>
        <time>2014-08-28T14:21:14Z</time>
      </trkpt>
      <trkpt lat="46.32962" lon="6.76997">
        <ele>1563.0284</ele>
        <time>2014-08-28T14:21:19Z</time>
      </trkpt>
      <trkpt lat="46.32963" lon="6.76998">
        <ele>1563.0284</ele>
        <time>2014-08-28T14:21:24Z</time>
      </trkpt>
      <trkpt lat="46.32963" lon="6.76999">
        <ele>1563.0284</ele>
        <time>2014-08-28T14:21:29Z</time>
      </trkpt>
      <trkpt lat="46.3296" lon="6.77003">
        <ele>1563.0284</ele>
        <time>2014-08-28T14:21:34Z</time>
      </trkpt>
      <trkpt lat="46.3296" lon="6.77004">
        <ele>1566.0071</ele>
        <time>2014-08-28T14:21:39Z</time>
      </trkpt>
      <trkpt lat="46.32957" lon="6.77005">
        <ele>1566.0071</ele>
        <time>2014-08-28T14:21:44Z</time>
      </trkpt>
      <trkpt lat="46.32957" lon="6.77007">
        <ele>1566.0071</ele>
        <time>2014-08-28T14:21:49Z</time>
      </trkpt>
      <trkpt lat="46.32958" lon="6.77007">
        <ele>1566.0071</ele>
        <time>2014-08-28T14:21:54Z</time>
      </trkpt>
      <trkpt lat="46.32958" lon="6.77008">
        <ele>1566.0071</ele>
        <time>2014-08-28T14:21:59Z</time>
      </trkpt>
      <trkpt lat="46.32958" lon="6.77009">
        <ele>1566.0071</ele>
        <time>2014-08-28T14:22:04Z</time>
      </trkpt>
      <trkpt lat="46.32957" lon="6.77011">
        <ele>1566.0071</ele>
        <time>2014-08-28T14:22:09Z</time>
      </trkpt>
      <trkpt lat="46.32958" lon="6.77011">
        <ele>1566.0071</ele>
        <time>2014-08-28T14:22:14Z</time>
      </trkpt>
      <trkpt lat="46.32957" lon="6.77012">
        <ele>1566.0071</ele>
        <time>2014-08-28T14:22:19Z</time>
      </trkpt>
      <trkpt lat="46.32957" lon="6.77014">
        <ele>1568.487</ele>
        <time>2014-08-28T14:22:24Z</time>
      </trkpt>
      <trkpt lat="46.32954" lon="6.77017">
        <ele>1568.487</ele>
        <time>2014-08-28T14:22:29Z</time>
      </trkpt>
      <trkpt lat="46.32954" lon="6.77018">
        <ele>1568.487</ele>
        <time>2014-08-28T14:22:34Z</time>
      </trkpt>
      <trkpt lat="46.32953" lon="6.77021">
        <ele>1568.487</ele>
        <time>2014-08-28T14:22:39Z</time>
      </trkpt>
      <trkpt lat="46.32952" lon="6.77023">
        <ele>1568.487</ele>
        <time>2014-08-28T14:22:44Z</time>
      </trkpt>
      <trkpt lat="46.32948" lon="6.77027">
        <ele>1570.5155</ele>
        <time>2014-08-28T14:22:49Z</time>
      </trkpt>
      <trkpt lat="46.32949" lon="6.77032">
        <ele>1570.5155</ele>
        <time>2014-08-28T14:22:54Z</time>
      </trkpt>
      <trkpt lat="46.32949" lon="6.77033">
        <ele>1570.5155</ele>
        <time>2014-08-28T14:22:59Z</time>
      </trkpt>
      <trkpt lat="46.32948" lon="6.77037">
        <ele>1570.5155</ele>
        <time>2014-08-28T14:23:04Z</time>
      </trkpt>
      <trkpt lat="46.32947" lon="6.77037">
        <ele>1570.5155</ele>
        <time>2014-08-28T14:23:09Z</time>
      </trkpt>
      <trkpt lat="46.32947" lon="6.77037">
        <ele>1570.5155</ele>
        <time>2014-08-28T14:23:14Z</time>
      </trkpt>
      <trkpt lat="46.32945" lon="6.77037">
        <ele>1573.204</ele>
        <time>2014-08-28T14:23:59Z</time>
      </trkpt>
      <trkpt lat="46.32944" lon="6.77037">
        <ele>1573.204</ele>
        <time>2014-08-28T14:24:04Z</time>
      </trkpt>
      <trkpt lat="46.32944" lon="6.77038">
        <ele>1573.204</ele>
        <time>2014-08-28T14:24:09Z</time>
      </trkpt>
      <trkpt lat="46.32945" lon="6.77038">
        <ele>1573.204</ele>
        <time>2014-08-28T14:24:14Z</time>
      </trkpt>
      <trkpt lat="46.32946" lon="6.77039">
        <ele>1573.204</ele>
        <time>2014-08-28T14:24:19Z</time>
      </trkpt>
      <trkpt lat="46.32945" lon="6.77041">
        <ele>1573.204</ele>
        <time>2014-08-28T14:24:24Z</time>
      </trkpt>
      <trkpt lat="46.32945" lon="6.77041">
        <ele>1573.204</ele>
        <time>2014-08-28T14:24:29Z</time>
      </trkpt>
      <trkpt lat="46.32945" lon="6.77043">
        <ele>1573.204</ele>
        <time>2014-08-28T14:24:34Z</time>
      </trkpt>
      <trkpt lat="46.32945" lon="6.77045">
        <ele>1573.204</ele>
        <time>2014-08-28T14:24:39Z</time>
      </trkpt>
      <trkpt lat="46.32945" lon="6.77045">
        <ele>1573.204</ele>
        <time>2014-08-28T14:24:44Z</time>
      </trkpt>
      <trkpt lat="46.32941" lon="6.77047">
        <ele>1576.4712</ele>
        <time>2014-08-28T14:24:49Z</time>
      </trkpt>
      <trkpt lat="46.3294" lon="6.77046">
        <ele>1576.4712</ele>
        <time>2014-08-28T14:24:54Z</time>
      </trkpt>
      <trkpt lat="46.32937" lon="6.77048">
        <ele>1576.4712</ele>
        <time>2014-08-28T14:24:59Z</time>
      </trkpt>
      <trkpt lat="46.32937" lon="6.77048">
        <ele>1576.4712</ele>
        <time>2014-08-28T14:25:04Z</time>
      </trkpt>
      <trkpt lat="46.32935" lon="6.77049">
        <ele>1576.4712</ele>
        <time>2014-08-28T14:25:39Z</time>
      </trkpt>
      <trkpt lat="46.32936" lon="6.77049">
        <ele>1576.4712</ele>
        <time>2014-08-28T14:25:44Z</time>
      </trkpt>
      <trkpt lat="46.32934" lon="6.77052">
        <ele>1580.9469</ele>
        <time>2014-08-28T14:25:49Z</time>
      </trkpt>
      <trkpt lat="46.32932" lon="6.77056">
        <ele>1580.9469</ele>
        <time>2014-08-28T14:25:54Z</time>
      </trkpt>
      <trkpt lat="46.32931" lon="6.7706">
        <ele>1580.9469</ele>
        <time>2014-08-28T14:25:59Z</time>
      </trkpt>
      <trkpt lat="46.32928" lon="6.77062">
        <ele>1585.2656</ele>
        <time>2014-08-28T14:26:04Z</time>
      </trkpt>
      <trkpt lat="46.32928" lon="6.77064">
        <ele>1585.2656</ele>
        <time>2014-08-28T14:26:09Z</time>
      </trkpt>
      <trkpt lat="46.32929" lon="6.77064">
        <ele>1585.2656</ele>
        <time>2014-08-28T14:26:14Z</time>
      </trkpt>
      <trkpt lat="46.32929" lon="6.77064">
        <ele>1585.2656</ele>
        <time>2014-08-28T14:26:19Z</time>
      </trkpt>
      <trkpt lat="46.32929" lon="6.77064">
        <ele>1585.2656</ele>
        <time>2014-08-28T14:26:24Z</time>
      </trkpt>
      <trkpt lat="46.32929" lon="6.77066">
        <ele>1585.2656</ele>
        <time>2014-08-28T14:26:44Z</time>
      </trkpt>
      <trkpt lat="46.32928" lon="6.77067">
        <ele>1585.2656</ele>
        <time>2014-08-28T14:26:49Z</time>
      </trkpt>
      <trkpt lat="46.32926" lon="6.77069">
        <ele>1585.2656</ele>
        <time>2014-08-28T14:26:54Z</time>
      </trkpt>
      <trkpt lat="46.32925" lon="6.77072">
        <ele>1589.6763</ele>
        <time>2014-08-28T14:26:59Z</time>
      </trkpt>
      <trkpt lat="46.32924" lon="6.77074">
        <ele>1589.6763</ele>
        <time>2014-08-28T14:27:04Z</time>
      </trkpt>
      <trkpt lat="46.32921" lon="6.77077">
        <ele>1589.6763</ele>
        <time>2014-08-28T14:27:09Z</time>
      </trkpt>
      <trkpt lat="46.32921" lon="6.77077">
        <ele>1589.6763</ele>
        <time>2014-08-28T14:27:14Z</time>
      </trkpt>
      <trkpt lat="46.3292" lon="6.77078">
        <ele>1589.6763</ele>
        <time>2014-08-28T14:27:19Z</time>
      </trkpt>
      <trkpt lat="46.32919" lon="6.77081">
        <ele>1589.6763</ele>
        <time>2014-08-28T14:27:24Z</time>
      </trkpt>
      <trkpt lat="46.32917" lon="6.77081">
        <ele>1593.8475</ele>
        <time>2014-08-28T14:27:29Z</time>
      </trkpt>
      <trkpt lat="46.32915" lon="6.77081">
        <ele>1593.8475</ele>
        <time>2014-08-28T14:27:34Z</time>
      </trkpt>
      <trkpt lat="46.32915" lon="6.7708">
        <ele>1593.8475</ele>
        <time>2014-08-28T14:27:39Z</time>
      </trkpt>
      <trkpt lat="46.32913" lon="6.7708">
        <ele>1593.8475</ele>
        <time>2014-08-28T14:27:44Z</time>
      </trkpt>
      <trkpt lat="46.32913" lon="6.77081">
        <ele>1593.8475</ele>
        <time>2014-08-28T14:27:49Z</time>
      </trkpt>
      <trkpt lat="46.32913" lon="6.77082">
        <ele>1593.8475</ele>
        <time>2014-08-28T14:27:54Z</time>
      </trkpt>
      <trkpt lat="46.32913" lon="6.77082">
        <ele>1593.8475</ele>
        <time>2014-08-28T14:27:59Z</time>
      </trkpt>
      <trkpt lat="46.3291" lon="6.77084">
        <ele>1593.8475</ele>
        <time>2014-08-28T14:28:09Z</time>
      </trkpt>
      <trkpt lat="46.3291" lon="6.77084">
        <ele>1593.8475</ele>
        <time>2014-08-28T14:28:14Z</time>
      </trkpt>
      <trkpt lat="46.32909" lon="6.77084">
        <ele>1598.7992</ele>
        <time>2014-08-28T14:29:44Z</time>
      </trkpt>
      <trkpt lat="46.32909" lon="6.77084">
        <ele>1598.7992</ele>
        <time>2014-08-28T14:29:49Z</time>
      </trkpt>
      <trkpt lat="46.32909" lon="6.77086">
        <ele>1598.7992</ele>
        <time>2014-08-28T14:29:54Z</time>
      </trkpt>
      <trkpt lat="46.32909" lon="6.77086">
        <ele>1598.7992</ele>
        <time>2014-08-28T14:29:59Z</time>
      </trkpt>
      <trkpt lat="46.32909" lon="6.77085">
        <ele>1598.7992</ele>
        <time>2014-08-28T14:30:14Z</time>
      </trkpt>
      <trkpt lat="46.32908" lon="6.77084">
        <ele>1598.7992</ele>
        <time>2014-08-28T14:30:19Z</time>
      </trkpt>
      <trkpt lat="46.32908" lon="6.77084">
        <ele>1598.7992</ele>
        <time>2014-08-28T14:30:24Z</time>
      </trkpt>
      <trkpt lat="46.32906" lon="6.77085">
        <ele>1598.7992</ele>
        <time>2014-08-28T14:30:34Z</time>
      </trkpt>
      <trkpt lat="46.32906" lon="6.77085">
        <ele>1598.7992</ele>
        <time>2014-08-28T14:30:39Z</time>
      </trkpt>
      <trkpt lat="46.32905" lon="6.77089">
        <ele>1598.7992</ele>
        <time>2014-08-28T14:30:44Z</time>
      </trkpt>
      <trkpt lat="46.32904" lon="6.77089">
        <ele>1603.9034</ele>
        <time>2014-08-28T14:30:49Z</time>
      </trkpt>
      <trkpt lat="46.32903" lon="6.77089">
        <ele>1603.9034</ele>
        <time>2014-08-28T14:30:54Z</time>
      </trkpt>
      <trkpt lat="46.32902" lon="6.77089">
        <ele>1603.9034</ele>
        <time>2014-08-28T14:30:59Z</time>
      </trkpt>
      <trkpt lat="46.329" lon="6.7709">
        <ele>1603.9034</ele>
        <time>2014-08-28T14:31:09Z</time>
      </trkpt>
      <trkpt lat="46.329" lon="6.7709">
        <ele>1603.9034</ele>
        <time>2014-08-28T14:31:14Z</time>
      </trkpt>
      <trkpt lat="46.32899" lon="6.77093">
        <ele>1603.9034</ele>
        <time>2014-08-28T14:31:39Z</time>
      </trkpt>
      <trkpt lat="46.32899" lon="6.77095">
        <ele>1603.9034</ele>
        <time>2014-08-28T14:31:44Z</time>
      </trkpt>
      <trkpt lat="46.32899" lon="6.77095">
        <ele>1603.9034</ele>
        <time>2014-08-28T14:31:49Z</time>
      </trkpt>
      <trkpt lat="46.32894" lon="6.77097">
        <ele>1608.8376</ele>
        <time>2014-08-28T14:31:54Z</time>
      </trkpt>
      <trkpt lat="46.32894" lon="6.77098">
        <ele>1608.8376</ele>
        <time>2014-08-28T14:31:59Z</time>
      </trkpt>
      <trkpt lat="46.32892" lon="6.771">
        <ele>1608.8376</ele>
        <time>2014-08-28T14:32:04Z</time>
      </trkpt>
      <trkpt lat="46.32891" lon="6.77101">
        <ele>1608.8376</ele>
        <time>2014-08-28T14:32:09Z</time>
      </trkpt>
      <trkpt lat="46.32887" lon="6.77101">
        <ele>1608.8376</ele>
        <time>2014-08-28T14:32:14Z</time>
      </trkpt>
      <trkpt lat="46.32887" lon="6.77101">
        <ele>1608.8376</ele>
        <time>2014-08-28T14:32:19Z</time>
      </trkpt>
      <trkpt lat="46.32887" lon="6.77103">
        <ele>1613.3326</ele>
        <time>2014-08-28T14:32:29Z</time>
      </trkpt>
      <trkpt lat="46.32887" lon="6.77103">
        <ele>1613.3326</ele>
        <time>2014-08-28T14:32:34Z</time>
      </trkpt>
      <trkpt lat="46.32883" lon="6.77108">
        <ele>1613.3326</ele>
        <time>2014-08-28T14:32:39Z</time>
      </trkpt>
      <trkpt lat="46.32881" lon="6.7711">
        <ele>1613.3326</ele>
        <time>2014-08-28T14:32:44Z</time>
      </trkpt>
      <trkpt lat="46.3288" lon="6.77111">
        <ele>1613.3326</ele>
        <time>2014-08-28T14:32:49Z</time>
      </trkpt>
      <trkpt lat="46.3288" lon="6.77111">
        <ele>1613.3326</ele>
        <time>2014-08-28T14:32:54Z</time>
      </trkpt>
      <trkpt lat="46.32879" lon="6.77112">
        <ele>1618.063</ele>
        <time>2014-08-28T14:33:14Z</time>
      </trkpt>
      <trkpt lat="46.32876" lon="6.7712">
        <ele>1618.063</ele>
        <time>2014-08-28T14:33:19Z</time>
      </trkpt>
      <trkpt lat="46.32875" lon="6.7712">
        <ele>1618.063</ele>
        <time>2014-08-28T14:33:24Z</time>
      </trkpt>
      <trkpt lat="46.32876" lon="6.77125">
        <ele>1622.1399</ele>
        <time>2014-08-28T14:33:29Z</time>
      </trkpt>
      <trkpt lat="46.32876" lon="6.77125">
        <ele>1622.1399</ele>
        <time>2014-08-28T14:33:34Z</time>
      </trkpt>
      <trkpt lat="46.32874" lon="6.77132">
        <ele>1622.1399</ele>
        <time>2014-08-28T14:33:39Z</time>
      </trkpt>
      <trkpt lat="46.32873" lon="6.77133">
        <ele>1622.1399</ele>
        <time>2014-08-28T14:33:44Z</time>
      </trkpt>
      <trkpt lat="46.3287" lon="6.77135">
        <ele>1625.9672</ele>
        <time>2014-08-28T14:33:49Z</time>
      </trkpt>
      <trkpt lat="46.32869" lon="6.77139">
        <ele>1625.9672</ele>
        <time>2014-08-28T14:33:54Z</time>
      </trkpt>
      <trkpt lat="46.32865" lon="6.77145">
        <ele>1625.9672</ele>
        <time>2014-08-28T14:33:59Z</time>
      </trkpt>
      <trkpt lat="46.32865" lon="6.77146">
        <ele>1625.9672</ele>
        <time>2014-08-28T14:34:04Z</time>
      </trkpt>
      <trkpt lat="46.32865" lon="6.77146">
        <ele>1625.9672</ele>
        <time>2014-08-28T14:34:09Z</time>
      </trkpt>
      <trkpt lat="46.32864" lon="6.77146">
        <ele>1629.4874</ele>
        <time>2014-08-28T14:34:14Z</time>
      </trkpt>
      <trkpt lat="46.32863" lon="6.77147">
        <ele>1629.4874</ele>
        <time>2014-08-28T14:34:19Z</time>
      </trkpt>
      <trkpt lat="46.32863" lon="6.77147">
        <ele>1629.4874</ele>
        <time>2014-08-28T14:34:24Z</time>
      </trkpt>
      <trkpt lat="46.32858" lon="6.77151">
        <ele>1629.4874</ele>
        <time>2014-08-28T14:34:49Z</time>
      </trkpt>
      <trkpt lat="46.32858" lon="6.77151">
        <ele>1629.4874</ele>
        <time>2014-08-28T14:34:54Z</time>
      </trkpt>
      <trkpt lat="46.32855" lon="6.77154">
        <ele>1633.0956</ele>
        <time>2014-08-28T14:34:59Z</time>
      </trkpt>
      <trkpt lat="46.32855" lon="6.77157">
        <ele>1633.0956</ele>
        <time>2014-08-28T14:35:04Z</time>
      </trkpt>
      <trkpt lat="46.32854" lon="6.77158">
        <ele>1633.0956</ele>
        <time>2014-08-28T14:35:09Z</time>
      </trkpt>
      <trkpt lat="46.32854" lon="6.77158">
        <ele>1633.0956</ele>
        <time>2014-08-28T14:35:14Z</time>
      </trkpt>
      <trkpt lat="46.32847" lon="6.77161">
        <ele>1636.6385</ele>
        <time>2014-08-28T14:35:24Z</time>
      </trkpt>
      <trkpt lat="46.32844" lon="6.77166">
        <ele>1636.6385</ele>
        <time>2014-08-28T14:35:29Z</time>
      </trkpt>
      <trkpt lat="46.32844" lon="6.77166">
        <ele>1636.6385</ele>
        <time>2014-08-28T14:35:34Z</time>
      </trkpt>
      <trkpt lat="46.32842" lon="6.77168">
        <ele>1636.6385</ele>
        <time>2014-08-28T14:35:39Z</time>
      </trkpt>
      <trkpt lat="46.32837" lon="6.7717">
        <ele>1639.8741</ele>
        <time>2014-08-28T14:35:44Z</time>
      </trkpt>
      <trkpt lat="46.32837" lon="6.77171">
        <ele>1639.8741</ele>
        <time>2014-08-28T14:35:49Z</time>
      </trkpt>
      <trkpt lat="46.32836" lon="6.77173">
        <ele>1639.8741</ele>
        <time>2014-08-28T14:35:54Z</time>
      </trkpt>
      <trkpt lat="46.32835" lon="6.77177">
        <ele>1639.8741</ele>
        <time>2014-08-28T14:35:59Z</time>
      </trkpt>
      <trkpt lat="46.32833" lon="6.77177">
        <ele>1639.8741</ele>
        <time>2014-08-28T14:36:04Z</time>
      </trkpt>
      <trkpt lat="46.32833" lon="6.77177">
        <ele>1639.8741</ele>
        <time>2014-08-28T14:36:09Z</time>
      </trkpt>
      <trkpt lat="46.32829" lon="6.77176">
        <ele>1643.4148</ele>
        <time>2014-08-28T14:36:24Z</time>
      </trkpt>
      <trkpt lat="46.32828" lon="6.77179">
        <ele>1643.4148</ele>
        <time>2014-08-28T14:36:29Z</time>
      </trkpt>
      <trkpt lat="46.32829" lon="6.7718">
        <ele>1643.4148</ele>
        <time>2014-08-28T14:36:34Z</time>
      </trkpt>
      <trkpt lat="46.32825" lon="6.77182">
        <ele>1643.4148</ele>
        <time>2014-08-28T14:36:39Z</time>
      </trkpt>
      <trkpt lat="46.32824" lon="6.77183">
        <ele>1643.4148</ele>
        <time>2014-08-28T14:36:44Z</time>
      </trkpt>
      <trkpt lat="46.32824" lon="6.77183">
        <ele>1643.4148</ele>
        <time>2014-08-28T14:36:49Z</time>
      </trkpt>
      <trkpt lat="46.32821" lon="6.77182">
        <ele>1646.7467</ele>
        <time>2014-08-28T14:36:54Z</time>
      </trkpt>
      <trkpt lat="46.32821" lon="6.77183">
        <ele>1646.7467</ele>
        <time>2014-08-28T14:36:59Z</time>
      </trkpt>
      <trkpt lat="46.3282" lon="6.77185">
        <ele>1646.7467</ele>
        <time>2014-08-28T14:37:04Z</time>
      </trkpt>
      <trkpt lat="46.32818" lon="6.77186">
        <ele>1646.7467</ele>
        <time>2014-08-28T14:37:09Z</time>
      </trkpt>
      <trkpt lat="46.32818" lon="6.77189">
        <ele>1646.7467</ele>
        <time>2014-08-28T14:37:14Z</time>
      </trkpt>
      <trkpt lat="46.32818" lon="6.77189">
        <ele>1646.7467</ele>
        <time>2014-08-28T14:37:19Z</time>
      </trkpt>
      <trkpt lat="46.32818" lon="6.7719">
        <ele>1646.7467</ele>
        <time>2014-08-28T14:37:29Z</time>
      </trkpt>
      <trkpt lat="46.32818" lon="6.7719">
        <ele>1646.7467</ele>
        <time>2014-08-28T14:37:34Z</time>
      </trkpt>
      <trkpt lat="46.32815" lon="6.77195">
        <ele>1650.0286</ele>
        <time>2014-08-28T14:37:39Z</time>
      </trkpt>
      <trkpt lat="46.32814" lon="6.77196">
        <ele>1650.0286</ele>
        <time>2014-08-28T14:37:44Z</time>
      </trkpt>
      <trkpt lat="46.32812" lon="6.77199">
        <ele>1650.0286</ele>
        <time>2014-08-28T14:37:49Z</time>
      </trkpt>
      <trkpt lat="46.32811" lon="6.772">
        <ele>1650.0286</ele>
        <time>2014-08-28T14:37:54Z</time>
      </trkpt>
      <trkpt lat="46.3281" lon="6.77201">
        <ele>1650.0286</ele>
        <time>2014-08-28T14:37:59Z</time>
      </trkpt>
      <trkpt lat="46.32805" lon="6.77196">
        <ele>1653.177</ele>
        <time>2014-08-28T14:38:04Z</time>
      </trkpt>
      <trkpt lat="46.32802" lon="6.77198">
        <ele>1653.177</ele>
        <time>2014-08-28T14:38:09Z</time>
      </trkpt>
      <trkpt lat="46.32802" lon="6.77198">
        <ele>1653.177</ele>
        <time>2014-08-28T14:38:14Z</time>
      </trkpt>
      <trkpt lat="46.32799" lon="6.77198">
        <ele>1653.177</ele>
        <time>2014-08-28T14:38:29Z</time>
      </trkpt>
      <trkpt lat="46.32796" lon="6.772">
        <ele>1655.7987</ele>
        <time>2014-08-28T14:38:34Z</time>
      </trkpt>
      <trkpt lat="46.32795" lon="6.77201">
        <ele>1655.7987</ele>
        <time>2014-08-28T14:38:39Z</time>
      </trkpt>
      <trkpt lat="46.32795" lon="6.77205">
        <ele>1655.7987</ele>
        <time>2014-08-28T14:38:44Z</time>
      </trkpt>
      <trkpt lat="46.32793" lon="6.77208">
        <ele>1655.7987</ele>
        <time>2014-08-28T14:38:49Z</time>
      </trkpt>
      <trkpt lat="46.32792" lon="6.77209">
        <ele>1655.7987</ele>
        <time>2014-08-28T14:38:54Z</time>
      </trkpt>
      <trkpt lat="46.3279" lon="6.77208">
        <ele>1658.395</ele>
        <time>2014-08-28T14:38:59Z</time>
      </trkpt>
      <trkpt lat="46.3279" lon="6.77209">
        <ele>1658.395</ele>
        <time>2014-08-28T14:39:04Z</time>
      </trkpt>
      <trkpt lat="46.32791" lon="6.7721">
        <ele>1658.395</ele>
        <time>2014-08-28T14:39:09Z</time>
      </trkpt>
      <trkpt lat="46.32789" lon="6.77214">
        <ele>1658.395</ele>
        <time>2014-08-28T14:39:14Z</time>
      </trkpt>
      <trkpt lat="46.32789" lon="6.77214">
        <ele>1658.395</ele>
        <time>2014-08-28T14:39:19Z</time>
      </trkpt>
      <trkpt lat="46.32786" lon="6.77216">
        <ele>1659.3655</ele>
        <time>2014-08-28T14:39:34Z</time>
      </trkpt>
      <trkpt lat="46.32786" lon="6.77217">
        <ele>1660.3359</ele>
        <time>2014-08-28T14:39:39Z</time>
      </trkpt>
      <trkpt lat="46.32786" lon="6.77217">
        <ele>1660.3359</ele>
        <time>2014-08-28T14:39:44Z</time>
      </trkpt>
      <trkpt lat="46.32786" lon="6.7722">
        <ele>1660.3359</ele>
        <time>2014-08-28T14:40:04Z</time>
      </trkpt>
      <trkpt lat="46.32785" lon="6.77221">
        <ele>1660.3359</ele>
        <time>2014-08-28T14:40:09Z</time>
      </trkpt>
      <trkpt lat="46.3278" lon="6.77223">
        <ele>1663.0858</ele>
        <time>2014-08-28T14:40:14Z</time>
      </trkpt>
      <trkpt lat="46.3278" lon="6.77223">
        <ele>1663.0858</ele>
        <time>2014-08-28T14:40:19Z</time>
      </trkpt>
      <trkpt lat="46.3278" lon="6.77224">
        <ele>1663.0858</ele>
        <time>2014-08-28T14:40:29Z</time>
      </trkpt>
      <trkpt lat="46.3278" lon="6.77225">
        <ele>1663.0858</ele>
        <time>2014-08-28T14:40:34Z</time>
      </trkpt>
      <trkpt lat="46.32779" lon="6.77227">
        <ele>1663.0858</ele>
        <time>2014-08-28T14:40:39Z</time>
      </trkpt>
      <trkpt lat="46.32779" lon="6.77228">
        <ele>1663.0858</ele>
        <time>2014-08-28T14:40:44Z</time>
      </trkpt>
      <trkpt lat="46.32775" lon="6.77233">
        <ele>1665.6501</ele>
        <time>2014-08-28T14:40:49Z</time>
      </trkpt>
      <trkpt lat="46.32772" lon="6.77236">
        <ele>1665.6501</ele>
        <time>2014-08-28T14:40:54Z</time>
      </trkpt>
      <trkpt lat="46.32769" lon="6.77237">
        <ele>1665.6501</ele>
        <time>2014-08-28T14:40:59Z</time>
      </trkpt>
      <trkpt lat="46.32769" lon="6.77239">
        <ele>1665.6501</ele>
        <time>2014-08-28T14:41:04Z</time>
      </trkpt>
      <trkpt lat="46.32769" lon="6.77239">
        <ele>1665.6501</ele>
        <time>2014-08-28T14:41:09Z</time>
      </trkpt>
      <trkpt lat="46.3277" lon="6.77242">
        <ele>1667.6993</ele>
        <time>2014-08-28T14:41:14Z</time>
      </trkpt>
      <trkpt lat="46.3277" lon="6.77246">
        <ele>1667.6993</ele>
        <time>2014-08-28T14:41:19Z</time>
      </trkpt>
      <trkpt lat="46.3277" lon="6.77246">
        <ele>1667.6993</ele>
        <time>2014-08-28T14:41:24Z</time>
      </trkpt>
      <trkpt lat="46.3277" lon="6.77247">
        <ele>1667.6993</ele>
        <time>2014-08-28T14:41:39Z</time>
      </trkpt>
      <trkpt lat="46.3277" lon="6.77247">
        <ele>1667.6993</ele>
        <time>2014-08-28T14:41:44Z</time>
      </trkpt>
      <trkpt lat="46.3277" lon="6.7725">
        <ele>1667.6993</ele>
        <time>2014-08-28T14:41:49Z</time>
      </trkpt>
      <trkpt lat="46.32759" lon="6.77253">
        <ele>1669.7219</ele>
        <time>2014-08-28T14:41:54Z</time>
      </trkpt>
      <trkpt lat="46.32759" lon="6.77254">
        <ele>1669.7219</ele>
        <time>2014-08-28T14:41:59Z</time>
      </trkpt>
      <trkpt lat="46.32758" lon="6.77254">
        <ele>1669.7219</ele>
        <time>2014-08-28T14:42:04Z</time>
      </trkpt>
      <trkpt lat="46.32758" lon="6.77254">
        <ele>1669.7219</ele>
        <time>2014-08-28T14:42:09Z</time>
      </trkpt>
      <trkpt lat="46.32756" lon="6.77259">
        <ele>1669.7219</ele>
        <time>2014-08-28T14:42:14Z</time>
      </trkpt>
      <trkpt lat="46.32755" lon="6.77262">
        <ele>1669.7219</ele>
        <time>2014-08-28T14:42:19Z</time>
      </trkpt>
      <trkpt lat="46.32755" lon="6.77263">
        <ele>1669.7219</ele>
        <time>2014-08-28T14:42:24Z</time>
      </trkpt>
      <trkpt lat="46.32755" lon="6.77263">
        <ele>1669.7219</ele>
        <time>2014-08-28T14:42:29Z</time>
      </trkpt>
      <trkpt lat="46.32754" lon="6.77263">
        <ele>1671.2194</ele>
        <time>2014-08-28T14:42:44Z</time>
      </trkpt>
      <trkpt lat="46.32753" lon="6.77265">
        <ele>1671.2194</ele>
        <time>2014-08-28T14:42:49Z</time>
      </trkpt>
      <trkpt lat="46.32753" lon="6.77266">
        <ele>1671.2194</ele>
        <time>2014-08-28T14:42:54Z</time>
      </trkpt>
      <trkpt lat="46.32752" lon="6.77267">
        <ele>1671.2194</ele>
        <time>2014-08-28T14:42:59Z</time>
      </trkpt>
      <trkpt lat="46.32751" lon="6.7727">
        <ele>1671.2194</ele>
        <time>2014-08-28T14:43:04Z</time>
      </trkpt>
      <trkpt lat="46.3275" lon="6.77273">
        <ele>1671.2194</ele>
        <time>2014-08-28T14:43:09Z</time>
      </trkpt>
      <trkpt lat="46.32749" lon="6.77277">
        <ele>1672.2937</ele>
        <time>2014-08-28T14:43:14Z</time>
      </trkpt>
      <trkpt lat="46.32746" lon="6.77283">
        <ele>1672.2937</ele>
        <time>2014-08-28T14:43:19Z</time>
      </trkpt>
      <trkpt lat="46.32745" lon="6.77284">
        <ele>1672.2937</ele>
        <time>2014-08-28T14:43:24Z</time>
      </trkpt>
      <trkpt lat="46.32741" lon="6.77291">
        <ele>1673.4581</ele>
        <time>2014-08-28T14:43:29Z</time>
      </trkpt>
      <trkpt lat="46.3274" lon="6.77293">
        <ele>1673.4581</ele>
        <time>2014-08-28T14:43:34Z</time>
      </trkpt>
      <trkpt lat="46.3274" lon="6.77293">
        <ele>1673.4581</ele>
        <time>2014-08-28T14:43:39Z</time>
      </trkpt>
      <trkpt lat="46.32739" lon="6.77292">
        <ele>1673.4581</ele>
        <time>2014-08-28T14:44:04Z</time>
      </trkpt>
      <trkpt lat="46.32739" lon="6.77292">
        <ele>1673.4581</ele>
        <time>2014-08-28T14:44:09Z</time>
      </trkpt>
      <trkpt lat="46.3274" lon="6.77292">
        <ele>1673.4581</ele>
        <time>2014-08-28T14:44:14Z</time>
      </trkpt>
      <trkpt lat="46.3274" lon="6.77292">
        <ele>1673.4581</ele>
        <time>2014-08-28T14:44:19Z</time>
      </trkpt>
      <trkpt lat="46.32739" lon="6.77294">
        <ele>1673.4581</ele>
        <time>2014-08-28T14:44:29Z</time>
      </trkpt>
      <trkpt lat="46.32738" lon="6.77296">
        <ele>1673.4581</ele>
        <time>2014-08-28T14:44:34Z</time>
      </trkpt>
      <trkpt lat="46.32737" lon="6.77297">
        <ele>1673.4581</ele>
        <time>2014-08-28T14:44:39Z</time>
      </trkpt>
      <trkpt lat="46.32736" lon="6.773">
        <ele>1674.5399</ele>
        <time>2014-08-28T14:44:44Z</time>
      </trkpt>
      <trkpt lat="46.32733" lon="6.77303">
        <ele>1674.5399</ele>
        <time>2014-08-28T14:44:49Z</time>
      </trkpt>
      <trkpt lat="46.32733" lon="6.77305">
        <ele>1674.5399</ele>
        <time>2014-08-28T14:44:54Z</time>
      </trkpt>
      <trkpt lat="46.32732" lon="6.77306">
        <ele>1674.5399</ele>
        <time>2014-08-28T14:44:59Z</time>
      </trkpt>
      <trkpt lat="46.32731" lon="6.7731">
        <ele>1674.5399</ele>
        <time>2014-08-28T14:45:04Z</time>
      </trkpt>
      <trkpt lat="46.32732" lon="6.77311">
        <ele>1676.2435</ele>
        <time>2014-08-28T14:45:09Z</time>
      </trkpt>
      <trkpt lat="46.32729" lon="6.77312">
        <ele>1676.2435</ele>
        <time>2014-08-28T14:45:14Z</time>
      </trkpt>
      <trkpt lat="46.32728" lon="6.77313">
        <ele>1676.2435</ele>
        <time>2014-08-28T14:45:19Z</time>
      </trkpt>
      <trkpt lat="46.3273" lon="6.77313">
        <ele>1676.2435</ele>
        <time>2014-08-28T14:45:24Z</time>
      </trkpt>
      <trkpt lat="46.32727" lon="6.77315">
        <ele>1676.2435</ele>
        <time>2014-08-28T14:45:29Z</time>
      </trkpt>
      <trkpt lat="46.32727" lon="6.77319">
        <ele>1678.5573</ele>
        <time>2014-08-28T14:45:34Z</time>
      </trkpt>
      <trkpt lat="46.32727" lon="6.77319">
        <ele>1678.5573</ele>
        <time>2014-08-28T14:45:39Z</time>
      </trkpt>
      <trkpt lat="46.32727" lon="6.77319">
        <ele>1678.5573</ele>
        <time>2014-08-28T14:45:44Z</time>
      </trkpt>
      <trkpt lat="46.32727" lon="6.77319">
        <ele>1678.5573</ele>
        <time>2014-08-28T14:45:49Z</time>
      </trkpt>
      <trkpt lat="46.32726" lon="6.7732">
        <ele>1678.5573</ele>
        <time>2014-08-28T14:45:54Z</time>
      </trkpt>
      <trkpt lat="46.32726" lon="6.77321">
        <ele>1678.5573</ele>
        <time>2014-08-28T14:45:59Z</time>
      </trkpt>
      <trkpt lat="46.32726" lon="6.77323">
        <ele>1678.5573</ele>
        <time>2014-08-28T14:46:04Z</time>
      </trkpt>
      <trkpt lat="46.32725" lon="6.77324">
        <ele>1678.5573</ele>
        <time>2014-08-28T14:46:09Z</time>
      </trkpt>
      <trkpt lat="46.32726" lon="6.77326">
        <ele>1678.5573</ele>
        <time>2014-08-28T14:46:14Z</time>
      </trkpt>
      <trkpt lat="46.3273" lon="6.77327">
        <ele>1678.5573</ele>
        <time>2014-08-28T14:46:19Z</time>
      </trkpt>
      <trkpt lat="46.32729" lon="6.7733">
        <ele>1681.0934</ele>
        <time>2014-08-28T14:46:24Z</time>
      </trkpt>
      <trkpt lat="46.32729" lon="6.7733">
        <ele>1681.0934</ele>
        <time>2014-08-28T14:46:29Z</time>
      </trkpt>
      <trkpt lat="46.32731" lon="6.77331">
        <ele>1681.0934</ele>
        <time>2014-08-28T14:46:44Z</time>
      </trkpt>
      <trkpt lat="46.32733" lon="6.77335">
        <ele>1681.0934</ele>
        <time>2014-08-28T14:46:49Z</time>
      </trkpt>
      <trkpt lat="46.32734" lon="6.77336">
        <ele>1681.0934</ele>
        <time>2014-08-28T14:46:54Z</time>
      </trkpt>
      <trkpt lat="46.32734" lon="6.77338">
        <ele>1681.0934</ele>
        <time>2014-08-28T14:46:59Z</time>
      </trkpt>
      <trkpt lat="46.32734" lon="6.77339">
        <ele>1681.0934</ele>
        <time>2014-08-28T14:47:04Z</time>
      </trkpt>
      <trkpt lat="46.32734" lon="6.77339">
        <ele>1681.0934</ele>
        <time>2014-08-28T14:47:09Z</time>
      </trkpt>
      <trkpt lat="46.32734" lon="6.77341">
        <ele>1684.8184</ele>
        <time>2014-08-28T14:47:14Z</time>
      </trkpt>
      <trkpt lat="46.32735" lon="6.77341">
        <ele>1684.8184</ele>
        <time>2014-08-28T14:47:19Z</time>
      </trkpt>
      <trkpt lat="46.32736" lon="6.77343">
        <ele>1684.8184</ele>
        <time>2014-08-28T14:47:24Z</time>
      </trkpt>
      <trkpt lat="46.32737" lon="6.77344">
        <ele>1684.8184</ele>
        <time>2014-08-28T14:47:29Z</time>
      </trkpt>
      <trkpt lat="46.32738" lon="6.77345">
        <ele>1684.8184</ele>
        <time>2014-08-28T14:47:34Z</time>
      </trkpt>
      <trkpt lat="46.32738" lon="6.77346">
        <ele>1684.8184</ele>
        <time>2014-08-28T14:47:39Z</time>
      </trkpt>
      <trkpt lat="46.32738" lon="6.77346">
        <ele>1684.8184</ele>
        <time>2014-08-28T14:47:44Z</time>
      </trkpt>
      <trkpt lat="46.32738" lon="6.77347">
        <ele>1684.8184</ele>
        <time>2014-08-28T14:47:59Z</time>
      </trkpt>
      <trkpt lat="46.32738" lon="6.77348">
        <ele>1684.8184</ele>
        <time>2014-08-28T14:48:04Z</time>
      </trkpt>
      <trkpt lat="46.32739" lon="6.77348">
        <ele>1684.8184</ele>
        <time>2014-08-28T14:48:09Z</time>
      </trkpt>
      <trkpt lat="46.3274" lon="6.77349">
        <ele>1690.7535</ele>
        <time>2014-08-28T14:48:14Z</time>
      </trkpt>
      <trkpt lat="46.32741" lon="6.7735">
        <ele>1690.7535</ele>
        <time>2014-08-28T14:48:19Z</time>
      </trkpt>
      <trkpt lat="46.32741" lon="6.77351">
        <ele>1690.7535</ele>
        <time>2014-08-28T14:48:24Z</time>
      </trkpt>
      <trkpt lat="46.32741" lon="6.77353">
        <ele>1690.7535</ele>
        <time>2014-08-28T14:48:29Z</time>
      </trkpt>
      <trkpt lat="46.32742" lon="6.77354">
        <ele>1690.7535</ele>
        <time>2014-08-28T14:48:34Z</time>
      </trkpt>
      <trkpt lat="46.32741" lon="6.77355">
        <ele>1690.7535</ele>
        <time>2014-08-28T14:48:39Z</time>
      </trkpt>
      <trkpt lat="46.32741" lon="6.77355">
        <ele>1690.7535</ele>
        <time>2014-08-28T14:48:44Z</time>
      </trkpt>
      <trkpt lat="46.32741" lon="6.77355">
        <ele>1690.7535</ele>
        <time>2014-08-28T14:48:49Z</time>
      </trkpt>
      <trkpt lat="46.32742" lon="6.77355">
        <ele>1690.7535</ele>
        <time>2014-08-28T14:48:59Z</time>
      </trkpt>
      <trkpt lat="46.32746" lon="6.77356">
        <ele>1697.3605</ele>
        <time>2014-08-28T14:49:04Z</time>
      </trkpt>
      <trkpt lat="46.32747" lon="6.77358">
        <ele>1697.3605</ele>
        <time>2014-08-28T14:49:09Z</time>
      </trkpt>
      <trkpt lat="46.32747" lon="6.7736">
        <ele>1697.3605</ele>
        <time>2014-08-28T14:49:14Z</time>
      </trkpt>
      <trkpt lat="46.32749" lon="6.7736">
        <ele>1697.3605</ele>
        <time>2014-08-28T14:49:19Z</time>
      </trkpt>
      <trkpt lat="46.32752" lon="6.77364">
        <ele>1697.3605</ele>
        <time>2014-08-28T14:49:24Z</time>
      </trkpt>
      <trkpt lat="46.32753" lon="6.77367">
        <ele>1703.7595</ele>
        <time>2014-08-28T14:49:29Z</time>
      </trkpt>
      <trkpt lat="46.32752" lon="6.77368">
        <ele>1703.7595</ele>
        <time>2014-08-28T14:49:34Z</time>
      </trkpt>
      <trkpt lat="46.32752" lon="6.77369">
        <ele>1703.7595</ele>
        <time>2014-08-28T14:49:39Z</time>
      </trkpt>
      <trkpt lat="46.32753" lon="6.77372">
        <ele>1703.7595</ele>
        <time>2014-08-28T14:49:44Z</time>
      </trkpt>
      <trkpt lat="46.32754" lon="6.77373">
        <ele>1703.7595</ele>
        <time>2014-08-28T14:49:49Z</time>
      </trkpt>
      <trkpt lat="46.32754" lon="6.77373">
        <ele>1703.7595</ele>
        <time>2014-08-28T14:49:54Z</time>
      </trkpt>
      <trkpt lat="46.32753" lon="6.77374">
        <ele>1703.7595</ele>
        <time>2014-08-28T14:49:59Z</time>
      </trkpt>
      <trkpt lat="46.32754" lon="6.77377">
        <ele>1707.9111</ele>
        <time>2014-08-28T14:50:04Z</time>
      </trkpt>
      <trkpt lat="46.32755" lon="6.7738">
        <ele>1707.9111</ele>
        <time>2014-08-28T14:50:09Z</time>
      </trkpt>
      <trkpt lat="46.32755" lon="6.77385">
        <ele>1707.9111</ele>
        <time>2014-08-28T14:50:14Z</time>
      </trkpt>
      <trkpt lat="46.32756" lon="6.77386">
        <ele>1707.9111</ele>
        <time>2014-08-28T14:50:19Z</time>
      </trkpt>
      <trkpt lat="46.32753" lon="6.77387">
        <ele>1707.9111</ele>
        <time>2014-08-28T14:50:24Z</time>
      </trkpt>
      <trkpt lat="46.32753" lon="6.77389">
        <ele>1710.209</ele>
        <time>2014-08-28T14:50:29Z</time>
      </trkpt>
      <trkpt lat="46.32754" lon="6.77391">
        <ele>1710.209</ele>
        <time>2014-08-28T14:50:34Z</time>
      </trkpt>
      <trkpt lat="46.32756" lon="6.77391">
        <ele>1710.209</ele>
        <time>2014-08-28T14:50:39Z</time>
      </trkpt>
      <trkpt lat="46.32755" lon="6.77391">
        <ele>1710.209</ele>
        <time>2014-08-28T14:50:44Z</time>
      </trkpt>
      <trkpt lat="46.32754" lon="6.77391">
        <ele>1710.209</ele>
        <time>2014-08-28T14:51:04Z</time>
      </trkpt>
      <trkpt lat="46.32755" lon="6.77392">
        <ele>1710.209</ele>
        <time>2014-08-28T14:51:09Z</time>
      </trkpt>
      <trkpt lat="46.32754" lon="6.77394">
        <ele>1710.209</ele>
        <time>2014-08-28T14:51:14Z</time>
      </trkpt>
      <trkpt lat="46.32755" lon="6.77396">
        <ele>1712.7954</ele>
        <time>2014-08-28T14:51:19Z</time>
      </trkpt>
      <trkpt lat="46.32754" lon="6.77399">
        <ele>1712.7954</ele>
        <time>2014-08-28T14:51:24Z</time>
      </trkpt>
      <trkpt lat="46.32754" lon="6.774">
        <ele>1712.7954</ele>
        <time>2014-08-28T14:51:29Z</time>
      </trkpt>
      <trkpt lat="46.32753" lon="6.77402">
        <ele>1712.7954</ele>
        <time>2014-08-28T14:51:34Z</time>
      </trkpt>
      <trkpt lat="46.32757" lon="6.77403">
        <ele>1712.7954</ele>
        <time>2014-08-28T14:51:39Z</time>
      </trkpt>
      <trkpt lat="46.32757" lon="6.77403">
        <ele>1712.7954</ele>
        <time>2014-08-28T14:51:44Z</time>
      </trkpt>
      <trkpt lat="46.32757" lon="6.77403">
        <ele>1715.0593</ele>
        <time>2014-08-28T14:52:04Z</time>
      </trkpt>
      <trkpt lat="46.32758" lon="6.77404">
        <ele>1717.3234</ele>
        <time>2014-08-28T14:52:09Z</time>
      </trkpt>
      <trkpt lat="46.32759" lon="6.77405">
        <ele>1717.3234</ele>
        <time>2014-08-28T14:52:14Z</time>
      </trkpt>
      <trkpt lat="46.32759" lon="6.77407">
        <ele>1717.3234</ele>
        <time>2014-08-28T14:52:19Z</time>
      </trkpt>
      <trkpt lat="46.32756" lon="6.77408">
        <ele>1717.3234</ele>
        <time>2014-08-28T14:52:24Z</time>
      </trkpt>
      <trkpt lat="46.32757" lon="6.77408">
        <ele>1717.3234</ele>
        <time>2014-08-28T14:52:29Z</time>
      </trkpt>
      <trkpt lat="46.32756" lon="6.77412">
        <ele>1717.3234</ele>
        <time>2014-08-28T14:52:44Z</time>
      </trkpt>
      <trkpt lat="46.32756" lon="6.77412">
        <ele>1717.3234</ele>
        <time>2014-08-28T14:52:49Z</time>
      </trkpt>
      <trkpt lat="46.32755" lon="6.77412">
        <ele>1722.0332</ele>
        <time>2014-08-28T14:52:54Z</time>
      </trkpt>
      <trkpt lat="46.32755" lon="6.77412">
        <ele>1722.0332</ele>
        <time>2014-08-28T14:52:59Z</time>
      </trkpt>
      <trkpt lat="46.32755" lon="6.77413">
        <ele>1722.0332</ele>
        <time>2014-08-28T14:53:04Z</time>
      </trkpt>
      <trkpt lat="46.32756" lon="6.77413">
        <ele>1722.0332</ele>
        <time>2014-08-28T14:53:09Z</time>
      </trkpt>
      <trkpt lat="46.32756" lon="6.77413">
        <ele>1722.0332</ele>
        <time>2014-08-28T14:53:14Z</time>
      </trkpt>
      <trkpt lat="46.32756" lon="6.77412">
        <ele>1722.0332</ele>
        <time>2014-08-28T14:53:19Z</time>
      </trkpt>
      <trkpt lat="46.32757" lon="6.77412">
        <ele>1722.0332</ele>
        <time>2014-08-28T14:53:24Z</time>
      </trkpt>
      <trkpt lat="46.32758" lon="6.77416">
        <ele>1722.0332</ele>
        <time>2014-08-28T14:53:29Z</time>
      </trkpt>
      <trkpt lat="46.32758" lon="6.77418">
        <ele>1722.0332</ele>
        <time>2014-08-28T14:53:34Z</time>
      </trkpt>
      <trkpt lat="46.32761" lon="6.77421">
        <ele>1726.4323</ele>
        <time>2014-08-28T14:53:39Z</time>
      </trkpt>
      <trkpt lat="46.32761" lon="6.77426">
        <ele>1726.4323</ele>
        <time>2014-08-28T14:53:44Z</time>
      </trkpt>
      <trkpt lat="46.32759" lon="6.77427">
        <ele>1726.4323</ele>
        <time>2014-08-28T14:53:49Z</time>
      </trkpt>
      <trkpt lat="46.32758" lon="6.7743">
        <ele>1726.4323</ele>
        <time>2014-08-28T14:53:54Z</time>
      </trkpt>
      <trkpt lat="46.32757" lon="6.77431">
        <ele>1726.4323</ele>
        <time>2014-08-28T14:53:59Z</time>
      </trkpt>
      <trkpt lat="46.32758" lon="6.77431">
        <ele>1730.7571</ele>
        <time>2014-08-28T14:54:04Z</time>
      </trkpt>
      <trkpt lat="46.32758" lon="6.77431">
        <ele>1730.7571</ele>
        <time>2014-08-28T14:54:09Z</time>
      </trkpt>
      <trkpt lat="46.32757" lon="6.77433">
        <ele>1730.7571</ele>
        <time>2014-08-28T14:54:34Z</time>
      </trkpt>
      <trkpt lat="46.32757" lon="6.77435">
        <ele>1730.7571</ele>
        <time>2014-08-28T14:54:39Z</time>
      </trkpt>
      <trkpt lat="46.32758" lon="6.77435">
        <ele>1730.7571</ele>
        <time>2014-08-28T14:54:44Z</time>
      </trkpt>
      <trkpt lat="46.32759" lon="6.77435">
        <ele>1730.7571</ele>
        <time>2014-08-28T14:54:49Z</time>
      </trkpt>
      <trkpt lat="46.32759" lon="6.77436">
        <ele>1730.7571</ele>
        <time>2014-08-28T14:54:54Z</time>
      </trkpt>
      <trkpt lat="46.32759" lon="6.77435">
        <ele>1730.7571</ele>
        <time>2014-08-28T14:54:59Z</time>
      </trkpt>
      <trkpt lat="46.32757" lon="6.77436">
        <ele>1730.7571</ele>
        <time>2014-08-28T14:55:04Z</time>
      </trkpt>
      <trkpt lat="46.32756" lon="6.77437">
        <ele>1730.7571</ele>
        <time>2014-08-28T14:55:09Z</time>
      </trkpt>
      <trkpt lat="46.32755" lon="6.77436">
        <ele>1734.1892</ele>
        <time>2014-08-28T14:55:14Z</time>
      </trkpt>
      <trkpt lat="46.32753" lon="6.77436">
        <ele>1734.1892</ele>
        <time>2014-08-28T14:55:19Z</time>
      </trkpt>
      <trkpt lat="46.32752" lon="6.77437">
        <ele>1734.1892</ele>
        <time>2014-08-28T14:55:24Z</time>
      </trkpt>
      <trkpt lat="46.3275" lon="6.77437">
        <ele>1734.1892</ele>
        <time>2014-08-28T14:55:29Z</time>
      </trkpt>
      <trkpt lat="46.3275" lon="6.77437">
        <ele>1734.1892</ele>
        <time>2014-08-28T14:55:34Z</time>
      </trkpt>
      <trkpt lat="46.32749" lon="6.77437">
        <ele>1734.1892</ele>
        <time>2014-08-28T14:55:59Z</time>
      </trkpt>
      <trkpt lat="46.32748" lon="6.77437">
        <ele>1734.1892</ele>
        <time>2014-08-28T14:56:04Z</time>
      </trkpt>
      <trkpt lat="46.32747" lon="6.77437">
        <ele>1734.1892</ele>
        <time>2014-08-28T14:56:09Z</time>
      </trkpt>
      <trkpt lat="46.32747" lon="6.77438">
        <ele>1734.1892</ele>
        <time>2014-08-28T14:56:14Z</time>
      </trkpt>
      <trkpt lat="46.32743" lon="6.77438">
        <ele>1737.515</ele>
        <time>2014-08-28T14:56:19Z</time>
      </trkpt>
      <trkpt lat="46.32742" lon="6.7744">
        <ele>1737.515</ele>
        <time>2014-08-28T14:56:24Z</time>
      </trkpt>
      <trkpt lat="46.3274" lon="6.77442">
        <ele>1737.515</ele>
        <time>2014-08-28T14:56:29Z</time>
      </trkpt>
      <trkpt lat="46.32738" lon="6.77443">
        <ele>1737.515</ele>
        <time>2014-08-28T14:56:34Z</time>
      </trkpt>
      <trkpt lat="46.32735" lon="6.77446">
        <ele>1740.267</ele>
        <time>2014-08-28T14:56:39Z</time>
      </trkpt>
      <trkpt lat="46.32734" lon="6.77446">
        <ele>1740.267</ele>
        <time>2014-08-28T14:56:44Z</time>
      </trkpt>
      <trkpt lat="46.32734" lon="6.77446">
        <ele>1740.267</ele>
        <time>2014-08-28T14:56:49Z</time>
      </trkpt>
      <trkpt lat="46.32733" lon="6.77447">
        <ele>1740.267</ele>
        <time>2014-08-28T14:56:54Z</time>
      </trkpt>
      <trkpt lat="46.32732" lon="6.77447">
        <ele>1740.267</ele>
        <time>2014-08-28T14:56:59Z</time>
      </trkpt>
      <trkpt lat="46.32733" lon="6.7745">
        <ele>1740.267</ele>
        <time>2014-08-28T14:57:04Z</time>
      </trkpt>
      <trkpt lat="46.32732" lon="6.7745">
        <ele>1740.267</ele>
        <time>2014-08-28T14:57:09Z</time>
      </trkpt>
      <trkpt lat="46.32732" lon="6.7745">
        <ele>1740.267</ele>
        <time>2014-08-28T14:57:14Z</time>
      </trkpt>
      <trkpt lat="46.3273" lon="6.77453">
        <ele>1742.331</ele>
        <time>2014-08-28T14:57:29Z</time>
      </trkpt>
      <trkpt lat="46.32729" lon="6.77453">
        <ele>1742.331</ele>
        <time>2014-08-28T14:57:34Z</time>
      </trkpt>
      <trkpt lat="46.32729" lon="6.77453">
        <ele>1742.331</ele>
        <time>2014-08-28T14:57:39Z</time>
      </trkpt>
      <trkpt lat="46.32729" lon="6.77455">
        <ele>1742.331</ele>
        <time>2014-08-28T14:57:49Z</time>
      </trkpt>
      <trkpt lat="46.32726" lon="6.77456">
        <ele>1742.331</ele>
        <time>2014-08-28T14:57:54Z</time>
      </trkpt>
      <trkpt lat="46.32725" lon="6.77456">
        <ele>1742.331</ele>
        <time>2014-08-28T14:57:59Z</time>
      </trkpt>
      <trkpt lat="46.32725" lon="6.77456">
        <ele>1742.331</ele>
        <time>2014-08-28T14:58:04Z</time>
      </trkpt>
      <trkpt lat="46.32724" lon="6.77457">
        <ele>1742.331</ele>
        <time>2014-08-28T14:58:09Z</time>
      </trkpt>
      <trkpt lat="46.32722" lon="6.77457">
        <ele>1745.3325</ele>
        <time>2014-08-28T14:58:14Z</time>
      </trkpt>
      <trkpt lat="46.3272" lon="6.77459">
        <ele>1745.3325</ele>
        <time>2014-08-28T14:58:19Z</time>
      </trkpt>
      <trkpt lat="46.32721" lon="6.77459">
        <ele>1745.3325</ele>
        <time>2014-08-28T14:58:24Z</time>
      </trkpt>
      <trkpt lat="46.32719" lon="6.77461">
        <ele>1745.3325</ele>
        <time>2014-08-28T14:58:29Z</time>
      </trkpt>
      <trkpt lat="46.32719" lon="6.77461">
        <ele>1745.3325</ele>
        <time>2014-08-28T14:58:34Z</time>
      </trkpt>
      <trkpt lat="46.32715" lon="6.77463">
        <ele>1748.4979</ele>
        <time>2014-08-28T14:58:54Z</time>
      </trkpt>
      <trkpt lat="46.32713" lon="6.77463">
        <ele>1748.4979</ele>
        <time>2014-08-28T14:58:59Z</time>
      </trkpt>
      <trkpt lat="46.32712" lon="6.77463">
        <ele>1748.4979</ele>
        <time>2014-08-28T14:59:04Z</time>
      </trkpt>
      <trkpt lat="46.32711" lon="6.77464">
        <ele>1748.4979</ele>
        <time>2014-08-28T14:59:09Z</time>
      </trkpt>
      <trkpt lat="46.32711" lon="6.77465">
        <ele>1748.4979</ele>
        <time>2014-08-28T14:59:14Z</time>
      </trkpt>
      <trkpt lat="46.3271" lon="6.77467">
        <ele>1748.4979</ele>
        <time>2014-08-28T14:59:19Z</time>
      </trkpt>
      <trkpt lat="46.3271" lon="6.77467">
        <ele>1748.4979</ele>
        <time>2014-08-28T14:59:24Z</time>
      </trkpt>
      <trkpt lat="46.3271" lon="6.77468">
        <ele>1748.4979</ele>
        <time>2014-08-28T14:59:29Z</time>
      </trkpt>
      <trkpt lat="46.32709" lon="6.77468">
        <ele>1748.4979</ele>
        <time>2014-08-28T15:00:09Z</time>
      </trkpt>
      <trkpt lat="46.32709" lon="6.77468">
        <ele>1748.4979</ele>
        <time>2014-08-28T15:00:14Z</time>
      </trkpt>
      <trkpt lat="46.32704" lon="6.77471">
        <ele>1752.6376</ele>
        <time>2014-08-28T15:00:24Z</time>
      </trkpt>
      <trkpt lat="46.32701" lon="6.77472">
        <ele>1752.6376</ele>
        <time>2014-08-28T15:00:29Z</time>
      </trkpt>
      <trkpt lat="46.32698" lon="6.7747">
        <ele>1752.6376</ele>
        <time>2014-08-28T15:00:34Z</time>
      </trkpt>
      <trkpt lat="46.32697" lon="6.7747">
        <ele>1752.6376</ele>
        <time>2014-08-28T15:00:39Z</time>
      </trkpt>
      <trkpt lat="46.32697" lon="6.7747">
        <ele>1752.6376</ele>
        <time>2014-08-28T15:00:44Z</time>
      </trkpt>
      <trkpt lat="46.32697" lon="6.77469">
        <ele>1752.6376</ele>
        <time>2014-08-28T15:00:49Z</time>
      </trkpt>
      <trkpt lat="46.32697" lon="6.77464">
        <ele>1756.8423</ele>
        <time>2014-08-28T15:00:54Z</time>
      </trkpt>
      <trkpt lat="46.32699" lon="6.77459">
        <ele>1756.8423</ele>
        <time>2014-08-28T15:00:59Z</time>
      </trkpt>
      <trkpt lat="46.32697" lon="6.77454">
        <ele>1756.8423</ele>
        <time>2014-08-28T15:01:04Z</time>
      </trkpt>
      <trkpt lat="46.32692" lon="6.77448">
        <ele>1761.0621</ele>
        <time>2014-08-28T15:01:09Z</time>
      </trkpt>
      <trkpt lat="46.32689" lon="6.77446">
        <ele>1761.0621</ele>
        <time>2014-08-28T15:01:14Z</time>
      </trkpt>
      <trkpt lat="46.32689" lon="6.77446">
        <ele>1761.0621</ele>
        <time>2014-08-28T15:01:19Z</time>
      </trkpt>
      <trkpt lat="46.32687" lon="6.77441">
        <ele>1761.0621</ele>
        <time>2014-08-28T15:01:24Z</time>
      </trkpt>
      <trkpt lat="46.32684" lon="6.77438">
        <ele>1765.3662</ele>
        <time>2014-08-28T15:01:29Z</time>
      </trkpt>
      <trkpt lat="46.32679" lon="6.77437">
        <ele>1765.3662</ele>
        <time>2014-08-28T15:01:34Z</time>
      </trkpt>
      <trkpt lat="46.32677" lon="6.77438">
        <ele>1765.3662</ele>
        <time>2014-08-28T15:01:39Z</time>
      </trkpt>
      <trkpt lat="46.32677" lon="6.77438">
        <ele>1765.3662</ele>
        <time>2014-08-28T15:01:44Z</time>
      </trkpt>
      <trkpt lat="46.32671" lon="6.77435">
        <ele>1769.285</ele>
        <time>2014-08-28T15:01:49Z</time>
      </trkpt>
      <trkpt lat="46.32666" lon="6.77433">
        <ele>1769.285</ele>
        <time>2014-08-28T15:01:54Z</time>
      </trkpt>
      <trkpt lat="46.32665" lon="6.77433">
        <ele>1769.285</ele>
        <time>2014-08-28T15:01:59Z</time>
      </trkpt>
      <trkpt lat="46.32663" lon="6.77432">
        <ele>1769.285</ele>
        <time>2014-08-28T15:02:04Z</time>
      </trkpt>
      <trkpt lat="46.3266" lon="6.77429">
        <ele>1772.8168</ele>
        <time>2014-08-28T15:02:09Z</time>
      </trkpt>
      <trkpt lat="46.32659" lon="6.77428">
        <ele>1772.8168</ele>
        <time>2014-08-28T15:02:14Z</time>
      </trkpt>
      <trkpt lat="46.32659" lon="6.77428">
        <ele>1772.8168</ele>
        <time>2014-08-28T15:02:19Z</time>
      </trkpt>
      <trkpt lat="46.32657" lon="6.77423">
        <ele>1772.8168</ele>
        <time>2014-08-28T15:02:34Z</time>
      </trkpt>
      <trkpt lat="46.32653" lon="6.77416">
        <ele>1776.1631</ele>
        <time>2014-08-28T15:02:39Z</time>
      </trkpt>
      <trkpt lat="46.32651" lon="6.77413">
        <ele>1776.1631</ele>
        <time>2014-08-28T15:02:44Z</time>
      </trkpt>
      <trkpt lat="46.32646" lon="6.77408">
        <ele>1779.194</ele>
        <time>2014-08-28T15:02:49Z</time>
      </trkpt>
      <trkpt lat="46.3264" lon="6.77402">
        <ele>1779.194</ele>
        <time>2014-08-28T15:02:54Z</time>
      </trkpt>
      <trkpt lat="46.32633" lon="6.77394">
        <ele>1782.0637</ele>
        <time>2014-08-28T15:02:59Z</time>
      </trkpt>
      <trkpt lat="46.32628" lon="6.7739">
        <ele>1782.0637</ele>
        <time>2014-08-28T15:03:04Z</time>
      </trkpt>
      <trkpt lat="46.32627" lon="6.77389">
        <ele>1782.0637</ele>
        <time>2014-08-28T15:03:09Z</time>
      </trkpt>
      <trkpt lat="46.32626" lon="6.77387">
        <ele>1782.0637</ele>
        <time>2014-08-28T15:03:14Z</time>
      </trkpt>
      <trkpt lat="46.32626" lon="6.77386">
        <ele>1784.6854</ele>
        <time>2014-08-28T15:03:19Z</time>
      </trkpt>
      <trkpt lat="46.32625" lon="6.77384">
        <ele>1784.6854</ele>
        <time>2014-08-28T15:03:24Z</time>
      </trkpt>
      <trkpt lat="46.32626" lon="6.77384">
        <ele>1784.6854</ele>
        <time>2014-08-28T15:03:29Z</time>
      </trkpt>
      <trkpt lat="46.32627" lon="6.77382">
        <ele>1784.6854</ele>
        <time>2014-08-28T15:03:34Z</time>
      </trkpt>
      <trkpt lat="46.32627" lon="6.77382">
        <ele>1784.6854</ele>
        <time>2014-08-28T15:03:39Z</time>
      </trkpt>
      <trkpt lat="46.32627" lon="6.77382">
        <ele>1784.6854</ele>
        <time>2014-08-28T15:03:44Z</time>
      </trkpt>
      <trkpt lat="46.32627" lon="6.77382">
        <ele>1784.6854</ele>
        <time>2014-08-28T15:03:49Z</time>
      </trkpt>
      <trkpt lat="46.32628" lon="6.77382">
        <ele>1784.6854</ele>
        <time>2014-08-28T15:04:39Z</time>
      </trkpt>
      <trkpt lat="46.32627" lon="6.7738">
        <ele>1784.6854</ele>
        <time>2014-08-28T15:04:44Z</time>
      </trkpt>
      <trkpt lat="46.32625" lon="6.77378">
        <ele>1784.6854</ele>
        <time>2014-08-28T15:04:49Z</time>
      </trkpt>
      <trkpt lat="46.32623" lon="6.77378">
        <ele>1787.4543</ele>
        <time>2014-08-28T15:04:54Z</time>
      </trkpt>
      <trkpt lat="46.3262" lon="6.77377">
        <ele>1787.4543</ele>
        <time>2014-08-28T15:04:59Z</time>
      </trkpt>
      <trkpt lat="46.32617" lon="6.77379">
        <ele>1787.4543</ele>
        <time>2014-08-28T15:05:04Z</time>
      </trkpt>
      <trkpt lat="46.32616" lon="6.77381">
        <ele>1787.4543</ele>
        <time>2014-08-28T15:05:09Z</time>
      </trkpt>
      <trkpt lat="46.32615" lon="6.77385">
        <ele>1790.2468</ele>
        <time>2014-08-28T15:05:14Z</time>
      </trkpt>
      <trkpt lat="46.32613" lon="6.77386">
        <ele>1790.2468</ele>
        <time>2014-08-28T15:05:19Z</time>
      </trkpt>
      <trkpt lat="46.32611" lon="6.77389">
        <ele>1790.2468</ele>
        <time>2014-08-28T15:05:24Z</time>
      </trkpt>
      <trkpt lat="46.32611" lon="6.77389">
        <ele>1790.2468</ele>
        <time>2014-08-28T15:05:29Z</time>
      </trkpt>
      <trkpt lat="46.32609" lon="6.77391">
        <ele>1790.2468</ele>
        <time>2014-08-28T15:05:39Z</time>
      </trkpt>
      <trkpt lat="46.32607" lon="6.77391">
        <ele>1790.2468</ele>
        <time>2014-08-28T15:05:44Z</time>
      </trkpt>
      <trkpt lat="46.32607" lon="6.77392">
        <ele>1792.9336</ele>
        <time>2014-08-28T15:05:49Z</time>
      </trkpt>
      <trkpt lat="46.32607" lon="6.77392">
        <ele>1792.9336</ele>
        <time>2014-08-28T15:05:54Z</time>
      </trkpt>
      <trkpt lat="46.32607" lon="6.77393">
        <ele>1792.9336</ele>
        <time>2014-08-28T15:05:59Z</time>
      </trkpt>
      <trkpt lat="46.32607" lon="6.77393">
        <ele>1792.9336</ele>
        <time>2014-08-28T15:06:04Z</time>
      </trkpt>
      <trkpt lat="46.32606" lon="6.774">
        <ele>1792.9336</ele>
        <time>2014-08-28T15:06:24Z</time>
      </trkpt>
      <trkpt lat="46.32603" lon="6.77405">
        <ele>1795.5103</ele>
        <time>2014-08-28T15:06:29Z</time>
      </trkpt>
      <trkpt lat="46.32602" lon="6.77407">
        <ele>1795.5103</ele>
        <time>2014-08-28T15:06:34Z</time>
      </trkpt>
      <trkpt lat="46.32601" lon="6.77408">
        <ele>1795.5103</ele>
        <time>2014-08-28T15:06:39Z</time>
      </trkpt>
      <trkpt lat="46.32599" lon="6.77409">
        <ele>1795.5103</ele>
        <time>2014-08-28T15:06:44Z</time>
      </trkpt>
      <trkpt lat="46.32599" lon="6.7741">
        <ele>1795.5103</ele>
        <time>2014-08-28T15:06:49Z</time>
      </trkpt>
      <trkpt lat="46.32599" lon="6.7741">
        <ele>1795.5103</ele>
        <time>2014-08-28T15:06:54Z</time>
      </trkpt>
      <trkpt lat="46.32598" lon="6.77411">
        <ele>1795.5103</ele>
        <time>2014-08-28T15:06:59Z</time>
      </trkpt>
      <trkpt lat="46.32598" lon="6.77411">
        <ele>1795.5103</ele>
        <time>2014-08-28T15:07:04Z</time>
      </trkpt>
      <trkpt lat="46.32598" lon="6.77414">
        <ele>1798.1464</ele>
        <time>2014-08-28T15:07:09Z</time>
      </trkpt>
      <trkpt lat="46.32598" lon="6.77421">
        <ele>1798.1464</ele>
        <time>2014-08-28T15:07:14Z</time>
      </trkpt>
      <trkpt lat="46.32598" lon="6.77421">
        <ele>1798.1464</ele>
        <time>2014-08-28T15:07:19Z</time>
      </trkpt>
      <trkpt lat="46.32598" lon="6.77422">
        <ele>1798.1464</ele>
        <time>2014-08-28T15:07:29Z</time>
      </trkpt>
      <trkpt lat="46.32598" lon="6.77422">
        <ele>1798.1464</ele>
        <time>2014-08-28T15:07:34Z</time>
      </trkpt>
      <trkpt lat="46.32597" lon="6.7742">
        <ele>1798.1464</ele>
        <time>2014-08-28T15:08:19Z</time>
      </trkpt>
      <trkpt lat="46.32593" lon="6.77425">
        <ele>1800.6526</ele>
        <time>2014-08-28T15:08:24Z</time>
      </trkpt>
      <trkpt lat="46.3259" lon="6.77428">
        <ele>1800.6526</ele>
        <time>2014-08-28T15:08:29Z</time>
      </trkpt>
      <trkpt lat="46.3259" lon="6.77429">
        <ele>1800.6526</ele>
        <time>2014-08-28T15:08:34Z</time>
      </trkpt>
      <trkpt lat="46.3259" lon="6.77429">
        <ele>1800.6526</ele>
        <time>2014-08-28T15:08:39Z</time>
      </trkpt>
      <trkpt lat="46.32589" lon="6.77432">
        <ele>1800.6526</ele>
        <time>2014-08-28T15:09:24Z</time>
      </trkpt>
      <trkpt lat="46.32589" lon="6.77432">
        <ele>1800.6526</ele>
        <time>2014-08-28T15:09:29Z</time>
      </trkpt>
      <trkpt lat="46.32587" lon="6.77434">
        <ele>1803.2288</ele>
        <time>2014-08-28T15:09:34Z</time>
      </trkpt>
      <trkpt lat="46.32586" lon="6.77435">
        <ele>1803.2288</ele>
        <time>2014-08-28T15:09:39Z</time>
      </trkpt>
      <trkpt lat="46.32586" lon="6.77435">
        <ele>1803.2288</ele>
        <time>2014-08-28T15:09:44Z</time>
      </trkpt>
      <trkpt lat="46.32584" lon="6.77442">
        <ele>1803.2288</ele>
        <time>2014-08-28T15:09:49Z</time>
      </trkpt>
      <trkpt lat="46.3258" lon="6.77445">
        <ele>1805.5696</ele>
        <time>2014-08-28T15:09:54Z</time>
      </trkpt>
      <trkpt lat="46.32575" lon="6.77447">
        <ele>1805.5696</ele>
        <time>2014-08-28T15:09:59Z</time>
      </trkpt>
      <trkpt lat="46.32573" lon="6.77447">
        <ele>1805.5696</ele>
        <time>2014-08-28T15:10:04Z</time>
      </trkpt>
      <trkpt lat="46.32571" lon="6.77447">
        <ele>1807.7533</ele>
        <time>2014-08-28T15:10:09Z</time>
      </trkpt>
      <trkpt lat="46.32571" lon="6.77446">
        <ele>1807.7533</ele>
        <time>2014-08-28T15:10:14Z</time>
      </trkpt>
      <trkpt lat="46.3257" lon="6.77445">
        <ele>1807.7533</ele>
        <time>2014-08-28T15:10:19Z</time>
      </trkpt>
      <trkpt lat="46.3257" lon="6.77445">
        <ele>1807.7533</ele>
        <time>2014-08-28T15:10:24Z</time>
      </trkpt>
      <trkpt lat="46.32569" lon="6.77444">
        <ele>1807.7533</ele>
        <time>2014-08-28T15:10:29Z</time>
      </trkpt>
      <trkpt lat="46.32568" lon="6.77446">
        <ele>1807.7533</ele>
        <time>2014-08-28T15:10:34Z</time>
      </trkpt>
      <trkpt lat="46.32568" lon="6.77448">
        <ele>1807.7533</ele>
        <time>2014-08-28T15:10:39Z</time>
      </trkpt>
      <trkpt lat="46.32566" lon="6.77448">
        <ele>1807.7533</ele>
        <time>2014-08-28T15:10:44Z</time>
      </trkpt>
      <trkpt lat="46.3256" lon="6.77446">
        <ele>1810.1266</ele>
        <time>2014-08-28T15:10:49Z</time>
      </trkpt>
      <trkpt lat="46.3256" lon="6.77447">
        <ele>1810.1266</ele>
        <time>2014-08-28T15:10:54Z</time>
      </trkpt>
      <trkpt lat="46.3256" lon="6.77447">
        <ele>1810.1266</ele>
        <time>2014-08-28T15:10:59Z</time>
      </trkpt>
      <trkpt lat="46.32559" lon="6.77448">
        <ele>1810.1266</ele>
        <time>2014-08-28T15:11:04Z</time>
      </trkpt>
      <trkpt lat="46.32559" lon="6.77448">
        <ele>1810.1266</ele>
        <time>2014-08-28T15:11:09Z</time>
      </trkpt>
      <trkpt lat="46.32559" lon="6.77448">
        <ele>1810.1266</ele>
        <time>2014-08-28T15:11:14Z</time>
      </trkpt>
      <trkpt lat="46.32559" lon="6.77449">
        <ele>1810.1266</ele>
        <time>2014-08-28T15:11:19Z</time>
      </trkpt>
      <trkpt lat="46.32559" lon="6.7745">
        <ele>1810.1266</ele>
        <time>2014-08-28T15:11:24Z</time>
      </trkpt>
      <trkpt lat="46.32558" lon="6.7745">
        <ele>1810.1266</ele>
        <time>2014-08-28T15:11:29Z</time>
      </trkpt>
      <trkpt lat="46.32558" lon="6.77449">
        <ele>1810.1266</ele>
        <time>2014-08-28T15:11:34Z</time>
      </trkpt>
      <trkpt lat="46.32558" lon="6.77449">
        <ele>1810.1266</ele>
        <time>2014-08-28T15:11:39Z</time>
      </trkpt>
      <trkpt lat="46.32558" lon="6.77451">
        <ele>1810.1266</ele>
        <time>2014-08-28T15:11:49Z</time>
      </trkpt>
      <trkpt lat="46.32558" lon="6.77451">
        <ele>1810.1266</ele>
        <time>2014-08-28T15:11:54Z</time>
      </trkpt>
      <trkpt lat="46.32557" lon="6.77448">
        <ele>1810.1266</ele>
        <time>2014-08-28T15:12:19Z</time>
      </trkpt>
      <trkpt lat="46.32554" lon="6.77443">
        <ele>1812.4912</ele>
        <time>2014-08-28T15:12:24Z</time>
      </trkpt>
      <trkpt lat="46.32552" lon="6.77443">
        <ele>1812.4912</ele>
        <time>2014-08-28T15:12:29Z</time>
      </trkpt>
      <trkpt lat="46.3255" lon="6.77441">
        <ele>1812.4912</ele>
        <time>2014-08-28T15:12:34Z</time>
      </trkpt>
      <trkpt lat="46.32549" lon="6.7744">
        <ele>1812.4912</ele>
        <time>2014-08-28T15:12:39Z</time>
      </trkpt>
      <trkpt lat="46.3255" lon="6.77439">
        <ele>1812.4912</ele>
        <time>2014-08-28T15:12:44Z</time>
      </trkpt>
      <trkpt lat="46.32549" lon="6.77438">
        <ele>1812.4912</ele>
        <time>2014-08-28T15:12:49Z</time>
      </trkpt>
      <trkpt lat="46.32549" lon="6.7744">
        <ele>1812.4912</ele>
        <time>2014-08-28T15:12:54Z</time>
      </trkpt>
      <trkpt lat="46.32551" lon="6.77441">
        <ele>1814.8363</ele>
        <time>2014-08-28T15:12:59Z</time>
      </trkpt>
      <trkpt lat="46.32551" lon="6.77442">
        <ele>1814.8363</ele>
        <time>2014-08-28T15:13:04Z</time>
      </trkpt>
      <trkpt lat="46.32552" lon="6.77444">
        <ele>1814.8363</ele>
        <time>2014-08-28T15:13:09Z</time>
      </trkpt>
      <trkpt lat="46.32554" lon="6.77444">
        <ele>1814.8363</ele>
        <time>2014-08-28T15:13:14Z</time>
      </trkpt>
      <trkpt lat="46.32555" lon="6.77442">
        <ele>1814.8363</ele>
        <time>2014-08-28T15:13:19Z</time>
      </trkpt>
      <trkpt lat="46.32554" lon="6.77443">
        <ele>1814.8363</ele>
        <time>2014-08-28T15:13:24Z</time>
      </trkpt>
      <trkpt lat="46.32552" lon="6.77446">
        <ele>1816.907</ele>
        <time>2014-08-28T15:13:29Z</time>
      </trkpt>
      <trkpt lat="46.32551" lon="6.77444">
        <ele>1816.907</ele>
        <time>2014-08-28T15:13:34Z</time>
      </trkpt>
      <trkpt lat="46.32552" lon="6.77438">
        <ele>1816.907</ele>
        <time>2014-08-28T15:13:39Z</time>
      </trkpt>
      <trkpt lat="46.32551" lon="6.77438">
        <ele>1816.907</ele>
        <time>2014-08-28T15:13:44Z</time>
      </trkpt>
      <trkpt lat="46.32551" lon="6.77438">
        <ele>1816.907</ele>
        <time>2014-08-28T15:13:49Z</time>
      </trkpt>
      <trkpt lat="46.32552" lon="6.77439">
        <ele>1816.907</ele>
        <time>2014-08-28T15:13:54Z</time>
      </trkpt>
      <trkpt lat="46.32553" lon="6.77441">
        <ele>1816.907</ele>
        <time>2014-08-28T15:13:59Z</time>
      </trkpt>
      <trkpt lat="46.32554" lon="6.77444">
        <ele>1818.7847</ele>
        <time>2014-08-28T15:14:04Z</time>
      </trkpt>
      <trkpt lat="46.32558" lon="6.77448">
        <ele>1818.7847</ele>
        <time>2014-08-28T15:14:09Z</time>
      </trkpt>
      <trkpt lat="46.3256" lon="6.77449">
        <ele>1818.7847</ele>
        <time>2014-08-28T15:14:14Z</time>
      </trkpt>
      <trkpt lat="46.32561" lon="6.7745">
        <ele>1818.7847</ele>
        <time>2014-08-28T15:14:19Z</time>
      </trkpt>
      <trkpt lat="46.32563" lon="6.77451">
        <ele>1820.2715</ele>
        <time>2014-08-28T15:14:24Z</time>
      </trkpt>
      <trkpt lat="46.32564" lon="6.7745">
        <ele>1820.2715</ele>
        <time>2014-08-28T15:14:29Z</time>
      </trkpt>
      <trkpt lat="46.32565" lon="6.77451">
        <ele>1820.2715</ele>
        <time>2014-08-28T15:14:34Z</time>
      </trkpt>
      <trkpt lat="46.32564" lon="6.77453">
        <ele>1820.2715</ele>
        <time>2014-08-28T15:14:39Z</time>
      </trkpt>
      <trkpt lat="46.32562" lon="6.77453">
        <ele>1820.2715</ele>
        <time>2014-08-28T15:14:44Z</time>
      </trkpt>
      <trkpt lat="46.32556" lon="6.77448">
        <ele>1821.3436</ele>
        <time>2014-08-28T15:14:49Z</time>
      </trkpt>
      <trkpt lat="46.32554" lon="6.77445">
        <ele>1821.3436</ele>
        <time>2014-08-28T15:14:54Z</time>
      </trkpt>
      <trkpt lat="46.32554" lon="6.77442">
        <ele>1821.3436</ele>
        <time>2014-08-28T15:14:59Z</time>
      </trkpt>
      <trkpt lat="46.32555" lon="6.77444">
        <ele>1821.3436</ele>
        <time>2014-08-28T15:15:04Z</time>
      </trkpt>
      <trkpt lat="46.32556" lon="6.77444">
        <ele>1821.3436</ele>
        <time>2014-08-28T15:15:09Z</time>
      </trkpt>
      <trkpt lat="46.32556" lon="6.77443">
        <ele>1821.3436</ele>
        <time>2014-08-28T15:15:14Z</time>
      </trkpt>
      <trkpt lat="46.32556" lon="6.77441">
        <ele>1822.1965</ele>
        <time>2014-08-28T15:15:19Z</time>
      </trkpt>
      <trkpt lat="46.32556" lon="6.77438">
        <ele>1822.1965</ele>
        <time>2014-08-28T15:15:24Z</time>
      </trkpt>
      <trkpt lat="46.32557" lon="6.77436">
        <ele>1822.1965</ele>
        <time>2014-08-28T15:15:29Z</time>
      </trkpt>
      <trkpt lat="46.32557" lon="6.77435">
        <ele>1822.1965</ele>
        <time>2014-08-28T15:15:34Z</time>
      </trkpt>
      <trkpt lat="46.32558" lon="6.77439">
        <ele>1822.1965</ele>
        <time>2014-08-28T15:15:39Z</time>
      </trkpt>
      <trkpt lat="46.3256" lon="6.77448">
        <ele>1822.8528</ele>
        <time>2014-08-28T15:15:44Z</time>
      </trkpt>
      <trkpt lat="46.32562" lon="6.77451">
        <ele>1822.8528</ele>
        <time>2014-08-28T15:15:49Z</time>
      </trkpt>
      <trkpt lat="46.32563" lon="6.77452">
        <ele>1822.8528</ele>
        <time>2014-08-28T15:15:54Z</time>
      </trkpt>
      <trkpt lat="46.32564" lon="6.77451">
        <ele>1822.8528</ele>
        <time>2014-08-28T15:15:59Z</time>
      </trkpt>
      <trkpt lat="46.32563" lon="6.77448">
        <ele>1822.8528</ele>
        <time>2014-08-28T15:16:04Z</time>
      </trkpt>
      <trkpt lat="46.32563" lon="6.77446">
        <ele>1823.2043</ele>
        <time>2014-08-28T15:16:09Z</time>
      </trkpt>
      <trkpt lat="46.32561" lon="6.77445">
        <ele>1823.2043</ele>
        <time>2014-08-28T15:16:14Z</time>
      </trkpt>
      <trkpt lat="46.32561" lon="6.7744">
        <ele>1823.2043</ele>
        <time>2014-08-28T15:16:19Z</time>
      </trkpt>
      <trkpt lat="46.32561" lon="6.77438">
        <ele>1823.2043</ele>
        <time>2014-08-28T15:16:24Z</time>
      </trkpt>
      <trkpt lat="46.32562" lon="6.77438">
        <ele>1823.2043</ele>
        <time>2014-08-28T15:16:29Z</time>
      </trkpt>
      <trkpt lat="46.32562" lon="6.77438">
        <ele>1823.2043</ele>
        <time>2014-08-28T15:16:34Z</time>
      </trkpt>
      <trkpt lat="46.32562" lon="6.77438">
        <ele>1823.2043</ele>
        <time>2014-08-28T15:16:39Z</time>
      </trkpt>
      <trkpt lat="46.32562" lon="6.77438">
        <ele>1823.2043</ele>
        <time>2014-08-28T15:16:44Z</time>
      </trkpt>
      <trkpt lat="46.3256" lon="6.77442">
        <ele>1823.1808</ele>
        <time>2014-08-28T15:16:49Z</time>
      </trkpt>
      <trkpt lat="46.3256" lon="6.77443">
        <ele>1823.1808</ele>
        <time>2014-08-28T15:16:54Z</time>
      </trkpt>
      <trkpt lat="46.32559" lon="6.77446">
        <ele>1823.1808</ele>
        <time>2014-08-28T15:16:59Z</time>
      </trkpt>
      <trkpt lat="46.32559" lon="6.77447">
        <ele>1823.1808</ele>
        <time>2014-08-28T15:17:04Z</time>
      </trkpt>
      <trkpt lat="46.32559" lon="6.77447">
        <ele>1823.1808</ele>
        <time>2014-08-28T15:17:09Z</time>
      </trkpt>
      <trkpt lat="46.32558" lon="6.77447">
        <ele>1823.1808</ele>
        <time>2014-08-28T15:17:14Z</time>
      </trkpt>
      <trkpt lat="46.32558" lon="6.77446">
        <ele>1823.1808</ele>
        <time>2014-08-28T15:17:19Z</time>
      </trkpt>
      <trkpt lat="46.32559" lon="6.77445">
        <ele>1823.1808</ele>
        <time>2014-08-28T15:17:24Z</time>
      </trkpt>
      <trkpt lat="46.3256" lon="6.77447">
        <ele>1823.1808</ele>
        <time>2014-08-28T15:17:29Z</time>
      </trkpt>
      <trkpt lat="46.32562" lon="6.77448">
        <ele>1823.1208</ele>
        <time>2014-08-28T15:17:34Z</time>
      </trkpt>
      <trkpt lat="46.32564" lon="6.77454">
        <ele>1823.1208</ele>
        <time>2014-08-28T15:17:39Z</time>
      </trkpt>
      <trkpt lat="46.32564" lon="6.77455">
        <ele>1823.1208</ele>
        <time>2014-08-28T15:17:44Z</time>
      </trkpt>
      <trkpt lat="46.32562" lon="6.77454">
        <ele>1823.1208</ele>
        <time>2014-08-28T15:17:49Z</time>
      </trkpt>
      <trkpt lat="46.32559" lon="6.77452">
        <ele>1822.8776</ele>
        <time>2014-08-28T15:17:54Z</time>
      </trkpt>
      <trkpt lat="46.32558" lon="6.77451">
        <ele>1822.8776</ele>
        <time>2014-08-28T15:17:59Z</time>
      </trkpt>
      <trkpt lat="46.32557" lon="6.77448">
        <ele>1822.8776</ele>
        <time>2014-08-28T15:18:04Z</time>
      </trkpt>
      <trkpt lat="46.32557" lon="6.77448">
        <ele>1822.8776</ele>
        <time>2014-08-28T15:18:09Z</time>
      </trkpt>
      <trkpt lat="46.32558" lon="6.77448">
        <ele>1822.8776</ele>
        <time>2014-08-28T15:18:14Z</time>
      </trkpt>
      <trkpt lat="46.32559" lon="6.77446">
        <ele>1822.8776</ele>
        <time>2014-08-28T15:18:19Z</time>
      </trkpt>
      <trkpt lat="46.32559" lon="6.77447">
        <ele>1822.8776</ele>
        <time>2014-08-28T15:18:24Z</time>
      </trkpt>
      <trkpt lat="46.3256" lon="6.77448">
        <ele>1822.8776</ele>
        <time>2014-08-28T15:18:29Z</time>
      </trkpt>
      <trkpt lat="46.3256" lon="6.77449">
        <ele>1822.8776</ele>
        <time>2014-08-28T15:18:34Z</time>
      </trkpt>
      <trkpt lat="46.3256" lon="6.77448">
        <ele>1822.8776</ele>
        <time>2014-08-28T15:18:39Z</time>
      </trkpt>
      <trkpt lat="46.3256" lon="6.77448">
        <ele>1822.8776</ele>
        <time>2014-08-28T15:18:44Z</time>
      </trkpt>
      <trkpt lat="46.3256" lon="6.77447">
        <ele>1822.8776</ele>
        <time>2014-08-28T15:18:49Z</time>
      </trkpt>
      <trkpt lat="46.3256" lon="6.77447">
        <ele>1822.8776</ele>
        <time>2014-08-28T15:18:54Z</time>
      </trkpt>
      <trkpt lat="46.32561" lon="6.77446">
        <ele>1823.0499</ele>
        <time>2014-08-28T15:18:59Z</time>
      </trkpt>
      <trkpt lat="46.32561" lon="6.77446">
        <ele>1823.0499</ele>
        <time>2014-08-28T15:19:04Z</time>
      </trkpt>
      <trkpt lat="46.3256" lon="6.77446">
        <ele>1823.0499</ele>
        <time>2014-08-28T15:19:09Z</time>
      </trkpt>
      <trkpt lat="46.32558" lon="6.77445">
        <ele>1823.0499</ele>
        <time>2014-08-28T15:19:14Z</time>
      </trkpt>
      <trkpt lat="46.32557" lon="6.77445">
        <ele>1823.0499</ele>
        <time>2014-08-28T15:19:19Z</time>
      </trkpt>
      <trkpt lat="46.32556" lon="6.77446">
        <ele>1823.0499</ele>
        <time>2014-08-28T15:19:24Z</time>
      </trkpt>
      <trkpt lat="46.32556" lon="6.77447">
        <ele>1823.0499</ele>
        <time>2014-08-28T15:19:29Z</time>
      </trkpt>
      <trkpt lat="46.32556" lon="6.77449">
        <ele>1823.0499</ele>
        <time>2014-08-28T15:19:34Z</time>
      </trkpt>
      <trkpt lat="46.32556" lon="6.77451">
        <ele>1823.0499</ele>
        <time>2014-08-28T15:19:39Z</time>
      </trkpt>
      <trkpt lat="46.32558" lon="6.77451">
        <ele>1822.9521</ele>
        <time>2014-08-28T15:19:44Z</time>
      </trkpt>
      <trkpt lat="46.32558" lon="6.7745">
        <ele>1822.9521</ele>
        <time>2014-08-28T15:19:49Z</time>
      </trkpt>
      <trkpt lat="46.32557" lon="6.7745">
        <ele>1822.9521</ele>
        <time>2014-08-28T15:19:54Z</time>
      </trkpt>
      <trkpt lat="46.32557" lon="6.7745">
        <ele>1822.9521</ele>
        <time>2014-08-28T15:19:59Z</time>
      </trkpt>
      <trkpt lat="46.32557" lon="6.77449">
        <ele>1822.9521</ele>
        <time>2014-08-28T15:20:04Z</time>
      </trkpt>
      <trkpt lat="46.32557" lon="6.77447">
        <ele>1822.9521</ele>
        <time>2014-08-28T15:20:09Z</time>
      </trkpt>
      <trkpt lat="46.32558" lon="6.77447">
        <ele>1822.9521</ele>
        <time>2014-08-28T15:20:14Z</time>
      </trkpt>
      <trkpt lat="46.32558" lon="6.77448">
        <ele>1822.9521</ele>
        <time>2014-08-28T15:20:19Z</time>
      </trkpt>
      <trkpt lat="46.32558" lon="6.77448">
        <ele>1822.9521</ele>
        <time>2014-08-28T15:20:24Z</time>
      </trkpt>
      <trkpt lat="46.32558" lon="6.7745">
        <ele>1822.9521</ele>
        <time>2014-08-28T15:20:29Z</time>
      </trkpt>
      <trkpt lat="46.32557" lon="6.77457">
        <ele>1822.0792</ele>
        <time>2014-08-28T15:20:34Z</time>
      </trkpt>
      <trkpt lat="46.32555" lon="6.77462">
        <ele>1822.0792</ele>
        <time>2014-08-28T15:20:39Z</time>
      </trkpt>
      <trkpt lat="46.3255" lon="6.77474">
        <ele>1820.8297</ele>
        <time>2014-08-28T15:20:44Z</time>
      </trkpt>
      <trkpt lat="46.32548" lon="6.77476">
        <ele>1820.8297</ele>
        <time>2014-08-28T15:20:49Z</time>
      </trkpt>
      <trkpt lat="46.32548" lon="6.77476">
        <ele>1820.8297</ele>
        <time>2014-08-28T15:20:54Z</time>
      </trkpt>
      <trkpt lat="46.3255" lon="6.77472">
        <ele>1820.8297</ele>
        <time>2014-08-28T15:21:04Z</time>
      </trkpt>
      <trkpt lat="46.32552" lon="6.77464">
        <ele>1819.4443</ele>
        <time>2014-08-28T15:21:09Z</time>
      </trkpt>
      <trkpt lat="46.32553" lon="6.77455">
        <ele>1819.4443</ele>
        <time>2014-08-28T15:21:14Z</time>
      </trkpt>
      <trkpt lat="46.32547" lon="6.7745">
        <ele>1818.2755</ele>
        <time>2014-08-28T15:21:19Z</time>
      </trkpt>
      <trkpt lat="46.32541" lon="6.77447">
        <ele>1818.2755</ele>
        <time>2014-08-28T15:21:24Z</time>
      </trkpt>
      <trkpt lat="46.32541" lon="6.77446">
        <ele>1818.2755</ele>
        <time>2014-08-28T15:21:29Z</time>
      </trkpt>
      <trkpt lat="46.32538" lon="6.77442">
        <ele>1817.1736</ele>
        <time>2014-08-28T15:21:34Z</time>
      </trkpt>
      <trkpt lat="46.32538" lon="6.77442">
        <ele>1817.1736</ele>
        <time>2014-08-28T15:21:39Z</time>
      </trkpt>
      <trkpt lat="46.32535" lon="6.77441">
        <ele>1817.1736</ele>
        <time>2014-08-28T15:21:44Z</time>
      </trkpt>
      <trkpt lat="46.32536" lon="6.77444">
        <ele>1817.1736</ele>
        <time>2014-08-28T15:21:49Z</time>
      </trkpt>
      <trkpt lat="46.32536" lon="6.77446">
        <ele>1817.1736</ele>
        <time>2014-08-28T15:21:54Z</time>
      </trkpt>
      <trkpt lat="46.32533" lon="6.77447">
        <ele>1816.043</ele>
        <time>2014-08-28T15:21:59Z</time>
      </trkpt>
      <trkpt lat="46.32528" lon="6.77447">
        <ele>1816.043</ele>
        <time>2014-08-28T15:22:04Z</time>
      </trkpt>
      <trkpt lat="46.32524" lon="6.77448">
        <ele>1814.8807</ele>
        <time>2014-08-28T15:22:09Z</time>
      </trkpt>
      <trkpt lat="46.3252" lon="6.77448">
        <ele>1814.8807</ele>
        <time>2014-08-28T15:22:14Z</time>
      </trkpt>
      <trkpt lat="46.32516" lon="6.77448">
        <ele>1814.8807</ele>
        <time>2014-08-28T15:22:19Z</time>
      </trkpt>
      <trkpt lat="46.32514" lon="6.77451">
        <ele>1813.9006</ele>
        <time>2014-08-28T15:22:24Z</time>
      </trkpt>
      <trkpt lat="46.3251" lon="6.77453">
        <ele>1813.9006</ele>
        <time>2014-08-28T15:22:29Z</time>
      </trkpt>
      <trkpt lat="46.32507" lon="6.77454">
        <ele>1813.9006</ele>
        <time>2014-08-28T15:22:34Z</time>
      </trkpt>
      <trkpt lat="46.32502" lon="6.77453">
        <ele>1812.882</ele>
        <time>2014-08-28T15:22:39Z</time>
      </trkpt>
      <trkpt lat="46.32497" lon="6.77451">
        <ele>1812.882</ele>
        <time>2014-08-28T15:22:44Z</time>
      </trkpt>
      <trkpt lat="46.32494" lon="6.77455">
        <ele>1811.6918</ele>
        <time>2014-08-28T15:22:49Z</time>
      </trkpt>
      <trkpt lat="46.32491" lon="6.77456">
        <ele>1811.6918</ele>
        <time>2014-08-28T15:22:54Z</time>
      </trkpt>
      <trkpt lat="46.32487" lon="6.77459">
        <ele>1811.6918</ele>
        <time>2014-08-28T15:22:59Z</time>
      </trkpt>
      <trkpt lat="46.32484" lon="6.77459">
        <ele>1810.0201</ele>
        <time>2014-08-28T15:23:04Z</time>
      </trkpt>
      <trkpt lat="46.32484" lon="6.77458">
        <ele>1810.0201</ele>
        <time>2014-08-28T15:23:09Z</time>
      </trkpt>
      <trkpt lat="46.32481" lon="6.77461">
        <ele>1810.0201</ele>
        <time>2014-08-28T15:23:14Z</time>
      </trkpt>
      <trkpt lat="46.32477" lon="6.77462">
        <ele>1810.0201</ele>
        <time>2014-08-28T15:23:19Z</time>
      </trkpt>
      <trkpt lat="46.32473" lon="6.77463">
        <ele>1807.7102</ele>
        <time>2014-08-28T15:23:24Z</time>
      </trkpt>
      <trkpt lat="46.32467" lon="6.77461">
        <ele>1807.7102</ele>
        <time>2014-08-28T15:23:29Z</time>
      </trkpt>
      <trkpt lat="46.3246" lon="6.77463">
        <ele>1805.512</ele>
        <time>2014-08-28T15:23:34Z</time>
      </trkpt>
      <trkpt lat="46.32456" lon="6.77466">
        <ele>1805.512</ele>
        <time>2014-08-28T15:23:39Z</time>
      </trkpt>
      <trkpt lat="46.32453" lon="6.77468">
        <ele>1805.512</ele>
        <time>2014-08-28T15:23:44Z</time>
      </trkpt>
      <trkpt lat="46.32448" lon="6.77468">
        <ele>1803.2837</ele>
        <time>2014-08-28T15:23:49Z</time>
      </trkpt>
      <trkpt lat="46.32445" lon="6.77467">
        <ele>1803.2837</ele>
        <time>2014-08-28T15:23:54Z</time>
      </trkpt>
      <trkpt lat="46.32443" lon="6.77469">
        <ele>1803.2837</ele>
        <time>2014-08-28T15:23:59Z</time>
      </trkpt>
      <trkpt lat="46.3244" lon="6.77472">
        <ele>1800.6633</ele>
        <time>2014-08-28T15:24:04Z</time>
      </trkpt>
      <trkpt lat="46.32435" lon="6.77473">
        <ele>1800.6633</ele>
        <time>2014-08-28T15:24:09Z</time>
      </trkpt>
      <trkpt lat="46.32433" lon="6.77475">
        <ele>1800.6633</ele>
        <time>2014-08-28T15:24:14Z</time>
      </trkpt>
      <trkpt lat="46.3243" lon="6.77478">
        <ele>1797.9357</ele>
        <time>2014-08-28T15:24:19Z</time>
      </trkpt>
      <trkpt lat="46.32427" lon="6.7748">
        <ele>1797.9357</ele>
        <time>2014-08-28T15:24:24Z</time>
      </trkpt>
      <trkpt lat="46.32423" lon="6.77482">
        <ele>1797.9357</ele>
        <time>2014-08-28T15:24:29Z</time>
      </trkpt>
      <trkpt lat="46.32419" lon="6.77481">
        <ele>1795.0189</ele>
        <time>2014-08-28T15:24:34Z</time>
      </trkpt>
      <trkpt lat="46.32413" lon="6.77482">
        <ele>1795.0189</ele>
        <time>2014-08-28T15:24:39Z</time>
      </trkpt>
      <trkpt lat="46.3241" lon="6.77482">
        <ele>1792.1975</ele>
        <time>2014-08-28T15:24:44Z</time>
      </trkpt>
      <trkpt lat="46.32405" lon="6.77485">
        <ele>1792.1975</ele>
        <time>2014-08-28T15:24:49Z</time>
      </trkpt>
      <trkpt lat="46.32401" lon="6.77486">
        <ele>1789.4609</ele>
        <time>2014-08-28T15:24:54Z</time>
      </trkpt>
      <trkpt lat="46.32398" lon="6.77488">
        <ele>1789.4609</ele>
        <time>2014-08-28T15:24:59Z</time>
      </trkpt>
      <trkpt lat="46.32394" lon="6.77489">
        <ele>1789.4609</ele>
        <time>2014-08-28T15:25:04Z</time>
      </trkpt>
      <trkpt lat="46.3239" lon="6.77492">
        <ele>1786.7406</ele>
        <time>2014-08-28T15:25:09Z</time>
      </trkpt>
      <trkpt lat="46.32386" lon="6.77494">
        <ele>1786.7406</ele>
        <time>2014-08-28T15:25:14Z</time>
      </trkpt>
      <trkpt lat="46.32379" lon="6.77496">
        <ele>1784.1173</ele>
        <time>2014-08-28T15:25:19Z</time>
      </trkpt>
      <trkpt lat="46.32375" lon="6.77495">
        <ele>1784.1173</ele>
        <time>2014-08-28T15:25:24Z</time>
      </trkpt>
      <trkpt lat="46.32372" lon="6.77495">
        <ele>1784.1173</ele>
        <time>2014-08-28T15:25:29Z</time>
      </trkpt>
      <trkpt lat="46.32371" lon="6.77497">
        <ele>1781.5208</ele>
        <time>2014-08-28T15:25:34Z</time>
      </trkpt>
      <trkpt lat="46.32368" lon="6.77503">
        <ele>1781.5208</ele>
        <time>2014-08-28T15:25:39Z</time>
      </trkpt>
      <trkpt lat="46.32365" lon="6.77506">
        <ele>1781.5208</ele>
        <time>2014-08-28T15:25:44Z</time>
      </trkpt>
      <trkpt lat="46.32362" lon="6.77511">
        <ele>1778.9431</ele>
        <time>2014-08-28T15:25:49Z</time>
      </trkpt>
      <trkpt lat="46.32358" lon="6.77514">
        <ele>1778.9431</ele>
        <time>2014-08-28T15:25:54Z</time>
      </trkpt>
      <trkpt lat="46.32355" lon="6.77515">
        <ele>1778.9431</ele>
        <time>2014-08-28T15:25:59Z</time>
      </trkpt>
      <trkpt lat="46.32353" lon="6.77516">
        <ele>1776.3048</ele>
        <time>2014-08-28T15:26:04Z</time>
      </trkpt>
      <trkpt lat="46.32352" lon="6.77518">
        <ele>1776.3048</ele>
        <time>2014-08-28T15:26:09Z</time>
      </trkpt>
      <trkpt lat="46.3235" lon="6.77519">
        <ele>1776.3048</ele>
        <time>2014-08-28T15:26:14Z</time>
      </trkpt>
      <trkpt lat="46.32351" lon="6.7752">
        <ele>1776.3048</ele>
        <time>2014-08-28T15:26:19Z</time>
      </trkpt>
      <trkpt lat="46.32351" lon="6.77521">
        <ele>1776.3048</ele>
        <time>2014-08-28T15:26:24Z</time>
      </trkpt>
      <trkpt lat="46.32351" lon="6.77521">
        <ele>1776.3048</ele>
        <time>2014-08-28T15:26:29Z</time>
      </trkpt>
      <trkpt lat="46.32353" lon="6.77521">
        <ele>1776.3048</ele>
        <time>2014-08-28T15:26:34Z</time>
      </trkpt>
      <trkpt lat="46.32353" lon="6.7752">
        <ele>1776.3048</ele>
        <time>2014-08-28T15:26:39Z</time>
      </trkpt>
      <trkpt lat="46.32354" lon="6.77519">
        <ele>1776.3048</ele>
        <time>2014-08-28T15:26:44Z</time>
      </trkpt>
      <trkpt lat="46.32354" lon="6.77519">
        <ele>1773.4019</ele>
        <time>2014-08-28T15:26:49Z</time>
      </trkpt>
      <trkpt lat="46.32353" lon="6.77518">
        <ele>1773.4019</ele>
        <time>2014-08-28T15:26:54Z</time>
      </trkpt>
      <trkpt lat="46.32352" lon="6.77516">
        <ele>1773.4019</ele>
        <time>2014-08-28T15:26:59Z</time>
      </trkpt>
      <trkpt lat="46.32349" lon="6.77517">
        <ele>1773.4019</ele>
        <time>2014-08-28T15:27:04Z</time>
      </trkpt>
      <trkpt lat="46.32348" lon="6.77518">
        <ele>1773.4019</ele>
        <time>2014-08-28T15:27:09Z</time>
      </trkpt>
      <trkpt lat="46.32345" lon="6.7752">
        <ele>1770.608</ele>
        <time>2014-08-28T15:27:14Z</time>
      </trkpt>
      <trkpt lat="46.32341" lon="6.77523">
        <ele>1770.608</ele>
        <time>2014-08-28T15:27:19Z</time>
      </trkpt>
      <trkpt lat="46.32337" lon="6.77528">
        <ele>1767.9231</ele>
        <time>2014-08-28T15:27:24Z</time>
      </trkpt>
      <trkpt lat="46.32333" lon="6.77529">
        <ele>1767.9231</ele>
        <time>2014-08-28T15:27:29Z</time>
      </trkpt>
      <trkpt lat="46.32329" lon="6.7753">
        <ele>1767.9231</ele>
        <time>2014-08-28T15:27:34Z</time>
      </trkpt>
      <trkpt lat="46.32325" lon="6.77534">
        <ele>1765.1586</ele>
        <time>2014-08-28T15:27:39Z</time>
      </trkpt>
      <trkpt lat="46.3232" lon="6.77542">
        <ele>1765.1586</ele>
        <time>2014-08-28T15:27:44Z</time>
      </trkpt>
      <trkpt lat="46.32316" lon="6.77546">
        <ele>1762.529</ele>
        <time>2014-08-28T15:27:49Z</time>
      </trkpt>
      <trkpt lat="46.32309" lon="6.77546">
        <ele>1762.529</ele>
        <time>2014-08-28T15:27:54Z</time>
      </trkpt>
      <trkpt lat="46.32303" lon="6.77546">
        <ele>1760.1028</ele>
        <time>2014-08-28T15:27:59Z</time>
      </trkpt>
      <trkpt lat="46.32298" lon="6.77547">
        <ele>1760.1028</ele>
        <time>2014-08-28T15:28:04Z</time>
      </trkpt>
      <trkpt lat="46.32296" lon="6.77546">
        <ele>1760.1028</ele>
        <time>2014-08-28T15:28:09Z</time>
      </trkpt>
      <trkpt lat="46.32296" lon="6.77547">
        <ele>1760.1028</ele>
        <time>2014-08-28T15:28:14Z</time>
      </trkpt>
      <trkpt lat="46.32297" lon="6.77548">
        <ele>1757.8702</ele>
        <time>2014-08-28T15:28:19Z</time>
      </trkpt>
      <trkpt lat="46.32299" lon="6.77552">
        <ele>1757.8702</ele>
        <time>2014-08-28T15:28:24Z</time>
      </trkpt>
      <trkpt lat="46.323" lon="6.7756">
        <ele>1757.8702</ele>
        <time>2014-08-28T15:28:29Z</time>
      </trkpt>
      <trkpt lat="46.32301" lon="6.77567">
        <ele>1754.9568</ele>
        <time>2014-08-28T15:28:34Z</time>
      </trkpt>
      <trkpt lat="46.32303" lon="6.77571">
        <ele>1754.9568</ele>
        <time>2014-08-28T15:28:39Z</time>
      </trkpt>
      <trkpt lat="46.32302" lon="6.77573">
        <ele>1754.9568</ele>
        <time>2014-08-28T15:28:44Z</time>
      </trkpt>
      <trkpt lat="46.32301" lon="6.7758">
        <ele>1751.5771</ele>
        <time>2014-08-28T15:28:49Z</time>
      </trkpt>
      <trkpt lat="46.32299" lon="6.77582">
        <ele>1751.5771</ele>
        <time>2014-08-28T15:28:54Z</time>
      </trkpt>
      <trkpt lat="46.32296" lon="6.77584">
        <ele>1751.5771</ele>
        <time>2014-08-28T15:28:59Z</time>
      </trkpt>
      <trkpt lat="46.32295" lon="6.77588">
        <ele>1751.5771</ele>
        <time>2014-08-28T15:29:04Z</time>
      </trkpt>
      <trkpt lat="46.32293" lon="6.7759">
        <ele>1748.5074</ele>
        <time>2014-08-28T15:29:09Z</time>
      </trkpt>
      <trkpt lat="46.32288" lon="6.77592">
        <ele>1748.5074</ele>
        <time>2014-08-28T15:29:14Z</time>
      </trkpt>
      <trkpt lat="46.32284" lon="6.77594">
        <ele>1745.8749</ele>
        <time>2014-08-28T15:29:19Z</time>
      </trkpt>
      <trkpt lat="46.32281" lon="6.77598">
        <ele>1745.8749</ele>
        <time>2014-08-28T15:29:24Z</time>
      </trkpt>
      <trkpt lat="46.32278" lon="6.776">
        <ele>1745.8749</ele>
        <time>2014-08-28T15:29:29Z</time>
      </trkpt>
      <trkpt lat="46.32274" lon="6.77602">
        <ele>1743.4354</ele>
        <time>2014-08-28T15:29:34Z</time>
      </trkpt>
      <trkpt lat="46.32271" lon="6.77601">
        <ele>1743.4354</ele>
        <time>2014-08-28T15:29:39Z</time>
      </trkpt>
      <trkpt lat="46.32267" lon="6.77604">
        <ele>1743.4354</ele>
        <time>2014-08-28T15:29:44Z</time>
      </trkpt>
      <trkpt lat="46.32264" lon="6.77606">
        <ele>1740.8615</ele>
        <time>2014-08-28T15:29:49Z</time>
      </trkpt>
      <trkpt lat="46.3226" lon="6.77606">
        <ele>1740.8615</ele>
        <time>2014-08-28T15:29:54Z</time>
      </trkpt>
      <trkpt lat="46.32256" lon="6.77605">
        <ele>1740.8615</ele>
        <time>2014-08-28T15:29:59Z</time>
      </trkpt>
      <trkpt lat="46.32252" lon="6.77603">
        <ele>1738.0511</ele>
        <time>2014-08-28T15:30:04Z</time>
      </trkpt>
      <trkpt lat="46.32248" lon="6.77603">
        <ele>1738.0511</ele>
        <time>2014-08-28T15:30:09Z</time>
      </trkpt>
      <trkpt lat="46.32244" lon="6.77606">
        <ele>1738.0511</ele>
        <time>2014-08-28T15:30:14Z</time>
      </trkpt>
      <trkpt lat="46.3224" lon="6.77608">
        <ele>1734.997</ele>
        <time>2014-08-28T15:30:19Z</time>
      </trkpt>
      <trkpt lat="46.32237" lon="6.77614">
        <ele>1734.997</ele>
        <time>2014-08-28T15:30:24Z</time>
      </trkpt>
      <trkpt lat="46.32236" lon="6.77618">
        <ele>1734.997</ele>
        <time>2014-08-28T15:30:29Z</time>
      </trkpt>
      <trkpt lat="46.32238" lon="6.77624">
        <ele>1731.851</ele>
        <time>2014-08-28T15:30:34Z</time>
      </trkpt>
      <trkpt lat="46.32242" lon="6.77635">
        <ele>1731.851</ele>
        <time>2014-08-28T15:30:39Z</time>
      </trkpt>
      <trkpt lat="46.32243" lon="6.77641">
        <ele>1728.8115</ele>
        <time>2014-08-28T15:30:44Z</time>
      </trkpt>
      <trkpt lat="46.32241" lon="6.77644">
        <ele>1728.8115</ele>
        <time>2014-08-28T15:30:49Z</time>
      </trkpt>
      <trkpt lat="46.3224" lon="6.77648">
        <ele>1728.8115</ele>
        <time>2014-08-28T15:30:54Z</time>
      </trkpt>
      <trkpt lat="46.32237" lon="6.77651">
        <ele>1728.8115</ele>
        <time>2014-08-28T15:30:59Z</time>
      </trkpt>
      <trkpt lat="46.32233" lon="6.77653">
        <ele>1725.9181</ele>
        <time>2014-08-28T15:31:04Z</time>
      </trkpt>
      <trkpt lat="46.3223" lon="6.77656">
        <ele>1725.9181</ele>
        <time>2014-08-28T15:31:09Z</time>
      </trkpt>
      <trkpt lat="46.32226" lon="6.77661">
        <ele>1725.9181</ele>
        <time>2014-08-28T15:31:14Z</time>
      </trkpt>
      <trkpt lat="46.32223" lon="6.77666">
        <ele>1723.1774</ele>
        <time>2014-08-28T15:31:19Z</time>
      </trkpt>
      <trkpt lat="46.3222" lon="6.77671">
        <ele>1723.1774</ele>
        <time>2014-08-28T15:31:24Z</time>
      </trkpt>
      <trkpt lat="46.32217" lon="6.77675">
        <ele>1723.1774</ele>
        <time>2014-08-28T15:31:29Z</time>
      </trkpt>
      <trkpt lat="46.32214" lon="6.77678">
        <ele>1720.6818</ele>
        <time>2014-08-28T15:31:34Z</time>
      </trkpt>
      <trkpt lat="46.32211" lon="6.77683">
        <ele>1720.6818</ele>
        <time>2014-08-28T15:31:39Z</time>
      </trkpt>
      <trkpt lat="46.32209" lon="6.77687">
        <ele>1720.6818</ele>
        <time>2014-08-28T15:31:44Z</time>
      </trkpt>
      <trkpt lat="46.32205" lon="6.7769">
        <ele>1718.2275</ele>
        <time>2014-08-28T15:31:49Z</time>
      </trkpt>
      <trkpt lat="46.322" lon="6.77694">
        <ele>1718.2275</ele>
        <time>2014-08-28T15:31:54Z</time>
      </trkpt>
      <trkpt lat="46.32197" lon="6.77695">
        <ele>1716.0723</ele>
        <time>2014-08-28T15:31:59Z</time>
      </trkpt>
      <trkpt lat="46.32194" lon="6.777">
        <ele>1716.0723</ele>
        <time>2014-08-28T15:32:04Z</time>
      </trkpt>
      <trkpt lat="46.32191" lon="6.77703">
        <ele>1716.0723</ele>
        <time>2014-08-28T15:32:09Z</time>
      </trkpt>
      <trkpt lat="46.32189" lon="6.77705">
        <ele>1714.0359</ele>
        <time>2014-08-28T15:32:14Z</time>
      </trkpt>
      <trkpt lat="46.32188" lon="6.77705">
        <ele>1714.0359</ele>
        <time>2014-08-28T15:32:19Z</time>
      </trkpt>
      <trkpt lat="46.32188" lon="6.77708">
        <ele>1714.0359</ele>
        <time>2014-08-28T15:32:59Z</time>
      </trkpt>
      <trkpt lat="46.32188" lon="6.77715">
        <ele>1714.0359</ele>
        <time>2014-08-28T15:33:04Z</time>
      </trkpt>
      <trkpt lat="46.32187" lon="6.77719">
        <ele>1711.3168</ele>
        <time>2014-08-28T15:33:09Z</time>
      </trkpt>
      <trkpt lat="46.32188" lon="6.77724">
        <ele>1711.3168</ele>
        <time>2014-08-28T15:33:14Z</time>
      </trkpt>
      <trkpt lat="46.3219" lon="6.77729">
        <ele>1711.3168</ele>
        <time>2014-08-28T15:33:19Z</time>
      </trkpt>
      <trkpt lat="46.32194" lon="6.77735">
        <ele>1708.4565</ele>
        <time>2014-08-28T15:33:24Z</time>
      </trkpt>
      <trkpt lat="46.32197" lon="6.77739">
        <ele>1708.4565</ele>
        <time>2014-08-28T15:33:29Z</time>
      </trkpt>
      <trkpt lat="46.32197" lon="6.77741">
        <ele>1708.4565</ele>
        <time>2014-08-28T15:33:34Z</time>
      </trkpt>
      <trkpt lat="46.32193" lon="6.77741">
        <ele>1705.4962</ele>
        <time>2014-08-28T15:33:39Z</time>
      </trkpt>
      <trkpt lat="46.32189" lon="6.77743">
        <ele>1705.4962</ele>
        <time>2014-08-28T15:33:44Z</time>
      </trkpt>
      <trkpt lat="46.32189" lon="6.77745">
        <ele>1705.4962</ele>
        <time>2014-08-28T15:33:49Z</time>
      </trkpt>
      <trkpt lat="46.32191" lon="6.77746">
        <ele>1705.4962</ele>
        <time>2014-08-28T15:33:54Z</time>
      </trkpt>
      <trkpt lat="46.32189" lon="6.77751">
        <ele>1702.9349</ele>
        <time>2014-08-28T15:33:59Z</time>
      </trkpt>
      <trkpt lat="46.32187" lon="6.77759">
        <ele>1702.9349</ele>
        <time>2014-08-28T15:34:04Z</time>
      </trkpt>
      <trkpt lat="46.32188" lon="6.77763">
        <ele>1702.9349</ele>
        <time>2014-08-28T15:34:09Z</time>
      </trkpt>
      <trkpt lat="46.32186" lon="6.77771">
        <ele>1700.7296</ele>
        <time>2014-08-28T15:34:14Z</time>
      </trkpt>
      <trkpt lat="46.32185" lon="6.77777">
        <ele>1700.7296</ele>
        <time>2014-08-28T15:34:19Z</time>
      </trkpt>
      <trkpt lat="46.32186" lon="6.7778">
        <ele>1700.7296</ele>
        <time>2014-08-28T15:34:24Z</time>
      </trkpt>
      <trkpt lat="46.32184" lon="6.7778">
        <ele>1700.7296</ele>
        <time>2014-08-28T15:34:29Z</time>
      </trkpt>
      <trkpt lat="46.32183" lon="6.77781">
        <ele>1700.7296</ele>
        <time>2014-08-28T15:34:34Z</time>
      </trkpt>
      <trkpt lat="46.32181" lon="6.77785">
        <ele>1698.4502</ele>
        <time>2014-08-28T15:34:39Z</time>
      </trkpt>
      <trkpt lat="46.32179" lon="6.77788">
        <ele>1698.4502</ele>
        <time>2014-08-28T15:34:44Z</time>
      </trkpt>
      <trkpt lat="46.32177" lon="6.77793">
        <ele>1698.4502</ele>
        <time>2014-08-28T15:34:49Z</time>
      </trkpt>
      <trkpt lat="46.32174" lon="6.77797">
        <ele>1695.9861</ele>
        <time>2014-08-28T15:34:54Z</time>
      </trkpt>
      <trkpt lat="46.32173" lon="6.77801">
        <ele>1695.9861</ele>
        <time>2014-08-28T15:34:59Z</time>
      </trkpt>
      <trkpt lat="46.32172" lon="6.778">
        <ele>1695.9861</ele>
        <time>2014-08-28T15:35:04Z</time>
      </trkpt>
      <trkpt lat="46.32171" lon="6.77795">
        <ele>1695.9861</ele>
        <time>2014-08-28T15:35:09Z</time>
      </trkpt>
      <trkpt lat="46.3217" lon="6.77787">
        <ele>1693.2502</ele>
        <time>2014-08-28T15:35:14Z</time>
      </trkpt>
      <trkpt lat="46.32169" lon="6.77778">
        <ele>1693.2502</ele>
        <time>2014-08-28T15:35:19Z</time>
      </trkpt>
      <trkpt lat="46.32167" lon="6.77773">
        <ele>1690.6666</ele>
        <time>2014-08-28T15:35:24Z</time>
      </trkpt>
      <trkpt lat="46.32167" lon="6.77772">
        <ele>1690.6666</ele>
        <time>2014-08-28T15:35:29Z</time>
      </trkpt>
      <trkpt lat="46.32164" lon="6.77769">
        <ele>1690.6666</ele>
        <time>2014-08-28T15:35:34Z</time>
      </trkpt>
      <trkpt lat="46.32161" lon="6.77765">
        <ele>1690.6666</ele>
        <time>2014-08-28T15:35:39Z</time>
      </trkpt>
      <trkpt lat="46.32158" lon="6.77768">
        <ele>1688.1377</ele>
        <time>2014-08-28T15:35:44Z</time>
      </trkpt>
      <trkpt lat="46.32156" lon="6.77774">
        <ele>1688.1377</ele>
        <time>2014-08-28T15:35:49Z</time>
      </trkpt>
      <trkpt lat="46.32155" lon="6.7778">
        <ele>1688.1377</ele>
        <time>2014-08-28T15:35:54Z</time>
      </trkpt>
      <trkpt lat="46.32154" lon="6.77784">
        <ele>1685.2847</ele>
        <time>2014-08-28T15:35:59Z</time>
      </trkpt>
      <trkpt lat="46.32153" lon="6.77784">
        <ele>1685.2847</ele>
        <time>2014-08-28T15:36:04Z</time>
      </trkpt>
      <trkpt lat="46.32149" lon="6.77784">
        <ele>1685.2847</ele>
        <time>2014-08-28T15:36:09Z</time>
      </trkpt>
      <trkpt lat="46.32147" lon="6.77788">
        <ele>1682.175</ele>
        <time>2014-08-28T15:36:14Z</time>
      </trkpt>
      <trkpt lat="46.32145" lon="6.77794">
        <ele>1682.175</ele>
        <time>2014-08-28T15:36:19Z</time>
      </trkpt>
      <trkpt lat="46.32142" lon="6.77797">
        <ele>1682.175</ele>
        <time>2014-08-28T15:36:24Z</time>
      </trkpt>
      <trkpt lat="46.32141" lon="6.77802">
        <ele>1679.0742</ele>
        <time>2014-08-28T15:36:29Z</time>
      </trkpt>
      <trkpt lat="46.3214" lon="6.77806">
        <ele>1679.0742</ele>
        <time>2014-08-28T15:36:34Z</time>
      </trkpt>
      <trkpt lat="46.32137" lon="6.77813">
        <ele>1679.0742</ele>
        <time>2014-08-28T15:36:39Z</time>
      </trkpt>
      <trkpt lat="46.32136" lon="6.77818">
        <ele>1675.6945</ele>
        <time>2014-08-28T15:36:44Z</time>
      </trkpt>
      <trkpt lat="46.32133" lon="6.77822">
        <ele>1675.6945</ele>
        <time>2014-08-28T15:36:49Z</time>
      </trkpt>
      <trkpt lat="46.3213" lon="6.77825">
        <ele>1675.6945</ele>
        <time>2014-08-28T15:36:54Z</time>
      </trkpt>
      <trkpt lat="46.32129" lon="6.77828">
        <ele>1672.1877</ele>
        <time>2014-08-28T15:36:59Z</time>
      </trkpt>
      <trkpt lat="46.32126" lon="6.77834">
        <ele>1672.1877</ele>
        <time>2014-08-28T15:37:04Z</time>
      </trkpt>
      <trkpt lat="46.32124" lon="6.77839">
        <ele>1672.1877</ele>
        <time>2014-08-28T15:37:09Z</time>
      </trkpt>
      <trkpt lat="46.32123" lon="6.77842">
        <ele>1668.6089</ele>
        <time>2014-08-28T15:37:14Z</time>
      </trkpt>
      <trkpt lat="46.32122" lon="6.77844">
        <ele>1668.6089</ele>
        <time>2014-08-28T15:37:19Z</time>
      </trkpt>
      <trkpt lat="46.32119" lon="6.77848">
        <ele>1668.6089</ele>
        <time>2014-08-28T15:37:24Z</time>
      </trkpt>
      <trkpt lat="46.32115" lon="6.77853">
        <ele>1664.9366</ele>
        <time>2014-08-28T15:37:29Z</time>
      </trkpt>
      <trkpt lat="46.32111" lon="6.77859">
        <ele>1664.9366</ele>
        <time>2014-08-28T15:37:34Z</time>
      </trkpt>
      <trkpt lat="46.32109" lon="6.77864">
        <ele>1661.6561</ele>
        <time>2014-08-28T15:37:39Z</time>
      </trkpt>
      <trkpt lat="46.32106" lon="6.7787">
        <ele>1661.6561</ele>
        <time>2014-08-28T15:37:44Z</time>
      </trkpt>
      <trkpt lat="46.32106" lon="6.77875">
        <ele>1661.6561</ele>
        <time>2014-08-28T15:37:49Z</time>
      </trkpt>
      <trkpt lat="46.32104" lon="6.77874">
        <ele>1658.4082</ele>
        <time>2014-08-28T15:37:54Z</time>
      </trkpt>
      <trkpt lat="46.32102" lon="6.77875">
        <ele>1658.4082</ele>
        <time>2014-08-28T15:37:59Z</time>
      </trkpt>
      <trkpt lat="46.32099" lon="6.77878">
        <ele>1658.4082</ele>
        <time>2014-08-28T15:38:04Z</time>
      </trkpt>
      <trkpt lat="46.32096" lon="6.77883">
        <ele>1655.1628</ele>
        <time>2014-08-28T15:38:09Z</time>
      </trkpt>
      <trkpt lat="46.32094" lon="6.77886">
        <ele>1655.1628</ele>
        <time>2014-08-28T15:38:14Z</time>
      </trkpt>
      <trkpt lat="46.32092" lon="6.77891">
        <ele>1655.1628</ele>
        <time>2014-08-28T15:38:19Z</time>
      </trkpt>
      <trkpt lat="46.32088" lon="6.77896">
        <ele>1651.9786</ele>
        <time>2014-08-28T15:38:24Z</time>
      </trkpt>
      <trkpt lat="46.32085" lon="6.779">
        <ele>1651.9786</ele>
        <time>2014-08-28T15:38:29Z</time>
      </trkpt>
      <trkpt lat="46.32083" lon="6.77908">
        <ele>1648.8663</ele>
        <time>2014-08-28T15:38:34Z</time>
      </trkpt>
      <trkpt lat="46.3208" lon="6.77913">
        <ele>1648.8663</ele>
        <time>2014-08-28T15:38:39Z</time>
      </trkpt>
      <trkpt lat="46.32076" lon="6.77918">
        <ele>1645.9221</ele>
        <time>2014-08-28T15:38:44Z</time>
      </trkpt>
      <trkpt lat="46.32072" lon="6.77922">
        <ele>1645.9221</ele>
        <time>2014-08-28T15:38:49Z</time>
      </trkpt>
      <trkpt lat="46.32069" lon="6.77925">
        <ele>1645.9221</ele>
        <time>2014-08-28T15:38:54Z</time>
      </trkpt>
      <trkpt lat="46.32066" lon="6.77928">
        <ele>1642.9895</ele>
        <time>2014-08-28T15:38:59Z</time>
      </trkpt>
      <trkpt lat="46.32063" lon="6.7793">
        <ele>1642.9895</ele>
        <time>2014-08-28T15:39:04Z</time>
      </trkpt>
      <trkpt lat="46.3206" lon="6.77931">
        <ele>1642.9895</ele>
        <time>2014-08-28T15:39:09Z</time>
      </trkpt>
      <trkpt lat="46.32059" lon="6.77928">
        <ele>1642.9895</ele>
        <time>2014-08-28T15:39:14Z</time>
      </trkpt>
      <trkpt lat="46.32055" lon="6.77925">
        <ele>1639.5919</ele>
        <time>2014-08-28T15:39:19Z</time>
      </trkpt>
      <trkpt lat="46.3205" lon="6.77918">
        <ele>1639.5919</ele>
        <time>2014-08-28T15:39:24Z</time>
      </trkpt>
      <trkpt lat="46.32046" lon="6.77917">
        <ele>1636.3124</ele>
        <time>2014-08-28T15:39:29Z</time>
      </trkpt>
      <trkpt lat="46.32043" lon="6.77918">
        <ele>1636.3124</ele>
        <time>2014-08-28T15:39:34Z</time>
      </trkpt>
      <trkpt lat="46.3204" lon="6.7792">
        <ele>1636.3124</ele>
        <time>2014-08-28T15:39:39Z</time>
      </trkpt>
      <trkpt lat="46.32038" lon="6.7792">
        <ele>1636.3124</ele>
        <time>2014-08-28T15:39:44Z</time>
      </trkpt>
      <trkpt lat="46.32033" lon="6.77919">
        <ele>1633.0134</ele>
        <time>2014-08-28T15:39:49Z</time>
      </trkpt>
      <trkpt lat="46.32029" lon="6.77919">
        <ele>1633.0134</ele>
        <time>2014-08-28T15:39:54Z</time>
      </trkpt>
      <trkpt lat="46.32026" lon="6.77925">
        <ele>1629.9421</ele>
        <time>2014-08-28T15:39:59Z</time>
      </trkpt>
      <trkpt lat="46.32024" lon="6.77931">
        <ele>1629.9421</ele>
        <time>2014-08-28T15:40:04Z</time>
      </trkpt>
      <trkpt lat="46.32021" lon="6.77937">
        <ele>1626.9666</ele>
        <time>2014-08-28T15:40:09Z</time>
      </trkpt>
      <trkpt lat="46.32019" lon="6.77937">
        <ele>1626.9666</ele>
        <time>2014-08-28T15:40:14Z</time>
      </trkpt>
      <trkpt lat="46.32017" lon="6.77944">
        <ele>1626.9666</ele>
        <time>2014-08-28T15:40:19Z</time>
      </trkpt>
      <trkpt lat="46.32014" lon="6.77947">
        <ele>1623.8489</ele>
        <time>2014-08-28T15:40:24Z</time>
      </trkpt>
      <trkpt lat="46.32012" lon="6.77949">
        <ele>1623.8489</ele>
        <time>2014-08-28T15:40:29Z</time>
      </trkpt>
      <trkpt lat="46.32009" lon="6.77952">
        <ele>1623.8489</ele>
        <time>2014-08-28T15:40:34Z</time>
      </trkpt>
      <trkpt lat="46.32005" lon="6.77953">
        <ele>1620.8303</ele>
        <time>2014-08-28T15:40:39Z</time>
      </trkpt>
      <trkpt lat="46.32002" lon="6.77951">
        <ele>1620.8303</ele>
        <time>2014-08-28T15:40:44Z</time>
      </trkpt>
      <trkpt lat="46.31999" lon="6.77954">
        <ele>1620.8303</ele>
        <time>2014-08-28T15:40:49Z</time>
      </trkpt>
      <trkpt lat="46.31995" lon="6.77957">
        <ele>1617.7593</ele>
        <time>2014-08-28T15:40:54Z</time>
      </trkpt>
      <trkpt lat="46.31991" lon="6.77962">
        <ele>1617.7593</ele>
        <time>2014-08-28T15:40:59Z</time>
      </trkpt>
      <trkpt lat="46.31989" lon="6.77964">
        <ele>1617.7593</ele>
        <time>2014-08-28T15:41:04Z</time>
      </trkpt>
      <trkpt lat="46.31989" lon="6.77962">
        <ele>1614.5387</ele>
        <time>2014-08-28T15:41:09Z</time>
      </trkpt>
      <trkpt lat="46.31989" lon="6.77962">
        <ele>1614.5387</ele>
        <time>2014-08-28T15:41:14Z</time>
      </trkpt>
      <trkpt lat="46.31988" lon="6.77959">
        <ele>1614.5387</ele>
        <time>2014-08-28T15:42:24Z</time>
      </trkpt>
      <trkpt lat="46.31987" lon="6.77959">
        <ele>1614.5387</ele>
        <time>2014-08-28T15:42:29Z</time>
      </trkpt>
      <trkpt lat="46.31986" lon="6.77965">
        <ele>1614.5387</ele>
        <time>2014-08-28T15:42:34Z</time>
      </trkpt>
      <trkpt lat="46.31986" lon="6.77969">
        <ele>1611.4104</ele>
        <time>2014-08-28T15:42:39Z</time>
      </trkpt>
      <trkpt lat="46.31983" lon="6.77971">
        <ele>1611.4104</ele>
        <time>2014-08-28T15:42:44Z</time>
      </trkpt>
      <trkpt lat="46.3198" lon="6.7797">
        <ele>1611.4104</ele>
        <time>2014-08-28T15:42:49Z</time>
      </trkpt>
      <trkpt lat="46.3198" lon="6.7797">
        <ele>1611.4104</ele>
        <time>2014-08-28T15:42:54Z</time>
      </trkpt>
      <trkpt lat="46.31977" lon="6.77971">
        <ele>1611.4104</ele>
        <time>2014-08-28T15:43:19Z</time>
      </trkpt>
      <trkpt lat="46.31974" lon="6.77971">
        <ele>1608.1082</ele>
        <time>2014-08-28T15:43:24Z</time>
      </trkpt>
      <trkpt lat="46.31971" lon="6.7797">
        <ele>1608.1082</ele>
        <time>2014-08-28T15:43:29Z</time>
      </trkpt>
      <trkpt lat="46.31965" lon="6.77968">
        <ele>1605.0634</ele>
        <time>2014-08-28T15:43:34Z</time>
      </trkpt>
      <trkpt lat="46.31965" lon="6.77968">
        <ele>1605.0634</ele>
        <time>2014-08-28T15:43:39Z</time>
      </trkpt>
      <trkpt lat="46.31963" lon="6.77971">
        <ele>1605.0634</ele>
        <time>2014-08-28T15:43:54Z</time>
      </trkpt>
      <trkpt lat="46.31959" lon="6.77972">
        <ele>1605.0634</ele>
        <time>2014-08-28T15:43:59Z</time>
      </trkpt>
      <trkpt lat="46.31956" lon="6.77975">
        <ele>1602.0692</ele>
        <time>2014-08-28T15:44:04Z</time>
      </trkpt>
      <trkpt lat="46.31956" lon="6.77975">
        <ele>1602.0692</ele>
        <time>2014-08-28T15:44:09Z</time>
      </trkpt>
      <trkpt lat="46.31958" lon="6.77979">
        <ele>1602.0692</ele>
        <time>2014-08-28T15:44:14Z</time>
      </trkpt>
      <trkpt lat="46.31958" lon="6.77979">
        <ele>1602.0692</ele>
        <time>2014-08-28T15:44:19Z</time>
      </trkpt>
      <trkpt lat="46.31955" lon="6.77981">
        <ele>1602.0692</ele>
        <time>2014-08-28T15:44:24Z</time>
      </trkpt>
      <trkpt lat="46.31955" lon="6.77985">
        <ele>1599.093</ele>
        <time>2014-08-28T15:44:29Z</time>
      </trkpt>
      <trkpt lat="46.31953" lon="6.77995">
        <ele>1599.093</ele>
        <time>2014-08-28T15:44:34Z</time>
      </trkpt>
      <trkpt lat="46.31952" lon="6.78">
        <ele>1596.3633</ele>
        <time>2014-08-28T15:44:39Z</time>
      </trkpt>
      <trkpt lat="46.31949" lon="6.78003">
        <ele>1596.3633</ele>
        <time>2014-08-28T15:44:44Z</time>
      </trkpt>
      <trkpt lat="46.31948" lon="6.78007">
        <ele>1596.3633</ele>
        <time>2014-08-28T15:44:49Z</time>
      </trkpt>
      <trkpt lat="46.31948" lon="6.78008">
        <ele>1596.3633</ele>
        <time>2014-08-28T15:44:54Z</time>
      </trkpt>
      <trkpt lat="46.31948" lon="6.78008">
        <ele>1596.3633</ele>
        <time>2014-08-28T15:44:59Z</time>
      </trkpt>
      <trkpt lat="46.31949" lon="6.7801">
        <ele>1593.5725</ele>
        <time>2014-08-28T15:45:04Z</time>
      </trkpt>
      <trkpt lat="46.31948" lon="6.78014">
        <ele>1593.5725</ele>
        <time>2014-08-28T15:45:09Z</time>
      </trkpt>
      <trkpt lat="46.31948" lon="6.78021">
        <ele>1593.5725</ele>
        <time>2014-08-28T15:45:14Z</time>
      </trkpt>
      <trkpt lat="46.31947" lon="6.78032">
        <ele>1590.7675</ele>
        <time>2014-08-28T15:45:19Z</time>
      </trkpt>
      <trkpt lat="46.31945" lon="6.78039">
        <ele>1590.7675</ele>
        <time>2014-08-28T15:45:24Z</time>
      </trkpt>
      <trkpt lat="46.31941" lon="6.78044">
        <ele>1588.4957</ele>
        <time>2014-08-28T15:45:29Z</time>
      </trkpt>
      <trkpt lat="46.31938" lon="6.78048">
        <ele>1588.4957</ele>
        <time>2014-08-28T15:45:34Z</time>
      </trkpt>
      <trkpt lat="46.31935" lon="6.78049">
        <ele>1588.4957</ele>
        <time>2014-08-28T15:45:39Z</time>
      </trkpt>
      <trkpt lat="46.3193" lon="6.78052">
        <ele>1586.6724</ele>
        <time>2014-08-28T15:45:44Z</time>
      </trkpt>
      <trkpt lat="46.31925" lon="6.78052">
        <ele>1586.6724</ele>
        <time>2014-08-28T15:45:49Z</time>
      </trkpt>
      <trkpt lat="46.31922" lon="6.78052">
        <ele>1586.6724</ele>
        <time>2014-08-28T15:45:54Z</time>
      </trkpt>
      <trkpt lat="46.31916" lon="6.78053">
        <ele>1584.6265</ele>
        <time>2014-08-28T15:45:59Z</time>
      </trkpt>
      <trkpt lat="46.31914" lon="6.78055">
        <ele>1584.6265</ele>
        <time>2014-08-28T15:46:04Z</time>
      </trkpt>
      <trkpt lat="46.31913" lon="6.78059">
        <ele>1584.6265</ele>
        <time>2014-08-28T15:46:09Z</time>
      </trkpt>
      <trkpt lat="46.31909" lon="6.78065">
        <ele>1582.4146</ele>
        <time>2014-08-28T15:46:14Z</time>
      </trkpt>
      <trkpt lat="46.31909" lon="6.78065">
        <ele>1582.4146</ele>
        <time>2014-08-28T15:46:19Z</time>
      </trkpt>
      <trkpt lat="46.3191" lon="6.78062">
        <ele>1582.4146</ele>
        <time>2014-08-28T15:46:34Z</time>
      </trkpt>
      <trkpt lat="46.31911" lon="6.78057">
        <ele>1582.4146</ele>
        <time>2014-08-28T15:46:39Z</time>
      </trkpt>
      <trkpt lat="46.3191" lon="6.78052">
        <ele>1579.974</ele>
        <time>2014-08-28T15:46:44Z</time>
      </trkpt>
      <trkpt lat="46.31909" lon="6.78051">
        <ele>1579.974</ele>
        <time>2014-08-28T15:46:49Z</time>
      </trkpt>
      <trkpt lat="46.31908" lon="6.78048">
        <ele>1579.974</ele>
        <time>2014-08-28T15:46:54Z</time>
      </trkpt>
      <trkpt lat="46.31908" lon="6.78044">
        <ele>1579.974</ele>
        <time>2014-08-28T15:46:59Z</time>
      </trkpt>
      <trkpt lat="46.31906" lon="6.78041">
        <ele>1579.974</ele>
        <time>2014-08-28T15:47:04Z</time>
      </trkpt>
      <trkpt lat="46.31906" lon="6.78041">
        <ele>1579.974</ele>
        <time>2014-08-28T15:47:09Z</time>
      </trkpt>
      <trkpt lat="46.31906" lon="6.78041">
        <ele>1579.974</ele>
        <time>2014-08-28T15:48:14Z</time>
      </trkpt>
      <trkpt lat="46.31906" lon="6.78041">
        <ele>1579.974</ele>
        <time>2014-08-28T15:48:19Z</time>
      </trkpt>
      <trkpt lat="46.31906" lon="6.78043">
        <ele>1577.3342</ele>
        <time>2014-08-28T15:48:24Z</time>
      </trkpt>
      <trkpt lat="46.31911" lon="6.7805">
        <ele>1577.3342</ele>
        <time>2014-08-28T15:48:29Z</time>
      </trkpt>
      <trkpt lat="46.31911" lon="6.7805">
        <ele>1577.3342</ele>
        <time>2014-08-28T15:48:34Z</time>
      </trkpt>
      <trkpt lat="46.31911" lon="6.78052">
        <ele>1577.3342</ele>
        <time>2014-08-28T15:48:39Z</time>
      </trkpt>
      <trkpt lat="46.31911" lon="6.78052">
        <ele>1577.3342</ele>
        <time>2014-08-28T15:49:09Z</time>
      </trkpt>
      <trkpt lat="46.31911" lon="6.78052">
        <ele>1577.3342</ele>
        <time>2014-08-28T15:49:14Z</time>
      </trkpt>
      <trkpt lat="46.31911" lon="6.78055">
        <ele>1574.8685</ele>
        <time>2014-08-28T15:49:24Z</time>
      </trkpt>
      <trkpt lat="46.3191" lon="6.78059">
        <ele>1574.8685</ele>
        <time>2014-08-28T15:49:29Z</time>
      </trkpt>
      <trkpt lat="46.31907" lon="6.78061">
        <ele>1574.8685</ele>
        <time>2014-08-28T15:49:34Z</time>
      </trkpt>
      <trkpt lat="46.31898" lon="6.78068">
        <ele>1572.4758</ele>
        <time>2014-08-28T15:49:39Z</time>
      </trkpt>
      <trkpt lat="46.31892" lon="6.78073">
        <ele>1572.4758</ele>
        <time>2014-08-28T15:49:44Z</time>
      </trkpt>
      <trkpt lat="46.31888" lon="6.78073">
        <ele>1570.3218</ele>
        <time>2014-08-28T15:49:49Z</time>
      </trkpt>
      <trkpt lat="46.31886" lon="6.78073">
        <ele>1570.3218</ele>
        <time>2014-08-28T15:49:54Z</time>
      </trkpt>
      <trkpt lat="46.31886" lon="6.78073">
        <ele>1570.3218</ele>
        <time>2014-08-28T15:49:59Z</time>
      </trkpt>
      <trkpt lat="46.31887" lon="6.78075">
        <ele>1570.3218</ele>
        <time>2014-08-28T15:51:09Z</time>
      </trkpt>
      <trkpt lat="46.31887" lon="6.78075">
        <ele>1570.3218</ele>
        <time>2014-08-28T15:51:14Z</time>
      </trkpt>
      <trkpt lat="46.31886" lon="6.78075">
        <ele>1570.3218</ele>
        <time>2014-08-28T15:51:19Z</time>
      </trkpt>
      <trkpt lat="46.31885" lon="6.78076">
        <ele>1570.3218</ele>
        <time>2014-08-28T15:51:24Z</time>
      </trkpt>
      <trkpt lat="46.3188" lon="6.78081">
        <ele>1567.9827</ele>
        <time>2014-08-28T15:51:29Z</time>
      </trkpt>
      <trkpt lat="46.31877" lon="6.78084">
        <ele>1567.9827</ele>
        <time>2014-08-28T15:51:34Z</time>
      </trkpt>
      <trkpt lat="46.31874" lon="6.78086">
        <ele>1567.9827</ele>
        <time>2014-08-28T15:51:39Z</time>
      </trkpt>
      <trkpt lat="46.31872" lon="6.78091">
        <ele>1565.5419</ele>
        <time>2014-08-28T15:51:44Z</time>
      </trkpt>
      <trkpt lat="46.3187" lon="6.78095">
        <ele>1565.5419</ele>
        <time>2014-08-28T15:51:49Z</time>
      </trkpt>
      <trkpt lat="46.31867" lon="6.78098">
        <ele>1565.5419</ele>
        <time>2014-08-28T15:51:54Z</time>
      </trkpt>
      <trkpt lat="46.31865" lon="6.78099">
        <ele>1562.9764</ele>
        <time>2014-08-28T15:51:59Z</time>
      </trkpt>
      <trkpt lat="46.31861" lon="6.78101">
        <ele>1562.9764</ele>
        <time>2014-08-28T15:52:04Z</time>
      </trkpt>
      <trkpt lat="46.31858" lon="6.78104">
        <ele>1562.9764</ele>
        <time>2014-08-28T15:52:09Z</time>
      </trkpt>
      <trkpt lat="46.31855" lon="6.78108">
        <ele>1560.3805</ele>
        <time>2014-08-28T15:52:14Z</time>
      </trkpt>
      <trkpt lat="46.31851" lon="6.78112">
        <ele>1560.3805</ele>
        <time>2014-08-28T15:52:19Z</time>
      </trkpt>
      <trkpt lat="46.31847" lon="6.78115">
        <ele>1558.0579</ele>
        <time>2014-08-28T15:52:24Z</time>
      </trkpt>
      <trkpt lat="46.31843" lon="6.78117">
        <ele>1558.0579</ele>
        <time>2014-08-28T15:52:29Z</time>
      </trkpt>
      <trkpt lat="46.31839" lon="6.78119">
        <ele>1558.0579</ele>
        <time>2014-08-28T15:52:34Z</time>
      </trkpt>
      <trkpt lat="46.31835" lon="6.78123">
        <ele>1555.9</ele>
        <time>2014-08-28T15:52:39Z</time>
      </trkpt>
      <trkpt lat="46.31832" lon="6.78126">
        <ele>1555.9</ele>
        <time>2014-08-28T15:52:44Z</time>
      </trkpt>
      <trkpt lat="46.3183" lon="6.7813">
        <ele>1555.9</ele>
        <time>2014-08-28T15:52:49Z</time>
      </trkpt>
      <trkpt lat="46.31826" lon="6.78132">
        <ele>1553.6329</ele>
        <time>2014-08-28T15:52:54Z</time>
      </trkpt>
      <trkpt lat="46.31824" lon="6.78133">
        <ele>1553.6329</ele>
        <time>2014-08-28T15:52:59Z</time>
      </trkpt>
      <trkpt lat="46.31821" lon="6.78136">
        <ele>1553.6329</ele>
        <time>2014-08-28T15:53:04Z</time>
      </trkpt>
      <trkpt lat="46.3182" lon="6.78138">
        <ele>1553.6329</ele>
        <time>2014-08-28T15:53:09Z</time>
      </trkpt>
      <trkpt lat="46.3182" lon="6.78139">
        <ele>1553.6329</ele>
        <time>2014-08-28T15:53:14Z</time>
      </trkpt>
      <trkpt lat="46.31818" lon="6.78142">
        <ele>1550.9602</ele>
        <time>2014-08-28T15:53:19Z</time>
      </trkpt>
      <trkpt lat="46.31813" lon="6.78146">
        <ele>1550.9602</ele>
        <time>2014-08-28T15:53:24Z</time>
      </trkpt>
      <trkpt lat="46.31808" lon="6.78151">
        <ele>1548.4872</ele>
        <time>2014-08-28T15:53:29Z</time>
      </trkpt>
      <trkpt lat="46.31804" lon="6.78154">
        <ele>1548.4872</ele>
        <time>2014-08-28T15:53:34Z</time>
      </trkpt>
      <trkpt lat="46.31802" lon="6.78158">
        <ele>1548.4872</ele>
        <time>2014-08-28T15:53:39Z</time>
      </trkpt>
      <trkpt lat="46.31799" lon="6.78163">
        <ele>1545.9674</ele>
        <time>2014-08-28T15:53:44Z</time>
      </trkpt>
      <trkpt lat="46.31795" lon="6.78169">
        <ele>1545.9674</ele>
        <time>2014-08-28T15:53:49Z</time>
      </trkpt>
      <trkpt lat="46.31791" lon="6.78172">
        <ele>1543.5183</ele>
        <time>2014-08-28T15:53:54Z</time>
      </trkpt>
      <trkpt lat="46.31788" lon="6.78175">
        <ele>1543.5183</ele>
        <time>2014-08-28T15:53:59Z</time>
      </trkpt>
      <trkpt lat="46.31787" lon="6.78176">
        <ele>1543.5183</ele>
        <time>2014-08-28T15:54:04Z</time>
      </trkpt>
      <trkpt lat="46.31783" lon="6.78182">
        <ele>1540.8021</ele>
        <time>2014-08-28T15:54:09Z</time>
      </trkpt>
      <trkpt lat="46.31781" lon="6.78184">
        <ele>1540.8021</ele>
        <time>2014-08-28T15:54:14Z</time>
      </trkpt>
      <trkpt lat="46.31778" lon="6.78188">
        <ele>1540.8021</ele>
        <time>2014-08-28T15:54:19Z</time>
      </trkpt>
      <trkpt lat="46.31773" lon="6.78193">
        <ele>1537.91</ele>
        <time>2014-08-28T15:54:24Z</time>
      </trkpt>
      <trkpt lat="46.31771" lon="6.78196">
        <ele>1537.91</ele>
        <time>2014-08-28T15:54:29Z</time>
      </trkpt>
      <trkpt lat="46.3177" lon="6.78201">
        <ele>1537.91</ele>
        <time>2014-08-28T15:54:34Z</time>
      </trkpt>
      <trkpt lat="46.31767" lon="6.78206">
        <ele>1534.9415</ele>
        <time>2014-08-28T15:54:39Z</time>
      </trkpt>
      <trkpt lat="46.31768" lon="6.78207">
        <ele>1534.9415</ele>
        <time>2014-08-28T15:54:44Z</time>
      </trkpt>
      <trkpt lat="46.31769" lon="6.78209">
        <ele>1534.9415</ele>
        <time>2014-08-28T15:54:49Z</time>
      </trkpt>
      <trkpt lat="46.31768" lon="6.78214">
        <ele>1534.9415</ele>
        <time>2014-08-28T15:54:54Z</time>
      </trkpt>
      <trkpt lat="46.31767" lon="6.78218">
        <ele>1531.9026</ele>
        <time>2014-08-28T15:54:59Z</time>
      </trkpt>
      <trkpt lat="46.31766" lon="6.78221">
        <ele>1531.9026</ele>
        <time>2014-08-28T15:55:04Z</time>
      </trkpt>
      <trkpt lat="46.31765" lon="6.78224">
        <ele>1531.9026</ele>
        <time>2014-08-28T15:55:09Z</time>
      </trkpt>
      <trkpt lat="46.31765" lon="6.7823">
        <ele>1528.6115</ele>
        <time>2014-08-28T15:55:14Z</time>
      </trkpt>
      <trkpt lat="46.31764" lon="6.78237">
        <ele>1528.6115</ele>
        <time>2014-08-28T15:55:19Z</time>
      </trkpt>
      <trkpt lat="46.31762" lon="6.78242">
        <ele>1528.6115</ele>
        <time>2014-08-28T15:55:24Z</time>
      </trkpt>
      <trkpt lat="46.31762" lon="6.78247">
        <ele>1525.2179</ele>
        <time>2014-08-28T15:55:29Z</time>
      </trkpt>
      <trkpt lat="46.31761" lon="6.78252">
        <ele>1525.2179</ele>
        <time>2014-08-28T15:55:34Z</time>
      </trkpt>
      <trkpt lat="46.3176" lon="6.78256">
        <ele>1525.2179</ele>
        <time>2014-08-28T15:55:39Z</time>
      </trkpt>
      <trkpt lat="46.31761" lon="6.78257">
        <ele>1525.2179</ele>
        <time>2014-08-28T15:55:44Z</time>
      </trkpt>
      <trkpt lat="46.3176" lon="6.78264">
        <ele>1521.6157</ele>
        <time>2014-08-28T15:55:49Z</time>
      </trkpt>
      <trkpt lat="46.31759" lon="6.78269">
        <ele>1521.6157</ele>
        <time>2014-08-28T15:55:54Z</time>
      </trkpt>
      <trkpt lat="46.31756" lon="6.7828">
        <ele>1518.1826</ele>
        <time>2014-08-28T15:55:59Z</time>
      </trkpt>
      <trkpt lat="46.31755" lon="6.78287">
        <ele>1518.1826</ele>
        <time>2014-08-28T15:56:04Z</time>
      </trkpt>
      <trkpt lat="46.31754" lon="6.7829">
        <ele>1518.1826</ele>
        <time>2014-08-28T15:56:09Z</time>
      </trkpt>
      <trkpt lat="46.31753" lon="6.78294">
        <ele>1514.8506</ele>
        <time>2014-08-28T15:56:14Z</time>
      </trkpt>
      <trkpt lat="46.31752" lon="6.78299">
        <ele>1514.8506</ele>
        <time>2014-08-28T15:56:19Z</time>
      </trkpt>
      <trkpt lat="46.31752" lon="6.78302">
        <ele>1514.8506</ele>
        <time>2014-08-28T15:56:24Z</time>
      </trkpt>
      <trkpt lat="46.31749" lon="6.78307">
        <ele>1511.5559</ele>
        <time>2014-08-28T15:56:29Z</time>
      </trkpt>
      <trkpt lat="46.31748" lon="6.78311">
        <ele>1511.5559</ele>
        <time>2014-08-28T15:56:34Z</time>
      </trkpt>
      <trkpt lat="46.31747" lon="6.78318">
        <ele>1511.5559</ele>
        <time>2014-08-28T15:56:39Z</time>
      </trkpt>
      <trkpt lat="46.31746" lon="6.78325">
        <ele>1508.0092</ele>
        <time>2014-08-28T15:56:44Z</time>
      </trkpt>
      <trkpt lat="46.31744" lon="6.78332">
        <ele>1508.0092</ele>
        <time>2014-08-28T15:56:49Z</time>
      </trkpt>
      <trkpt lat="46.31743" lon="6.78338">
        <ele>1504.4614</ele>
        <time>2014-08-28T15:56:54Z</time>
      </trkpt>
      <trkpt lat="46.31744" lon="6.78338">
        <ele>1504.4614</ele>
        <time>2014-08-28T15:56:59Z</time>
      </trkpt>
      <trkpt lat="46.31744" lon="6.78339">
        <ele>1504.4614</ele>
        <time>2014-08-28T15:57:04Z</time>
      </trkpt>
      <trkpt lat="46.31743" lon="6.78339">
        <ele>1504.4614</ele>
        <time>2014-08-28T15:57:09Z</time>
      </trkpt>
      <trkpt lat="46.31742" lon="6.7834">
        <ele>1504.4614</ele>
        <time>2014-08-28T15:57:14Z</time>
      </trkpt>
      <trkpt lat="46.31738" lon="6.78348">
        <ele>1500.9437</ele>
        <time>2014-08-28T15:57:19Z</time>
      </trkpt>
      <trkpt lat="46.31733" lon="6.7835">
        <ele>1500.9437</ele>
        <time>2014-08-28T15:57:24Z</time>
      </trkpt>
      <trkpt lat="46.31728" lon="6.78352">
        <ele>1497.6721</ele>
        <time>2014-08-28T15:57:29Z</time>
      </trkpt>
      <trkpt lat="46.31724" lon="6.78354">
        <ele>1497.6721</ele>
        <time>2014-08-28T15:57:34Z</time>
      </trkpt>
      <trkpt lat="46.3172" lon="6.78359">
        <ele>1494.6586</ele>
        <time>2014-08-28T15:57:39Z</time>
      </trkpt>
      <trkpt lat="46.31715" lon="6.78363">
        <ele>1494.6586</ele>
        <time>2014-08-28T15:57:44Z</time>
      </trkpt>
      <trkpt lat="46.31711" lon="6.78367">
        <ele>1491.9569</ele>
        <time>2014-08-28T15:57:49Z</time>
      </trkpt>
      <trkpt lat="46.31707" lon="6.78372">
        <ele>1491.9569</ele>
        <time>2014-08-28T15:57:54Z</time>
      </trkpt>
      <trkpt lat="46.31702" lon="6.78375">
        <ele>1489.3995</ele>
        <time>2014-08-28T15:57:59Z</time>
      </trkpt>
      <trkpt lat="46.31696" lon="6.78377">
        <ele>1489.3995</ele>
        <time>2014-08-28T15:58:04Z</time>
      </trkpt>
      <trkpt lat="46.3169" lon="6.78377">
        <ele>1487.0762</ele>
        <time>2014-08-28T15:58:09Z</time>
      </trkpt>
      <trkpt lat="46.31685" lon="6.78376">
        <ele>1487.0762</ele>
        <time>2014-08-28T15:58:14Z</time>
      </trkpt>
      <trkpt lat="46.31682" lon="6.78379">
        <ele>1487.0762</ele>
        <time>2014-08-28T15:58:19Z</time>
      </trkpt>
      <trkpt lat="46.31677" lon="6.78381">
        <ele>1484.9971</ele>
        <time>2014-08-28T15:58:24Z</time>
      </trkpt>
      <trkpt lat="46.31672" lon="6.78384">
        <ele>1484.9971</ele>
        <time>2014-08-28T15:58:29Z</time>
      </trkpt>
      <trkpt lat="46.31668" lon="6.78386">
        <ele>1482.9834</ele>
        <time>2014-08-28T15:58:34Z</time>
      </trkpt>
      <trkpt lat="46.31664" lon="6.78392">
        <ele>1482.9834</ele>
        <time>2014-08-28T15:58:39Z</time>
      </trkpt>
      <trkpt lat="46.3166" lon="6.78398">
        <ele>1481.0139</ele>
        <time>2014-08-28T15:58:44Z</time>
      </trkpt>
      <trkpt lat="46.31657" lon="6.78404">
        <ele>1481.0139</ele>
        <time>2014-08-28T15:58:49Z</time>
      </trkpt>
      <trkpt lat="46.31658" lon="6.78411">
        <ele>1479.0541</ele>
        <time>2014-08-28T15:58:54Z</time>
      </trkpt>
      <trkpt lat="46.31663" lon="6.78415">
        <ele>1479.0541</ele>
        <time>2014-08-28T15:58:59Z</time>
      </trkpt>
      <trkpt lat="46.31667" lon="6.78419">
        <ele>1477.1294</ele>
        <time>2014-08-28T15:59:04Z</time>
      </trkpt>
      <trkpt lat="46.31673" lon="6.78421">
        <ele>1477.1294</ele>
        <time>2014-08-28T15:59:09Z</time>
      </trkpt>
      <trkpt lat="46.31677" lon="6.78424">
        <ele>1475.307</ele>
        <time>2014-08-28T15:59:14Z</time>
      </trkpt>
      <trkpt lat="46.31684" lon="6.78432">
        <ele>1473.5333</ele>
        <time>2014-08-28T15:59:19Z</time>
      </trkpt>
      <trkpt lat="46.31689" lon="6.78436">
        <ele>1473.5333</ele>
        <time>2014-08-28T15:59:24Z</time>
      </trkpt>
      <trkpt lat="46.31693" lon="6.7844">
        <ele>1471.6578</ele>
        <time>2014-08-28T15:59:29Z</time>
      </trkpt>
      <trkpt lat="46.31696" lon="6.78441">
        <ele>1471.6578</ele>
        <time>2014-08-28T15:59:34Z</time>
      </trkpt>
      <trkpt lat="46.31699" lon="6.78443">
        <ele>1471.6578</ele>
        <time>2014-08-28T15:59:39Z</time>
      </trkpt>
      <trkpt lat="46.31703" lon="6.78448">
        <ele>1470.0311</ele>
        <time>2014-08-28T15:59:44Z</time>
      </trkpt>
      <trkpt lat="46.31709" lon="6.78455">
        <ele>1470.0311</ele>
        <time>2014-08-28T15:59:49Z</time>
      </trkpt>
      <trkpt lat="46.31714" lon="6.78461">
        <ele>1468.6031</ele>
        <time>2014-08-28T15:59:54Z</time>
      </trkpt>
      <trkpt lat="46.31717" lon="6.78466">
        <ele>1468.6031</ele>
        <time>2014-08-28T15:59:59Z</time>
      </trkpt>
      <trkpt lat="46.31721" lon="6.78472">
        <ele>1467.2546</ele>
        <time>2014-08-28T16:00:04Z</time>
      </trkpt>
      <trkpt lat="46.31722" lon="6.78474">
        <ele>1467.2546</ele>
        <time>2014-08-28T16:00:09Z</time>
      </trkpt>
      <trkpt lat="46.31727" lon="6.78482">
        <ele>1466.0189</ele>
        <time>2014-08-28T16:00:14Z</time>
      </trkpt>
      <trkpt lat="46.3173" lon="6.78488">
        <ele>1466.0189</ele>
        <time>2014-08-28T16:00:19Z</time>
      </trkpt>
      <trkpt lat="46.3173" lon="6.78494">
        <ele>1464.8838</ele>
        <time>2014-08-28T16:00:24Z</time>
      </trkpt>
      <trkpt lat="46.31732" lon="6.785">
        <ele>1464.8838</ele>
        <time>2014-08-28T16:00:29Z</time>
      </trkpt>
      <trkpt lat="46.31733" lon="6.78504">
        <ele>1464.8838</ele>
        <time>2014-08-28T16:00:34Z</time>
      </trkpt>
      <trkpt lat="46.31733" lon="6.78514">
        <ele>1463.8374</ele>
        <time>2014-08-28T16:00:39Z</time>
      </trkpt>
      <trkpt lat="46.31734" lon="6.78519">
        <ele>1463.8374</ele>
        <time>2014-08-28T16:00:44Z</time>
      </trkpt>
      <trkpt lat="46.31735" lon="6.78529">
        <ele>1462.7966</ele>
        <time>2014-08-28T16:00:49Z</time>
      </trkpt>
      <trkpt lat="46.31736" lon="6.78537">
        <ele>1462.7966</ele>
        <time>2014-08-28T16:00:54Z</time>
      </trkpt>
      <trkpt lat="46.31736" lon="6.78542">
        <ele>1462.7966</ele>
        <time>2014-08-28T16:00:59Z</time>
      </trkpt>
      <trkpt lat="46.31736" lon="6.78547">
        <ele>1461.6125</ele>
        <time>2014-08-28T16:01:04Z</time>
      </trkpt>
      <trkpt lat="46.31735" lon="6.78557">
        <ele>1461.6125</ele>
        <time>2014-08-28T16:01:09Z</time>
      </trkpt>
      <trkpt lat="46.31736" lon="6.78564">
        <ele>1460.4358</ele>
        <time>2014-08-28T16:01:14Z</time>
      </trkpt>
      <trkpt lat="46.31737" lon="6.78571">
        <ele>1460.4358</ele>
        <time>2014-08-28T16:01:19Z</time>
      </trkpt>
      <trkpt lat="46.31737" lon="6.78572">
        <ele>1460.4358</ele>
        <time>2014-08-28T16:01:24Z</time>
      </trkpt>
      <trkpt lat="46.31737" lon="6.78572">
        <ele>1460.4358</ele>
        <time>2014-08-28T16:01:29Z</time>
      </trkpt>
      <trkpt lat="46.31735" lon="6.78573">
        <ele>1460.4358</ele>
        <time>2014-08-28T16:01:49Z</time>
      </trkpt>
      <trkpt lat="46.31733" lon="6.78574">
        <ele>1459.2333</ele>
        <time>2014-08-28T16:01:54Z</time>
      </trkpt>
      <trkpt lat="46.31733" lon="6.78574">
        <ele>1459.2333</ele>
        <time>2014-08-28T16:01:59Z</time>
      </trkpt>
      <trkpt lat="46.31732" lon="6.78573">
        <ele>1459.2333</ele>
        <time>2014-08-28T16:03:04Z</time>
      </trkpt>
      <trkpt lat="46.31731" lon="6.78572">
        <ele>1459.2333</ele>
        <time>2014-08-28T16:03:09Z</time>
      </trkpt>
      <trkpt lat="46.31731" lon="6.78572">
        <ele>1459.2333</ele>
        <time>2014-08-28T16:03:14Z</time>
      </trkpt>
      <trkpt lat="46.31731" lon="6.78572">
        <ele>1459.2333</ele>
        <time>2014-08-28T16:03:19Z</time>
      </trkpt>
      <trkpt lat="46.31731" lon="6.7857">
        <ele>1459.2333</ele>
        <time>2014-08-28T16:03:34Z</time>
      </trkpt>
      <trkpt lat="46.31731" lon="6.78569">
        <ele>1459.2333</ele>
        <time>2014-08-28T16:03:39Z</time>
      </trkpt>
      <trkpt lat="46.31733" lon="6.78569">
        <ele>1459.2333</ele>
        <time>2014-08-28T16:03:44Z</time>
      </trkpt>
      <trkpt lat="46.31733" lon="6.78568">
        <ele>1459.2333</ele>
        <time>2014-08-28T16:03:49Z</time>
      </trkpt>
      <trkpt lat="46.31734" lon="6.78568">
        <ele>1459.2333</ele>
        <time>2014-08-28T16:03:54Z</time>
      </trkpt>
      <trkpt lat="46.31733" lon="6.78568">
        <ele>1459.2333</ele>
        <time>2014-08-28T16:03:59Z</time>
      </trkpt>
      <trkpt lat="46.3173" lon="6.78568">
        <ele>1457.5419</ele>
        <time>2014-08-28T16:04:04Z</time>
      </trkpt>
      <trkpt lat="46.3173" lon="6.78561">
        <ele>1457.5419</ele>
        <time>2014-08-28T16:04:09Z</time>
      </trkpt>
      <trkpt lat="46.31729" lon="6.78556">
        <ele>1457.5419</ele>
        <time>2014-08-28T16:04:14Z</time>
      </trkpt>
      <trkpt lat="46.31727" lon="6.7855">
        <ele>1455.9573</ele>
        <time>2014-08-28T16:04:19Z</time>
      </trkpt>
      <trkpt lat="46.31727" lon="6.78549">
        <ele>1455.9573</ele>
        <time>2014-08-28T16:04:24Z</time>
      </trkpt>
      <trkpt lat="46.31726" lon="6.78546">
        <ele>1455.9573</ele>
        <time>2014-08-28T16:04:29Z</time>
      </trkpt>
      <trkpt lat="46.31723" lon="6.78542">
        <ele>1455.9573</ele>
        <time>2014-08-28T16:04:34Z</time>
      </trkpt>
      <trkpt lat="46.31718" lon="6.78536">
        <ele>1454.2964</ele>
        <time>2014-08-28T16:04:39Z</time>
      </trkpt>
      <trkpt lat="46.31713" lon="6.7853">
        <ele>1454.2964</ele>
        <time>2014-08-28T16:04:44Z</time>
      </trkpt>
      <trkpt lat="46.31708" lon="6.78525">
        <ele>1452.6924</ele>
        <time>2014-08-28T16:04:49Z</time>
      </trkpt>
      <trkpt lat="46.31703" lon="6.78521">
        <ele>1452.6924</ele>
        <time>2014-08-28T16:04:54Z</time>
      </trkpt>
      <trkpt lat="46.31698" lon="6.7852">
        <ele>1451.2687</ele>
        <time>2014-08-28T16:04:59Z</time>
      </trkpt>
      <trkpt lat="46.31694" lon="6.78518">
        <ele>1451.2687</ele>
        <time>2014-08-28T16:05:04Z</time>
      </trkpt>
      <trkpt lat="46.31688" lon="6.78514">
        <ele>1449.8939</ele>
        <time>2014-08-28T16:05:09Z</time>
      </trkpt>
      <trkpt lat="46.31683" lon="6.78512">
        <ele>1449.8939</ele>
        <time>2014-08-28T16:05:14Z</time>
      </trkpt>
      <trkpt lat="46.31679" lon="6.78513">
        <ele>1448.5046</ele>
        <time>2014-08-28T16:05:19Z</time>
      </trkpt>
      <trkpt lat="46.31677" lon="6.78513">
        <ele>1448.5046</ele>
        <time>2014-08-28T16:05:24Z</time>
      </trkpt>
      <trkpt lat="46.31673" lon="6.78515">
        <ele>1448.5046</ele>
        <time>2014-08-28T16:05:29Z</time>
      </trkpt>
      <trkpt lat="46.31671" lon="6.78517">
        <ele>1448.5046</ele>
        <time>2014-08-28T16:05:34Z</time>
      </trkpt>
      <trkpt lat="46.31668" lon="6.7852">
        <ele>1447.027</ele>
        <time>2014-08-28T16:05:39Z</time>
      </trkpt>
      <trkpt lat="46.31663" lon="6.78525">
        <ele>1447.027</ele>
        <time>2014-08-28T16:05:44Z</time>
      </trkpt>
      <trkpt lat="46.31661" lon="6.7853">
        <ele>1445.3936</ele>
        <time>2014-08-28T16:05:49Z</time>
      </trkpt>
      <trkpt lat="46.31658" lon="6.78533">
        <ele>1445.3936</ele>
        <time>2014-08-28T16:05:54Z</time>
      </trkpt>
      <trkpt lat="46.31659" lon="6.78538">
        <ele>1445.3936</ele>
        <time>2014-08-28T16:05:59Z</time>
      </trkpt>
      <trkpt lat="46.31665" lon="6.78545">
        <ele>1443.5277</ele>
        <time>2014-08-28T16:06:04Z</time>
      </trkpt>
      <trkpt lat="46.31671" lon="6.78549">
        <ele>1443.5277</ele>
        <time>2014-08-28T16:06:09Z</time>
      </trkpt>
      <trkpt lat="46.31675" lon="6.78554">
        <ele>1441.7771</ele>
        <time>2014-08-28T16:06:14Z</time>
      </trkpt>
      <trkpt lat="46.31681" lon="6.78563">
        <ele>1441.7771</ele>
        <time>2014-08-28T16:06:19Z</time>
      </trkpt>
      <trkpt lat="46.31683" lon="6.78566">
        <ele>1440.2042</ele>
        <time>2014-08-28T16:06:24Z</time>
      </trkpt>
      <trkpt lat="46.31683" lon="6.78572">
        <ele>1440.2042</ele>
        <time>2014-08-28T16:06:29Z</time>
      </trkpt>
      <trkpt lat="46.3168" lon="6.78582">
        <ele>1438.5497</ele>
        <time>2014-08-28T16:06:34Z</time>
      </trkpt>
      <trkpt lat="46.3168" lon="6.78585">
        <ele>1438.5497</ele>
        <time>2014-08-28T16:06:39Z</time>
      </trkpt>
      <trkpt lat="46.31679" lon="6.78588">
        <ele>1438.5497</ele>
        <time>2014-08-28T16:06:44Z</time>
      </trkpt>
      <trkpt lat="46.31676" lon="6.78592">
        <ele>1438.5497</ele>
        <time>2014-08-28T16:06:49Z</time>
      </trkpt>
      <trkpt lat="46.31675" lon="6.78593">
        <ele>1436.4723</ele>
        <time>2014-08-28T16:06:54Z</time>
      </trkpt>
      <trkpt lat="46.31672" lon="6.786">
        <ele>1436.4723</ele>
        <time>2014-08-28T16:06:59Z</time>
      </trkpt>
      <trkpt lat="46.3167" lon="6.78604">
        <ele>1434.378</ele>
        <time>2014-08-28T16:07:04Z</time>
      </trkpt>
      <trkpt lat="46.31668" lon="6.78608">
        <ele>1434.378</ele>
        <time>2014-08-28T16:07:09Z</time>
      </trkpt>
      <trkpt lat="46.31666" lon="6.78612">
        <ele>1434.378</ele>
        <time>2014-08-28T16:07:14Z</time>
      </trkpt>
      <trkpt lat="46.31663" lon="6.78618">
        <ele>1431.9225</ele>
        <time>2014-08-28T16:07:19Z</time>
      </trkpt>
      <trkpt lat="46.31659" lon="6.78623">
        <ele>1431.9225</ele>
        <time>2014-08-28T16:07:24Z</time>
      </trkpt>
      <trkpt lat="46.31654" lon="6.78625">
        <ele>1429.1768</ele>
        <time>2014-08-28T16:07:29Z</time>
      </trkpt>
      <trkpt lat="46.31651" lon="6.78629">
        <ele>1429.1768</ele>
        <time>2014-08-28T16:07:34Z</time>
      </trkpt>
      <trkpt lat="46.31646" lon="6.78634">
        <ele>1426.2795</ele>
        <time>2014-08-28T16:07:39Z</time>
      </trkpt>
      <trkpt lat="46.31643" lon="6.78638">
        <ele>1426.2795</ele>
        <time>2014-08-28T16:07:44Z</time>
      </trkpt>
      <trkpt lat="46.31641" lon="6.78643">
        <ele>1426.2795</ele>
        <time>2014-08-28T16:07:49Z</time>
      </trkpt>
      <trkpt lat="46.31641" lon="6.78646">
        <ele>1422.942</ele>
        <time>2014-08-28T16:07:54Z</time>
      </trkpt>
      <trkpt lat="46.31641" lon="6.78646">
        <ele>1422.942</ele>
        <time>2014-08-28T16:07:59Z</time>
      </trkpt>
      <trkpt lat="46.31641" lon="6.78646">
        <ele>1422.942</ele>
        <time>2014-08-28T16:08:04Z</time>
      </trkpt>
      <trkpt lat="46.31641" lon="6.78646">
        <ele>1422.942</ele>
        <time>2014-08-28T16:08:09Z</time>
      </trkpt>
      <trkpt lat="46.31641" lon="6.78647">
        <ele>1422.942</ele>
        <time>2014-08-28T16:08:19Z</time>
      </trkpt>
      <trkpt lat="46.31645" lon="6.78649">
        <ele>1422.942</ele>
        <time>2014-08-28T16:08:24Z</time>
      </trkpt>
      <trkpt lat="46.31646" lon="6.78652">
        <ele>1422.942</ele>
        <time>2014-08-28T16:08:29Z</time>
      </trkpt>
      <trkpt lat="46.31649" lon="6.78658">
        <ele>1419.143</ele>
        <time>2014-08-28T16:08:34Z</time>
      </trkpt>
      <trkpt lat="46.31655" lon="6.78662">
        <ele>1419.143</ele>
        <time>2014-08-28T16:08:39Z</time>
      </trkpt>
      <trkpt lat="46.31656" lon="6.78664">
        <ele>1415.642</ele>
        <time>2014-08-28T16:08:44Z</time>
      </trkpt>
      <trkpt lat="46.31657" lon="6.78666">
        <ele>1415.642</ele>
        <time>2014-08-28T16:08:49Z</time>
      </trkpt>
      <trkpt lat="46.31661" lon="6.7867">
        <ele>1415.642</ele>
        <time>2014-08-28T16:08:54Z</time>
      </trkpt>
      <trkpt lat="46.31667" lon="6.78678">
        <ele>1412.1477</ele>
        <time>2014-08-28T16:08:59Z</time>
      </trkpt>
      <trkpt lat="46.31674" lon="6.78687">
        <ele>1408.8948</ele>
        <time>2014-08-28T16:09:04Z</time>
      </trkpt>
      <trkpt lat="46.31681" lon="6.78695">
        <ele>1405.7825</ele>
        <time>2014-08-28T16:09:09Z</time>
      </trkpt>
      <trkpt lat="46.31683" lon="6.78698">
        <ele>1405.7825</ele>
        <time>2014-08-28T16:09:14Z</time>
      </trkpt>
      <trkpt lat="46.31685" lon="6.78703">
        <ele>1405.7825</ele>
        <time>2014-08-28T16:09:19Z</time>
      </trkpt>
      <trkpt lat="46.31683" lon="6.78705">
        <ele>1405.7825</ele>
        <time>2014-08-28T16:09:24Z</time>
      </trkpt>
      <trkpt lat="46.31679" lon="6.78712">
        <ele>1401.9681</ele>
        <time>2014-08-28T16:09:29Z</time>
      </trkpt>
      <trkpt lat="46.31675" lon="6.78718">
        <ele>1401.9681</ele>
        <time>2014-08-28T16:09:34Z</time>
      </trkpt>
      <trkpt lat="46.31673" lon="6.78724">
        <ele>1398.056</ele>
        <time>2014-08-28T16:09:39Z</time>
      </trkpt>
      <trkpt lat="46.31669" lon="6.78732">
        <ele>1398.056</ele>
        <time>2014-08-28T16:09:44Z</time>
      </trkpt>
      <trkpt lat="46.31668" lon="6.78738">
        <ele>1393.9001</ele>
        <time>2014-08-28T16:09:49Z</time>
      </trkpt>
      <trkpt lat="46.31665" lon="6.78743">
        <ele>1393.9001</ele>
        <time>2014-08-28T16:09:54Z</time>
      </trkpt>
      <trkpt lat="46.3166" lon="6.78747">
        <ele>1389.8129</ele>
        <time>2014-08-28T16:09:59Z</time>
      </trkpt>
      <trkpt lat="46.31657" lon="6.7875">
        <ele>1389.8129</ele>
        <time>2014-08-28T16:10:04Z</time>
      </trkpt>
      <trkpt lat="46.31653" lon="6.78754">
        <ele>1385.9244</ele>
        <time>2014-08-28T16:10:09Z</time>
      </trkpt>
      <trkpt lat="46.31648" lon="6.78758">
        <ele>1385.9244</ele>
        <time>2014-08-28T16:10:14Z</time>
      </trkpt>
      <trkpt lat="46.31647" lon="6.78759">
        <ele>1385.9244</ele>
        <time>2014-08-28T16:10:19Z</time>
      </trkpt>
      <trkpt lat="46.31647" lon="6.78759">
        <ele>1385.9244</ele>
        <time>2014-08-28T16:10:24Z</time>
      </trkpt>
      <trkpt lat="46.31646" lon="6.78755">
        <ele>1382.0381</ele>
        <time>2014-08-28T16:10:49Z</time>
      </trkpt>
      <trkpt lat="46.31644" lon="6.78751">
        <ele>1382.0381</ele>
        <time>2014-08-28T16:10:54Z</time>
      </trkpt>
      <trkpt lat="46.31643" lon="6.78749">
        <ele>1382.0381</ele>
        <time>2014-08-28T16:10:59Z</time>
      </trkpt>
      <trkpt lat="46.3164" lon="6.78742">
        <ele>1378.3317</ele>
        <time>2014-08-28T16:11:04Z</time>
      </trkpt>
      <trkpt lat="46.31637" lon="6.7874">
        <ele>1378.3317</ele>
        <time>2014-08-28T16:11:09Z</time>
      </trkpt>
      <trkpt lat="46.31635" lon="6.78734">
        <ele>1378.3317</ele>
        <time>2014-08-28T16:11:14Z</time>
      </trkpt>
      <trkpt lat="46.31629" lon="6.78735">
        <ele>1374.782</ele>
        <time>2014-08-28T16:11:19Z</time>
      </trkpt>
      <trkpt lat="46.31624" lon="6.78731">
        <ele>1374.782</ele>
        <time>2014-08-28T16:11:24Z</time>
      </trkpt>
      <trkpt lat="46.3162" lon="6.78727">
        <ele>1371.338</ele>
        <time>2014-08-28T16:11:29Z</time>
      </trkpt>
      <trkpt lat="46.31617" lon="6.78725">
        <ele>1371.338</ele>
        <time>2014-08-28T16:11:34Z</time>
      </trkpt>
      <trkpt lat="46.31611" lon="6.7872">
        <ele>1368.2838</ele>
        <time>2014-08-28T16:11:39Z</time>
      </trkpt>
      <trkpt lat="46.31605" lon="6.78716">
        <ele>1368.2838</ele>
        <time>2014-08-28T16:11:44Z</time>
      </trkpt>
      <trkpt lat="46.31603" lon="6.78714">
        <ele>1368.2838</ele>
        <time>2014-08-28T16:11:49Z</time>
      </trkpt>
      <trkpt lat="46.31602" lon="6.78711">
        <ele>1365.5065</ele>
        <time>2014-08-28T16:11:54Z</time>
      </trkpt>
      <trkpt lat="46.316" lon="6.78709">
        <ele>1365.5065</ele>
        <time>2014-08-28T16:11:59Z</time>
      </trkpt>
      <trkpt lat="46.31597" lon="6.78705">
        <ele>1365.5065</ele>
        <time>2014-08-28T16:12:04Z</time>
      </trkpt>
      <trkpt lat="46.31596" lon="6.78704">
        <ele>1365.5065</ele>
        <time>2014-08-28T16:12:09Z</time>
      </trkpt>
      <trkpt lat="46.31589" lon="6.78702">
        <ele>1363.0446</ele>
        <time>2014-08-28T16:12:14Z</time>
      </trkpt>
      <trkpt lat="46.31585" lon="6.78699">
        <ele>1363.0446</ele>
        <time>2014-08-28T16:12:19Z</time>
      </trkpt>
      <trkpt lat="46.31581" lon="6.78696">
        <ele>1360.8611</ele>
        <time>2014-08-28T16:12:24Z</time>
      </trkpt>
      <trkpt lat="46.31578" lon="6.78693">
        <ele>1360.8611</ele>
        <time>2014-08-28T16:12:29Z</time>
      </trkpt>
      <trkpt lat="46.31576" lon="6.78691">
        <ele>1360.8611</ele>
        <time>2014-08-28T16:12:34Z</time>
      </trkpt>
      <trkpt lat="46.31574" lon="6.7869">
        <ele>1360.8611</ele>
        <time>2014-08-28T16:12:39Z</time>
      </trkpt>
      <trkpt lat="46.31571" lon="6.78684">
        <ele>1358.6035</ele>
        <time>2014-08-28T16:12:44Z</time>
      </trkpt>
      <trkpt lat="46.31567" lon="6.78681">
        <ele>1358.6035</ele>
        <time>2014-08-28T16:12:49Z</time>
      </trkpt>
      <trkpt lat="46.31564" lon="6.78679">
        <ele>1358.6035</ele>
        <time>2014-08-28T16:12:54Z</time>
      </trkpt>
      <trkpt lat="46.31558" lon="6.78679">
        <ele>1356.5651</ele>
        <time>2014-08-28T16:12:59Z</time>
      </trkpt>
      <trkpt lat="46.31551" lon="6.78674">
        <ele>1356.5651</ele>
        <time>2014-08-28T16:13:04Z</time>
      </trkpt>
      <trkpt lat="46.31546" lon="6.7867">
        <ele>1354.9448</ele>
        <time>2014-08-28T16:13:09Z</time>
      </trkpt>
      <trkpt lat="46.31542" lon="6.7867">
        <ele>1354.9448</ele>
        <time>2014-08-28T16:13:14Z</time>
      </trkpt>
      <trkpt lat="46.31539" lon="6.78667">
        <ele>1354.9448</ele>
        <time>2014-08-28T16:13:19Z</time>
      </trkpt>
      <trkpt lat="46.31538" lon="6.78666">
        <ele>1354.9448</ele>
        <time>2014-08-28T16:13:24Z</time>
      </trkpt>
      <trkpt lat="46.31537" lon="6.78663">
        <ele>1353.7528</ele>
        <time>2014-08-28T16:13:29Z</time>
      </trkpt>
      <trkpt lat="46.31535" lon="6.78659">
        <ele>1353.7528</ele>
        <time>2014-08-28T16:13:34Z</time>
      </trkpt>
      <trkpt lat="46.31532" lon="6.78658">
        <ele>1353.7528</ele>
        <time>2014-08-28T16:13:39Z</time>
      </trkpt>
      <trkpt lat="46.31532" lon="6.78657">
        <ele>1353.7528</ele>
        <time>2014-08-28T16:13:44Z</time>
      </trkpt>
      <trkpt lat="46.31531" lon="6.78656">
        <ele>1353.7528</ele>
        <time>2014-08-28T16:13:49Z</time>
      </trkpt>
      <trkpt lat="46.31521" lon="6.78649">
        <ele>1351.9886</ele>
        <time>2014-08-28T16:13:54Z</time>
      </trkpt>
      <trkpt lat="46.31512" lon="6.78645">
        <ele>1350.4127</ele>
        <time>2014-08-28T16:13:59Z</time>
      </trkpt>
      <trkpt lat="46.31505" lon="6.78641">
        <ele>1350.4127</ele>
        <time>2014-08-28T16:14:04Z</time>
      </trkpt>
      <trkpt lat="46.31499" lon="6.78637">
        <ele>1349.023</ele>
        <time>2014-08-28T16:14:09Z</time>
      </trkpt>
      <trkpt lat="46.31498" lon="6.78636">
        <ele>1349.023</ele>
        <time>2014-08-28T16:14:14Z</time>
      </trkpt>
      <trkpt lat="46.31493" lon="6.78629">
        <ele>1349.023</ele>
        <time>2014-08-28T16:14:19Z</time>
      </trkpt>
      <trkpt lat="46.31489" lon="6.78629">
        <ele>1347.6586</ele>
        <time>2014-08-28T16:14:24Z</time>
      </trkpt>
      <trkpt lat="46.31487" lon="6.78627">
        <ele>1347.6586</ele>
        <time>2014-08-28T16:14:29Z</time>
      </trkpt>
      <trkpt lat="46.31484" lon="6.78626">
        <ele>1347.6586</ele>
        <time>2014-08-28T16:14:34Z</time>
      </trkpt>
      <trkpt lat="46.31481" lon="6.78626">
        <ele>1347.6586</ele>
        <time>2014-08-28T16:14:39Z</time>
      </trkpt>
      <trkpt lat="46.31477" lon="6.78625">
        <ele>1345.7235</ele>
        <time>2014-08-28T16:14:44Z</time>
      </trkpt>
      <trkpt lat="46.31475" lon="6.78623">
        <ele>1345.7235</ele>
        <time>2014-08-28T16:14:49Z</time>
      </trkpt>
      <trkpt lat="46.31467" lon="6.78626">
        <ele>1343.7335</ele>
        <time>2014-08-28T16:14:54Z</time>
      </trkpt>
      <trkpt lat="46.3146" lon="6.78626">
        <ele>1343.7335</ele>
        <time>2014-08-28T16:14:59Z</time>
      </trkpt>
      <trkpt lat="46.31452" lon="6.78625">
        <ele>1341.7202</ele>
        <time>2014-08-28T16:15:04Z</time>
      </trkpt>
      <trkpt lat="46.31447" lon="6.78621">
        <ele>1341.7202</ele>
        <time>2014-08-28T16:15:09Z</time>
      </trkpt>
      <trkpt lat="46.31443" lon="6.78619">
        <ele>1339.6116</ele>
        <time>2014-08-28T16:15:14Z</time>
      </trkpt>
      <trkpt lat="46.31441" lon="6.78618">
        <ele>1339.6116</ele>
        <time>2014-08-28T16:15:19Z</time>
      </trkpt>
      <trkpt lat="46.31436" lon="6.78616">
        <ele>1339.6116</ele>
        <time>2014-08-28T16:15:24Z</time>
      </trkpt>
      <trkpt lat="46.31434" lon="6.78615">
        <ele>1337.5577</ele>
        <time>2014-08-28T16:15:29Z</time>
      </trkpt>
      <trkpt lat="46.3143" lon="6.78612">
        <ele>1337.5577</ele>
        <time>2014-08-28T16:15:34Z</time>
      </trkpt>
      <trkpt lat="46.31423" lon="6.78608">
        <ele>1335.5101</ele>
        <time>2014-08-28T16:15:39Z</time>
      </trkpt>
      <trkpt lat="46.31416" lon="6.78605">
        <ele>1335.5101</ele>
        <time>2014-08-28T16:15:44Z</time>
      </trkpt>
      <trkpt lat="46.31411" lon="6.78605">
        <ele>1333.3083</ele>
        <time>2014-08-28T16:15:49Z</time>
      </trkpt>
      <trkpt lat="46.31406" lon="6.78604">
        <ele>1333.3083</ele>
        <time>2014-08-28T16:15:54Z</time>
      </trkpt>
      <trkpt lat="46.314" lon="6.78605">
        <ele>1331.0352</ele>
        <time>2014-08-28T16:15:59Z</time>
      </trkpt>
      <trkpt lat="46.31397" lon="6.78606">
        <ele>1331.0352</ele>
        <time>2014-08-28T16:16:04Z</time>
      </trkpt>
      <trkpt lat="46.31394" lon="6.78606">
        <ele>1331.0352</ele>
        <time>2014-08-28T16:16:09Z</time>
      </trkpt>
      <trkpt lat="46.31392" lon="6.78605">
        <ele>1331.0352</ele>
        <time>2014-08-28T16:16:14Z</time>
      </trkpt>
      <trkpt lat="46.31388" lon="6.78605">
        <ele>1328.0177</ele>
        <time>2014-08-28T16:16:19Z</time>
      </trkpt>
      <trkpt lat="46.31385" lon="6.78602">
        <ele>1328.0177</ele>
        <time>2014-08-28T16:16:24Z</time>
      </trkpt>
      <trkpt lat="46.31379" lon="6.78599">
        <ele>1324.7733</ele>
        <time>2014-08-28T16:16:29Z</time>
      </trkpt>
      <trkpt lat="46.31372" lon="6.78598">
        <ele>1324.7733</ele>
        <time>2014-08-28T16:16:34Z</time>
      </trkpt>
      <trkpt lat="46.31369" lon="6.78597">
        <ele>1321.5946</ele>
        <time>2014-08-28T16:16:39Z</time>
      </trkpt>
      <trkpt lat="46.31364" lon="6.78594">
        <ele>1321.5946</ele>
        <time>2014-08-28T16:16:44Z</time>
      </trkpt>
      <trkpt lat="46.31361" lon="6.78594">
        <ele>1321.5946</ele>
        <time>2014-08-28T16:16:49Z</time>
      </trkpt>
      <trkpt lat="46.31357" lon="6.78593">
        <ele>1318.2626</ele>
        <time>2014-08-28T16:16:54Z</time>
      </trkpt>
      <trkpt lat="46.31352" lon="6.78593">
        <ele>1318.2626</ele>
        <time>2014-08-28T16:16:59Z</time>
      </trkpt>
      <trkpt lat="46.31347" lon="6.78592">
        <ele>1314.8629</ele>
        <time>2014-08-28T16:17:04Z</time>
      </trkpt>
      <trkpt lat="46.31342" lon="6.78594">
        <ele>1314.8629</ele>
        <time>2014-08-28T16:17:09Z</time>
      </trkpt>
      <trkpt lat="46.31337" lon="6.78595">
        <ele>1311.6194</ele>
        <time>2014-08-28T16:17:14Z</time>
      </trkpt>
      <trkpt lat="46.31331" lon="6.78595">
        <ele>1311.6194</ele>
        <time>2014-08-28T16:17:19Z</time>
      </trkpt>
      <trkpt lat="46.31327" lon="6.78596">
        <ele>1308.3496</ele>
        <time>2014-08-28T16:17:24Z</time>
      </trkpt>
      <trkpt lat="46.31322" lon="6.78596">
        <ele>1308.3496</ele>
        <time>2014-08-28T16:17:29Z</time>
      </trkpt>
      <trkpt lat="46.31319" lon="6.78596">
        <ele>1308.3496</ele>
        <time>2014-08-28T16:17:34Z</time>
      </trkpt>
      <trkpt lat="46.31315" lon="6.78597">
        <ele>1304.8992</ele>
        <time>2014-08-28T16:17:39Z</time>
      </trkpt>
      <trkpt lat="46.31311" lon="6.78596">
        <ele>1304.8992</ele>
        <time>2014-08-28T16:17:44Z</time>
      </trkpt>
      <trkpt lat="46.31308" lon="6.78592">
        <ele>1304.8992</ele>
        <time>2014-08-28T16:17:49Z</time>
      </trkpt>
      <trkpt lat="46.31308" lon="6.7859">
        <ele>1301.3993</ele>
        <time>2014-08-28T16:17:54Z</time>
      </trkpt>
      <trkpt lat="46.31309" lon="6.78588">
        <ele>1301.3993</ele>
        <time>2014-08-28T16:17:59Z</time>
      </trkpt>
      <trkpt lat="46.31308" lon="6.78587">
        <ele>1301.3993</ele>
        <time>2014-08-28T16:18:04Z</time>
      </trkpt>
      <trkpt lat="46.31308" lon="6.78587">
        <ele>1301.3993</ele>
        <time>2014-08-28T16:18:09Z</time>
      </trkpt>
      <trkpt lat="46.31309" lon="6.78587">
        <ele>1301.3993</ele>
        <time>2014-08-28T16:19:04Z</time>
      </trkpt>
      <trkpt lat="46.31308" lon="6.78588">
        <ele>1301.3993</ele>
        <time>2014-08-28T16:19:09Z</time>
      </trkpt>
      <trkpt lat="46.31306" lon="6.78588">
        <ele>1301.3993</ele>
        <time>2014-08-28T16:19:14Z</time>
      </trkpt>
      <trkpt lat="46.313" lon="6.78585">
        <ele>1297.4097</ele>
        <time>2014-08-28T16:19:19Z</time>
      </trkpt>
      <trkpt lat="46.31296" lon="6.78588">
        <ele>1297.4097</ele>
        <time>2014-08-28T16:19:24Z</time>
      </trkpt>
      <trkpt lat="46.31295" lon="6.7859">
        <ele>1297.4097</ele>
        <time>2014-08-28T16:19:29Z</time>
      </trkpt>
      <trkpt lat="46.31295" lon="6.7859">
        <ele>1297.4097</ele>
        <time>2014-08-28T16:19:34Z</time>
      </trkpt>
      <trkpt lat="46.31295" lon="6.78592">
        <ele>1297.4097</ele>
        <time>2014-08-28T16:20:14Z</time>
      </trkpt>
      <trkpt lat="46.31295" lon="6.78592">
        <ele>1297.4097</ele>
        <time>2014-08-28T16:20:19Z</time>
      </trkpt>
      <trkpt lat="46.31295" lon="6.78593">
        <ele>1297.4097</ele>
        <time>2014-08-28T16:21:04Z</time>
      </trkpt>
      <trkpt lat="46.31295" lon="6.78593">
        <ele>1297.4097</ele>
        <time>2014-08-28T16:21:09Z</time>
      </trkpt>
      <trkpt lat="46.31295" lon="6.78593">
        <ele>1297.4097</ele>
        <time>2014-08-28T16:22:34Z</time>
      </trkpt>
      <trkpt lat="46.31297" lon="6.78589">
        <ele>1292.0912</ele>
        <time>2014-08-28T16:22:39Z</time>
      </trkpt>
      <trkpt lat="46.31297" lon="6.78589">
        <ele>1292.0912</ele>
        <time>2014-08-28T16:22:44Z</time>
      </trkpt>
      <trkpt lat="46.31296" lon="6.78589">
        <ele>1292.0912</ele>
        <time>2014-08-28T16:22:54Z</time>
      </trkpt>
      <trkpt lat="46.31296" lon="6.78588">
        <ele>1292.0912</ele>
        <time>2014-08-28T16:22:59Z</time>
      </trkpt>
      <trkpt lat="46.31296" lon="6.78592">
        <ele>1292.0912</ele>
        <time>2014-08-28T16:24:59Z</time>
      </trkpt>
      <trkpt lat="46.31296" lon="6.78592">
        <ele>1292.0912</ele>
        <time>2014-08-28T16:25:04Z</time>
      </trkpt>
      <trkpt lat="46.31294" lon="6.78593">
        <ele>1292.0912</ele>
        <time>2014-08-28T16:25:14Z</time>
      </trkpt>
      <trkpt lat="46.31293" lon="6.78594">
        <ele>1292.0912</ele>
        <time>2014-08-28T16:25:19Z</time>
      </trkpt>
      <trkpt lat="46.3129" lon="6.78594">
        <ele>1287.9271</ele>
        <time>2014-08-28T16:25:24Z</time>
      </trkpt>
      <trkpt lat="46.31285" lon="6.78596">
        <ele>1287.9271</ele>
        <time>2014-08-28T16:25:29Z</time>
      </trkpt>
      <trkpt lat="46.31277" lon="6.78595">
        <ele>1284.4481</ele>
        <time>2014-08-28T16:25:34Z</time>
      </trkpt>
      <trkpt lat="46.31274" lon="6.78597">
        <ele>1284.4481</ele>
        <time>2014-08-28T16:25:39Z</time>
      </trkpt>
      <trkpt lat="46.31272" lon="6.78596">
        <ele>1284.4481</ele>
        <time>2014-08-28T16:25:44Z</time>
      </trkpt>
      <trkpt lat="46.31269" lon="6.78594">
        <ele>1284.4481</ele>
        <time>2014-08-28T16:25:49Z</time>
      </trkpt>
      <trkpt lat="46.31259" lon="6.78593">
        <ele>1281.6782</ele>
        <time>2014-08-28T16:25:54Z</time>
      </trkpt>
      <trkpt lat="46.31256" lon="6.78591">
        <ele>1281.6782</ele>
        <time>2014-08-28T16:25:59Z</time>
      </trkpt>
      <trkpt lat="46.31254" lon="6.78589">
        <ele>1281.6782</ele>
        <time>2014-08-28T16:26:04Z</time>
      </trkpt>
      <trkpt lat="46.3125" lon="6.78586">
        <ele>1279.4219</ele>
        <time>2014-08-28T16:26:09Z</time>
      </trkpt>
      <trkpt lat="46.31243" lon="6.78583">
        <ele>1279.4219</ele>
        <time>2014-08-28T16:26:14Z</time>
      </trkpt>
      <trkpt lat="46.3124" lon="6.78581">
        <ele>1277.3518</ele>
        <time>2014-08-28T16:26:19Z</time>
      </trkpt>
      <trkpt lat="46.31238" lon="6.78579">
        <ele>1277.3518</ele>
        <time>2014-08-28T16:26:24Z</time>
      </trkpt>
      <trkpt lat="46.31232" lon="6.78581">
        <ele>1275.5536</ele>
        <time>2014-08-28T16:26:29Z</time>
      </trkpt>
      <trkpt lat="46.31225" lon="6.78583">
        <ele>1275.5536</ele>
        <time>2014-08-28T16:26:34Z</time>
      </trkpt>
      <trkpt lat="46.31219" lon="6.78583">
        <ele>1273.8607</ele>
        <time>2014-08-28T16:26:39Z</time>
      </trkpt>
      <trkpt lat="46.31215" lon="6.78583">
        <ele>1273.8607</ele>
        <time>2014-08-28T16:26:44Z</time>
      </trkpt>
      <trkpt lat="46.31209" lon="6.78581">
        <ele>1272.2339</ele>
        <time>2014-08-28T16:26:49Z</time>
      </trkpt>
      <trkpt lat="46.31206" lon="6.78577">
        <ele>1272.2339</ele>
        <time>2014-08-28T16:26:54Z</time>
      </trkpt>
      <trkpt lat="46.31204" lon="6.78576">
        <ele>1272.2339</ele>
        <time>2014-08-28T16:26:59Z</time>
      </trkpt>
      <trkpt lat="46.312" lon="6.78575">
        <ele>1270.9965</ele>
        <time>2014-08-28T16:27:04Z</time>
      </trkpt>
      <trkpt lat="46.31197" lon="6.78575">
        <ele>1270.9965</ele>
        <time>2014-08-28T16:27:09Z</time>
      </trkpt>
      <trkpt lat="46.31194" lon="6.78574">
        <ele>1270.9965</ele>
        <time>2014-08-28T16:27:14Z</time>
      </trkpt>
      <trkpt lat="46.31194" lon="6.78574">
        <ele>1270.9965</ele>
        <time>2014-08-28T16:27:19Z</time>
      </trkpt>
      <trkpt lat="46.31189" lon="6.78574">
        <ele>1269.8851</ele>
        <time>2014-08-28T16:27:24Z</time>
      </trkpt>
      <trkpt lat="46.31184" lon="6.78569">
        <ele>1269.8851</ele>
        <time>2014-08-28T16:27:29Z</time>
      </trkpt>
      <trkpt lat="46.31178" lon="6.78564">
        <ele>1268.9296</ele>
        <time>2014-08-28T16:27:34Z</time>
      </trkpt>
      <trkpt lat="46.31172" lon="6.78565">
        <ele>1268.9296</ele>
        <time>2014-08-28T16:27:39Z</time>
      </trkpt>
      <trkpt lat="46.31172" lon="6.78565">
        <ele>1268.9296</ele>
        <time>2014-08-28T16:27:44Z</time>
      </trkpt>
      <trkpt lat="46.31167" lon="6.78566">
        <ele>1267.9402</ele>
        <time>2014-08-28T16:27:54Z</time>
      </trkpt>
      <trkpt lat="46.31156" lon="6.7857">
        <ele>1267.0878</ele>
        <time>2014-08-28T16:27:59Z</time>
      </trkpt>
      <trkpt lat="46.31154" lon="6.7857">
        <ele>1267.0878</ele>
        <time>2014-08-28T16:28:04Z</time>
      </trkpt>
      <trkpt lat="46.31153" lon="6.7857">
        <ele>1267.0878</ele>
        <time>2014-08-28T16:28:09Z</time>
      </trkpt>
      <trkpt lat="46.31152" lon="6.78571">
        <ele>1267.0878</ele>
        <time>2014-08-28T16:28:19Z</time>
      </trkpt>
      <trkpt lat="46.31149" lon="6.78573">
        <ele>1267.0878</ele>
        <time>2014-08-28T16:28:24Z</time>
      </trkpt>
      <trkpt lat="46.31137" lon="6.78574">
        <ele>1265.55</ele>
        <time>2014-08-28T16:28:29Z</time>
      </trkpt>
      <trkpt lat="46.31135" lon="6.78576">
        <ele>1265.55</ele>
        <time>2014-08-28T16:28:34Z</time>
      </trkpt>
      <trkpt lat="46.31129" lon="6.78576">
        <ele>1265.55</ele>
        <time>2014-08-28T16:28:39Z</time>
      </trkpt>
      <trkpt lat="46.31125" lon="6.78576">
        <ele>1264.0658</ele>
        <time>2014-08-28T16:28:44Z</time>
      </trkpt>
      <trkpt lat="46.31124" lon="6.78576">
        <ele>1264.0658</ele>
        <time>2014-08-28T16:28:49Z</time>
      </trkpt>
      <trkpt lat="46.31121" lon="6.78577">
        <ele>1264.0658</ele>
        <time>2014-08-28T16:28:54Z</time>
      </trkpt>
      <trkpt lat="46.31114" lon="6.78576">
        <ele>1262.945</ele>
        <time>2014-08-28T16:28:59Z</time>
      </trkpt>
      <trkpt lat="46.31103" lon="6.78578">
        <ele>1262.0555</ele>
        <time>2014-08-28T16:29:04Z</time>
      </trkpt>
      <trkpt lat="46.31096" lon="6.78581">
        <ele>1262.0555</ele>
        <time>2014-08-28T16:29:09Z</time>
      </trkpt>
      <trkpt lat="46.31089" lon="6.78581">
        <ele>1261.2318</ele>
        <time>2014-08-28T16:29:14Z</time>
      </trkpt>
      <trkpt lat="46.31084" lon="6.78583">
        <ele>1261.2318</ele>
        <time>2014-08-28T16:29:19Z</time>
      </trkpt>
      <trkpt lat="46.31081" lon="6.78584">
        <ele>1261.2318</ele>
        <time>2014-08-28T16:29:24Z</time>
      </trkpt>
      <trkpt lat="46.31074" lon="6.78582">
        <ele>1260.0747</ele>
        <time>2014-08-28T16:29:29Z</time>
      </trkpt>
      <trkpt lat="46.31068" lon="6.7858">
        <ele>1260.0747</ele>
        <time>2014-08-28T16:29:34Z</time>
      </trkpt>
      <trkpt lat="46.31063" lon="6.78581">
        <ele>1258.9797</ele>
        <time>2014-08-28T16:29:39Z</time>
      </trkpt>
      <trkpt lat="46.31057" lon="6.78583">
        <ele>1258.9797</ele>
        <time>2014-08-28T16:29:44Z</time>
      </trkpt>
      <trkpt lat="46.31053" lon="6.78584">
        <ele>1257.9669</ele>
        <time>2014-08-28T16:29:49Z</time>
      </trkpt>
      <trkpt lat="46.3105" lon="6.78586">
        <ele>1257.9669</ele>
        <time>2014-08-28T16:29:54Z</time>
      </trkpt>
      <trkpt lat="46.31048" lon="6.78587">
        <ele>1257.9669</ele>
        <time>2014-08-28T16:29:59Z</time>
      </trkpt>
      <trkpt lat="46.31046" lon="6.78586">
        <ele>1257.9669</ele>
        <time>2014-08-28T16:30:04Z</time>
      </trkpt>
      <trkpt lat="46.31039" lon="6.78583">
        <ele>1256.6803</ele>
        <time>2014-08-28T16:30:09Z</time>
      </trkpt>
      <trkpt lat="46.31037" lon="6.78582">
        <ele>1256.6803</ele>
        <time>2014-08-28T16:30:14Z</time>
      </trkpt>
      <trkpt lat="46.31034" lon="6.7858">
        <ele>1256.6803</ele>
        <time>2014-08-28T16:30:19Z</time>
      </trkpt>
      <trkpt lat="46.31032" lon="6.7858">
        <ele>1256.6803</ele>
        <time>2014-08-28T16:30:24Z</time>
      </trkpt>
      <trkpt lat="46.31024" lon="6.78578">
        <ele>1255.2233</ele>
        <time>2014-08-28T16:30:29Z</time>
      </trkpt>
      <trkpt lat="46.3102" lon="6.78574">
        <ele>1255.2233</ele>
        <time>2014-08-28T16:30:34Z</time>
      </trkpt>
      <trkpt lat="46.31018" lon="6.78574">
        <ele>1255.2233</ele>
        <time>2014-08-28T16:30:39Z</time>
      </trkpt>
      <trkpt lat="46.31012" lon="6.78573">
        <ele>1253.231</ele>
        <time>2014-08-28T16:30:44Z</time>
      </trkpt>
      <trkpt lat="46.31009" lon="6.78573">
        <ele>1253.231</ele>
        <time>2014-08-28T16:30:49Z</time>
      </trkpt>
      <trkpt lat="46.31005" lon="6.78573">
        <ele>1253.231</ele>
        <time>2014-08-28T16:30:54Z</time>
      </trkpt>
      <trkpt lat="46.31003" lon="6.78572">
        <ele>1250.972</ele>
        <time>2014-08-28T16:30:59Z</time>
      </trkpt>
      <trkpt lat="46.31003" lon="6.78572">
        <ele>1250.972</ele>
        <time>2014-08-28T16:31:04Z</time>
      </trkpt>
      <trkpt lat="46.31003" lon="6.78573">
        <ele>1250.972</ele>
        <time>2014-08-28T16:31:24Z</time>
      </trkpt>
      <trkpt lat="46.31001" lon="6.78575">
        <ele>1250.972</ele>
        <time>2014-08-28T16:31:29Z</time>
      </trkpt>
      <trkpt lat="46.31001" lon="6.78575">
        <ele>1250.972</ele>
        <time>2014-08-28T16:31:34Z</time>
      </trkpt>
      <trkpt lat="46.31002" lon="6.78575">
        <ele>1250.972</ele>
        <time>2014-08-28T16:31:54Z</time>
      </trkpt>
      <trkpt lat="46.31002" lon="6.78575">
        <ele>1250.972</ele>
        <time>2014-08-28T16:31:59Z</time>
      </trkpt>
      <trkpt lat="46.31001" lon="6.78575">
        <ele>1250.972</ele>
        <time>2014-08-28T16:32:59Z</time>
      </trkpt>
      <trkpt lat="46.31001" lon="6.78575">
        <ele>1250.972</ele>
        <time>2014-08-28T16:33:04Z</time>
      </trkpt>
      <trkpt lat="46.31" lon="6.78575">
        <ele>1250.972</ele>
        <time>2014-08-28T16:33:24Z</time>
      </trkpt>
      <trkpt lat="46.31001" lon="6.78576">
        <ele>1250.972</ele>
        <time>2014-08-28T16:34:19Z</time>
      </trkpt>
      <trkpt lat="46.31001" lon="6.78576">
        <ele>1250.972</ele>
        <time>2014-08-28T16:34:24Z</time>
      </trkpt>
      <trkpt lat="46.31" lon="6.78572">
        <ele>1246.7512</ele>
        <time>2014-08-28T16:34:49Z</time>
      </trkpt>
      <trkpt lat="46.31" lon="6.7857">
        <ele>1246.7512</ele>
        <time>2014-08-28T16:34:54Z</time>
      </trkpt>
      <trkpt lat="46.31001" lon="6.78553">
        <ele>1242.8505</ele>
        <time>2014-08-28T16:34:59Z</time>
      </trkpt>
      <trkpt lat="46.30999" lon="6.78543">
        <ele>1242.8505</ele>
        <time>2014-08-28T16:35:04Z</time>
      </trkpt>
      <trkpt lat="46.31" lon="6.78533">
        <ele>1239.1503</ele>
        <time>2014-08-28T16:35:09Z</time>
      </trkpt>
      <trkpt lat="46.31003" lon="6.78524">
        <ele>1239.1503</ele>
        <time>2014-08-28T16:35:14Z</time>
      </trkpt>
      <trkpt lat="46.31003" lon="6.7852">
        <ele>1235.9279</ele>
        <time>2014-08-28T16:35:19Z</time>
      </trkpt>
      <trkpt lat="46.31002" lon="6.78516">
        <ele>1235.9279</ele>
        <time>2014-08-28T16:35:24Z</time>
      </trkpt>
      <trkpt lat="46.30998" lon="6.78508">
        <ele>1233.0212</ele>
        <time>2014-08-28T16:35:29Z</time>
      </trkpt>
      <trkpt lat="46.30998" lon="6.78508">
        <ele>1233.0212</ele>
        <time>2014-08-28T16:35:34Z</time>
      </trkpt>
      <trkpt lat="46.30996" lon="6.78506">
        <ele>1233.0212</ele>
        <time>2014-08-28T16:35:39Z</time>
      </trkpt>
      <trkpt lat="46.30996" lon="6.78506">
        <ele>1233.0212</ele>
        <time>2014-08-28T16:35:44Z</time>
      </trkpt>
      <trkpt lat="46.30998" lon="6.78503">
        <ele>1233.0212</ele>
        <time>2014-08-28T16:35:49Z</time>
      </trkpt>
      <trkpt lat="46.30997" lon="6.78503">
        <ele>1233.0212</ele>
        <time>2014-08-28T16:35:54Z</time>
      </trkpt>
      <trkpt lat="46.30993" lon="6.78501">
        <ele>1230.582</ele>
        <time>2014-08-28T16:35:59Z</time>
      </trkpt>
      <trkpt lat="46.30992" lon="6.78499">
        <ele>1230.582</ele>
        <time>2014-08-28T16:36:04Z</time>
      </trkpt>
      <trkpt lat="46.3099" lon="6.78497">
        <ele>1230.582</ele>
        <time>2014-08-28T16:36:09Z</time>
      </trkpt>
      <trkpt lat="46.3099" lon="6.78497">
        <ele>1230.582</ele>
        <time>2014-08-28T16:36:14Z</time>
      </trkpt>
      <trkpt lat="46.30989" lon="6.78499">
        <ele>1230.582</ele>
        <time>2014-08-28T16:36:19Z</time>
      </trkpt>
      <trkpt lat="46.30989" lon="6.78499">
        <ele>1230.582</ele>
        <time>2014-08-28T16:36:24Z</time>
      </trkpt>
      <trkpt lat="46.30988" lon="6.78503">
        <ele>1230.582</ele>
        <time>2014-08-28T16:36:34Z</time>
      </trkpt>
      <trkpt lat="46.30985" lon="6.78507">
        <ele>1228.4036</ele>
        <time>2014-08-28T16:36:39Z</time>
      </trkpt>
      <trkpt lat="46.30979" lon="6.78516">
        <ele>1226.6538</ele>
        <time>2014-08-28T16:36:44Z</time>
      </trkpt>
      <trkpt lat="46.3097" lon="6.78527">
        <ele>1225.2567</ele>
        <time>2014-08-28T16:36:49Z</time>
      </trkpt>
      <trkpt lat="46.3096" lon="6.78536">
        <ele>1224.141</ele>
        <time>2014-08-28T16:36:54Z</time>
      </trkpt>
      <trkpt lat="46.30957" lon="6.78535">
        <ele>1224.141</ele>
        <time>2014-08-28T16:36:59Z</time>
      </trkpt>
      <trkpt lat="46.30954" lon="6.78538">
        <ele>1224.141</ele>
        <time>2014-08-28T16:37:04Z</time>
      </trkpt>
      <trkpt lat="46.30947" lon="6.7855">
        <ele>1223.052</ele>
        <time>2014-08-28T16:37:09Z</time>
      </trkpt>
      <trkpt lat="46.30945" lon="6.78554">
        <ele>1223.052</ele>
        <time>2014-08-28T16:37:14Z</time>
      </trkpt>
      <trkpt lat="46.30939" lon="6.78561">
        <ele>1221.9417</ele>
        <time>2014-08-28T16:37:19Z</time>
      </trkpt>
      <trkpt lat="46.30936" lon="6.78565">
        <ele>1221.9417</ele>
        <time>2014-08-28T16:37:24Z</time>
      </trkpt>
      <trkpt lat="46.30935" lon="6.78566">
        <ele>1221.9417</ele>
        <time>2014-08-28T16:37:29Z</time>
      </trkpt>
      <trkpt lat="46.30934" lon="6.78568">
        <ele>1221.9417</ele>
        <time>2014-08-28T16:37:34Z</time>
      </trkpt>
      <trkpt lat="46.3093" lon="6.78575">
        <ele>1220.5203</ele>
        <time>2014-08-28T16:37:39Z</time>
      </trkpt>
      <trkpt lat="46.30925" lon="6.78577">
        <ele>1220.5203</ele>
        <time>2014-08-28T16:37:44Z</time>
      </trkpt>
      <trkpt lat="46.30922" lon="6.78582">
        <ele>1218.9238</ele>
        <time>2014-08-28T16:37:49Z</time>
      </trkpt>
      <trkpt lat="46.30917" lon="6.78588">
        <ele>1218.9238</ele>
        <time>2014-08-28T16:37:54Z</time>
      </trkpt>
      <trkpt lat="46.30916" lon="6.78589">
        <ele>1218.9238</ele>
        <time>2014-08-28T16:37:59Z</time>
      </trkpt>
      <trkpt lat="46.30915" lon="6.7859">
        <ele>1218.9238</ele>
        <time>2014-08-28T16:38:04Z</time>
      </trkpt>
      <trkpt lat="46.30914" lon="6.78593">
        <ele>1216.933</ele>
        <time>2014-08-28T16:38:09Z</time>
      </trkpt>
      <trkpt lat="46.30914" lon="6.78594">
        <ele>1216.933</ele>
        <time>2014-08-28T16:38:14Z</time>
      </trkpt>
      <trkpt lat="46.30911" lon="6.78599">
        <ele>1216.933</ele>
        <time>2014-08-28T16:38:19Z</time>
      </trkpt>
      <trkpt lat="46.3091" lon="6.786">
        <ele>1216.933</ele>
        <time>2014-08-28T16:38:24Z</time>
      </trkpt>
      <trkpt lat="46.3091" lon="6.786">
        <ele>1216.933</ele>
        <time>2014-08-28T16:38:29Z</time>
      </trkpt>
      <trkpt lat="46.30909" lon="6.78602">
        <ele>1216.933</ele>
        <time>2014-08-28T16:38:34Z</time>
      </trkpt>
      <trkpt lat="46.30909" lon="6.78612">
        <ele>1214.9366</ele>
        <time>2014-08-28T16:38:39Z</time>
      </trkpt>
      <trkpt lat="46.30909" lon="6.78614">
        <ele>1214.9366</ele>
        <time>2014-08-28T16:38:44Z</time>
      </trkpt>
      <trkpt lat="46.30907" lon="6.78618">
        <ele>1214.9366</ele>
        <time>2014-08-28T16:38:49Z</time>
      </trkpt>
      <trkpt lat="46.30906" lon="6.78619">
        <ele>1214.9366</ele>
        <time>2014-08-28T16:38:54Z</time>
      </trkpt>
      <trkpt lat="46.30904" lon="6.78621">
        <ele>1212.7474</ele>
        <time>2014-08-28T16:38:59Z</time>
      </trkpt>
      <trkpt lat="46.30904" lon="6.78621">
        <ele>1212.7474</ele>
        <time>2014-08-28T16:39:04Z</time>
      </trkpt>
      <trkpt lat="46.30903" lon="6.78623">
        <ele>1212.7474</ele>
        <time>2014-08-28T16:39:09Z</time>
      </trkpt>
      <trkpt lat="46.30896" lon="6.78632">
        <ele>1210.3799</ele>
        <time>2014-08-28T16:39:14Z</time>
      </trkpt>
      <trkpt lat="46.30888" lon="6.78644">
        <ele>1208.1648</ele>
        <time>2014-08-28T16:39:19Z</time>
      </trkpt>
      <trkpt lat="46.30886" lon="6.78647">
        <ele>1208.1648</ele>
        <time>2014-08-28T16:39:24Z</time>
      </trkpt>
      <trkpt lat="46.30881" lon="6.7865">
        <ele>1208.1648</ele>
        <time>2014-08-28T16:39:29Z</time>
      </trkpt>
      <trkpt lat="46.30875" lon="6.78653">
        <ele>1205.6589</ele>
        <time>2014-08-28T16:39:34Z</time>
      </trkpt>
      <trkpt lat="46.30866" lon="6.7866">
        <ele>1203.2596</ele>
        <time>2014-08-28T16:39:39Z</time>
      </trkpt>
      <trkpt lat="46.30862" lon="6.78663">
        <ele>1203.2596</ele>
        <time>2014-08-28T16:39:44Z</time>
      </trkpt>
      <trkpt lat="46.30858" lon="6.78667">
        <ele>1201.0176</ele>
        <time>2014-08-28T16:39:49Z</time>
      </trkpt>
      <trkpt lat="46.30855" lon="6.78671">
        <ele>1201.0176</ele>
        <time>2014-08-28T16:39:54Z</time>
      </trkpt>
      <trkpt lat="46.3085" lon="6.78682">
        <ele>1198.9363</ele>
        <time>2014-08-28T16:39:59Z</time>
      </trkpt>
      <trkpt lat="46.30846" lon="6.78696">
        <ele>1197.0039</ele>
        <time>2014-08-28T16:40:04Z</time>
      </trkpt>
      <trkpt lat="46.30843" lon="6.787">
        <ele>1197.0039</ele>
        <time>2014-08-28T16:40:09Z</time>
      </trkpt>
      <trkpt lat="46.30843" lon="6.787">
        <ele>1197.0039</ele>
        <time>2014-08-28T16:40:14Z</time>
      </trkpt>
      <trkpt lat="46.3084" lon="6.78701">
        <ele>1197.0039</ele>
        <time>2014-08-28T16:40:19Z</time>
      </trkpt>
      <trkpt lat="46.30835" lon="6.78705">
        <ele>1194.9065</ele>
        <time>2014-08-28T16:40:24Z</time>
      </trkpt>
      <trkpt lat="46.30828" lon="6.78705">
        <ele>1194.9065</ele>
        <time>2014-08-28T16:40:29Z</time>
      </trkpt>
      <trkpt lat="46.30823" lon="6.78704">
        <ele>1192.9159</ele>
        <time>2014-08-28T16:40:34Z</time>
      </trkpt>
      <trkpt lat="46.30818" lon="6.78705">
        <ele>1192.9159</ele>
        <time>2014-08-28T16:40:39Z</time>
      </trkpt>
      <trkpt lat="46.30817" lon="6.78706">
        <ele>1192.9159</ele>
        <time>2014-08-28T16:40:44Z</time>
      </trkpt>
      <trkpt lat="46.3081" lon="6.78716">
        <ele>1191.0529</ele>
        <time>2014-08-28T16:40:49Z</time>
      </trkpt>
      <trkpt lat="46.30808" lon="6.78723">
        <ele>1191.0529</ele>
        <time>2014-08-28T16:40:54Z</time>
      </trkpt>
      <trkpt lat="46.30808" lon="6.78723">
        <ele>1191.0529</ele>
        <time>2014-08-28T16:40:59Z</time>
      </trkpt>
      <trkpt lat="46.30805" lon="6.78733">
        <ele>1189.3075</ele>
        <time>2014-08-28T16:41:04Z</time>
      </trkpt>
      <trkpt lat="46.30801" lon="6.78738">
        <ele>1189.3075</ele>
        <time>2014-08-28T16:41:09Z</time>
      </trkpt>
      <trkpt lat="46.30798" lon="6.78745">
        <ele>1187.8578</ele>
        <time>2014-08-28T16:41:14Z</time>
      </trkpt>
      <trkpt lat="46.30798" lon="6.78748">
        <ele>1187.8578</ele>
        <time>2014-08-28T16:41:19Z</time>
      </trkpt>
      <trkpt lat="46.30796" lon="6.78754">
        <ele>1187.8578</ele>
        <time>2014-08-28T16:41:24Z</time>
      </trkpt>
      <trkpt lat="46.30793" lon="6.78759">
        <ele>1186.8678</ele>
        <time>2014-08-28T16:41:29Z</time>
      </trkpt>
      <trkpt lat="46.30792" lon="6.7876">
        <ele>1186.8678</ele>
        <time>2014-08-28T16:41:34Z</time>
      </trkpt>
      <trkpt lat="46.30791" lon="6.78767">
        <ele>1186.8678</ele>
        <time>2014-08-28T16:41:39Z</time>
      </trkpt>
      <trkpt lat="46.30789" lon="6.78767">
        <ele>1186.8678</ele>
        <time>2014-08-28T16:41:44Z</time>
      </trkpt>
      <trkpt lat="46.30788" lon="6.78769">
        <ele>1185.8684</ele>
        <time>2014-08-28T16:41:49Z</time>
      </trkpt>
      <trkpt lat="46.30777" lon="6.78771">
        <ele>1185.1313</ele>
        <time>2014-08-28T16:41:54Z</time>
      </trkpt>
      <trkpt lat="46.30767" lon="6.78769">
        <ele>1184.5618</ele>
        <time>2014-08-28T16:41:59Z</time>
      </trkpt>
      <trkpt lat="46.30759" lon="6.78773">
        <ele>1184.5618</ele>
        <time>2014-08-28T16:42:04Z</time>
      </trkpt>
      <trkpt lat="46.30759" lon="6.78773">
        <ele>1184.5618</ele>
        <time>2014-08-28T16:42:09Z</time>
      </trkpt>
      <trkpt lat="46.30755" lon="6.78778">
        <ele>1183.9274</ele>
        <time>2014-08-28T16:42:14Z</time>
      </trkpt>
      <trkpt lat="46.30753" lon="6.78779">
        <ele>1183.9274</ele>
        <time>2014-08-28T16:42:19Z</time>
      </trkpt>
      <trkpt lat="46.30746" lon="6.78781">
        <ele>1183.2146</ele>
        <time>2014-08-28T16:42:24Z</time>
      </trkpt>
      <trkpt lat="46.30744" lon="6.78783">
        <ele>1183.2146</ele>
        <time>2014-08-28T16:42:29Z</time>
      </trkpt>
      <trkpt lat="46.3074" lon="6.78785">
        <ele>1183.2146</ele>
        <time>2014-08-28T16:42:34Z</time>
      </trkpt>
      <trkpt lat="46.30736" lon="6.78781">
        <ele>1182.642</ele>
        <time>2014-08-28T16:42:39Z</time>
      </trkpt>
      <trkpt lat="46.30732" lon="6.78781">
        <ele>1182.642</ele>
        <time>2014-08-28T16:42:44Z</time>
      </trkpt>
      <trkpt lat="46.30723" lon="6.78775">
        <ele>1182.109</ele>
        <time>2014-08-28T16:42:49Z</time>
      </trkpt>
      <trkpt lat="46.3071" lon="6.78778">
        <ele>1181.609</ele>
        <time>2014-08-28T16:42:54Z</time>
      </trkpt>
      <trkpt lat="46.30703" lon="6.78779">
        <ele>1181.609</ele>
        <time>2014-08-28T16:42:59Z</time>
      </trkpt>
      <trkpt lat="46.30701" lon="6.78779">
        <ele>1181.609</ele>
        <time>2014-08-28T16:43:04Z</time>
      </trkpt>
      <trkpt lat="46.307" lon="6.78779">
        <ele>1180.9626</ele>
        <time>2014-08-28T16:43:09Z</time>
      </trkpt>
      <trkpt lat="46.30699" lon="6.78779">
        <ele>1180.9626</ele>
        <time>2014-08-28T16:43:14Z</time>
      </trkpt>
      <trkpt lat="46.30698" lon="6.7878">
        <ele>1180.9626</ele>
        <time>2014-08-28T16:43:19Z</time>
      </trkpt>
      <trkpt lat="46.30693" lon="6.78783">
        <ele>1180.9626</ele>
        <time>2014-08-28T16:43:24Z</time>
      </trkpt>
      <trkpt lat="46.30684" lon="6.78789">
        <ele>1179.9036</ele>
        <time>2014-08-28T16:43:29Z</time>
      </trkpt>
      <trkpt lat="46.30681" lon="6.78792">
        <ele>1179.9036</ele>
        <time>2014-08-28T16:43:34Z</time>
      </trkpt>
      <trkpt lat="46.30679" lon="6.7879">
        <ele>1179.9036</ele>
        <time>2014-08-28T16:43:39Z</time>
      </trkpt>
      <trkpt lat="46.30676" lon="6.7879">
        <ele>1179.9036</ele>
        <time>2014-08-28T16:43:44Z</time>
      </trkpt>
      <trkpt lat="46.3067" lon="6.78794">
        <ele>1178.9069</ele>
        <time>2014-08-28T16:43:49Z</time>
      </trkpt>
      <trkpt lat="46.30668" lon="6.78794">
        <ele>1178.9069</ele>
        <time>2014-08-28T16:43:54Z</time>
      </trkpt>
      <trkpt lat="46.30664" lon="6.78796">
        <ele>1178.9069</ele>
        <time>2014-08-28T16:43:59Z</time>
      </trkpt>
      <trkpt lat="46.30663" lon="6.78797">
        <ele>1178.9069</ele>
        <time>2014-08-28T16:44:04Z</time>
      </trkpt>
      <trkpt lat="46.30653" lon="6.78799">
        <ele>1177.9656</ele>
        <time>2014-08-28T16:44:09Z</time>
      </trkpt>
      <trkpt lat="46.30646" lon="6.78804">
        <ele>1177.9656</ele>
        <time>2014-08-28T16:44:14Z</time>
      </trkpt>
      <trkpt lat="46.30644" lon="6.78807">
        <ele>1177.1887</ele>
        <time>2014-08-28T16:44:19Z</time>
      </trkpt>
      <trkpt lat="46.30644" lon="6.78807">
        <ele>1177.1887</ele>
        <time>2014-08-28T16:44:24Z</time>
      </trkpt>
      <trkpt lat="46.30638" lon="6.78809">
        <ele>1177.1887</ele>
        <time>2014-08-28T16:44:29Z</time>
      </trkpt>
      <trkpt lat="46.30635" lon="6.7881">
        <ele>1176.4751</ele>
        <time>2014-08-28T16:44:34Z</time>
      </trkpt>
      <trkpt lat="46.30635" lon="6.7881">
        <ele>1176.4751</ele>
        <time>2014-08-28T16:44:39Z</time>
      </trkpt>
      <trkpt lat="46.3063" lon="6.7881">
        <ele>1176.4751</ele>
        <time>2014-08-28T16:44:44Z</time>
      </trkpt>
      <trkpt lat="46.30621" lon="6.78822">
        <ele>1175.5868</ele>
        <time>2014-08-28T16:44:49Z</time>
      </trkpt>
      <trkpt lat="46.30612" lon="6.78837">
        <ele>1174.7795</ele>
        <time>2014-08-28T16:44:54Z</time>
      </trkpt>
      <trkpt lat="46.30606" lon="6.78845">
        <ele>1174.7795</ele>
        <time>2014-08-28T16:44:59Z</time>
      </trkpt>
      <trkpt lat="46.30604" lon="6.78845">
        <ele>1174.0737</ele>
        <time>2014-08-28T16:45:04Z</time>
      </trkpt>
      <trkpt lat="46.30598" lon="6.78856">
        <ele>1173.3298</ele>
        <time>2014-08-28T16:45:09Z</time>
      </trkpt>
      <trkpt lat="46.30591" lon="6.78866">
        <ele>1172.6349</ele>
        <time>2014-08-28T16:45:14Z</time>
      </trkpt>
      <trkpt lat="46.30589" lon="6.78867">
        <ele>1172.6349</ele>
        <time>2014-08-28T16:45:19Z</time>
      </trkpt>
      <trkpt lat="46.30587" lon="6.78869">
        <ele>1172.6349</ele>
        <time>2014-08-28T16:45:24Z</time>
      </trkpt>
      <trkpt lat="46.30582" lon="6.78876">
        <ele>1172.1414</ele>
        <time>2014-08-28T16:45:29Z</time>
      </trkpt>
      <trkpt lat="46.30579" lon="6.78879">
        <ele>1172.1414</ele>
        <time>2014-08-28T16:45:34Z</time>
      </trkpt>
      <trkpt lat="46.30576" lon="6.7888">
        <ele>1172.1414</ele>
        <time>2014-08-28T16:45:39Z</time>
      </trkpt>
      <trkpt lat="46.30564" lon="6.78887">
        <ele>1171.284</ele>
        <time>2014-08-28T16:45:44Z</time>
      </trkpt>
      <trkpt lat="46.30562" lon="6.78889">
        <ele>1171.284</ele>
        <time>2014-08-28T16:45:49Z</time>
      </trkpt>
      <trkpt lat="46.30561" lon="6.78888">
        <ele>1171.284</ele>
        <time>2014-08-28T16:45:54Z</time>
      </trkpt>
      <trkpt lat="46.30548" lon="6.78893">
        <ele>1170.0448</ele>
        <time>2014-08-28T16:45:59Z</time>
      </trkpt>
      <trkpt lat="46.30542" lon="6.78895">
        <ele>1170.0448</ele>
        <time>2014-08-28T16:46:04Z</time>
      </trkpt>
      <trkpt lat="46.30536" lon="6.78892">
        <ele>1168.9554</ele>
        <time>2014-08-28T16:46:09Z</time>
      </trkpt>
      <trkpt lat="46.30533" lon="6.78893">
        <ele>1168.9554</ele>
        <time>2014-08-28T16:46:14Z</time>
      </trkpt>
      <trkpt lat="46.30521" lon="6.78888">
        <ele>1167.86</ele>
        <time>2014-08-28T16:46:19Z</time>
      </trkpt>
      <trkpt lat="46.30513" lon="6.78885">
        <ele>1167.86</ele>
        <time>2014-08-28T16:46:24Z</time>
      </trkpt>
      <trkpt lat="46.30513" lon="6.78885">
        <ele>1167.86</ele>
        <time>2014-08-28T16:46:29Z</time>
      </trkpt>
      <trkpt lat="46.30512" lon="6.78883">
        <ele>1166.9312</ele>
        <time>2014-08-28T16:46:34Z</time>
      </trkpt>
      <trkpt lat="46.30508" lon="6.78882">
        <ele>1166.9312</ele>
        <time>2014-08-28T16:46:39Z</time>
      </trkpt>
      <trkpt lat="46.30498" lon="6.78879">
        <ele>1166.0546</ele>
        <time>2014-08-28T16:46:44Z</time>
      </trkpt>
      <trkpt lat="46.30491" lon="6.78878">
        <ele>1166.0546</ele>
        <time>2014-08-28T16:46:49Z</time>
      </trkpt>
      <trkpt lat="46.30483" lon="6.7888">
        <ele>1165.153</ele>
        <time>2014-08-28T16:46:54Z</time>
      </trkpt>
      <trkpt lat="46.30482" lon="6.78881">
        <ele>1165.153</ele>
        <time>2014-08-28T16:46:59Z</time>
      </trkpt>
      <trkpt lat="46.30474" lon="6.78882">
        <ele>1164.3569</ele>
        <time>2014-08-28T16:47:04Z</time>
      </trkpt>
      <trkpt lat="46.30467" lon="6.78886">
        <ele>1164.3569</ele>
        <time>2014-08-28T16:47:09Z</time>
      </trkpt>
      <trkpt lat="46.30457" lon="6.78887">
        <ele>1163.5421</ele>
        <time>2014-08-28T16:47:14Z</time>
      </trkpt>
      <trkpt lat="46.30454" lon="6.78887">
        <ele>1163.5421</ele>
        <time>2014-08-28T16:47:19Z</time>
      </trkpt>
      <trkpt lat="46.30449" lon="6.78888">
        <ele>1163.5421</ele>
        <time>2014-08-28T16:47:24Z</time>
      </trkpt>
      <trkpt lat="46.3044" lon="6.78889">
        <ele>1162.7231</ele>
        <time>2014-08-28T16:47:29Z</time>
      </trkpt>
      <trkpt lat="46.30434" lon="6.7889">
        <ele>1162.7231</ele>
        <time>2014-08-28T16:47:34Z</time>
      </trkpt>
      <trkpt lat="46.30427" lon="6.78893">
        <ele>1162.0575</ele>
        <time>2014-08-28T16:47:39Z</time>
      </trkpt>
      <trkpt lat="46.30425" lon="6.78895">
        <ele>1162.0575</ele>
        <time>2014-08-28T16:47:44Z</time>
      </trkpt>
      <trkpt lat="46.3042" lon="6.789">
        <ele>1162.0575</ele>
        <time>2014-08-28T16:47:49Z</time>
      </trkpt>
      <trkpt lat="46.30417" lon="6.78906">
        <ele>1161.5903</ele>
        <time>2014-08-28T16:47:54Z</time>
      </trkpt>
      <trkpt lat="46.30413" lon="6.78917">
        <ele>1161.5903</ele>
        <time>2014-08-28T16:47:59Z</time>
      </trkpt>
      <trkpt lat="46.30409" lon="6.78917">
        <ele>1161.1464</ele>
        <time>2014-08-28T16:48:04Z</time>
      </trkpt>
      <trkpt lat="46.304" lon="6.7892">
        <ele>1160.7365</ele>
        <time>2014-08-28T16:48:09Z</time>
      </trkpt>
      <trkpt lat="46.30396" lon="6.7892">
        <ele>1160.7365</ele>
        <time>2014-08-28T16:48:14Z</time>
      </trkpt>
      <trkpt lat="46.30391" lon="6.78924">
        <ele>1160.1254</ele>
        <time>2014-08-28T16:48:19Z</time>
      </trkpt>
      <trkpt lat="46.30385" lon="6.78925">
        <ele>1160.1254</ele>
        <time>2014-08-28T16:48:24Z</time>
      </trkpt>
      <trkpt lat="46.30382" lon="6.78926">
        <ele>1159.1394</ele>
        <time>2014-08-28T16:48:29Z</time>
      </trkpt>
      <trkpt lat="46.30377" lon="6.78927">
        <ele>1159.1394</ele>
        <time>2014-08-28T16:48:34Z</time>
      </trkpt>
      <trkpt lat="46.3037" lon="6.78928">
        <ele>1157.8777</ele>
        <time>2014-08-28T16:48:39Z</time>
      </trkpt>
      <trkpt lat="46.30364" lon="6.7893">
        <ele>1157.8777</ele>
        <time>2014-08-28T16:48:44Z</time>
      </trkpt>
      <trkpt lat="46.30361" lon="6.7893">
        <ele>1157.8777</ele>
        <time>2014-08-28T16:48:49Z</time>
      </trkpt>
      <trkpt lat="46.30355" lon="6.78931">
        <ele>1156.2603</ele>
        <time>2014-08-28T16:48:54Z</time>
      </trkpt>
      <trkpt lat="46.30348" lon="6.78933">
        <ele>1156.2603</ele>
        <time>2014-08-28T16:48:59Z</time>
      </trkpt>
      <trkpt lat="46.30341" lon="6.78934">
        <ele>1154.5886</ele>
        <time>2014-08-28T16:49:04Z</time>
      </trkpt>
      <trkpt lat="46.30334" lon="6.78937">
        <ele>1154.5886</ele>
        <time>2014-08-28T16:49:09Z</time>
      </trkpt>
      <trkpt lat="46.3033" lon="6.78938">
        <ele>1152.8832</ele>
        <time>2014-08-28T16:49:14Z</time>
      </trkpt>
      <trkpt lat="46.30328" lon="6.78938">
        <ele>1152.8832</ele>
        <time>2014-08-28T16:49:19Z</time>
      </trkpt>
      <trkpt lat="46.3032" lon="6.78935">
        <ele>1151.2634</ele>
        <time>2014-08-28T16:49:24Z</time>
      </trkpt>
      <trkpt lat="46.30315" lon="6.78937">
        <ele>1151.2634</ele>
        <time>2014-08-28T16:49:29Z</time>
      </trkpt>
      <trkpt lat="46.30309" lon="6.78938">
        <ele>1149.725</ele>
        <time>2014-08-28T16:49:34Z</time>
      </trkpt>
      <trkpt lat="46.30302" lon="6.78933">
        <ele>1149.725</ele>
        <time>2014-08-28T16:49:39Z</time>
      </trkpt>
      <trkpt lat="46.30297" lon="6.78931">
        <ele>1148.3354</ele>
        <time>2014-08-28T16:49:44Z</time>
      </trkpt>
      <trkpt lat="46.30294" lon="6.78931">
        <ele>1148.3354</ele>
        <time>2014-08-28T16:49:49Z</time>
      </trkpt>
      <trkpt lat="46.30288" lon="6.78928">
        <ele>1146.9264</ele>
        <time>2014-08-28T16:49:54Z</time>
      </trkpt>
      <trkpt lat="46.30285" lon="6.78926">
        <ele>1146.9264</ele>
        <time>2014-08-28T16:49:59Z</time>
      </trkpt>
      <trkpt lat="46.30277" lon="6.78923">
        <ele>1145.4142</ele>
        <time>2014-08-28T16:50:04Z</time>
      </trkpt>
      <trkpt lat="46.30268" lon="6.78922">
        <ele>1143.9662</ele>
        <time>2014-08-28T16:50:09Z</time>
      </trkpt>
      <trkpt lat="46.30263" lon="6.78919">
        <ele>1143.9662</ele>
        <time>2014-08-28T16:50:14Z</time>
      </trkpt>
      <trkpt lat="46.30258" lon="6.7892">
        <ele>1142.363</ele>
        <time>2014-08-28T16:50:19Z</time>
      </trkpt>
      <trkpt lat="46.30256" lon="6.78921">
        <ele>1142.363</ele>
        <time>2014-08-28T16:50:24Z</time>
      </trkpt>
      <trkpt lat="46.3025" lon="6.78922">
        <ele>1142.363</ele>
        <time>2014-08-28T16:50:29Z</time>
      </trkpt>
      <trkpt lat="46.30247" lon="6.78922">
        <ele>1140.4304</ele>
        <time>2014-08-28T16:50:34Z</time>
      </trkpt>
      <trkpt lat="46.30241" lon="6.78924">
        <ele>1140.4304</ele>
        <time>2014-08-28T16:50:39Z</time>
      </trkpt>
      <trkpt lat="46.3024" lon="6.78924">
        <ele>1140.4304</ele>
        <time>2014-08-28T16:50:44Z</time>
      </trkpt>
      <trkpt lat="46.3024" lon="6.78924">
        <ele>1140.4304</ele>
        <time>2014-08-28T16:50:49Z</time>
      </trkpt>
      <trkpt lat="46.30238" lon="6.78925">
        <ele>1140.4304</ele>
        <time>2014-08-28T16:50:54Z</time>
      </trkpt>
      <trkpt lat="46.30234" lon="6.78927">
        <ele>1137.8639</ele>
        <time>2014-08-28T16:50:59Z</time>
      </trkpt>
      <trkpt lat="46.30228" lon="6.78926">
        <ele>1137.8639</ele>
        <time>2014-08-28T16:51:04Z</time>
      </trkpt>
      <trkpt lat="46.30225" lon="6.78924">
        <ele>1135.3196</ele>
        <time>2014-08-28T16:51:09Z</time>
      </trkpt>
      <trkpt lat="46.3022" lon="6.78922">
        <ele>1135.3196</ele>
        <time>2014-08-28T16:51:14Z</time>
      </trkpt>
      <trkpt lat="46.3021" lon="6.78924">
        <ele>1132.8723</ele>
        <time>2014-08-28T16:51:19Z</time>
      </trkpt>
      <trkpt lat="46.30202" lon="6.78923">
        <ele>1132.8723</ele>
        <time>2014-08-28T16:51:24Z</time>
      </trkpt>
      <trkpt lat="46.30194" lon="6.78928">
        <ele>1130.6343</ele>
        <time>2014-08-28T16:51:29Z</time>
      </trkpt>
      <trkpt lat="46.30182" lon="6.78933">
        <ele>1128.6078</ele>
        <time>2014-08-28T16:51:34Z</time>
      </trkpt>
      <trkpt lat="46.3018" lon="6.78935">
        <ele>1128.6078</ele>
        <time>2014-08-28T16:51:39Z</time>
      </trkpt>
      <trkpt lat="46.3017" lon="6.78938">
        <ele>1126.8235</ele>
        <time>2014-08-28T16:51:44Z</time>
      </trkpt>
      <trkpt lat="46.30168" lon="6.78938">
        <ele>1126.8235</ele>
        <time>2014-08-28T16:51:49Z</time>
      </trkpt>
      <trkpt lat="46.30164" lon="6.78941">
        <ele>1126.8235</ele>
        <time>2014-08-28T16:51:54Z</time>
      </trkpt>
      <trkpt lat="46.30161" lon="6.78943">
        <ele>1124.8619</ele>
        <time>2014-08-28T16:51:59Z</time>
      </trkpt>
      <trkpt lat="46.30157" lon="6.78946">
        <ele>1124.8619</ele>
        <time>2014-08-28T16:52:04Z</time>
      </trkpt>
      <trkpt lat="46.30152" lon="6.78951">
        <ele>1122.782</ele>
        <time>2014-08-28T16:52:09Z</time>
      </trkpt>
      <trkpt lat="46.3015" lon="6.78953">
        <ele>1122.782</ele>
        <time>2014-08-28T16:52:14Z</time>
      </trkpt>
      <trkpt lat="46.30143" lon="6.78958">
        <ele>1120.5948</ele>
        <time>2014-08-28T16:52:19Z</time>
      </trkpt>
      <trkpt lat="46.3014" lon="6.7896">
        <ele>1120.5948</ele>
        <time>2014-08-28T16:52:24Z</time>
      </trkpt>
      <trkpt lat="46.30136" lon="6.78963">
        <ele>1120.5948</ele>
        <time>2014-08-28T16:52:29Z</time>
      </trkpt>
      <trkpt lat="46.30132" lon="6.78964">
        <ele>1117.9369</ele>
        <time>2014-08-28T16:52:34Z</time>
      </trkpt>
      <trkpt lat="46.30127" lon="6.78967">
        <ele>1117.9369</ele>
        <time>2014-08-28T16:52:39Z</time>
      </trkpt>
      <trkpt lat="46.30121" lon="6.78972">
        <ele>1114.8755</ele>
        <time>2014-08-28T16:52:44Z</time>
      </trkpt>
      <trkpt lat="46.30115" lon="6.78976">
        <ele>1114.8755</ele>
        <time>2014-08-28T16:52:49Z</time>
      </trkpt>
      <trkpt lat="46.3011" lon="6.78978">
        <ele>1111.4746</ele>
        <time>2014-08-28T16:52:54Z</time>
      </trkpt>
      <trkpt lat="46.30105" lon="6.78983">
        <ele>1111.4746</ele>
        <time>2014-08-28T16:52:59Z</time>
      </trkpt>
      <trkpt lat="46.30094" lon="6.78987">
        <ele>1108.3414</ele>
        <time>2014-08-28T16:53:04Z</time>
      </trkpt>
      <trkpt lat="46.30092" lon="6.78985">
        <ele>1108.3414</ele>
        <time>2014-08-28T16:53:09Z</time>
      </trkpt>
      <trkpt lat="46.30083" lon="6.78985">
        <ele>1105.5194</ele>
        <time>2014-08-28T16:53:14Z</time>
      </trkpt>
      <trkpt lat="46.30075" lon="6.78984">
        <ele>1105.5194</ele>
        <time>2014-08-28T16:53:19Z</time>
      </trkpt>
      <trkpt lat="46.30068" lon="6.78986">
        <ele>1103.062</ele>
        <time>2014-08-28T16:53:24Z</time>
      </trkpt>
      <trkpt lat="46.30061" lon="6.78986">
        <ele>1103.062</ele>
        <time>2014-08-28T16:53:29Z</time>
      </trkpt>
      <trkpt lat="46.30053" lon="6.78986">
        <ele>1100.888</ele>
        <time>2014-08-28T16:53:34Z</time>
      </trkpt>
      <trkpt lat="46.30046" lon="6.78989">
        <ele>1100.888</ele>
        <time>2014-08-28T16:53:39Z</time>
      </trkpt>
      <trkpt lat="46.30039" lon="6.78992">
        <ele>1098.921</ele>
        <time>2014-08-28T16:53:44Z</time>
      </trkpt>
      <trkpt lat="46.30033" lon="6.78991">
        <ele>1098.921</ele>
        <time>2014-08-28T16:53:49Z</time>
      </trkpt>
      <trkpt lat="46.30027" lon="6.78988">
        <ele>1097.1763</ele>
        <time>2014-08-28T16:53:54Z</time>
      </trkpt>
      <trkpt lat="46.30019" lon="6.78987">
        <ele>1097.1763</ele>
        <time>2014-08-28T16:53:59Z</time>
      </trkpt>
      <trkpt lat="46.30014" lon="6.78986">
        <ele>1095.5808</ele>
        <time>2014-08-28T16:54:04Z</time>
      </trkpt>
      <trkpt lat="46.30008" lon="6.78984">
        <ele>1095.5808</ele>
        <time>2014-08-28T16:54:09Z</time>
      </trkpt>
      <trkpt lat="46.3" lon="6.78987">
        <ele>1094.2102</ele>
        <time>2014-08-28T16:54:14Z</time>
      </trkpt>
      <trkpt lat="46.29993" lon="6.78988">
        <ele>1094.2102</ele>
        <time>2014-08-28T16:54:19Z</time>
      </trkpt>
      <trkpt lat="46.29988" lon="6.78988">
        <ele>1093.1196</ele>
        <time>2014-08-28T16:54:24Z</time>
      </trkpt>
      <trkpt lat="46.29981" lon="6.78989">
        <ele>1093.1196</ele>
        <time>2014-08-28T16:54:29Z</time>
      </trkpt>
      <trkpt lat="46.29977" lon="6.7899">
        <ele>1092.273</ele>
        <time>2014-08-28T16:54:34Z</time>
      </trkpt>
      <trkpt lat="46.29972" lon="6.78989">
        <ele>1092.273</ele>
        <time>2014-08-28T16:54:39Z</time>
      </trkpt>
      <trkpt lat="46.29965" lon="6.78992">
        <ele>1091.8229</ele>
        <time>2014-08-28T16:54:44Z</time>
      </trkpt>
      <trkpt lat="46.29957" lon="6.78989">
        <ele>1091.8229</ele>
        <time>2014-08-28T16:54:49Z</time>
      </trkpt>
      <trkpt lat="46.29953" lon="6.78986">
        <ele>1091.4923</ele>
        <time>2014-08-28T16:54:54Z</time>
      </trkpt>
      <trkpt lat="46.29949" lon="6.78985">
        <ele>1091.4923</ele>
        <time>2014-08-28T16:54:59Z</time>
      </trkpt>
      <trkpt lat="46.29944" lon="6.78984">
        <ele>1091.341</ele>
        <time>2014-08-28T16:55:04Z</time>
      </trkpt>
      <trkpt lat="46.29938" lon="6.7898">
        <ele>1091.341</ele>
        <time>2014-08-28T16:55:09Z</time>
      </trkpt>
      <trkpt lat="46.2993" lon="6.78976">
        <ele>1091.4521</ele>
        <time>2014-08-28T16:55:14Z</time>
      </trkpt>
      <trkpt lat="46.29927" lon="6.78974">
        <ele>1091.4521</ele>
        <time>2014-08-28T16:55:19Z</time>
      </trkpt>
      <trkpt lat="46.29925" lon="6.78975">
        <ele>1091.4521</ele>
        <time>2014-08-28T16:55:24Z</time>
      </trkpt>
      <trkpt lat="46.29922" lon="6.78975">
        <ele>1091.4521</ele>
        <time>2014-08-28T16:55:29Z</time>
      </trkpt>
      <trkpt lat="46.29918" lon="6.78974">
        <ele>1090.8074</ele>
        <time>2014-08-28T16:55:34Z</time>
      </trkpt>
      <trkpt lat="46.29911" lon="6.78972">
        <ele>1090.8074</ele>
        <time>2014-08-28T16:55:39Z</time>
      </trkpt>
      <trkpt lat="46.29908" lon="6.78968">
        <ele>1090.1224</ele>
        <time>2014-08-28T16:55:44Z</time>
      </trkpt>
      <trkpt lat="46.29899" lon="6.78962">
        <ele>1089.585</ele>
        <time>2014-08-28T16:55:49Z</time>
      </trkpt>
      <trkpt lat="46.29891" lon="6.78964">
        <ele>1089.585</ele>
        <time>2014-08-28T16:55:54Z</time>
      </trkpt>
      <trkpt lat="46.29884" lon="6.78964">
        <ele>1089.3683</ele>
        <time>2014-08-28T16:55:59Z</time>
      </trkpt>
      <trkpt lat="46.29874" lon="6.78959">
        <ele>1089.4304</ele>
        <time>2014-08-28T16:56:04Z</time>
      </trkpt>
      <trkpt lat="46.29869" lon="6.78953">
        <ele>1089.4304</ele>
        <time>2014-08-28T16:56:09Z</time>
      </trkpt>
      <trkpt lat="46.29862" lon="6.7895">
        <ele>1090.0203</ele>
        <time>2014-08-28T16:56:14Z</time>
      </trkpt>
      <trkpt lat="46.29856" lon="6.78951">
        <ele>1090.0203</ele>
        <time>2014-08-28T16:56:19Z</time>
      </trkpt>
      <trkpt lat="46.29853" lon="6.78952">
        <ele>1090.9918</ele>
        <time>2014-08-28T16:56:24Z</time>
      </trkpt>
      <trkpt lat="46.29849" lon="6.78953">
        <ele>1090.9918</ele>
        <time>2014-08-28T16:56:29Z</time>
      </trkpt>
      <trkpt lat="46.29846" lon="6.78953">
        <ele>1090.9918</ele>
        <time>2014-08-28T16:56:34Z</time>
      </trkpt>
      <trkpt lat="46.29844" lon="6.78956">
        <ele>1091.3156</ele>
        <time>2014-08-28T16:56:39Z</time>
      </trkpt>
      <trkpt lat="46.29843" lon="6.78955">
        <ele>1091.3156</ele>
        <time>2014-08-28T16:56:44Z</time>
      </trkpt>
      <trkpt lat="46.29836" lon="6.78954">
        <ele>1091.3156</ele>
        <time>2014-08-28T16:56:49Z</time>
      </trkpt>
      <trkpt lat="46.29829" lon="6.78954">
        <ele>1090.688</ele>
        <time>2014-08-28T16:56:54Z</time>
      </trkpt>
      <trkpt lat="46.29821" lon="6.78952">
        <ele>1090.688</ele>
        <time>2014-08-28T16:56:59Z</time>
      </trkpt>
      <trkpt lat="46.29817" lon="6.78948">
        <ele>1089.5369</ele>
        <time>2014-08-28T16:57:04Z</time>
      </trkpt>
      <trkpt lat="46.29813" lon="6.78948">
        <ele>1089.5369</ele>
        <time>2014-08-28T16:57:09Z</time>
      </trkpt>
      <trkpt lat="46.29806" lon="6.7895">
        <ele>1087.914</ele>
        <time>2014-08-28T16:57:14Z</time>
      </trkpt>
      <trkpt lat="46.298" lon="6.7895">
        <ele>1087.914</ele>
        <time>2014-08-28T16:57:19Z</time>
      </trkpt>
      <trkpt lat="46.29793" lon="6.78953">
        <ele>1085.9553</ele>
        <time>2014-08-28T16:57:24Z</time>
      </trkpt>
      <trkpt lat="46.29787" lon="6.78954">
        <ele>1085.9553</ele>
        <time>2014-08-28T16:57:29Z</time>
      </trkpt>
      <trkpt lat="46.29783" lon="6.78958">
        <ele>1083.86</ele>
        <time>2014-08-28T16:57:34Z</time>
      </trkpt>
      <trkpt lat="46.2978" lon="6.78962">
        <ele>1083.86</ele>
        <time>2014-08-28T16:57:39Z</time>
      </trkpt>
      <trkpt lat="46.29777" lon="6.78964">
        <ele>1083.86</ele>
        <time>2014-08-28T16:57:44Z</time>
      </trkpt>
      <trkpt lat="46.29771" lon="6.78969">
        <ele>1081.1211</ele>
        <time>2014-08-28T16:57:49Z</time>
      </trkpt>
      <trkpt lat="46.29764" lon="6.78974">
        <ele>1081.1211</ele>
        <time>2014-08-28T16:57:54Z</time>
      </trkpt>
      <trkpt lat="46.29756" lon="6.78975">
        <ele>1078.0492</ele>
        <time>2014-08-28T16:57:59Z</time>
      </trkpt>
      <trkpt lat="46.2975" lon="6.78972">
        <ele>1078.0492</ele>
        <time>2014-08-28T16:58:04Z</time>
      </trkpt>
      <trkpt lat="46.29744" lon="6.7897">
        <ele>1075.0192</ele>
        <time>2014-08-28T16:58:09Z</time>
      </trkpt>
      <trkpt lat="46.29738" lon="6.78968">
        <ele>1075.0192</ele>
        <time>2014-08-28T16:58:14Z</time>
      </trkpt>
      <trkpt lat="46.29736" lon="6.78967">
        <ele>1075.0192</ele>
        <time>2014-08-28T16:58:19Z</time>
      </trkpt>
      <trkpt lat="46.29731" lon="6.78961">
        <ele>1072.2057</ele>
        <time>2014-08-28T16:58:24Z</time>
      </trkpt>
      <trkpt lat="46.29728" lon="6.78958">
        <ele>1072.2057</ele>
        <time>2014-08-28T16:58:29Z</time>
      </trkpt>
      <trkpt lat="46.29722" lon="6.7895">
        <ele>1069.5104</ele>
        <time>2014-08-28T16:58:34Z</time>
      </trkpt>
      <trkpt lat="46.2972" lon="6.78947">
        <ele>1069.5104</ele>
        <time>2014-08-28T16:58:39Z</time>
      </trkpt>
      <trkpt lat="46.29718" lon="6.78946">
        <ele>1069.5104</ele>
        <time>2014-08-28T16:58:44Z</time>
      </trkpt>
      <trkpt lat="46.29718" lon="6.78945">
        <ele>1069.5104</ele>
        <time>2014-08-28T16:58:49Z</time>
      </trkpt>
      <trkpt lat="46.29714" lon="6.78938">
        <ele>1066.7266</ele>
        <time>2014-08-28T16:58:54Z</time>
      </trkpt>
      <trkpt lat="46.29712" lon="6.78926">
        <ele>1066.7266</ele>
        <time>2014-08-28T16:58:59Z</time>
      </trkpt>
      <trkpt lat="46.2971" lon="6.78916">
        <ele>1063.8645</ele>
        <time>2014-08-28T16:59:04Z</time>
      </trkpt>
      <trkpt lat="46.29707" lon="6.78907">
        <ele>1063.8645</ele>
        <time>2014-08-28T16:59:09Z</time>
      </trkpt>
      <trkpt lat="46.29705" lon="6.78897">
        <ele>1061.064</ele>
        <time>2014-08-28T16:59:14Z</time>
      </trkpt>
      <trkpt lat="46.29701" lon="6.7889">
        <ele>1061.064</ele>
        <time>2014-08-28T16:59:19Z</time>
      </trkpt>
      <trkpt lat="46.29693" lon="6.78883">
        <ele>1058.5404</ele>
        <time>2014-08-28T16:59:24Z</time>
      </trkpt>
      <trkpt lat="46.2969" lon="6.7888">
        <ele>1058.5404</ele>
        <time>2014-08-28T16:59:29Z</time>
      </trkpt>
      <trkpt lat="46.29689" lon="6.78878">
        <ele>1058.5404</ele>
        <time>2014-08-28T16:59:34Z</time>
      </trkpt>
      <trkpt lat="46.29686" lon="6.78874">
        <ele>1056.2911</ele>
        <time>2014-08-28T16:59:39Z</time>
      </trkpt>
      <trkpt lat="46.29681" lon="6.78866">
        <ele>1056.2911</ele>
        <time>2014-08-28T16:59:44Z</time>
      </trkpt>
      <trkpt lat="46.29677" lon="6.78863">
        <ele>1054.2693</ele>
        <time>2014-08-28T16:59:49Z</time>
      </trkpt>
      <trkpt lat="46.29667" lon="6.78861">
        <ele>1052.5175</ele>
        <time>2014-08-28T16:59:54Z</time>
      </trkpt>
      <trkpt lat="46.29658" lon="6.78851">
        <ele>1051.0598</ele>
        <time>2014-08-28T16:59:59Z</time>
      </trkpt>
      <trkpt lat="46.29652" lon="6.78841">
        <ele>1051.0598</ele>
        <time>2014-08-28T17:00:04Z</time>
      </trkpt>
      <trkpt lat="46.29648" lon="6.78832">
        <ele>1049.8892</ele>
        <time>2014-08-28T17:00:09Z</time>
      </trkpt>
      <trkpt lat="46.29641" lon="6.78823">
        <ele>1049.8892</ele>
        <time>2014-08-28T17:00:14Z</time>
      </trkpt>
      <trkpt lat="46.29639" lon="6.78817">
        <ele>1049.0265</ele>
        <time>2014-08-28T17:00:19Z</time>
      </trkpt>
      <trkpt lat="46.29637" lon="6.78813">
        <ele>1049.0265</ele>
        <time>2014-08-28T17:00:24Z</time>
      </trkpt>
      <trkpt lat="46.29637" lon="6.7881">
        <ele>1049.0265</ele>
        <time>2014-08-28T17:00:29Z</time>
      </trkpt>
      <trkpt lat="46.29636" lon="6.78807">
        <ele>1049.0265</ele>
        <time>2014-08-28T17:00:34Z</time>
      </trkpt>
      <trkpt lat="46.29634" lon="6.788">
        <ele>1047.5251</ele>
        <time>2014-08-28T17:00:39Z</time>
      </trkpt>
      <trkpt lat="46.29632" lon="6.78794">
        <ele>1047.5251</ele>
        <time>2014-08-28T17:00:44Z</time>
      </trkpt>
      <trkpt lat="46.29628" lon="6.78787">
        <ele>1045.5039</ele>
        <time>2014-08-28T17:00:49Z</time>
      </trkpt>
      <trkpt lat="46.29624" lon="6.78782">
        <ele>1045.5039</ele>
        <time>2014-08-28T17:00:54Z</time>
      </trkpt>
      <trkpt lat="46.29622" lon="6.78773">
        <ele>1043.1466</ele>
        <time>2014-08-28T17:00:59Z</time>
      </trkpt>
      <trkpt lat="46.2962" lon="6.7877">
        <ele>1043.1466</ele>
        <time>2014-08-28T17:01:04Z</time>
      </trkpt>
      <trkpt lat="46.29618" lon="6.78764">
        <ele>1043.1466</ele>
        <time>2014-08-28T17:01:09Z</time>
      </trkpt>
      <trkpt lat="46.29615" lon="6.78757">
        <ele>1040.2925</ele>
        <time>2014-08-28T17:01:14Z</time>
      </trkpt>
      <trkpt lat="46.2961" lon="6.78751">
        <ele>1040.2925</ele>
        <time>2014-08-28T17:01:19Z</time>
      </trkpt>
      <trkpt lat="46.29607" lon="6.78747">
        <ele>1037.3278</ele>
        <time>2014-08-28T17:01:24Z</time>
      </trkpt>
      <trkpt lat="46.29606" lon="6.7874">
        <ele>1037.3278</ele>
        <time>2014-08-28T17:01:29Z</time>
      </trkpt>
      <trkpt lat="46.29603" lon="6.78733">
        <ele>1034.2642</ele>
        <time>2014-08-28T17:01:34Z</time>
      </trkpt>
      <trkpt lat="46.29602" lon="6.78731">
        <ele>1034.2642</ele>
        <time>2014-08-28T17:01:39Z</time>
      </trkpt>
      <trkpt lat="46.29595" lon="6.78724">
        <ele>1031.0555</ele>
        <time>2014-08-28T17:01:44Z</time>
      </trkpt>
      <trkpt lat="46.29593" lon="6.78721">
        <ele>1031.0555</ele>
        <time>2014-08-28T17:01:49Z</time>
      </trkpt>
      <trkpt lat="46.29591" lon="6.78717">
        <ele>1031.0555</ele>
        <time>2014-08-28T17:01:54Z</time>
      </trkpt>
      <trkpt lat="46.29586" lon="6.78712">
        <ele>1027.3567</ele>
        <time>2014-08-28T17:01:59Z</time>
      </trkpt>
      <trkpt lat="46.29585" lon="6.78712">
        <ele>1027.3567</ele>
        <time>2014-08-28T17:02:04Z</time>
      </trkpt>
      <trkpt lat="46.29584" lon="6.78711">
        <ele>1027.3567</ele>
        <time>2014-08-28T17:02:09Z</time>
      </trkpt>
      <trkpt lat="46.29578" lon="6.78701">
        <ele>1023.55505</ele>
        <time>2014-08-28T17:02:14Z</time>
      </trkpt>
      <trkpt lat="46.29577" lon="6.787">
        <ele>1023.55505</ele>
        <time>2014-08-28T17:02:19Z</time>
      </trkpt>
      <trkpt lat="46.2958" lon="6.78696">
        <ele>1023.55505</ele>
        <time>2014-08-28T17:02:24Z</time>
      </trkpt>
      <trkpt lat="46.29585" lon="6.78691">
        <ele>1020.2839</ele>
        <time>2014-08-28T17:02:29Z</time>
      </trkpt>
      <trkpt lat="46.29585" lon="6.78688">
        <ele>1020.2839</ele>
        <time>2014-08-28T17:02:34Z</time>
      </trkpt>
      <trkpt lat="46.29584" lon="6.78686">
        <ele>1020.2839</ele>
        <time>2014-08-28T17:02:39Z</time>
      </trkpt>
      <trkpt lat="46.29583" lon="6.78684">
        <ele>1020.2839</ele>
        <time>2014-08-28T17:02:44Z</time>
      </trkpt>
      <trkpt lat="46.29583" lon="6.78683">
        <ele>1020.2839</ele>
        <time>2014-08-28T17:02:49Z</time>
      </trkpt>
      <trkpt lat="46.29582" lon="6.78685">
        <ele>1020.2839</ele>
        <time>2014-08-28T17:02:59Z</time>
      </trkpt>
      <trkpt lat="46.29578" lon="6.78683">
        <ele>1018.0417</ele>
        <time>2014-08-28T17:03:04Z</time>
      </trkpt>
      <trkpt lat="46.29577" lon="6.78682">
        <ele>1018.0417</ele>
        <time>2014-08-28T17:03:09Z</time>
      </trkpt>
      <trkpt lat="46.29576" lon="6.78678">
        <ele>1018.0417</ele>
        <time>2014-08-28T17:03:14Z</time>
      </trkpt>
      <trkpt lat="46.29574" lon="6.78666">
        <ele>1016.24994</ele>
        <time>2014-08-28T17:03:19Z</time>
      </trkpt>
      <trkpt lat="46.2957" lon="6.78657">
        <ele>1016.24994</ele>
        <time>2014-08-28T17:03:24Z</time>
      </trkpt>
      <trkpt lat="46.29568" lon="6.78648">
        <ele>1014.90436</ele>
        <time>2014-08-28T17:03:29Z</time>
      </trkpt>
      <trkpt lat="46.29572" lon="6.78646">
        <ele>1014.90436</ele>
        <time>2014-08-28T17:03:34Z</time>
      </trkpt>
      <trkpt lat="46.29575" lon="6.78645">
        <ele>1014.90436</ele>
        <time>2014-08-28T17:03:39Z</time>
      </trkpt>
      <trkpt lat="46.29575" lon="6.78645">
        <ele>1014.90436</ele>
        <time>2014-08-28T17:03:44Z</time>
      </trkpt>
      <trkpt lat="46.29577" lon="6.78645">
        <ele>1014.90436</ele>
        <time>2014-08-28T17:03:49Z</time>
      </trkpt>
      <trkpt lat="46.29577" lon="6.78645">
        <ele>1014.90436</ele>
        <time>2014-08-28T17:03:54Z</time>
      </trkpt>
      <trkpt lat="46.29579" lon="6.78644">
        <ele>1014.014</ele>
        <time>2014-08-28T17:04:09Z</time>
      </trkpt>
      <trkpt lat="46.29581" lon="6.78644">
        <ele>1014.014</ele>
        <time>2014-08-28T17:04:09Z</time>
      </trkpt>
      <trkpt lat="46.29581" lon="6.78646">
        <ele>1014.014</ele>
        <time>2014-08-28T17:04:09Z</time>
      </trkpt>
    </trkseg>
  </trk>
</gpx>